<?xml version="1.0" encoding="UTF-8" standalone="no" ?>
<gpx xmlns="http://www.topografix.com/GPX/1/1" xmlns:xsi="http://www.w3.org/2001/XMLSchema-instance" xsi:schemaLocation="http://www.topografix.com/GPX/1/1 http://www.topografix.com/GPX/1/1/gpx.xsd" version="1.1" creator="VisuGPX - https://www.visugpx.com">
  <metadata>
    <name>GTA-VTT - Jour 6</name>
    <desc><![CDATA[La 6ieme étape de la GTA (Grenoble-Nice) réalisée en 10j, juillet 2010.]]></desc>
  </metadata>
  <trk>
    <name><![CDATA[GTA VTT - Jour 6]]></name>
    <trkseg>
      <trkpt lat="44.41597" lon="5.86687">
        <ele>858</ele>
        <time>2010-07-18T07:10:06Z</time>
      </trkpt>
      <trkpt lat="44.41592" lon="5.86648">
        <ele>862</ele>
        <time>2010-07-18T07:10:23Z</time>
      </trkpt>
      <trkpt lat="44.41584" lon="5.86622">
        <ele>862</ele>
        <time>2010-07-18T07:10:30Z</time>
      </trkpt>
      <trkpt lat="44.41562" lon="5.86584">
        <ele>860</ele>
        <time>2010-07-18T07:10:38Z</time>
      </trkpt>
      <trkpt lat="44.41528" lon="5.86587">
        <ele>859</ele>
        <time>2010-07-18T07:10:45Z</time>
      </trkpt>
      <trkpt lat="44.41496" lon="5.86597">
        <ele>859</ele>
        <time>2010-07-18T07:10:53Z</time>
      </trkpt>
      <trkpt lat="44.41474" lon="5.86595">
        <ele>859</ele>
        <time>2010-07-18T07:11:00Z</time>
      </trkpt>
      <trkpt lat="44.41448" lon="5.86588">
        <ele>857</ele>
        <time>2010-07-18T07:11:08Z</time>
      </trkpt>
      <trkpt lat="44.41428" lon="5.86587">
        <ele>853</ele>
        <time>2010-07-18T07:11:15Z</time>
      </trkpt>
      <trkpt lat="44.41413" lon="5.86581">
        <ele>851</ele>
        <time>2010-07-18T07:11:23Z</time>
      </trkpt>
      <trkpt lat="44.41405" lon="5.86557">
        <ele>851</ele>
        <time>2010-07-18T07:11:30Z</time>
      </trkpt>
      <trkpt lat="44.41414" lon="5.86504">
        <ele>849</ele>
        <time>2010-07-18T07:11:38Z</time>
      </trkpt>
      <trkpt lat="44.4144" lon="5.86442">
        <ele>844</ele>
        <time>2010-07-18T07:11:45Z</time>
      </trkpt>
      <trkpt lat="44.41455" lon="5.86356">
        <ele>839</ele>
        <time>2010-07-18T07:11:53Z</time>
      </trkpt>
      <trkpt lat="44.41466" lon="5.8629">
        <ele>835</ele>
        <time>2010-07-18T07:12:00Z</time>
      </trkpt>
      <trkpt lat="44.41484" lon="5.86262">
        <ele>835</ele>
        <time>2010-07-18T07:12:08Z</time>
      </trkpt>
      <trkpt lat="44.41497" lon="5.86247">
        <ele>835</ele>
        <time>2010-07-18T07:12:15Z</time>
      </trkpt>
      <trkpt lat="44.41507" lon="5.8624">
        <ele>835</ele>
        <time>2010-07-18T07:12:23Z</time>
      </trkpt>
      <trkpt lat="44.4152" lon="5.86236">
        <ele>837</ele>
        <time>2010-07-18T07:12:31Z</time>
      </trkpt>
      <trkpt lat="44.41518" lon="5.86233">
        <ele>843</ele>
        <time>2010-07-18T07:12:43Z</time>
      </trkpt>
      <trkpt lat="44.41494" lon="5.86257">
        <ele>845</ele>
        <time>2010-07-18T07:12:55Z</time>
      </trkpt>
      <trkpt lat="44.41477" lon="5.86269">
        <ele>845</ele>
        <time>2010-07-18T07:13:03Z</time>
      </trkpt>
      <trkpt lat="44.41464" lon="5.86297">
        <ele>842</ele>
        <time>2010-07-18T07:13:11Z</time>
      </trkpt>
      <trkpt lat="44.41454" lon="5.86323">
        <ele>838</ele>
        <time>2010-07-18T07:13:19Z</time>
      </trkpt>
      <trkpt lat="44.41438" lon="5.86322">
        <ele>837</ele>
        <time>2010-07-18T07:13:27Z</time>
      </trkpt>
      <trkpt lat="44.41413" lon="5.86333">
        <ele>834</ele>
        <time>2010-07-18T07:13:34Z</time>
      </trkpt>
      <trkpt lat="44.41398" lon="5.86352">
        <ele>831</ele>
        <time>2010-07-18T07:13:41Z</time>
      </trkpt>
      <trkpt lat="44.41367" lon="5.86368">
        <ele>829</ele>
        <time>2010-07-18T07:13:48Z</time>
      </trkpt>
      <trkpt lat="44.41355" lon="5.86369">
        <ele>827</ele>
        <time>2010-07-18T07:13:55Z</time>
      </trkpt>
      <trkpt lat="44.41336" lon="5.86376">
        <ele>825</ele>
        <time>2010-07-18T07:14:03Z</time>
      </trkpt>
      <trkpt lat="44.41325" lon="5.86372">
        <ele>825</ele>
        <time>2010-07-18T07:14:11Z</time>
      </trkpt>
      <trkpt lat="44.41316" lon="5.86365">
        <ele>825</ele>
        <time>2010-07-18T07:14:18Z</time>
      </trkpt>
      <trkpt lat="44.41307" lon="5.86349">
        <ele>825</ele>
        <time>2010-07-18T07:14:26Z</time>
      </trkpt>
      <trkpt lat="44.41296" lon="5.86326">
        <ele>825</ele>
        <time>2010-07-18T07:14:34Z</time>
      </trkpt>
      <trkpt lat="44.41276" lon="5.86314">
        <ele>826</ele>
        <time>2010-07-18T07:14:41Z</time>
      </trkpt>
      <trkpt lat="44.41266" lon="5.86295">
        <ele>825</ele>
        <time>2010-07-18T07:14:48Z</time>
      </trkpt>
      <trkpt lat="44.41249" lon="5.86272">
        <ele>826</ele>
        <time>2010-07-18T07:14:55Z</time>
      </trkpt>
      <trkpt lat="44.41232" lon="5.86267">
        <ele>828</ele>
        <time>2010-07-18T07:15:03Z</time>
      </trkpt>
      <trkpt lat="44.41216" lon="5.86249">
        <ele>829</ele>
        <time>2010-07-18T07:15:10Z</time>
      </trkpt>
      <trkpt lat="44.41205" lon="5.86226">
        <ele>829</ele>
        <time>2010-07-18T07:15:18Z</time>
      </trkpt>
      <trkpt lat="44.41193" lon="5.86217">
        <ele>829</ele>
        <time>2010-07-18T07:15:25Z</time>
      </trkpt>
      <trkpt lat="44.41185" lon="5.86206">
        <ele>828</ele>
        <time>2010-07-18T07:15:33Z</time>
      </trkpt>
      <trkpt lat="44.41179" lon="5.86191">
        <ele>828</ele>
        <time>2010-07-18T07:15:40Z</time>
      </trkpt>
      <trkpt lat="44.41171" lon="5.86173">
        <ele>828</ele>
        <time>2010-07-18T07:15:48Z</time>
      </trkpt>
      <trkpt lat="44.41161" lon="5.86149">
        <ele>833</ele>
        <time>2010-07-18T07:15:55Z</time>
      </trkpt>
      <trkpt lat="44.41147" lon="5.86134">
        <ele>835</ele>
        <time>2010-07-18T07:16:03Z</time>
      </trkpt>
      <trkpt lat="44.4113" lon="5.8611">
        <ele>835</ele>
        <time>2010-07-18T07:16:10Z</time>
      </trkpt>
      <trkpt lat="44.41112" lon="5.86069">
        <ele>835</ele>
        <time>2010-07-18T07:16:18Z</time>
      </trkpt>
      <trkpt lat="44.41093" lon="5.86053">
        <ele>833</ele>
        <time>2010-07-18T07:16:25Z</time>
      </trkpt>
      <trkpt lat="44.41064" lon="5.8601">
        <ele>828</ele>
        <time>2010-07-18T07:16:33Z</time>
      </trkpt>
      <trkpt lat="44.41059" lon="5.85968">
        <ele>828</ele>
        <time>2010-07-18T07:16:40Z</time>
      </trkpt>
      <trkpt lat="44.41065" lon="5.85931">
        <ele>824</ele>
        <time>2010-07-18T07:16:48Z</time>
      </trkpt>
      <trkpt lat="44.41084" lon="5.85893">
        <ele>820</ele>
        <time>2010-07-18T07:16:55Z</time>
      </trkpt>
      <trkpt lat="44.41104" lon="5.85876">
        <ele>818</ele>
        <time>2010-07-18T07:17:04Z</time>
      </trkpt>
      <trkpt lat="44.41099" lon="5.85867">
        <ele>816</ele>
        <time>2010-07-18T07:17:11Z</time>
      </trkpt>
      <trkpt lat="44.41095" lon="5.85864">
        <ele>815</ele>
        <time>2010-07-18T07:17:19Z</time>
      </trkpt>
      <trkpt lat="44.41094" lon="5.85858">
        <ele>819</ele>
        <time>2010-07-18T07:17:27Z</time>
      </trkpt>
      <trkpt lat="44.41096" lon="5.85855">
        <ele>820</ele>
        <time>2010-07-18T07:17:34Z</time>
      </trkpt>
      <trkpt lat="44.41093" lon="5.85857">
        <ele>820</ele>
        <time>2010-07-18T07:17:43Z</time>
      </trkpt>
      <trkpt lat="44.4109" lon="5.85846">
        <ele>820</ele>
        <time>2010-07-18T07:17:51Z</time>
      </trkpt>
      <trkpt lat="44.41092" lon="5.85832">
        <ele>822</ele>
        <time>2010-07-18T07:17:58Z</time>
      </trkpt>
      <trkpt lat="44.41095" lon="5.85822">
        <ele>823</ele>
        <time>2010-07-18T07:18:05Z</time>
      </trkpt>
      <trkpt lat="44.41104" lon="5.85807">
        <ele>824</ele>
        <time>2010-07-18T07:18:13Z</time>
      </trkpt>
      <trkpt lat="44.4111" lon="5.85799">
        <ele>825</ele>
        <time>2010-07-18T07:18:20Z</time>
      </trkpt>
      <trkpt lat="44.4112" lon="5.85791">
        <ele>828</ele>
        <time>2010-07-18T07:18:28Z</time>
      </trkpt>
      <trkpt lat="44.41128" lon="5.85782">
        <ele>831</ele>
        <time>2010-07-18T07:18:35Z</time>
      </trkpt>
      <trkpt lat="44.41137" lon="5.85774">
        <ele>831</ele>
        <time>2010-07-18T07:18:43Z</time>
      </trkpt>
      <trkpt lat="44.41142" lon="5.85759">
        <ele>834</ele>
        <time>2010-07-18T07:18:50Z</time>
      </trkpt>
      <trkpt lat="44.41147" lon="5.85748">
        <ele>834</ele>
        <time>2010-07-18T07:18:58Z</time>
      </trkpt>
      <trkpt lat="44.41155" lon="5.85738">
        <ele>834</ele>
        <time>2010-07-18T07:19:05Z</time>
      </trkpt>
      <trkpt lat="44.41155" lon="5.85721">
        <ele>834</ele>
        <time>2010-07-18T07:19:13Z</time>
      </trkpt>
      <trkpt lat="44.41152" lon="5.857">
        <ele>836</ele>
        <time>2010-07-18T07:19:20Z</time>
      </trkpt>
      <trkpt lat="44.41146" lon="5.85681">
        <ele>836</ele>
        <time>2010-07-18T07:19:28Z</time>
      </trkpt>
      <trkpt lat="44.41142" lon="5.85674">
        <ele>835</ele>
        <time>2010-07-18T07:19:35Z</time>
      </trkpt>
      <trkpt lat="44.41137" lon="5.8566">
        <ele>834</ele>
        <time>2010-07-18T07:19:43Z</time>
      </trkpt>
      <trkpt lat="44.41137" lon="5.85644">
        <ele>833</ele>
        <time>2010-07-18T07:19:50Z</time>
      </trkpt>
      <trkpt lat="44.41138" lon="5.85629">
        <ele>836</ele>
        <time>2010-07-18T07:19:58Z</time>
      </trkpt>
      <trkpt lat="44.41141" lon="5.85618">
        <ele>837</ele>
        <time>2010-07-18T07:20:05Z</time>
      </trkpt>
      <trkpt lat="44.4115" lon="5.85605">
        <ele>841</ele>
        <time>2010-07-18T07:20:13Z</time>
      </trkpt>
      <trkpt lat="44.41159" lon="5.85596">
        <ele>844</ele>
        <time>2010-07-18T07:20:21Z</time>
      </trkpt>
      <trkpt lat="44.41169" lon="5.85587">
        <ele>845</ele>
        <time>2010-07-18T07:20:28Z</time>
      </trkpt>
      <trkpt lat="44.41183" lon="5.85575">
        <ele>846</ele>
        <time>2010-07-18T07:20:35Z</time>
      </trkpt>
      <trkpt lat="44.41193" lon="5.85543">
        <ele>846</ele>
        <time>2010-07-18T07:20:43Z</time>
      </trkpt>
      <trkpt lat="44.41199" lon="5.85521">
        <ele>845</ele>
        <time>2010-07-18T07:20:50Z</time>
      </trkpt>
      <trkpt lat="44.41209" lon="5.85508">
        <ele>843</ele>
        <time>2010-07-18T07:20:58Z</time>
      </trkpt>
      <trkpt lat="44.41216" lon="5.85496">
        <ele>843</ele>
        <time>2010-07-18T07:21:05Z</time>
      </trkpt>
      <trkpt lat="44.41225" lon="5.85481">
        <ele>843</ele>
        <time>2010-07-18T07:21:13Z</time>
      </trkpt>
      <trkpt lat="44.4123" lon="5.85466">
        <ele>845</ele>
        <time>2010-07-18T07:21:20Z</time>
      </trkpt>
      <trkpt lat="44.41234" lon="5.85447">
        <ele>847</ele>
        <time>2010-07-18T07:21:28Z</time>
      </trkpt>
      <trkpt lat="44.41251" lon="5.8544">
        <ele>847</ele>
        <time>2010-07-18T07:21:35Z</time>
      </trkpt>
      <trkpt lat="44.41251" lon="5.85425">
        <ele>847</ele>
        <time>2010-07-18T07:21:43Z</time>
      </trkpt>
      <trkpt lat="44.41243" lon="5.85397">
        <ele>848</ele>
        <time>2010-07-18T07:21:50Z</time>
      </trkpt>
      <trkpt lat="44.41235" lon="5.85373">
        <ele>848</ele>
        <time>2010-07-18T07:21:58Z</time>
      </trkpt>
      <trkpt lat="44.41235" lon="5.85349">
        <ele>855</ele>
        <time>2010-07-18T07:22:05Z</time>
      </trkpt>
      <trkpt lat="44.4124" lon="5.8532">
        <ele>858</ele>
        <time>2010-07-18T07:22:13Z</time>
      </trkpt>
      <trkpt lat="44.41257" lon="5.85285">
        <ele>859</ele>
        <time>2010-07-18T07:22:20Z</time>
      </trkpt>
      <trkpt lat="44.41246" lon="5.85272">
        <ele>862</ele>
        <time>2010-07-18T07:22:28Z</time>
      </trkpt>
      <trkpt lat="44.41236" lon="5.85258">
        <ele>861</ele>
        <time>2010-07-18T07:22:35Z</time>
      </trkpt>
      <trkpt lat="44.41219" lon="5.85254">
        <ele>854</ele>
        <time>2010-07-18T07:22:43Z</time>
      </trkpt>
      <trkpt lat="44.41218" lon="5.85254">
        <ele>854</ele>
        <time>2010-07-18T07:22:57Z</time>
      </trkpt>
      <trkpt lat="44.41217" lon="5.85251">
        <ele>854</ele>
        <time>2010-07-18T07:23:05Z</time>
      </trkpt>
      <trkpt lat="44.41208" lon="5.85245">
        <ele>854</ele>
        <time>2010-07-18T07:23:14Z</time>
      </trkpt>
      <trkpt lat="44.41207" lon="5.85236">
        <ele>854</ele>
        <time>2010-07-18T07:23:21Z</time>
      </trkpt>
      <trkpt lat="44.41212" lon="5.85228">
        <ele>860</ele>
        <time>2010-07-18T07:23:30Z</time>
      </trkpt>
      <trkpt lat="44.41211" lon="5.85217">
        <ele>861</ele>
        <time>2010-07-18T07:23:38Z</time>
      </trkpt>
      <trkpt lat="44.41204" lon="5.85212">
        <ele>860</ele>
        <time>2010-07-18T07:23:45Z</time>
      </trkpt>
      <trkpt lat="44.41204" lon="5.85206">
        <ele>856</ele>
        <time>2010-07-18T07:23:55Z</time>
      </trkpt>
      <trkpt lat="44.41198" lon="5.85191">
        <ele>855</ele>
        <time>2010-07-18T07:24:03Z</time>
      </trkpt>
      <trkpt lat="44.4118" lon="5.85168">
        <ele>854</ele>
        <time>2010-07-18T07:24:10Z</time>
      </trkpt>
      <trkpt lat="44.41148" lon="5.85142">
        <ele>854</ele>
        <time>2010-07-18T07:24:18Z</time>
      </trkpt>
      <trkpt lat="44.41137" lon="5.85109">
        <ele>851</ele>
        <time>2010-07-18T07:24:26Z</time>
      </trkpt>
      <trkpt lat="44.41135" lon="5.85095">
        <ele>849</ele>
        <time>2010-07-18T07:24:33Z</time>
      </trkpt>
      <trkpt lat="44.41141" lon="5.85061">
        <ele>848</ele>
        <time>2010-07-18T07:24:40Z</time>
      </trkpt>
      <trkpt lat="44.41167" lon="5.85066">
        <ele>848</ele>
        <time>2010-07-18T07:24:47Z</time>
      </trkpt>
      <trkpt lat="44.41175" lon="5.85054">
        <ele>847</ele>
        <time>2010-07-18T07:24:54Z</time>
      </trkpt>
      <trkpt lat="44.41165" lon="5.85037">
        <ele>845</ele>
        <time>2010-07-18T07:25:01Z</time>
      </trkpt>
      <trkpt lat="44.41143" lon="5.85012">
        <ele>845</ele>
        <time>2010-07-18T07:25:08Z</time>
      </trkpt>
      <trkpt lat="44.4112" lon="5.8499">
        <ele>845</ele>
        <time>2010-07-18T07:25:15Z</time>
      </trkpt>
      <trkpt lat="44.41099" lon="5.84969">
        <ele>843</ele>
        <time>2010-07-18T07:25:23Z</time>
      </trkpt>
      <trkpt lat="44.41091" lon="5.84963">
        <ele>843</ele>
        <time>2010-07-18T07:25:30Z</time>
      </trkpt>
      <trkpt lat="44.41074" lon="5.8495">
        <ele>845</ele>
        <time>2010-07-18T07:25:38Z</time>
      </trkpt>
      <trkpt lat="44.41057" lon="5.84927">
        <ele>845</ele>
        <time>2010-07-18T07:25:45Z</time>
      </trkpt>
      <trkpt lat="44.41046" lon="5.8493">
        <ele>852</ele>
        <time>2010-07-18T07:25:52Z</time>
      </trkpt>
      <trkpt lat="44.41034" lon="5.84926">
        <ele>860</ele>
        <time>2010-07-18T07:26:00Z</time>
      </trkpt>
      <trkpt lat="44.41026" lon="5.84927">
        <ele>867</ele>
        <time>2010-07-18T07:26:08Z</time>
      </trkpt>
      <trkpt lat="44.41016" lon="5.84927">
        <ele>873</ele>
        <time>2010-07-18T07:26:15Z</time>
      </trkpt>
      <trkpt lat="44.41" lon="5.84924">
        <ele>874</ele>
        <time>2010-07-18T07:26:23Z</time>
      </trkpt>
      <trkpt lat="44.40988" lon="5.84924">
        <ele>874</ele>
        <time>2010-07-18T07:26:30Z</time>
      </trkpt>
      <trkpt lat="44.40977" lon="5.84922">
        <ele>874</ele>
        <time>2010-07-18T07:26:37Z</time>
      </trkpt>
      <trkpt lat="44.40967" lon="5.84918">
        <ele>872</ele>
        <time>2010-07-18T07:26:44Z</time>
      </trkpt>
      <trkpt lat="44.40957" lon="5.84913">
        <ele>870</ele>
        <time>2010-07-18T07:26:51Z</time>
      </trkpt>
      <trkpt lat="44.40948" lon="5.84907">
        <ele>869</ele>
        <time>2010-07-18T07:26:58Z</time>
      </trkpt>
      <trkpt lat="44.4094" lon="5.84904">
        <ele>868</ele>
        <time>2010-07-18T07:27:05Z</time>
      </trkpt>
      <trkpt lat="44.40931" lon="5.84898">
        <ele>868</ele>
        <time>2010-07-18T07:27:12Z</time>
      </trkpt>
      <trkpt lat="44.40921" lon="5.8489">
        <ele>868</ele>
        <time>2010-07-18T07:27:19Z</time>
      </trkpt>
      <trkpt lat="44.40913" lon="5.84886">
        <ele>868</ele>
        <time>2010-07-18T07:27:26Z</time>
      </trkpt>
      <trkpt lat="44.40905" lon="5.84879">
        <ele>868</ele>
        <time>2010-07-18T07:27:34Z</time>
      </trkpt>
      <trkpt lat="44.40895" lon="5.84868">
        <ele>868</ele>
        <time>2010-07-18T07:27:41Z</time>
      </trkpt>
      <trkpt lat="44.40888" lon="5.84858">
        <ele>868</ele>
        <time>2010-07-18T07:27:48Z</time>
      </trkpt>
      <trkpt lat="44.40879" lon="5.84846">
        <ele>871</ele>
        <time>2010-07-18T07:27:56Z</time>
      </trkpt>
      <trkpt lat="44.40879" lon="5.84832">
        <ele>871</ele>
        <time>2010-07-18T07:28:03Z</time>
      </trkpt>
      <trkpt lat="44.4088" lon="5.84818">
        <ele>871</ele>
        <time>2010-07-18T07:28:10Z</time>
      </trkpt>
      <trkpt lat="44.40882" lon="5.84802">
        <ele>873</ele>
        <time>2010-07-18T07:28:19Z</time>
      </trkpt>
      <trkpt lat="44.40887" lon="5.84791">
        <ele>878</ele>
        <time>2010-07-18T07:28:26Z</time>
      </trkpt>
      <trkpt lat="44.40886" lon="5.8478">
        <ele>882</ele>
        <time>2010-07-18T07:28:33Z</time>
      </trkpt>
      <trkpt lat="44.40888" lon="5.84761">
        <ele>882</ele>
        <time>2010-07-18T07:28:40Z</time>
      </trkpt>
      <trkpt lat="44.40891" lon="5.84746">
        <ele>882</ele>
        <time>2010-07-18T07:28:47Z</time>
      </trkpt>
      <trkpt lat="44.4089" lon="5.84732">
        <ele>882</ele>
        <time>2010-07-18T07:28:54Z</time>
      </trkpt>
      <trkpt lat="44.40885" lon="5.84714">
        <ele>882</ele>
        <time>2010-07-18T07:29:01Z</time>
      </trkpt>
      <trkpt lat="44.40884" lon="5.84697">
        <ele>882</ele>
        <time>2010-07-18T07:29:08Z</time>
      </trkpt>
      <trkpt lat="44.40881" lon="5.8468">
        <ele>885</ele>
        <time>2010-07-18T07:29:15Z</time>
      </trkpt>
      <trkpt lat="44.40878" lon="5.84664">
        <ele>885</ele>
        <time>2010-07-18T07:29:22Z</time>
      </trkpt>
      <trkpt lat="44.40873" lon="5.84649">
        <ele>888</ele>
        <time>2010-07-18T07:29:29Z</time>
      </trkpt>
      <trkpt lat="44.40867" lon="5.84632">
        <ele>890</ele>
        <time>2010-07-18T07:29:36Z</time>
      </trkpt>
      <trkpt lat="44.40862" lon="5.84613">
        <ele>891</ele>
        <time>2010-07-18T07:29:43Z</time>
      </trkpt>
      <trkpt lat="44.4087" lon="5.84594">
        <ele>891</ele>
        <time>2010-07-18T07:29:50Z</time>
      </trkpt>
      <trkpt lat="44.40887" lon="5.84574">
        <ele>891</ele>
        <time>2010-07-18T07:29:57Z</time>
      </trkpt>
      <trkpt lat="44.40914" lon="5.84541">
        <ele>891</ele>
        <time>2010-07-18T07:30:04Z</time>
      </trkpt>
      <trkpt lat="44.40942" lon="5.84512">
        <ele>891</ele>
        <time>2010-07-18T07:30:11Z</time>
      </trkpt>
      <trkpt lat="44.40981" lon="5.84473">
        <ele>890</ele>
        <time>2010-07-18T07:30:18Z</time>
      </trkpt>
      <trkpt lat="44.40996" lon="5.84441">
        <ele>885</ele>
        <time>2010-07-18T07:30:25Z</time>
      </trkpt>
      <trkpt lat="44.40987" lon="5.84432">
        <ele>883</ele>
        <time>2010-07-18T07:30:32Z</time>
      </trkpt>
      <trkpt lat="44.40981" lon="5.84419">
        <ele>882</ele>
        <time>2010-07-18T07:30:39Z</time>
      </trkpt>
      <trkpt lat="44.40976" lon="5.84408">
        <ele>881</ele>
        <time>2010-07-18T07:30:46Z</time>
      </trkpt>
      <trkpt lat="44.40975" lon="5.84389">
        <ele>883</ele>
        <time>2010-07-18T07:30:53Z</time>
      </trkpt>
      <trkpt lat="44.40967" lon="5.84375">
        <ele>890</ele>
        <time>2010-07-18T07:31:00Z</time>
      </trkpt>
      <trkpt lat="44.40959" lon="5.84363">
        <ele>895</ele>
        <time>2010-07-18T07:31:07Z</time>
      </trkpt>
      <trkpt lat="44.40948" lon="5.84353">
        <ele>895</ele>
        <time>2010-07-18T07:31:14Z</time>
      </trkpt>
      <trkpt lat="44.4094" lon="5.84344">
        <ele>891</ele>
        <time>2010-07-18T07:31:21Z</time>
      </trkpt>
      <trkpt lat="44.40925" lon="5.84337">
        <ele>889</ele>
        <time>2010-07-18T07:31:28Z</time>
      </trkpt>
      <trkpt lat="44.40896" lon="5.84334">
        <ele>885</ele>
        <time>2010-07-18T07:31:35Z</time>
      </trkpt>
      <trkpt lat="44.40873" lon="5.84326">
        <ele>884</ele>
        <time>2010-07-18T07:31:42Z</time>
      </trkpt>
      <trkpt lat="44.40856" lon="5.84317">
        <ele>884</ele>
        <time>2010-07-18T07:31:49Z</time>
      </trkpt>
      <trkpt lat="44.4085" lon="5.84311">
        <ele>884</ele>
        <time>2010-07-18T07:31:58Z</time>
      </trkpt>
      <trkpt lat="44.40843" lon="5.84305">
        <ele>884</ele>
        <time>2010-07-18T07:32:06Z</time>
      </trkpt>
      <trkpt lat="44.40837" lon="5.84295">
        <ele>884</ele>
        <time>2010-07-18T07:32:14Z</time>
      </trkpt>
      <trkpt lat="44.40833" lon="5.84289">
        <ele>886</ele>
        <time>2010-07-18T07:32:22Z</time>
      </trkpt>
      <trkpt lat="44.40825" lon="5.84282">
        <ele>888</ele>
        <time>2010-07-18T07:32:30Z</time>
      </trkpt>
      <trkpt lat="44.40819" lon="5.84275">
        <ele>888</ele>
        <time>2010-07-18T07:32:37Z</time>
      </trkpt>
      <trkpt lat="44.40815" lon="5.84268">
        <ele>890</ele>
        <time>2010-07-18T07:32:45Z</time>
      </trkpt>
      <trkpt lat="44.40811" lon="5.8426">
        <ele>894</ele>
        <time>2010-07-18T07:32:55Z</time>
      </trkpt>
      <trkpt lat="44.40808" lon="5.84249">
        <ele>896</ele>
        <time>2010-07-18T07:33:03Z</time>
      </trkpt>
      <trkpt lat="44.40807" lon="5.84241">
        <ele>896</ele>
        <time>2010-07-18T07:33:10Z</time>
      </trkpt>
      <trkpt lat="44.40801" lon="5.84233">
        <ele>896</ele>
        <time>2010-07-18T07:33:17Z</time>
      </trkpt>
      <trkpt lat="44.40797" lon="5.8423">
        <ele>896</ele>
        <time>2010-07-18T07:33:24Z</time>
      </trkpt>
      <trkpt lat="44.40786" lon="5.84227">
        <ele>897</ele>
        <time>2010-07-18T07:33:31Z</time>
      </trkpt>
      <trkpt lat="44.40779" lon="5.8423">
        <ele>897</ele>
        <time>2010-07-18T07:33:38Z</time>
      </trkpt>
      <trkpt lat="44.40778" lon="5.84232">
        <ele>899</ele>
        <time>2010-07-18T07:33:48Z</time>
      </trkpt>
      <trkpt lat="44.40776" lon="5.84235">
        <ele>900</ele>
        <time>2010-07-18T07:33:56Z</time>
      </trkpt>
      <trkpt lat="44.4077" lon="5.84241">
        <ele>900</ele>
        <time>2010-07-18T07:34:05Z</time>
      </trkpt>
      <trkpt lat="44.40767" lon="5.84238">
        <ele>900</ele>
        <time>2010-07-18T07:34:14Z</time>
      </trkpt>
      <trkpt lat="44.4076" lon="5.84236">
        <ele>900</ele>
        <time>2010-07-18T07:34:22Z</time>
      </trkpt>
      <trkpt lat="44.40754" lon="5.84235">
        <ele>900</ele>
        <time>2010-07-18T07:34:31Z</time>
      </trkpt>
      <trkpt lat="44.40747" lon="5.84234">
        <ele>900</ele>
        <time>2010-07-18T07:34:40Z</time>
      </trkpt>
      <trkpt lat="44.40742" lon="5.84234">
        <ele>900</ele>
        <time>2010-07-18T07:34:55Z</time>
      </trkpt>
      <trkpt lat="44.40737" lon="5.84236">
        <ele>900</ele>
        <time>2010-07-18T07:35:03Z</time>
      </trkpt>
      <trkpt lat="44.40729" lon="5.84236">
        <ele>902</ele>
        <time>2010-07-18T07:35:10Z</time>
      </trkpt>
      <trkpt lat="44.40719" lon="5.84236">
        <ele>902</ele>
        <time>2010-07-18T07:35:18Z</time>
      </trkpt>
      <trkpt lat="44.40712" lon="5.8424">
        <ele>902</ele>
        <time>2010-07-18T07:35:26Z</time>
      </trkpt>
      <trkpt lat="44.40702" lon="5.84248">
        <ele>902</ele>
        <time>2010-07-18T07:35:38Z</time>
      </trkpt>
      <trkpt lat="44.40698" lon="5.8425">
        <ele>904</ele>
        <time>2010-07-18T07:35:45Z</time>
      </trkpt>
      <trkpt lat="44.40694" lon="5.84249">
        <ele>906</ele>
        <time>2010-07-18T07:35:52Z</time>
      </trkpt>
      <trkpt lat="44.40693" lon="5.84246">
        <ele>909</ele>
        <time>2010-07-18T07:36:00Z</time>
      </trkpt>
      <trkpt lat="44.40689" lon="5.8424">
        <ele>912</ele>
        <time>2010-07-18T07:36:07Z</time>
      </trkpt>
      <trkpt lat="44.40687" lon="5.84233">
        <ele>916</ele>
        <time>2010-07-18T07:36:16Z</time>
      </trkpt>
      <trkpt lat="44.40679" lon="5.84235">
        <ele>919</ele>
        <time>2010-07-18T07:36:25Z</time>
      </trkpt>
      <trkpt lat="44.4067" lon="5.84236">
        <ele>919</ele>
        <time>2010-07-18T07:36:33Z</time>
      </trkpt>
      <trkpt lat="44.40665" lon="5.84238">
        <ele>919</ele>
        <time>2010-07-18T07:36:40Z</time>
      </trkpt>
      <trkpt lat="44.40661" lon="5.84241">
        <ele>919</ele>
        <time>2010-07-18T07:36:47Z</time>
      </trkpt>
      <trkpt lat="44.40655" lon="5.84239">
        <ele>920</ele>
        <time>2010-07-18T07:36:56Z</time>
      </trkpt>
      <trkpt lat="44.40652" lon="5.84234">
        <ele>921</ele>
        <time>2010-07-18T07:37:03Z</time>
      </trkpt>
      <trkpt lat="44.40652" lon="5.84232">
        <ele>922</ele>
        <time>2010-07-18T07:37:13Z</time>
      </trkpt>
      <trkpt lat="44.4064" lon="5.84229">
        <ele>923</ele>
        <time>2010-07-18T07:37:21Z</time>
      </trkpt>
      <trkpt lat="44.40631" lon="5.84226">
        <ele>923</ele>
        <time>2010-07-18T07:37:28Z</time>
      </trkpt>
      <trkpt lat="44.40625" lon="5.84226">
        <ele>923</ele>
        <time>2010-07-18T07:37:35Z</time>
      </trkpt>
      <trkpt lat="44.40618" lon="5.84228">
        <ele>926</ele>
        <time>2010-07-18T07:37:42Z</time>
      </trkpt>
      <trkpt lat="44.40607" lon="5.84228">
        <ele>930</ele>
        <time>2010-07-18T07:37:50Z</time>
      </trkpt>
      <trkpt lat="44.40597" lon="5.84225">
        <ele>930</ele>
        <time>2010-07-18T07:37:58Z</time>
      </trkpt>
      <trkpt lat="44.40601" lon="5.84222">
        <ele>930</ele>
        <time>2010-07-18T07:38:07Z</time>
      </trkpt>
      <trkpt lat="44.40599" lon="5.84222">
        <ele>930</ele>
        <time>2010-07-18T07:38:15Z</time>
      </trkpt>
      <trkpt lat="44.40601" lon="5.84219">
        <ele>930</ele>
        <time>2010-07-18T07:38:23Z</time>
      </trkpt>
      <trkpt lat="44.40609" lon="5.84211">
        <ele>930</ele>
        <time>2010-07-18T07:38:31Z</time>
      </trkpt>
      <trkpt lat="44.40641" lon="5.84176">
        <ele>930</ele>
        <time>2010-07-18T07:38:39Z</time>
      </trkpt>
      <trkpt lat="44.40662" lon="5.84145">
        <ele>930</ele>
        <time>2010-07-18T07:38:46Z</time>
      </trkpt>
      <trkpt lat="44.40681" lon="5.84117">
        <ele>930</ele>
        <time>2010-07-18T07:38:53Z</time>
      </trkpt>
      <trkpt lat="44.40707" lon="5.84086">
        <ele>930</ele>
        <time>2010-07-18T07:39:00Z</time>
      </trkpt>
      <trkpt lat="44.40747" lon="5.84068">
        <ele>930</ele>
        <time>2010-07-18T07:39:07Z</time>
      </trkpt>
      <trkpt lat="44.40792" lon="5.84056">
        <ele>929</ele>
        <time>2010-07-18T07:39:14Z</time>
      </trkpt>
      <trkpt lat="44.40831" lon="5.84048">
        <ele>929</ele>
        <time>2010-07-18T07:39:21Z</time>
      </trkpt>
      <trkpt lat="44.40868" lon="5.84038">
        <ele>929</ele>
        <time>2010-07-18T07:39:28Z</time>
      </trkpt>
      <trkpt lat="44.40903" lon="5.84031">
        <ele>929</ele>
        <time>2010-07-18T07:39:35Z</time>
      </trkpt>
      <trkpt lat="44.40938" lon="5.84023">
        <ele>929</ele>
        <time>2010-07-18T07:39:42Z</time>
      </trkpt>
      <trkpt lat="44.40974" lon="5.83998">
        <ele>929</ele>
        <time>2010-07-18T07:39:49Z</time>
      </trkpt>
      <trkpt lat="44.41058" lon="5.83957">
        <ele>929</ele>
        <time>2010-07-18T07:39:59Z</time>
      </trkpt>
      <trkpt lat="44.41123" lon="5.83921">
        <ele>923</ele>
        <time>2010-07-18T07:40:06Z</time>
      </trkpt>
      <trkpt lat="44.41208" lon="5.8392">
        <ele>917</ele>
        <time>2010-07-18T07:40:13Z</time>
      </trkpt>
      <trkpt lat="44.41283" lon="5.83877">
        <ele>907</ele>
        <time>2010-07-18T07:40:22Z</time>
      </trkpt>
      <trkpt lat="44.41328" lon="5.83781">
        <ele>895</ele>
        <time>2010-07-18T07:40:30Z</time>
      </trkpt>
      <trkpt lat="44.41331" lon="5.83679">
        <ele>885</ele>
        <time>2010-07-18T07:40:38Z</time>
      </trkpt>
      <trkpt lat="44.41364" lon="5.83588">
        <ele>875</ele>
        <time>2010-07-18T07:40:45Z</time>
      </trkpt>
      <trkpt lat="44.41418" lon="5.83513">
        <ele>863</ele>
        <time>2010-07-18T07:40:52Z</time>
      </trkpt>
      <trkpt lat="44.415" lon="5.83508">
        <ele>856</ele>
        <time>2010-07-18T07:41:00Z</time>
      </trkpt>
      <trkpt lat="44.41561" lon="5.8352">
        <ele>849</ele>
        <time>2010-07-18T07:41:07Z</time>
      </trkpt>
      <trkpt lat="44.41531" lon="5.83442">
        <ele>846</ele>
        <time>2010-07-18T07:41:14Z</time>
      </trkpt>
      <trkpt lat="44.41507" lon="5.83367">
        <ele>845</ele>
        <time>2010-07-18T07:41:21Z</time>
      </trkpt>
      <trkpt lat="44.41476" lon="5.83302">
        <ele>841</ele>
        <time>2010-07-18T07:41:28Z</time>
      </trkpt>
      <trkpt lat="44.41481" lon="5.83214">
        <ele>835</ele>
        <time>2010-07-18T07:41:35Z</time>
      </trkpt>
      <trkpt lat="44.41524" lon="5.83139">
        <ele>830</ele>
        <time>2010-07-18T07:41:42Z</time>
      </trkpt>
      <trkpt lat="44.41577" lon="5.83056">
        <ele>825</ele>
        <time>2010-07-18T07:41:50Z</time>
      </trkpt>
      <trkpt lat="44.41558" lon="5.8296">
        <ele>822</ele>
        <time>2010-07-18T07:41:58Z</time>
      </trkpt>
      <trkpt lat="44.41542" lon="5.82881">
        <ele>819</ele>
        <time>2010-07-18T07:42:06Z</time>
      </trkpt>
      <trkpt lat="44.41529" lon="5.8281">
        <ele>817</ele>
        <time>2010-07-18T07:42:13Z</time>
      </trkpt>
      <trkpt lat="44.41514" lon="5.82734">
        <ele>815</ele>
        <time>2010-07-18T07:42:20Z</time>
      </trkpt>
      <trkpt lat="44.41499" lon="5.82656">
        <ele>812</ele>
        <time>2010-07-18T07:42:27Z</time>
      </trkpt>
      <trkpt lat="44.41483" lon="5.82573">
        <ele>809</ele>
        <time>2010-07-18T07:42:34Z</time>
      </trkpt>
      <trkpt lat="44.41464" lon="5.82466">
        <ele>803</ele>
        <time>2010-07-18T07:42:41Z</time>
      </trkpt>
      <trkpt lat="44.41449" lon="5.82375">
        <ele>801</ele>
        <time>2010-07-18T07:42:49Z</time>
      </trkpt>
      <trkpt lat="44.41431" lon="5.82298">
        <ele>801</ele>
        <time>2010-07-18T07:42:56Z</time>
      </trkpt>
      <trkpt lat="44.41402" lon="5.82238">
        <ele>801</ele>
        <time>2010-07-18T07:43:03Z</time>
      </trkpt>
      <trkpt lat="44.41368" lon="5.82176">
        <ele>799</ele>
        <time>2010-07-18T07:43:10Z</time>
      </trkpt>
      <trkpt lat="44.41335" lon="5.82111">
        <ele>795</ele>
        <time>2010-07-18T07:43:17Z</time>
      </trkpt>
      <trkpt lat="44.41302" lon="5.82048">
        <ele>791</ele>
        <time>2010-07-18T07:43:24Z</time>
      </trkpt>
      <trkpt lat="44.41269" lon="5.81979">
        <ele>787</ele>
        <time>2010-07-18T07:43:31Z</time>
      </trkpt>
      <trkpt lat="44.41273" lon="5.81889">
        <ele>783</ele>
        <time>2010-07-18T07:43:38Z</time>
      </trkpt>
      <trkpt lat="44.41288" lon="5.81798">
        <ele>781</ele>
        <time>2010-07-18T07:43:45Z</time>
      </trkpt>
      <trkpt lat="44.41311" lon="5.81714">
        <ele>778</ele>
        <time>2010-07-18T07:43:52Z</time>
      </trkpt>
      <trkpt lat="44.41335" lon="5.81632">
        <ele>775</ele>
        <time>2010-07-18T07:43:59Z</time>
      </trkpt>
      <trkpt lat="44.41358" lon="5.81554">
        <ele>772</ele>
        <time>2010-07-18T07:44:06Z</time>
      </trkpt>
      <trkpt lat="44.41359" lon="5.81507">
        <ele>771</ele>
        <time>2010-07-18T07:44:13Z</time>
      </trkpt>
      <trkpt lat="44.41328" lon="5.81502">
        <ele>770</ele>
        <time>2010-07-18T07:44:20Z</time>
      </trkpt>
      <trkpt lat="44.41302" lon="5.81496">
        <ele>767</ele>
        <time>2010-07-18T07:44:27Z</time>
      </trkpt>
      <trkpt lat="44.4128" lon="5.81494">
        <ele>765</ele>
        <time>2010-07-18T07:44:34Z</time>
      </trkpt>
      <trkpt lat="44.4127" lon="5.81509">
        <ele>765</ele>
        <time>2010-07-18T07:44:41Z</time>
      </trkpt>
      <trkpt lat="44.41269" lon="5.81518">
        <ele>764</ele>
        <time>2010-07-18T07:44:48Z</time>
      </trkpt>
      <trkpt lat="44.41272" lon="5.81518">
        <ele>764</ele>
        <time>2010-07-18T07:44:57Z</time>
      </trkpt>
      <trkpt lat="44.41268" lon="5.81486">
        <ele>764</ele>
        <time>2010-07-18T07:45:04Z</time>
      </trkpt>
      <trkpt lat="44.41241" lon="5.81487">
        <ele>764</ele>
        <time>2010-07-18T07:45:12Z</time>
      </trkpt>
      <trkpt lat="44.41224" lon="5.81477">
        <ele>762</ele>
        <time>2010-07-18T07:45:19Z</time>
      </trkpt>
      <trkpt lat="44.4121" lon="5.81466">
        <ele>762</ele>
        <time>2010-07-18T07:45:27Z</time>
      </trkpt>
      <trkpt lat="44.41192" lon="5.8145">
        <ele>762</ele>
        <time>2010-07-18T07:45:34Z</time>
      </trkpt>
      <trkpt lat="44.41172" lon="5.81426">
        <ele>762</ele>
        <time>2010-07-18T07:45:41Z</time>
      </trkpt>
      <trkpt lat="44.41159" lon="5.81431">
        <ele>762</ele>
        <time>2010-07-18T07:45:49Z</time>
      </trkpt>
      <trkpt lat="44.41154" lon="5.81435">
        <ele>762</ele>
        <time>2010-07-18T07:45:58Z</time>
      </trkpt>
      <trkpt lat="44.4115" lon="5.81447">
        <ele>762</ele>
        <time>2010-07-18T07:46:09Z</time>
      </trkpt>
      <trkpt lat="44.41152" lon="5.81448">
        <ele>761</ele>
        <time>2010-07-18T07:46:18Z</time>
      </trkpt>
      <trkpt lat="44.41153" lon="5.81448">
        <ele>760</ele>
        <time>2010-07-18T07:46:27Z</time>
      </trkpt>
      <trkpt lat="44.41153" lon="5.81451">
        <ele>760</ele>
        <time>2010-07-18T07:46:35Z</time>
      </trkpt>
      <trkpt lat="44.41153" lon="5.81455">
        <ele>760</ele>
        <time>2010-07-18T07:46:45Z</time>
      </trkpt>
      <trkpt lat="44.41154" lon="5.81455">
        <ele>760</ele>
        <time>2010-07-18T07:46:54Z</time>
      </trkpt>
      <trkpt lat="44.41156" lon="5.81457">
        <ele>753</ele>
        <time>2010-07-18T07:47:03Z</time>
      </trkpt>
      <trkpt lat="44.41155" lon="5.81454">
        <ele>752</ele>
        <time>2010-07-18T07:47:12Z</time>
      </trkpt>
      <trkpt lat="44.41151" lon="5.81457">
        <ele>752</ele>
        <time>2010-07-18T07:47:20Z</time>
      </trkpt>
      <trkpt lat="44.41146" lon="5.81468">
        <ele>752</ele>
        <time>2010-07-18T07:47:27Z</time>
      </trkpt>
      <trkpt lat="44.41142" lon="5.81483">
        <ele>752</ele>
        <time>2010-07-18T07:47:34Z</time>
      </trkpt>
      <trkpt lat="44.41138" lon="5.81499">
        <ele>752</ele>
        <time>2010-07-18T07:47:41Z</time>
      </trkpt>
      <trkpt lat="44.41133" lon="5.81511">
        <ele>757</ele>
        <time>2010-07-18T07:47:48Z</time>
      </trkpt>
      <trkpt lat="44.41128" lon="5.81523">
        <ele>759</ele>
        <time>2010-07-18T07:47:55Z</time>
      </trkpt>
      <trkpt lat="44.4112" lon="5.81532">
        <ele>759</ele>
        <time>2010-07-18T07:48:02Z</time>
      </trkpt>
      <trkpt lat="44.41112" lon="5.81529">
        <ele>759</ele>
        <time>2010-07-18T07:48:09Z</time>
      </trkpt>
      <trkpt lat="44.41086" lon="5.81511">
        <ele>758</ele>
        <time>2010-07-18T07:48:16Z</time>
      </trkpt>
      <trkpt lat="44.41064" lon="5.81498">
        <ele>758</ele>
        <time>2010-07-18T07:48:23Z</time>
      </trkpt>
      <trkpt lat="44.41056" lon="5.81497">
        <ele>758</ele>
        <time>2010-07-18T07:48:30Z</time>
      </trkpt>
      <trkpt lat="44.41047" lon="5.81496">
        <ele>758</ele>
        <time>2010-07-18T07:48:37Z</time>
      </trkpt>
      <trkpt lat="44.41039" lon="5.81495">
        <ele>758</ele>
        <time>2010-07-18T07:48:45Z</time>
      </trkpt>
      <trkpt lat="44.41032" lon="5.81495">
        <ele>758</ele>
        <time>2010-07-18T07:48:52Z</time>
      </trkpt>
      <trkpt lat="44.41024" lon="5.81498">
        <ele>758</ele>
        <time>2010-07-18T07:48:59Z</time>
      </trkpt>
      <trkpt lat="44.41014" lon="5.81499">
        <ele>758</ele>
        <time>2010-07-18T07:49:07Z</time>
      </trkpt>
      <trkpt lat="44.41006" lon="5.81504">
        <ele>760</ele>
        <time>2010-07-18T07:49:14Z</time>
      </trkpt>
      <trkpt lat="44.41" lon="5.81512">
        <ele>763</ele>
        <time>2010-07-18T07:49:21Z</time>
      </trkpt>
      <trkpt lat="44.40993" lon="5.81523">
        <ele>766</ele>
        <time>2010-07-18T07:49:28Z</time>
      </trkpt>
      <trkpt lat="44.40984" lon="5.81531">
        <ele>769</ele>
        <time>2010-07-18T07:49:35Z</time>
      </trkpt>
      <trkpt lat="44.40976" lon="5.8154">
        <ele>772</ele>
        <time>2010-07-18T07:49:42Z</time>
      </trkpt>
      <trkpt lat="44.40968" lon="5.81547">
        <ele>774</ele>
        <time>2010-07-18T07:49:50Z</time>
      </trkpt>
      <trkpt lat="44.40962" lon="5.81553">
        <ele>775</ele>
        <time>2010-07-18T07:49:57Z</time>
      </trkpt>
      <trkpt lat="44.40952" lon="5.81557">
        <ele>775</ele>
        <time>2010-07-18T07:50:04Z</time>
      </trkpt>
      <trkpt lat="44.40943" lon="5.8156">
        <ele>775</ele>
        <time>2010-07-18T07:50:11Z</time>
      </trkpt>
      <trkpt lat="44.40932" lon="5.81561">
        <ele>776</ele>
        <time>2010-07-18T07:50:18Z</time>
      </trkpt>
      <trkpt lat="44.40923" lon="5.81563">
        <ele>776</ele>
        <time>2010-07-18T07:50:26Z</time>
      </trkpt>
      <trkpt lat="44.40914" lon="5.81566">
        <ele>776</ele>
        <time>2010-07-18T07:50:34Z</time>
      </trkpt>
      <trkpt lat="44.40906" lon="5.81567">
        <ele>778</ele>
        <time>2010-07-18T07:50:41Z</time>
      </trkpt>
      <trkpt lat="44.40896" lon="5.81566">
        <ele>780</ele>
        <time>2010-07-18T07:50:48Z</time>
      </trkpt>
      <trkpt lat="44.40884" lon="5.81572">
        <ele>780</ele>
        <time>2010-07-18T07:50:55Z</time>
      </trkpt>
      <trkpt lat="44.40874" lon="5.8158">
        <ele>780</ele>
        <time>2010-07-18T07:51:02Z</time>
      </trkpt>
      <trkpt lat="44.40865" lon="5.81585">
        <ele>782</ele>
        <time>2010-07-18T07:51:09Z</time>
      </trkpt>
      <trkpt lat="44.40858" lon="5.81577">
        <ele>785</ele>
        <time>2010-07-18T07:51:16Z</time>
      </trkpt>
      <trkpt lat="44.40857" lon="5.81565">
        <ele>788</ele>
        <time>2010-07-18T07:51:23Z</time>
      </trkpt>
      <trkpt lat="44.40862" lon="5.81552">
        <ele>791</ele>
        <time>2010-07-18T07:51:30Z</time>
      </trkpt>
      <trkpt lat="44.40868" lon="5.81538">
        <ele>794</ele>
        <time>2010-07-18T07:51:37Z</time>
      </trkpt>
      <trkpt lat="44.40878" lon="5.81527">
        <ele>796</ele>
        <time>2010-07-18T07:51:44Z</time>
      </trkpt>
      <trkpt lat="44.40888" lon="5.81518">
        <ele>798</ele>
        <time>2010-07-18T07:51:51Z</time>
      </trkpt>
      <trkpt lat="44.409" lon="5.81509">
        <ele>800</ele>
        <time>2010-07-18T07:51:58Z</time>
      </trkpt>
      <trkpt lat="44.40909" lon="5.81497">
        <ele>800</ele>
        <time>2010-07-18T07:52:05Z</time>
      </trkpt>
      <trkpt lat="44.40911" lon="5.81482">
        <ele>800</ele>
        <time>2010-07-18T07:52:12Z</time>
      </trkpt>
      <trkpt lat="44.40902" lon="5.81471">
        <ele>800</ele>
        <time>2010-07-18T07:52:19Z</time>
      </trkpt>
      <trkpt lat="44.40892" lon="5.81464">
        <ele>800</ele>
        <time>2010-07-18T07:52:26Z</time>
      </trkpt>
      <trkpt lat="44.40882" lon="5.8146">
        <ele>800</ele>
        <time>2010-07-18T07:52:33Z</time>
      </trkpt>
      <trkpt lat="44.40874" lon="5.81465">
        <ele>800</ele>
        <time>2010-07-18T07:52:40Z</time>
      </trkpt>
      <trkpt lat="44.40868" lon="5.81476">
        <ele>800</ele>
        <time>2010-07-18T07:52:47Z</time>
      </trkpt>
      <trkpt lat="44.4086" lon="5.81485">
        <ele>800</ele>
        <time>2010-07-18T07:52:54Z</time>
      </trkpt>
      <trkpt lat="44.4085" lon="5.81483">
        <ele>801</ele>
        <time>2010-07-18T07:53:01Z</time>
      </trkpt>
      <trkpt lat="44.40841" lon="5.81478">
        <ele>802</ele>
        <time>2010-07-18T07:53:08Z</time>
      </trkpt>
      <trkpt lat="44.40831" lon="5.81483">
        <ele>803</ele>
        <time>2010-07-18T07:53:15Z</time>
      </trkpt>
      <trkpt lat="44.40821" lon="5.81489">
        <ele>804</ele>
        <time>2010-07-18T07:53:22Z</time>
      </trkpt>
      <trkpt lat="44.4081" lon="5.81499">
        <ele>805</ele>
        <time>2010-07-18T07:53:29Z</time>
      </trkpt>
      <trkpt lat="44.40799" lon="5.81511">
        <ele>805</ele>
        <time>2010-07-18T07:53:36Z</time>
      </trkpt>
      <trkpt lat="44.40791" lon="5.81521">
        <ele>805</ele>
        <time>2010-07-18T07:53:43Z</time>
      </trkpt>
      <trkpt lat="44.40783" lon="5.81532">
        <ele>807</ele>
        <time>2010-07-18T07:53:50Z</time>
      </trkpt>
      <trkpt lat="44.40778" lon="5.81544">
        <ele>809</ele>
        <time>2010-07-18T07:53:57Z</time>
      </trkpt>
      <trkpt lat="44.40772" lon="5.81556">
        <ele>811</ele>
        <time>2010-07-18T07:54:04Z</time>
      </trkpt>
      <trkpt lat="44.40765" lon="5.81568">
        <ele>813</ele>
        <time>2010-07-18T07:54:11Z</time>
      </trkpt>
      <trkpt lat="44.40756" lon="5.81576">
        <ele>816</ele>
        <time>2010-07-18T07:54:18Z</time>
      </trkpt>
      <trkpt lat="44.40747" lon="5.81586">
        <ele>818</ele>
        <time>2010-07-18T07:54:26Z</time>
      </trkpt>
      <trkpt lat="44.40739" lon="5.81594">
        <ele>818</ele>
        <time>2010-07-18T07:54:33Z</time>
      </trkpt>
      <trkpt lat="44.40729" lon="5.81601">
        <ele>819</ele>
        <time>2010-07-18T07:54:40Z</time>
      </trkpt>
      <trkpt lat="44.40718" lon="5.81605">
        <ele>821</ele>
        <time>2010-07-18T07:54:48Z</time>
      </trkpt>
      <trkpt lat="44.40709" lon="5.81607">
        <ele>824</ele>
        <time>2010-07-18T07:54:55Z</time>
      </trkpt>
      <trkpt lat="44.40696" lon="5.81609">
        <ele>826</ele>
        <time>2010-07-18T07:55:02Z</time>
      </trkpt>
      <trkpt lat="44.40689" lon="5.81612">
        <ele>826</ele>
        <time>2010-07-18T07:55:10Z</time>
      </trkpt>
      <trkpt lat="44.40678" lon="5.81613">
        <ele>828</ele>
        <time>2010-07-18T07:55:17Z</time>
      </trkpt>
      <trkpt lat="44.40669" lon="5.81618">
        <ele>830</ele>
        <time>2010-07-18T07:55:24Z</time>
      </trkpt>
      <trkpt lat="44.40658" lon="5.81623">
        <ele>831</ele>
        <time>2010-07-18T07:55:31Z</time>
      </trkpt>
      <trkpt lat="44.40647" lon="5.81625">
        <ele>831</ele>
        <time>2010-07-18T07:55:38Z</time>
      </trkpt>
      <trkpt lat="44.40637" lon="5.81623">
        <ele>831</ele>
        <time>2010-07-18T07:55:45Z</time>
      </trkpt>
      <trkpt lat="44.40627" lon="5.81622">
        <ele>834</ele>
        <time>2010-07-18T07:55:52Z</time>
      </trkpt>
      <trkpt lat="44.40615" lon="5.81617">
        <ele>837</ele>
        <time>2010-07-18T07:55:59Z</time>
      </trkpt>
      <trkpt lat="44.40607" lon="5.81616">
        <ele>839</ele>
        <time>2010-07-18T07:56:06Z</time>
      </trkpt>
      <trkpt lat="44.40595" lon="5.81622">
        <ele>841</ele>
        <time>2010-07-18T07:56:13Z</time>
      </trkpt>
      <trkpt lat="44.40586" lon="5.81632">
        <ele>841</ele>
        <time>2010-07-18T07:56:20Z</time>
      </trkpt>
      <trkpt lat="44.40575" lon="5.8164">
        <ele>842</ele>
        <time>2010-07-18T07:56:29Z</time>
      </trkpt>
      <trkpt lat="44.40566" lon="5.81647">
        <ele>842</ele>
        <time>2010-07-18T07:56:36Z</time>
      </trkpt>
      <trkpt lat="44.40557" lon="5.81656">
        <ele>842</ele>
        <time>2010-07-18T07:56:44Z</time>
      </trkpt>
      <trkpt lat="44.40546" lon="5.81664">
        <ele>842</ele>
        <time>2010-07-18T07:56:52Z</time>
      </trkpt>
      <trkpt lat="44.40539" lon="5.81675">
        <ele>842</ele>
        <time>2010-07-18T07:57:00Z</time>
      </trkpt>
      <trkpt lat="44.40532" lon="5.81685">
        <ele>844</ele>
        <time>2010-07-18T07:57:08Z</time>
      </trkpt>
      <trkpt lat="44.40522" lon="5.81691">
        <ele>846</ele>
        <time>2010-07-18T07:57:16Z</time>
      </trkpt>
      <trkpt lat="44.40514" lon="5.81696">
        <ele>848</ele>
        <time>2010-07-18T07:57:23Z</time>
      </trkpt>
      <trkpt lat="44.40505" lon="5.817">
        <ele>850</ele>
        <time>2010-07-18T07:57:30Z</time>
      </trkpt>
      <trkpt lat="44.405" lon="5.8171">
        <ele>852</ele>
        <time>2010-07-18T07:57:38Z</time>
      </trkpt>
      <trkpt lat="44.40491" lon="5.81718">
        <ele>854</ele>
        <time>2010-07-18T07:57:45Z</time>
      </trkpt>
      <trkpt lat="44.4048" lon="5.81729">
        <ele>854</ele>
        <time>2010-07-18T07:57:53Z</time>
      </trkpt>
      <trkpt lat="44.40473" lon="5.81737">
        <ele>854</ele>
        <time>2010-07-18T07:58:02Z</time>
      </trkpt>
      <trkpt lat="44.40462" lon="5.81743">
        <ele>855</ele>
        <time>2010-07-18T07:58:10Z</time>
      </trkpt>
      <trkpt lat="44.40451" lon="5.81751">
        <ele>856</ele>
        <time>2010-07-18T07:58:18Z</time>
      </trkpt>
      <trkpt lat="44.40442" lon="5.81757">
        <ele>859</ele>
        <time>2010-07-18T07:58:25Z</time>
      </trkpt>
      <trkpt lat="44.40432" lon="5.81763">
        <ele>862</ele>
        <time>2010-07-18T07:58:32Z</time>
      </trkpt>
      <trkpt lat="44.40419" lon="5.8177">
        <ele>863</ele>
        <time>2010-07-18T07:58:39Z</time>
      </trkpt>
      <trkpt lat="44.40404" lon="5.81776">
        <ele>864</ele>
        <time>2010-07-18T07:58:46Z</time>
      </trkpt>
      <trkpt lat="44.4039" lon="5.81783">
        <ele>864</ele>
        <time>2010-07-18T07:58:53Z</time>
      </trkpt>
      <trkpt lat="44.40373" lon="5.81789">
        <ele>865</ele>
        <time>2010-07-18T07:59:00Z</time>
      </trkpt>
      <trkpt lat="44.40353" lon="5.81803">
        <ele>864</ele>
        <time>2010-07-18T07:59:07Z</time>
      </trkpt>
      <trkpt lat="44.40331" lon="5.81814">
        <ele>858</ele>
        <time>2010-07-18T07:59:15Z</time>
      </trkpt>
      <trkpt lat="44.40305" lon="5.8182">
        <ele>853</ele>
        <time>2010-07-18T07:59:22Z</time>
      </trkpt>
      <trkpt lat="44.40296" lon="5.81848">
        <ele>851</ele>
        <time>2010-07-18T07:59:30Z</time>
      </trkpt>
      <trkpt lat="44.40284" lon="5.81868">
        <ele>857</ele>
        <time>2010-07-18T07:59:37Z</time>
      </trkpt>
      <trkpt lat="44.40274" lon="5.81887">
        <ele>865</ele>
        <time>2010-07-18T07:59:45Z</time>
      </trkpt>
      <trkpt lat="44.40266" lon="5.81898">
        <ele>868</ele>
        <time>2010-07-18T07:59:52Z</time>
      </trkpt>
      <trkpt lat="44.40254" lon="5.81902">
        <ele>869</ele>
        <time>2010-07-18T08:00:00Z</time>
      </trkpt>
      <trkpt lat="44.40245" lon="5.81902">
        <ele>869</ele>
        <time>2010-07-18T08:00:08Z</time>
      </trkpt>
      <trkpt lat="44.40235" lon="5.81909">
        <ele>869</ele>
        <time>2010-07-18T08:00:15Z</time>
      </trkpt>
      <trkpt lat="44.40222" lon="5.81913">
        <ele>874</ele>
        <time>2010-07-18T08:00:22Z</time>
      </trkpt>
      <trkpt lat="44.40214" lon="5.81916">
        <ele>876</ele>
        <time>2010-07-18T08:00:30Z</time>
      </trkpt>
      <trkpt lat="44.40206" lon="5.81922">
        <ele>879</ele>
        <time>2010-07-18T08:00:38Z</time>
      </trkpt>
      <trkpt lat="44.40201" lon="5.81931">
        <ele>881</ele>
        <time>2010-07-18T08:00:45Z</time>
      </trkpt>
      <trkpt lat="44.40194" lon="5.81939">
        <ele>881</ele>
        <time>2010-07-18T08:00:52Z</time>
      </trkpt>
      <trkpt lat="44.40187" lon="5.81955">
        <ele>883</ele>
        <time>2010-07-18T08:01:00Z</time>
      </trkpt>
      <trkpt lat="44.40178" lon="5.8197">
        <ele>886</ele>
        <time>2010-07-18T08:01:07Z</time>
      </trkpt>
      <trkpt lat="44.40163" lon="5.81982">
        <ele>884</ele>
        <time>2010-07-18T08:01:15Z</time>
      </trkpt>
      <trkpt lat="44.40161" lon="5.81988">
        <ele>880</ele>
        <time>2010-07-18T08:01:22Z</time>
      </trkpt>
      <trkpt lat="44.40168" lon="5.82009">
        <ele>880</ele>
        <time>2010-07-18T08:01:30Z</time>
      </trkpt>
      <trkpt lat="44.40167" lon="5.82028">
        <ele>881</ele>
        <time>2010-07-18T08:01:37Z</time>
      </trkpt>
      <trkpt lat="44.40166" lon="5.82044">
        <ele>882</ele>
        <time>2010-07-18T08:01:45Z</time>
      </trkpt>
      <trkpt lat="44.40161" lon="5.82054">
        <ele>886</ele>
        <time>2010-07-18T08:01:52Z</time>
      </trkpt>
      <trkpt lat="44.40154" lon="5.82064">
        <ele>886</ele>
        <time>2010-07-18T08:02:00Z</time>
      </trkpt>
      <trkpt lat="44.40146" lon="5.82072">
        <ele>886</ele>
        <time>2010-07-18T08:02:08Z</time>
      </trkpt>
      <trkpt lat="44.40141" lon="5.82084">
        <ele>886</ele>
        <time>2010-07-18T08:02:15Z</time>
      </trkpt>
      <trkpt lat="44.40133" lon="5.82091">
        <ele>890</ele>
        <time>2010-07-18T08:02:23Z</time>
      </trkpt>
      <trkpt lat="44.40129" lon="5.82081">
        <ele>894</ele>
        <time>2010-07-18T08:02:30Z</time>
      </trkpt>
      <trkpt lat="44.40137" lon="5.8207">
        <ele>899</ele>
        <time>2010-07-18T08:02:38Z</time>
      </trkpt>
      <trkpt lat="44.40136" lon="5.82054">
        <ele>900</ele>
        <time>2010-07-18T08:02:45Z</time>
      </trkpt>
      <trkpt lat="44.40136" lon="5.82035">
        <ele>900</ele>
        <time>2010-07-18T08:02:52Z</time>
      </trkpt>
      <trkpt lat="44.40132" lon="5.8202">
        <ele>900</ele>
        <time>2010-07-18T08:03:00Z</time>
      </trkpt>
      <trkpt lat="44.40126" lon="5.82029">
        <ele>900</ele>
        <time>2010-07-18T08:03:07Z</time>
      </trkpt>
      <trkpt lat="44.40124" lon="5.82042">
        <ele>900</ele>
        <time>2010-07-18T08:03:15Z</time>
      </trkpt>
      <trkpt lat="44.40117" lon="5.82053">
        <ele>900</ele>
        <time>2010-07-18T08:03:22Z</time>
      </trkpt>
      <trkpt lat="44.40111" lon="5.82058">
        <ele>901</ele>
        <time>2010-07-18T08:03:31Z</time>
      </trkpt>
      <trkpt lat="44.40103" lon="5.8206">
        <ele>905</ele>
        <time>2010-07-18T08:03:39Z</time>
      </trkpt>
      <trkpt lat="44.40095" lon="5.82064">
        <ele>912</ele>
        <time>2010-07-18T08:03:46Z</time>
      </trkpt>
      <trkpt lat="44.4009" lon="5.82075">
        <ele>918</ele>
        <time>2010-07-18T08:03:54Z</time>
      </trkpt>
      <trkpt lat="44.40089" lon="5.82089">
        <ele>925</ele>
        <time>2010-07-18T08:04:01Z</time>
      </trkpt>
      <trkpt lat="44.40088" lon="5.82104">
        <ele>925</ele>
        <time>2010-07-18T08:04:09Z</time>
      </trkpt>
      <trkpt lat="44.40082" lon="5.82119">
        <ele>923</ele>
        <time>2010-07-18T08:04:16Z</time>
      </trkpt>
      <trkpt lat="44.40076" lon="5.8213">
        <ele>920</ele>
        <time>2010-07-18T08:04:25Z</time>
      </trkpt>
      <trkpt lat="44.40069" lon="5.82142">
        <ele>919</ele>
        <time>2010-07-18T08:04:33Z</time>
      </trkpt>
      <trkpt lat="44.40065" lon="5.82156">
        <ele>919</ele>
        <time>2010-07-18T08:04:40Z</time>
      </trkpt>
      <trkpt lat="44.40064" lon="5.82169">
        <ele>919</ele>
        <time>2010-07-18T08:04:47Z</time>
      </trkpt>
      <trkpt lat="44.40059" lon="5.8218">
        <ele>919</ele>
        <time>2010-07-18T08:04:55Z</time>
      </trkpt>
      <trkpt lat="44.40053" lon="5.82189">
        <ele>919</ele>
        <time>2010-07-18T08:05:02Z</time>
      </trkpt>
      <trkpt lat="44.40051" lon="5.82201">
        <ele>919</ele>
        <time>2010-07-18T08:05:10Z</time>
      </trkpt>
      <trkpt lat="44.40051" lon="5.82218">
        <ele>919</ele>
        <time>2010-07-18T08:05:17Z</time>
      </trkpt>
      <trkpt lat="44.40052" lon="5.82232">
        <ele>919</ele>
        <time>2010-07-18T08:05:25Z</time>
      </trkpt>
      <trkpt lat="44.40047" lon="5.82244">
        <ele>920</ele>
        <time>2010-07-18T08:05:32Z</time>
      </trkpt>
      <trkpt lat="44.40041" lon="5.82235">
        <ele>923</ele>
        <time>2010-07-18T08:05:40Z</time>
      </trkpt>
      <trkpt lat="44.40037" lon="5.82224">
        <ele>925</ele>
        <time>2010-07-18T08:05:47Z</time>
      </trkpt>
      <trkpt lat="44.40033" lon="5.82212">
        <ele>929</ele>
        <time>2010-07-18T08:05:55Z</time>
      </trkpt>
      <trkpt lat="44.4003" lon="5.82198">
        <ele>933</ele>
        <time>2010-07-18T08:06:02Z</time>
      </trkpt>
      <trkpt lat="44.40028" lon="5.82184">
        <ele>933</ele>
        <time>2010-07-18T08:06:10Z</time>
      </trkpt>
      <trkpt lat="44.40029" lon="5.82164">
        <ele>933</ele>
        <time>2010-07-18T08:06:17Z</time>
      </trkpt>
      <trkpt lat="44.40032" lon="5.8215">
        <ele>933</ele>
        <time>2010-07-18T08:06:25Z</time>
      </trkpt>
      <trkpt lat="44.40034" lon="5.82134">
        <ele>937</ele>
        <time>2010-07-18T08:06:32Z</time>
      </trkpt>
      <trkpt lat="44.40035" lon="5.8212">
        <ele>937</ele>
        <time>2010-07-18T08:06:40Z</time>
      </trkpt>
      <trkpt lat="44.40033" lon="5.82102">
        <ele>940</ele>
        <time>2010-07-18T08:06:49Z</time>
      </trkpt>
      <trkpt lat="44.4003" lon="5.82086">
        <ele>940</ele>
        <time>2010-07-18T08:06:56Z</time>
      </trkpt>
      <trkpt lat="44.40028" lon="5.82068">
        <ele>940</ele>
        <time>2010-07-18T08:07:03Z</time>
      </trkpt>
      <trkpt lat="44.40022" lon="5.82062">
        <ele>940</ele>
        <time>2010-07-18T08:07:10Z</time>
      </trkpt>
      <trkpt lat="44.40019" lon="5.82069">
        <ele>940</ele>
        <time>2010-07-18T08:07:17Z</time>
      </trkpt>
      <trkpt lat="44.40018" lon="5.82074">
        <ele>938</ele>
        <time>2010-07-18T08:07:26Z</time>
      </trkpt>
      <trkpt lat="44.40018" lon="5.82074">
        <ele>936</ele>
        <time>2010-07-18T08:07:36Z</time>
      </trkpt>
      <trkpt lat="44.40017" lon="5.82071">
        <ele>936</ele>
        <time>2010-07-18T08:07:43Z</time>
      </trkpt>
      <trkpt lat="44.40017" lon="5.82071">
        <ele>937</ele>
        <time>2010-07-18T08:07:53Z</time>
      </trkpt>
      <trkpt lat="44.40022" lon="5.82071">
        <ele>942</ele>
        <time>2010-07-18T08:08:01Z</time>
      </trkpt>
      <trkpt lat="44.40019" lon="5.82074">
        <ele>943</ele>
        <time>2010-07-18T08:08:08Z</time>
      </trkpt>
      <trkpt lat="44.40025" lon="5.82074">
        <ele>943</ele>
        <time>2010-07-18T08:08:17Z</time>
      </trkpt>
      <trkpt lat="44.40023" lon="5.82074">
        <ele>948</ele>
        <time>2010-07-18T08:08:28Z</time>
      </trkpt>
      <trkpt lat="44.40018" lon="5.82077">
        <ele>948</ele>
        <time>2010-07-18T08:08:36Z</time>
      </trkpt>
      <trkpt lat="44.40019" lon="5.82077">
        <ele>948</ele>
        <time>2010-07-18T08:08:44Z</time>
      </trkpt>
      <trkpt lat="44.4002" lon="5.82075">
        <ele>948</ele>
        <time>2010-07-18T08:08:56Z</time>
      </trkpt>
      <trkpt lat="44.40017" lon="5.82072">
        <ele>948</ele>
        <time>2010-07-18T08:09:10Z</time>
      </trkpt>
      <trkpt lat="44.40019" lon="5.8207">
        <ele>948</ele>
        <time>2010-07-18T08:09:17Z</time>
      </trkpt>
      <trkpt lat="44.40021" lon="5.82068">
        <ele>948</ele>
        <time>2010-07-18T08:09:26Z</time>
      </trkpt>
      <trkpt lat="44.40025" lon="5.82068">
        <ele>947</ele>
        <time>2010-07-18T08:09:36Z</time>
      </trkpt>
      <trkpt lat="44.4003" lon="5.82066">
        <ele>949</ele>
        <time>2010-07-18T08:09:45Z</time>
      </trkpt>
      <trkpt lat="44.40028" lon="5.82064">
        <ele>950</ele>
        <time>2010-07-18T08:10:00Z</time>
      </trkpt>
      <trkpt lat="44.40025" lon="5.82075">
        <ele>950</ele>
        <time>2010-07-18T08:10:07Z</time>
      </trkpt>
      <trkpt lat="44.40025" lon="5.82087">
        <ele>950</ele>
        <time>2010-07-18T08:10:15Z</time>
      </trkpt>
      <trkpt lat="44.4002" lon="5.82104">
        <ele>947</ele>
        <time>2010-07-18T08:10:22Z</time>
      </trkpt>
      <trkpt lat="44.40015" lon="5.82117">
        <ele>942</ele>
        <time>2010-07-18T08:10:30Z</time>
      </trkpt>
      <trkpt lat="44.40006" lon="5.82136">
        <ele>941</ele>
        <time>2010-07-18T08:10:37Z</time>
      </trkpt>
      <trkpt lat="44.39997" lon="5.82156">
        <ele>939</ele>
        <time>2010-07-18T08:10:45Z</time>
      </trkpt>
      <trkpt lat="44.39995" lon="5.82185">
        <ele>939</ele>
        <time>2010-07-18T08:10:52Z</time>
      </trkpt>
      <trkpt lat="44.39994" lon="5.82199">
        <ele>942</ele>
        <time>2010-07-18T08:11:00Z</time>
      </trkpt>
      <trkpt lat="44.39994" lon="5.82213">
        <ele>946</ele>
        <time>2010-07-18T08:11:07Z</time>
      </trkpt>
      <trkpt lat="44.39994" lon="5.82226">
        <ele>949</ele>
        <time>2010-07-18T08:11:15Z</time>
      </trkpt>
      <trkpt lat="44.39994" lon="5.82239">
        <ele>952</ele>
        <time>2010-07-18T08:11:23Z</time>
      </trkpt>
      <trkpt lat="44.39999" lon="5.82252">
        <ele>953</ele>
        <time>2010-07-18T08:11:30Z</time>
      </trkpt>
      <trkpt lat="44.40001" lon="5.82266">
        <ele>953</ele>
        <time>2010-07-18T08:11:37Z</time>
      </trkpt>
      <trkpt lat="44.40002" lon="5.82279">
        <ele>954</ele>
        <time>2010-07-18T08:11:45Z</time>
      </trkpt>
      <trkpt lat="44.39996" lon="5.82289">
        <ele>954</ele>
        <time>2010-07-18T08:11:52Z</time>
      </trkpt>
      <trkpt lat="44.39995" lon="5.82301">
        <ele>954</ele>
        <time>2010-07-18T08:12:00Z</time>
      </trkpt>
      <trkpt lat="44.39999" lon="5.82313">
        <ele>954</ele>
        <time>2010-07-18T08:12:07Z</time>
      </trkpt>
      <trkpt lat="44.40002" lon="5.82325">
        <ele>956</ele>
        <time>2010-07-18T08:12:15Z</time>
      </trkpt>
      <trkpt lat="44.39999" lon="5.82337">
        <ele>957</ele>
        <time>2010-07-18T08:12:22Z</time>
      </trkpt>
      <trkpt lat="44.39997" lon="5.8235">
        <ele>958</ele>
        <time>2010-07-18T08:12:30Z</time>
      </trkpt>
      <trkpt lat="44.39994" lon="5.82362">
        <ele>958</ele>
        <time>2010-07-18T08:12:37Z</time>
      </trkpt>
      <trkpt lat="44.39989" lon="5.82372">
        <ele>962</ele>
        <time>2010-07-18T08:12:45Z</time>
      </trkpt>
      <trkpt lat="44.39986" lon="5.82387">
        <ele>967</ele>
        <time>2010-07-18T08:12:52Z</time>
      </trkpt>
      <trkpt lat="44.39983" lon="5.82402">
        <ele>968</ele>
        <time>2010-07-18T08:13:00Z</time>
      </trkpt>
      <trkpt lat="44.39979" lon="5.82415">
        <ele>968</ele>
        <time>2010-07-18T08:13:07Z</time>
      </trkpt>
      <trkpt lat="44.39974" lon="5.82429">
        <ele>968</ele>
        <time>2010-07-18T08:13:15Z</time>
      </trkpt>
      <trkpt lat="44.39967" lon="5.82438">
        <ele>973</ele>
        <time>2010-07-18T08:13:22Z</time>
      </trkpt>
      <trkpt lat="44.39959" lon="5.82448">
        <ele>975</ele>
        <time>2010-07-18T08:13:30Z</time>
      </trkpt>
      <trkpt lat="44.39958" lon="5.8246">
        <ele>978</ele>
        <time>2010-07-18T08:13:37Z</time>
      </trkpt>
      <trkpt lat="44.39959" lon="5.82471">
        <ele>978</ele>
        <time>2010-07-18T08:13:45Z</time>
      </trkpt>
      <trkpt lat="44.3996" lon="5.82485">
        <ele>978</ele>
        <time>2010-07-18T08:13:52Z</time>
      </trkpt>
      <trkpt lat="44.39961" lon="5.82498">
        <ele>978</ele>
        <time>2010-07-18T08:14:00Z</time>
      </trkpt>
      <trkpt lat="44.39962" lon="5.82512">
        <ele>978</ele>
        <time>2010-07-18T08:14:07Z</time>
      </trkpt>
      <trkpt lat="44.39963" lon="5.82526">
        <ele>978</ele>
        <time>2010-07-18T08:14:15Z</time>
      </trkpt>
      <trkpt lat="44.39963" lon="5.8254">
        <ele>978</ele>
        <time>2010-07-18T08:14:22Z</time>
      </trkpt>
      <trkpt lat="44.39964" lon="5.82552">
        <ele>979</ele>
        <time>2010-07-18T08:14:30Z</time>
      </trkpt>
      <trkpt lat="44.39967" lon="5.82561">
        <ele>979</ele>
        <time>2010-07-18T08:14:37Z</time>
      </trkpt>
      <trkpt lat="44.3997" lon="5.82577">
        <ele>983</ele>
        <time>2010-07-18T08:14:45Z</time>
      </trkpt>
      <trkpt lat="44.39969" lon="5.82588">
        <ele>985</ele>
        <time>2010-07-18T08:14:52Z</time>
      </trkpt>
      <trkpt lat="44.39969" lon="5.82605">
        <ele>987</ele>
        <time>2010-07-18T08:15:00Z</time>
      </trkpt>
      <trkpt lat="44.39969" lon="5.82623">
        <ele>987</ele>
        <time>2010-07-18T08:15:10Z</time>
      </trkpt>
      <trkpt lat="44.39977" lon="5.82643">
        <ele>991</ele>
        <time>2010-07-18T08:15:17Z</time>
      </trkpt>
      <trkpt lat="44.3998" lon="5.82657">
        <ele>991</ele>
        <time>2010-07-18T08:15:25Z</time>
      </trkpt>
      <trkpt lat="44.39978" lon="5.82671">
        <ele>991</ele>
        <time>2010-07-18T08:15:32Z</time>
      </trkpt>
      <trkpt lat="44.39977" lon="5.82688">
        <ele>991</ele>
        <time>2010-07-18T08:15:40Z</time>
      </trkpt>
      <trkpt lat="44.39971" lon="5.82696">
        <ele>991</ele>
        <time>2010-07-18T08:15:47Z</time>
      </trkpt>
      <trkpt lat="44.39966" lon="5.82686">
        <ele>991</ele>
        <time>2010-07-18T08:15:55Z</time>
      </trkpt>
      <trkpt lat="44.39964" lon="5.8267">
        <ele>991</ele>
        <time>2010-07-18T08:16:02Z</time>
      </trkpt>
      <trkpt lat="44.39958" lon="5.82661">
        <ele>993</ele>
        <time>2010-07-18T08:16:10Z</time>
      </trkpt>
      <trkpt lat="44.39952" lon="5.82646">
        <ele>997</ele>
        <time>2010-07-18T08:16:17Z</time>
      </trkpt>
      <trkpt lat="44.39944" lon="5.82629">
        <ele>999</ele>
        <time>2010-07-18T08:16:25Z</time>
      </trkpt>
      <trkpt lat="44.3994" lon="5.82611">
        <ele>999</ele>
        <time>2010-07-18T08:16:32Z</time>
      </trkpt>
      <trkpt lat="44.39934" lon="5.82598">
        <ele>999</ele>
        <time>2010-07-18T08:16:40Z</time>
      </trkpt>
      <trkpt lat="44.39927" lon="5.82586">
        <ele>1000</ele>
        <time>2010-07-18T08:16:47Z</time>
      </trkpt>
      <trkpt lat="44.39922" lon="5.82574">
        <ele>1002</ele>
        <time>2010-07-18T08:16:55Z</time>
      </trkpt>
      <trkpt lat="44.39915" lon="5.8256">
        <ele>1005</ele>
        <time>2010-07-18T08:17:02Z</time>
      </trkpt>
      <trkpt lat="44.3991" lon="5.82547">
        <ele>1005</ele>
        <time>2010-07-18T08:17:10Z</time>
      </trkpt>
      <trkpt lat="44.39902" lon="5.82533">
        <ele>1005</ele>
        <time>2010-07-18T08:17:18Z</time>
      </trkpt>
      <trkpt lat="44.39897" lon="5.8252">
        <ele>1005</ele>
        <time>2010-07-18T08:17:25Z</time>
      </trkpt>
      <trkpt lat="44.3989" lon="5.82508">
        <ele>1005</ele>
        <time>2010-07-18T08:17:32Z</time>
      </trkpt>
      <trkpt lat="44.3988" lon="5.82496">
        <ele>1008</ele>
        <time>2010-07-18T08:17:40Z</time>
      </trkpt>
      <trkpt lat="44.39872" lon="5.82483">
        <ele>1013</ele>
        <time>2010-07-18T08:17:47Z</time>
      </trkpt>
      <trkpt lat="44.39871" lon="5.82472">
        <ele>1014</ele>
        <time>2010-07-18T08:17:55Z</time>
      </trkpt>
      <trkpt lat="44.39871" lon="5.82455">
        <ele>1015</ele>
        <time>2010-07-18T08:18:02Z</time>
      </trkpt>
      <trkpt lat="44.3987" lon="5.8244">
        <ele>1017</ele>
        <time>2010-07-18T08:18:10Z</time>
      </trkpt>
      <trkpt lat="44.3987" lon="5.82423">
        <ele>1018</ele>
        <time>2010-07-18T08:18:17Z</time>
      </trkpt>
      <trkpt lat="44.39866" lon="5.8241">
        <ele>1019</ele>
        <time>2010-07-18T08:18:25Z</time>
      </trkpt>
      <trkpt lat="44.39865" lon="5.82394">
        <ele>1020</ele>
        <time>2010-07-18T08:18:33Z</time>
      </trkpt>
      <trkpt lat="44.39863" lon="5.82382">
        <ele>1023</ele>
        <time>2010-07-18T08:18:40Z</time>
      </trkpt>
      <trkpt lat="44.39858" lon="5.82368">
        <ele>1025</ele>
        <time>2010-07-18T08:18:47Z</time>
      </trkpt>
      <trkpt lat="44.39858" lon="5.82354">
        <ele>1026</ele>
        <time>2010-07-18T08:18:55Z</time>
      </trkpt>
      <trkpt lat="44.39855" lon="5.82336">
        <ele>1026</ele>
        <time>2010-07-18T08:19:02Z</time>
      </trkpt>
      <trkpt lat="44.39852" lon="5.82322">
        <ele>1026</ele>
        <time>2010-07-18T08:19:10Z</time>
      </trkpt>
      <trkpt lat="44.39846" lon="5.82307">
        <ele>1026</ele>
        <time>2010-07-18T08:19:17Z</time>
      </trkpt>
      <trkpt lat="44.39843" lon="5.82295">
        <ele>1027</ele>
        <time>2010-07-18T08:19:25Z</time>
      </trkpt>
      <trkpt lat="44.39846" lon="5.82281">
        <ele>1029</ele>
        <time>2010-07-18T08:19:32Z</time>
      </trkpt>
      <trkpt lat="44.39848" lon="5.82268">
        <ele>1029</ele>
        <time>2010-07-18T08:19:40Z</time>
      </trkpt>
      <trkpt lat="44.3985" lon="5.82251">
        <ele>1030</ele>
        <time>2010-07-18T08:19:47Z</time>
      </trkpt>
      <trkpt lat="44.39847" lon="5.82236">
        <ele>1031</ele>
        <time>2010-07-18T08:19:55Z</time>
      </trkpt>
      <trkpt lat="44.39844" lon="5.82223">
        <ele>1031</ele>
        <time>2010-07-18T08:20:02Z</time>
      </trkpt>
      <trkpt lat="44.39846" lon="5.82207">
        <ele>1033</ele>
        <time>2010-07-18T08:20:10Z</time>
      </trkpt>
      <trkpt lat="44.39846" lon="5.82193">
        <ele>1033</ele>
        <time>2010-07-18T08:20:17Z</time>
      </trkpt>
      <trkpt lat="44.39846" lon="5.82178">
        <ele>1035</ele>
        <time>2010-07-18T08:20:25Z</time>
      </trkpt>
      <trkpt lat="44.39845" lon="5.82159">
        <ele>1038</ele>
        <time>2010-07-18T08:20:32Z</time>
      </trkpt>
      <trkpt lat="44.39846" lon="5.82142">
        <ele>1039</ele>
        <time>2010-07-18T08:20:40Z</time>
      </trkpt>
      <trkpt lat="44.39843" lon="5.82127">
        <ele>1039</ele>
        <time>2010-07-18T08:20:47Z</time>
      </trkpt>
      <trkpt lat="44.39844" lon="5.82124">
        <ele>1039</ele>
        <time>2010-07-18T08:20:56Z</time>
      </trkpt>
      <trkpt lat="44.39844" lon="5.82121">
        <ele>1039</ele>
        <time>2010-07-18T08:21:11Z</time>
      </trkpt>
      <trkpt lat="44.39843" lon="5.82122">
        <ele>1039</ele>
        <time>2010-07-18T08:21:25Z</time>
      </trkpt>
      <trkpt lat="44.39842" lon="5.82123">
        <ele>1039</ele>
        <time>2010-07-18T08:21:35Z</time>
      </trkpt>
      <trkpt lat="44.39842" lon="5.8212">
        <ele>1039</ele>
        <time>2010-07-18T08:21:43Z</time>
      </trkpt>
      <trkpt lat="44.39838" lon="5.82107">
        <ele>1039</ele>
        <time>2010-07-18T08:21:50Z</time>
      </trkpt>
      <trkpt lat="44.39825" lon="5.8209">
        <ele>1039</ele>
        <time>2010-07-18T08:21:57Z</time>
      </trkpt>
      <trkpt lat="44.39808" lon="5.8207">
        <ele>1039</ele>
        <time>2010-07-18T08:22:05Z</time>
      </trkpt>
      <trkpt lat="44.3979" lon="5.82042">
        <ele>1039</ele>
        <time>2010-07-18T08:22:12Z</time>
      </trkpt>
      <trkpt lat="44.39791" lon="5.82009">
        <ele>1038</ele>
        <time>2010-07-18T08:22:20Z</time>
      </trkpt>
      <trkpt lat="44.39813" lon="5.81972">
        <ele>1038</ele>
        <time>2010-07-18T08:22:27Z</time>
      </trkpt>
      <trkpt lat="44.39832" lon="5.81932">
        <ele>1038</ele>
        <time>2010-07-18T08:22:35Z</time>
      </trkpt>
      <trkpt lat="44.39861" lon="5.81885">
        <ele>1037</ele>
        <time>2010-07-18T08:22:42Z</time>
      </trkpt>
      <trkpt lat="44.39872" lon="5.81826">
        <ele>1033</ele>
        <time>2010-07-18T08:22:50Z</time>
      </trkpt>
      <trkpt lat="44.39854" lon="5.81764">
        <ele>1028</ele>
        <time>2010-07-18T08:22:57Z</time>
      </trkpt>
      <trkpt lat="44.39862" lon="5.81714">
        <ele>1024</ele>
        <time>2010-07-18T08:23:05Z</time>
      </trkpt>
      <trkpt lat="44.39888" lon="5.81672">
        <ele>1024</ele>
        <time>2010-07-18T08:23:12Z</time>
      </trkpt>
      <trkpt lat="44.3992" lon="5.81629">
        <ele>1026</ele>
        <time>2010-07-18T08:23:20Z</time>
      </trkpt>
      <trkpt lat="44.39942" lon="5.81572">
        <ele>1026</ele>
        <time>2010-07-18T08:23:27Z</time>
      </trkpt>
      <trkpt lat="44.39976" lon="5.81547">
        <ele>1026</ele>
        <time>2010-07-18T08:23:35Z</time>
      </trkpt>
      <trkpt lat="44.39998" lon="5.81484">
        <ele>1026</ele>
        <time>2010-07-18T08:23:42Z</time>
      </trkpt>
      <trkpt lat="44.39993" lon="5.81422">
        <ele>1023</ele>
        <time>2010-07-18T08:23:50Z</time>
      </trkpt>
      <trkpt lat="44.40004" lon="5.81356">
        <ele>1020</ele>
        <time>2010-07-18T08:23:57Z</time>
      </trkpt>
      <trkpt lat="44.40008" lon="5.81284">
        <ele>1016</ele>
        <time>2010-07-18T08:24:05Z</time>
      </trkpt>
      <trkpt lat="44.39996" lon="5.8119">
        <ele>1011</ele>
        <time>2010-07-18T08:24:12Z</time>
      </trkpt>
      <trkpt lat="44.40001" lon="5.8113">
        <ele>1010</ele>
        <time>2010-07-18T08:24:20Z</time>
      </trkpt>
      <trkpt lat="44.40012" lon="5.81076">
        <ele>1010</ele>
        <time>2010-07-18T08:24:27Z</time>
      </trkpt>
      <trkpt lat="44.40022" lon="5.81034">
        <ele>1010</ele>
        <time>2010-07-18T08:24:35Z</time>
      </trkpt>
      <trkpt lat="44.40023" lon="5.80988">
        <ele>1010</ele>
        <time>2010-07-18T08:24:42Z</time>
      </trkpt>
      <trkpt lat="44.40012" lon="5.80948">
        <ele>1010</ele>
        <time>2010-07-18T08:24:50Z</time>
      </trkpt>
      <trkpt lat="44.40004" lon="5.809">
        <ele>1010</ele>
        <time>2010-07-18T08:24:57Z</time>
      </trkpt>
      <trkpt lat="44.40015" lon="5.80863">
        <ele>1010</ele>
        <time>2010-07-18T08:25:05Z</time>
      </trkpt>
      <trkpt lat="44.40015" lon="5.80813">
        <ele>1010</ele>
        <time>2010-07-18T08:25:12Z</time>
      </trkpt>
      <trkpt lat="44.40033" lon="5.80776">
        <ele>1010</ele>
        <time>2010-07-18T08:25:20Z</time>
      </trkpt>
      <trkpt lat="44.40048" lon="5.80727">
        <ele>1010</ele>
        <time>2010-07-18T08:25:27Z</time>
      </trkpt>
      <trkpt lat="44.40056" lon="5.80682">
        <ele>1010</ele>
        <time>2010-07-18T08:25:35Z</time>
      </trkpt>
      <trkpt lat="44.40058" lon="5.80628">
        <ele>1011</ele>
        <time>2010-07-18T08:25:42Z</time>
      </trkpt>
      <trkpt lat="44.40046" lon="5.80587">
        <ele>1011</ele>
        <time>2010-07-18T08:25:50Z</time>
      </trkpt>
      <trkpt lat="44.40042" lon="5.80539">
        <ele>1011</ele>
        <time>2010-07-18T08:25:57Z</time>
      </trkpt>
      <trkpt lat="44.40034" lon="5.80502">
        <ele>1011</ele>
        <time>2010-07-18T08:26:05Z</time>
      </trkpt>
      <trkpt lat="44.40032" lon="5.8046">
        <ele>1011</ele>
        <time>2010-07-18T08:26:12Z</time>
      </trkpt>
      <trkpt lat="44.40031" lon="5.80418">
        <ele>1011</ele>
        <time>2010-07-18T08:26:20Z</time>
      </trkpt>
      <trkpt lat="44.40028" lon="5.8037">
        <ele>1011</ele>
        <time>2010-07-18T08:26:27Z</time>
      </trkpt>
      <trkpt lat="44.40022" lon="5.80329">
        <ele>1011</ele>
        <time>2010-07-18T08:26:35Z</time>
      </trkpt>
      <trkpt lat="44.40009" lon="5.80285">
        <ele>1011</ele>
        <time>2010-07-18T08:26:42Z</time>
      </trkpt>
      <trkpt lat="44.39996" lon="5.80245">
        <ele>1011</ele>
        <time>2010-07-18T08:26:50Z</time>
      </trkpt>
      <trkpt lat="44.39978" lon="5.80187">
        <ele>1011</ele>
        <time>2010-07-18T08:26:57Z</time>
      </trkpt>
      <trkpt lat="44.39977" lon="5.80125">
        <ele>1011</ele>
        <time>2010-07-18T08:27:05Z</time>
      </trkpt>
      <trkpt lat="44.39942" lon="5.80052">
        <ele>1005</ele>
        <time>2010-07-18T08:27:12Z</time>
      </trkpt>
      <trkpt lat="44.39896" lon="5.79994">
        <ele>998</ele>
        <time>2010-07-18T08:27:20Z</time>
      </trkpt>
      <trkpt lat="44.39835" lon="5.79925">
        <ele>990</ele>
        <time>2010-07-18T08:27:27Z</time>
      </trkpt>
      <trkpt lat="44.39779" lon="5.79875">
        <ele>983</ele>
        <time>2010-07-18T08:27:35Z</time>
      </trkpt>
      <trkpt lat="44.39715" lon="5.79834">
        <ele>976</ele>
        <time>2010-07-18T08:27:42Z</time>
      </trkpt>
      <trkpt lat="44.39656" lon="5.79809">
        <ele>972</ele>
        <time>2010-07-18T08:27:50Z</time>
      </trkpt>
      <trkpt lat="44.39585" lon="5.79779">
        <ele>965</ele>
        <time>2010-07-18T08:27:57Z</time>
      </trkpt>
      <trkpt lat="44.39523" lon="5.79776">
        <ele>958</ele>
        <time>2010-07-18T08:28:05Z</time>
      </trkpt>
      <trkpt lat="44.39461" lon="5.7978">
        <ele>953</ele>
        <time>2010-07-18T08:28:12Z</time>
      </trkpt>
      <trkpt lat="44.39439" lon="5.79778">
        <ele>948</ele>
        <time>2010-07-18T08:28:20Z</time>
      </trkpt>
      <trkpt lat="44.39431" lon="5.79778">
        <ele>947</ele>
        <time>2010-07-18T08:28:27Z</time>
      </trkpt>
      <trkpt lat="44.39418" lon="5.79783">
        <ele>947</ele>
        <time>2010-07-18T08:28:39Z</time>
      </trkpt>
      <trkpt lat="44.39399" lon="5.79791">
        <ele>947</ele>
        <time>2010-07-18T08:28:47Z</time>
      </trkpt>
      <trkpt lat="44.39386" lon="5.79784">
        <ele>947</ele>
        <time>2010-07-18T08:28:55Z</time>
      </trkpt>
      <trkpt lat="44.39374" lon="5.7979">
        <ele>950</ele>
        <time>2010-07-18T08:29:02Z</time>
      </trkpt>
      <trkpt lat="44.39362" lon="5.79799">
        <ele>951</ele>
        <time>2010-07-18T08:29:10Z</time>
      </trkpt>
      <trkpt lat="44.39349" lon="5.79799">
        <ele>954</ele>
        <time>2010-07-18T08:29:17Z</time>
      </trkpt>
      <trkpt lat="44.39339" lon="5.79787">
        <ele>955</ele>
        <time>2010-07-18T08:29:25Z</time>
      </trkpt>
      <trkpt lat="44.3933" lon="5.79772">
        <ele>957</ele>
        <time>2010-07-18T08:29:32Z</time>
      </trkpt>
      <trkpt lat="44.39317" lon="5.79768">
        <ele>958</ele>
        <time>2010-07-18T08:29:40Z</time>
      </trkpt>
      <trkpt lat="44.39304" lon="5.79776">
        <ele>959</ele>
        <time>2010-07-18T08:29:47Z</time>
      </trkpt>
      <trkpt lat="44.39297" lon="5.79789">
        <ele>960</ele>
        <time>2010-07-18T08:29:55Z</time>
      </trkpt>
      <trkpt lat="44.39292" lon="5.79805">
        <ele>960</ele>
        <time>2010-07-18T08:30:02Z</time>
      </trkpt>
      <trkpt lat="44.39289" lon="5.79808">
        <ele>960</ele>
        <time>2010-07-18T08:30:20Z</time>
      </trkpt>
      <trkpt lat="44.39288" lon="5.79808">
        <ele>960</ele>
        <time>2010-07-18T08:30:33Z</time>
      </trkpt>
      <trkpt lat="44.39287" lon="5.79808">
        <ele>959</ele>
        <time>2010-07-18T08:31:01Z</time>
      </trkpt>
      <trkpt lat="44.39286" lon="5.79807">
        <ele>958</ele>
        <time>2010-07-18T08:31:37Z</time>
      </trkpt>
      <trkpt lat="44.39286" lon="5.79809">
        <ele>957</ele>
        <time>2010-07-18T08:34:40Z</time>
      </trkpt>
      <trkpt lat="44.39287" lon="5.79809">
        <ele>954</ele>
        <time>2010-07-18T08:35:32Z</time>
      </trkpt>
      <trkpt lat="44.39288" lon="5.79809">
        <ele>954</ele>
        <time>2010-07-18T08:35:41Z</time>
      </trkpt>
      <trkpt lat="44.39288" lon="5.79807">
        <ele>954</ele>
        <time>2010-07-18T08:35:55Z</time>
      </trkpt>
      <trkpt lat="44.39285" lon="5.7981">
        <ele>954</ele>
        <time>2010-07-18T08:36:03Z</time>
      </trkpt>
      <trkpt lat="44.39282" lon="5.79825">
        <ele>954</ele>
        <time>2010-07-18T08:36:10Z</time>
      </trkpt>
      <trkpt lat="44.39276" lon="5.7985">
        <ele>954</ele>
        <time>2010-07-18T08:36:17Z</time>
      </trkpt>
      <trkpt lat="44.39272" lon="5.79881">
        <ele>954</ele>
        <time>2010-07-18T08:36:25Z</time>
      </trkpt>
      <trkpt lat="44.39264" lon="5.79921">
        <ele>954</ele>
        <time>2010-07-18T08:36:32Z</time>
      </trkpt>
      <trkpt lat="44.39257" lon="5.79969">
        <ele>954</ele>
        <time>2010-07-18T08:36:40Z</time>
      </trkpt>
      <trkpt lat="44.39247" lon="5.80031">
        <ele>954</ele>
        <time>2010-07-18T08:36:47Z</time>
      </trkpt>
      <trkpt lat="44.39213" lon="5.80065">
        <ele>954</ele>
        <time>2010-07-18T08:36:55Z</time>
      </trkpt>
      <trkpt lat="44.3919" lon="5.80122">
        <ele>952</ele>
        <time>2010-07-18T08:37:02Z</time>
      </trkpt>
      <trkpt lat="44.3918" lon="5.80171">
        <ele>952</ele>
        <time>2010-07-18T08:37:09Z</time>
      </trkpt>
      <trkpt lat="44.39175" lon="5.80218">
        <ele>950</ele>
        <time>2010-07-18T08:37:16Z</time>
      </trkpt>
      <trkpt lat="44.39161" lon="5.80273">
        <ele>948</ele>
        <time>2010-07-18T08:37:23Z</time>
      </trkpt>
      <trkpt lat="44.39146" lon="5.80323">
        <ele>948</ele>
        <time>2010-07-18T08:37:30Z</time>
      </trkpt>
      <trkpt lat="44.39135" lon="5.80385">
        <ele>948</ele>
        <time>2010-07-18T08:37:37Z</time>
      </trkpt>
      <trkpt lat="44.39096" lon="5.80366">
        <ele>947</ele>
        <time>2010-07-18T08:37:45Z</time>
      </trkpt>
      <trkpt lat="44.39035" lon="5.80345">
        <ele>941</ele>
        <time>2010-07-18T08:37:52Z</time>
      </trkpt>
      <trkpt lat="44.3902" lon="5.80385">
        <ele>939</ele>
        <time>2010-07-18T08:38:00Z</time>
      </trkpt>
      <trkpt lat="44.39024" lon="5.80476">
        <ele>932</ele>
        <time>2010-07-18T08:38:07Z</time>
      </trkpt>
      <trkpt lat="44.39016" lon="5.8057">
        <ele>925</ele>
        <time>2010-07-18T08:38:14Z</time>
      </trkpt>
      <trkpt lat="44.38989" lon="5.80651">
        <ele>918</ele>
        <time>2010-07-18T08:38:21Z</time>
      </trkpt>
      <trkpt lat="44.38979" lon="5.80748">
        <ele>911</ele>
        <time>2010-07-18T08:38:28Z</time>
      </trkpt>
      <trkpt lat="44.38994" lon="5.80823">
        <ele>904</ele>
        <time>2010-07-18T08:38:35Z</time>
      </trkpt>
      <trkpt lat="44.38999" lon="5.8088">
        <ele>895</ele>
        <time>2010-07-18T08:38:42Z</time>
      </trkpt>
      <trkpt lat="44.3895" lon="5.80845">
        <ele>888</ele>
        <time>2010-07-18T08:38:49Z</time>
      </trkpt>
      <trkpt lat="44.38903" lon="5.80803">
        <ele>886</ele>
        <time>2010-07-18T08:38:56Z</time>
      </trkpt>
      <trkpt lat="44.38877" lon="5.80762">
        <ele>886</ele>
        <time>2010-07-18T08:39:03Z</time>
      </trkpt>
      <trkpt lat="44.38868" lon="5.80732">
        <ele>886</ele>
        <time>2010-07-18T08:39:10Z</time>
      </trkpt>
      <trkpt lat="44.38857" lon="5.8071">
        <ele>888</ele>
        <time>2010-07-18T08:39:17Z</time>
      </trkpt>
      <trkpt lat="44.3884" lon="5.80706">
        <ele>891</ele>
        <time>2010-07-18T08:39:24Z</time>
      </trkpt>
      <trkpt lat="44.38818" lon="5.80726">
        <ele>893</ele>
        <time>2010-07-18T08:39:31Z</time>
      </trkpt>
      <trkpt lat="44.38796" lon="5.80747">
        <ele>893</ele>
        <time>2010-07-18T08:39:38Z</time>
      </trkpt>
      <trkpt lat="44.38768" lon="5.80775">
        <ele>895</ele>
        <time>2010-07-18T08:39:45Z</time>
      </trkpt>
      <trkpt lat="44.38732" lon="5.8081">
        <ele>895</ele>
        <time>2010-07-18T08:39:52Z</time>
      </trkpt>
      <trkpt lat="44.38715" lon="5.80882">
        <ele>893</ele>
        <time>2010-07-18T08:40:00Z</time>
      </trkpt>
      <trkpt lat="44.38722" lon="5.80961">
        <ele>885</ele>
        <time>2010-07-18T08:40:07Z</time>
      </trkpt>
      <trkpt lat="44.38692" lon="5.80972">
        <ele>882</ele>
        <time>2010-07-18T08:40:14Z</time>
      </trkpt>
      <trkpt lat="44.38662" lon="5.81005">
        <ele>882</ele>
        <time>2010-07-18T08:40:21Z</time>
      </trkpt>
      <trkpt lat="44.38647" lon="5.81049">
        <ele>882</ele>
        <time>2010-07-18T08:40:28Z</time>
      </trkpt>
      <trkpt lat="44.38641" lon="5.81115">
        <ele>882</ele>
        <time>2010-07-18T08:40:35Z</time>
      </trkpt>
      <trkpt lat="44.38622" lon="5.81183">
        <ele>879</ele>
        <time>2010-07-18T08:40:42Z</time>
      </trkpt>
      <trkpt lat="44.38591" lon="5.81185">
        <ele>878</ele>
        <time>2010-07-18T08:40:49Z</time>
      </trkpt>
      <trkpt lat="44.38596" lon="5.81109">
        <ele>871</ele>
        <time>2010-07-18T08:40:56Z</time>
      </trkpt>
      <trkpt lat="44.38576" lon="5.81028">
        <ele>866</ele>
        <time>2010-07-18T08:41:03Z</time>
      </trkpt>
      <trkpt lat="44.38546" lon="5.80963">
        <ele>862</ele>
        <time>2010-07-18T08:41:10Z</time>
      </trkpt>
      <trkpt lat="44.38519" lon="5.80893">
        <ele>856</ele>
        <time>2010-07-18T08:41:17Z</time>
      </trkpt>
      <trkpt lat="44.38504" lon="5.80834">
        <ele>852</ele>
        <time>2010-07-18T08:41:24Z</time>
      </trkpt>
      <trkpt lat="44.38499" lon="5.8081">
        <ele>849</ele>
        <time>2010-07-18T08:41:31Z</time>
      </trkpt>
      <trkpt lat="44.38503" lon="5.8079">
        <ele>849</ele>
        <time>2010-07-18T08:41:38Z</time>
      </trkpt>
      <trkpt lat="44.38508" lon="5.80775">
        <ele>849</ele>
        <time>2010-07-18T08:41:45Z</time>
      </trkpt>
      <trkpt lat="44.38514" lon="5.80762">
        <ele>849</ele>
        <time>2010-07-18T08:41:52Z</time>
      </trkpt>
      <trkpt lat="44.3852" lon="5.80752">
        <ele>850</ele>
        <time>2010-07-18T08:42:00Z</time>
      </trkpt>
      <trkpt lat="44.38525" lon="5.80739">
        <ele>851</ele>
        <time>2010-07-18T08:42:08Z</time>
      </trkpt>
      <trkpt lat="44.3853" lon="5.80727">
        <ele>855</ele>
        <time>2010-07-18T08:42:15Z</time>
      </trkpt>
      <trkpt lat="44.38536" lon="5.80715">
        <ele>860</ele>
        <time>2010-07-18T08:42:23Z</time>
      </trkpt>
      <trkpt lat="44.38543" lon="5.80705">
        <ele>863</ele>
        <time>2010-07-18T08:42:30Z</time>
      </trkpt>
      <trkpt lat="44.3855" lon="5.80696">
        <ele>868</ele>
        <time>2010-07-18T08:42:37Z</time>
      </trkpt>
      <trkpt lat="44.38557" lon="5.80686">
        <ele>872</ele>
        <time>2010-07-18T08:42:44Z</time>
      </trkpt>
      <trkpt lat="44.38565" lon="5.80678">
        <ele>874</ele>
        <time>2010-07-18T08:42:51Z</time>
      </trkpt>
      <trkpt lat="44.38575" lon="5.8067">
        <ele>876</ele>
        <time>2010-07-18T08:43:00Z</time>
      </trkpt>
      <trkpt lat="44.38584" lon="5.8066">
        <ele>876</ele>
        <time>2010-07-18T08:43:07Z</time>
      </trkpt>
      <trkpt lat="44.38594" lon="5.80651">
        <ele>880</ele>
        <time>2010-07-18T08:43:14Z</time>
      </trkpt>
      <trkpt lat="44.38603" lon="5.8064">
        <ele>880</ele>
        <time>2010-07-18T08:43:21Z</time>
      </trkpt>
      <trkpt lat="44.38613" lon="5.80633">
        <ele>880</ele>
        <time>2010-07-18T08:43:28Z</time>
      </trkpt>
      <trkpt lat="44.38623" lon="5.80626">
        <ele>880</ele>
        <time>2010-07-18T08:43:35Z</time>
      </trkpt>
      <trkpt lat="44.38631" lon="5.80621">
        <ele>881</ele>
        <time>2010-07-18T08:43:42Z</time>
      </trkpt>
      <trkpt lat="44.3864" lon="5.80619">
        <ele>881</ele>
        <time>2010-07-18T08:43:49Z</time>
      </trkpt>
      <trkpt lat="44.38649" lon="5.80616">
        <ele>881</ele>
        <time>2010-07-18T08:43:56Z</time>
      </trkpt>
      <trkpt lat="44.38659" lon="5.80611">
        <ele>881</ele>
        <time>2010-07-18T08:44:03Z</time>
      </trkpt>
      <trkpt lat="44.38667" lon="5.80596">
        <ele>881</ele>
        <time>2010-07-18T08:44:10Z</time>
      </trkpt>
      <trkpt lat="44.38676" lon="5.80579">
        <ele>881</ele>
        <time>2010-07-18T08:44:17Z</time>
      </trkpt>
      <trkpt lat="44.3869" lon="5.80554">
        <ele>881</ele>
        <time>2010-07-18T08:44:24Z</time>
      </trkpt>
      <trkpt lat="44.38706" lon="5.80527">
        <ele>881</ele>
        <time>2010-07-18T08:44:31Z</time>
      </trkpt>
      <trkpt lat="44.38728" lon="5.80493">
        <ele>880</ele>
        <time>2010-07-18T08:44:38Z</time>
      </trkpt>
      <trkpt lat="44.38725" lon="5.80454">
        <ele>878</ele>
        <time>2010-07-18T08:44:45Z</time>
      </trkpt>
      <trkpt lat="44.38697" lon="5.80464">
        <ele>877</ele>
        <time>2010-07-18T08:44:52Z</time>
      </trkpt>
      <trkpt lat="44.38664" lon="5.80481">
        <ele>877</ele>
        <time>2010-07-18T08:44:59Z</time>
      </trkpt>
      <trkpt lat="44.38634" lon="5.80467">
        <ele>877</ele>
        <time>2010-07-18T08:45:06Z</time>
      </trkpt>
      <trkpt lat="44.38597" lon="5.8045">
        <ele>877</ele>
        <time>2010-07-18T08:45:13Z</time>
      </trkpt>
      <trkpt lat="44.3856" lon="5.80448">
        <ele>878</ele>
        <time>2010-07-18T08:45:20Z</time>
      </trkpt>
      <trkpt lat="44.38525" lon="5.80424">
        <ele>879</ele>
        <time>2010-07-18T08:45:27Z</time>
      </trkpt>
      <trkpt lat="44.38508" lon="5.80381">
        <ele>879</ele>
        <time>2010-07-18T08:45:34Z</time>
      </trkpt>
      <trkpt lat="44.38529" lon="5.8035">
        <ele>879</ele>
        <time>2010-07-18T08:45:41Z</time>
      </trkpt>
      <trkpt lat="44.3853" lon="5.80306">
        <ele>879</ele>
        <time>2010-07-18T08:45:48Z</time>
      </trkpt>
      <trkpt lat="44.38562" lon="5.80304">
        <ele>879</ele>
        <time>2010-07-18T08:45:55Z</time>
      </trkpt>
      <trkpt lat="44.38599" lon="5.80318">
        <ele>878</ele>
        <time>2010-07-18T08:46:02Z</time>
      </trkpt>
      <trkpt lat="44.38625" lon="5.80286">
        <ele>877</ele>
        <time>2010-07-18T08:46:09Z</time>
      </trkpt>
      <trkpt lat="44.38636" lon="5.80244">
        <ele>877</ele>
        <time>2010-07-18T08:46:16Z</time>
      </trkpt>
      <trkpt lat="44.3866" lon="5.80207">
        <ele>882</ele>
        <time>2010-07-18T08:46:23Z</time>
      </trkpt>
      <trkpt lat="44.3869" lon="5.80169">
        <ele>882</ele>
        <time>2010-07-18T08:46:30Z</time>
      </trkpt>
      <trkpt lat="44.38726" lon="5.8017">
        <ele>882</ele>
        <time>2010-07-18T08:46:37Z</time>
      </trkpt>
      <trkpt lat="44.38751" lon="5.80142">
        <ele>882</ele>
        <time>2010-07-18T08:46:44Z</time>
      </trkpt>
      <trkpt lat="44.38777" lon="5.80103">
        <ele>881</ele>
        <time>2010-07-18T08:46:51Z</time>
      </trkpt>
      <trkpt lat="44.38786" lon="5.80052">
        <ele>881</ele>
        <time>2010-07-18T08:46:58Z</time>
      </trkpt>
      <trkpt lat="44.38817" lon="5.80019">
        <ele>880</ele>
        <time>2010-07-18T08:47:05Z</time>
      </trkpt>
      <trkpt lat="44.38838" lon="5.79973">
        <ele>880</ele>
        <time>2010-07-18T08:47:12Z</time>
      </trkpt>
      <trkpt lat="44.3884" lon="5.79926">
        <ele>877</ele>
        <time>2010-07-18T08:47:19Z</time>
      </trkpt>
      <trkpt lat="44.38878" lon="5.7991">
        <ele>877</ele>
        <time>2010-07-18T08:47:26Z</time>
      </trkpt>
      <trkpt lat="44.38893" lon="5.79863">
        <ele>877</ele>
        <time>2010-07-18T08:47:33Z</time>
      </trkpt>
      <trkpt lat="44.3891" lon="5.79819">
        <ele>872</ele>
        <time>2010-07-18T08:47:40Z</time>
      </trkpt>
      <trkpt lat="44.38945" lon="5.79794">
        <ele>872</ele>
        <time>2010-07-18T08:47:47Z</time>
      </trkpt>
      <trkpt lat="44.3897" lon="5.79768">
        <ele>873</ele>
        <time>2010-07-18T08:47:54Z</time>
      </trkpt>
      <trkpt lat="44.38954" lon="5.79725">
        <ele>870</ele>
        <time>2010-07-18T08:48:01Z</time>
      </trkpt>
      <trkpt lat="44.38925" lon="5.79669">
        <ele>863</ele>
        <time>2010-07-18T08:48:08Z</time>
      </trkpt>
      <trkpt lat="44.38898" lon="5.79596">
        <ele>857</ele>
        <time>2010-07-18T08:48:15Z</time>
      </trkpt>
      <trkpt lat="44.38897" lon="5.7952">
        <ele>851</ele>
        <time>2010-07-18T08:48:22Z</time>
      </trkpt>
      <trkpt lat="44.3886" lon="5.79452">
        <ele>846</ele>
        <time>2010-07-18T08:48:29Z</time>
      </trkpt>
      <trkpt lat="44.38848" lon="5.79391">
        <ele>839</ele>
        <time>2010-07-18T08:48:36Z</time>
      </trkpt>
      <trkpt lat="44.38858" lon="5.79342">
        <ele>832</ele>
        <time>2010-07-18T08:48:43Z</time>
      </trkpt>
      <trkpt lat="44.38889" lon="5.79305">
        <ele>829</ele>
        <time>2010-07-18T08:48:50Z</time>
      </trkpt>
      <trkpt lat="44.38914" lon="5.79278">
        <ele>829</ele>
        <time>2010-07-18T08:48:57Z</time>
      </trkpt>
      <trkpt lat="44.38898" lon="5.7926">
        <ele>829</ele>
        <time>2010-07-18T08:49:04Z</time>
      </trkpt>
      <trkpt lat="44.38868" lon="5.79241">
        <ele>826</ele>
        <time>2010-07-18T08:49:11Z</time>
      </trkpt>
      <trkpt lat="44.3885" lon="5.79221">
        <ele>822</ele>
        <time>2010-07-18T08:49:18Z</time>
      </trkpt>
      <trkpt lat="44.38827" lon="5.79185">
        <ele>815</ele>
        <time>2010-07-18T08:49:25Z</time>
      </trkpt>
      <trkpt lat="44.38802" lon="5.79204">
        <ele>809</ele>
        <time>2010-07-18T08:49:32Z</time>
      </trkpt>
      <trkpt lat="44.38794" lon="5.79237">
        <ele>805</ele>
        <time>2010-07-18T08:49:39Z</time>
      </trkpt>
      <trkpt lat="44.38784" lon="5.79234">
        <ele>802</ele>
        <time>2010-07-18T08:49:46Z</time>
      </trkpt>
      <trkpt lat="44.38778" lon="5.79211">
        <ele>801</ele>
        <time>2010-07-18T08:49:53Z</time>
      </trkpt>
      <trkpt lat="44.38776" lon="5.79177">
        <ele>798</ele>
        <time>2010-07-18T08:50:00Z</time>
      </trkpt>
      <trkpt lat="44.38773" lon="5.79146">
        <ele>791</ele>
        <time>2010-07-18T08:50:07Z</time>
      </trkpt>
      <trkpt lat="44.38754" lon="5.79141">
        <ele>789</ele>
        <time>2010-07-18T08:50:14Z</time>
      </trkpt>
      <trkpt lat="44.38746" lon="5.79131">
        <ele>784</ele>
        <time>2010-07-18T08:50:21Z</time>
      </trkpt>
      <trkpt lat="44.38752" lon="5.79117">
        <ele>783</ele>
        <time>2010-07-18T08:50:28Z</time>
      </trkpt>
      <trkpt lat="44.38779" lon="5.79099">
        <ele>783</ele>
        <time>2010-07-18T08:50:35Z</time>
      </trkpt>
      <trkpt lat="44.38808" lon="5.79049">
        <ele>783</ele>
        <time>2010-07-18T08:50:42Z</time>
      </trkpt>
      <trkpt lat="44.3881" lon="5.79015">
        <ele>782</ele>
        <time>2010-07-18T08:50:49Z</time>
      </trkpt>
      <trkpt lat="44.38788" lon="5.78988">
        <ele>778</ele>
        <time>2010-07-18T08:50:56Z</time>
      </trkpt>
      <trkpt lat="44.38794" lon="5.78954">
        <ele>767</ele>
        <time>2010-07-18T08:51:03Z</time>
      </trkpt>
      <trkpt lat="44.3882" lon="5.7893">
        <ele>760</ele>
        <time>2010-07-18T08:51:10Z</time>
      </trkpt>
      <trkpt lat="44.38824" lon="5.78911">
        <ele>754</ele>
        <time>2010-07-18T08:51:17Z</time>
      </trkpt>
      <trkpt lat="44.38819" lon="5.78875">
        <ele>755</ele>
        <time>2010-07-18T08:51:24Z</time>
      </trkpt>
      <trkpt lat="44.38805" lon="5.78838">
        <ele>765</ele>
        <time>2010-07-18T08:51:31Z</time>
      </trkpt>
      <trkpt lat="44.38773" lon="5.78825">
        <ele>769</ele>
        <time>2010-07-18T08:51:38Z</time>
      </trkpt>
      <trkpt lat="44.3875" lon="5.78822">
        <ele>772</ele>
        <time>2010-07-18T08:51:45Z</time>
      </trkpt>
      <trkpt lat="44.38747" lon="5.78824">
        <ele>791</ele>
        <time>2010-07-18T08:51:54Z</time>
      </trkpt>
      <trkpt lat="44.3875" lon="5.78821">
        <ele>809</ele>
        <time>2010-07-18T08:52:03Z</time>
      </trkpt>
      <trkpt lat="44.3875" lon="5.78816">
        <ele>816</ele>
        <time>2010-07-18T08:52:10Z</time>
      </trkpt>
      <trkpt lat="44.38747" lon="5.788">
        <ele>816</ele>
        <time>2010-07-18T08:52:17Z</time>
      </trkpt>
      <trkpt lat="44.38745" lon="5.78756">
        <ele>813</ele>
        <time>2010-07-18T08:52:24Z</time>
      </trkpt>
      <trkpt lat="44.38741" lon="5.78712">
        <ele>805</ele>
        <time>2010-07-18T08:52:31Z</time>
      </trkpt>
      <trkpt lat="44.38725" lon="5.78693">
        <ele>787</ele>
        <time>2010-07-18T08:52:38Z</time>
      </trkpt>
      <trkpt lat="44.38714" lon="5.7868">
        <ele>767</ele>
        <time>2010-07-18T08:52:45Z</time>
      </trkpt>
      <trkpt lat="44.38695" lon="5.78661">
        <ele>752</ele>
        <time>2010-07-18T08:52:52Z</time>
      </trkpt>
      <trkpt lat="44.38684" lon="5.78622">
        <ele>742</ele>
        <time>2010-07-18T08:52:59Z</time>
      </trkpt>
      <trkpt lat="44.38673" lon="5.78581">
        <ele>742</ele>
        <time>2010-07-18T08:53:06Z</time>
      </trkpt>
      <trkpt lat="44.38661" lon="5.78541">
        <ele>742</ele>
        <time>2010-07-18T08:53:13Z</time>
      </trkpt>
      <trkpt lat="44.38646" lon="5.78507">
        <ele>742</ele>
        <time>2010-07-18T08:53:20Z</time>
      </trkpt>
      <trkpt lat="44.3863" lon="5.7847">
        <ele>738</ele>
        <time>2010-07-18T08:53:27Z</time>
      </trkpt>
      <trkpt lat="44.38616" lon="5.78424">
        <ele>734</ele>
        <time>2010-07-18T08:53:34Z</time>
      </trkpt>
      <trkpt lat="44.38606" lon="5.78408">
        <ele>730</ele>
        <time>2010-07-18T08:53:41Z</time>
      </trkpt>
      <trkpt lat="44.3861" lon="5.78405">
        <ele>724</ele>
        <time>2010-07-18T08:53:54Z</time>
      </trkpt>
      <trkpt lat="44.38609" lon="5.78403">
        <ele>721</ele>
        <time>2010-07-18T08:54:01Z</time>
      </trkpt>
      <trkpt lat="44.38597" lon="5.78387">
        <ele>721</ele>
        <time>2010-07-18T08:54:08Z</time>
      </trkpt>
      <trkpt lat="44.38579" lon="5.78365">
        <ele>725</ele>
        <time>2010-07-18T08:54:15Z</time>
      </trkpt>
      <trkpt lat="44.3856" lon="5.78344">
        <ele>731</ele>
        <time>2010-07-18T08:54:22Z</time>
      </trkpt>
      <trkpt lat="44.38546" lon="5.78323">
        <ele>733</ele>
        <time>2010-07-18T08:54:29Z</time>
      </trkpt>
      <trkpt lat="44.38532" lon="5.78302">
        <ele>733</ele>
        <time>2010-07-18T08:54:36Z</time>
      </trkpt>
      <trkpt lat="44.3852" lon="5.78276">
        <ele>731</ele>
        <time>2010-07-18T08:54:43Z</time>
      </trkpt>
      <trkpt lat="44.38512" lon="5.78257">
        <ele>728</ele>
        <time>2010-07-18T08:54:50Z</time>
      </trkpt>
      <trkpt lat="44.385" lon="5.78232">
        <ele>728</ele>
        <time>2010-07-18T08:54:57Z</time>
      </trkpt>
      <trkpt lat="44.38488" lon="5.78199">
        <ele>728</ele>
        <time>2010-07-18T08:55:04Z</time>
      </trkpt>
      <trkpt lat="44.38477" lon="5.78165">
        <ele>728</ele>
        <time>2010-07-18T08:55:11Z</time>
      </trkpt>
      <trkpt lat="44.38467" lon="5.78134">
        <ele>727</ele>
        <time>2010-07-18T08:55:18Z</time>
      </trkpt>
      <trkpt lat="44.38464" lon="5.78101">
        <ele>727</ele>
        <time>2010-07-18T08:55:25Z</time>
      </trkpt>
      <trkpt lat="44.38453" lon="5.78069">
        <ele>727</ele>
        <time>2010-07-18T08:55:32Z</time>
      </trkpt>
      <trkpt lat="44.38439" lon="5.78037">
        <ele>727</ele>
        <time>2010-07-18T08:55:39Z</time>
      </trkpt>
      <trkpt lat="44.38422" lon="5.7801">
        <ele>727</ele>
        <time>2010-07-18T08:55:46Z</time>
      </trkpt>
      <trkpt lat="44.38415" lon="5.77965">
        <ele>727</ele>
        <time>2010-07-18T08:55:53Z</time>
      </trkpt>
      <trkpt lat="44.38407" lon="5.77908">
        <ele>726</ele>
        <time>2010-07-18T08:56:00Z</time>
      </trkpt>
      <trkpt lat="44.38402" lon="5.7786">
        <ele>726</ele>
        <time>2010-07-18T08:56:07Z</time>
      </trkpt>
      <trkpt lat="44.38396" lon="5.77823">
        <ele>726</ele>
        <time>2010-07-18T08:56:14Z</time>
      </trkpt>
      <trkpt lat="44.38394" lon="5.77791">
        <ele>726</ele>
        <time>2010-07-18T08:56:21Z</time>
      </trkpt>
      <trkpt lat="44.38396" lon="5.7776">
        <ele>726</ele>
        <time>2010-07-18T08:56:28Z</time>
      </trkpt>
      <trkpt lat="44.38399" lon="5.77725">
        <ele>726</ele>
        <time>2010-07-18T08:56:35Z</time>
      </trkpt>
      <trkpt lat="44.384" lon="5.77681">
        <ele>726</ele>
        <time>2010-07-18T08:56:42Z</time>
      </trkpt>
      <trkpt lat="44.38394" lon="5.77642">
        <ele>726</ele>
        <time>2010-07-18T08:56:49Z</time>
      </trkpt>
      <trkpt lat="44.38385" lon="5.77604">
        <ele>726</ele>
        <time>2010-07-18T08:56:56Z</time>
      </trkpt>
      <trkpt lat="44.38374" lon="5.77571">
        <ele>726</ele>
        <time>2010-07-18T08:57:03Z</time>
      </trkpt>
      <trkpt lat="44.38361" lon="5.77538">
        <ele>726</ele>
        <time>2010-07-18T08:57:10Z</time>
      </trkpt>
      <trkpt lat="44.38356" lon="5.77503">
        <ele>726</ele>
        <time>2010-07-18T08:57:17Z</time>
      </trkpt>
      <trkpt lat="44.38349" lon="5.77475">
        <ele>726</ele>
        <time>2010-07-18T08:57:24Z</time>
      </trkpt>
      <trkpt lat="44.38333" lon="5.77453">
        <ele>726</ele>
        <time>2010-07-18T08:57:31Z</time>
      </trkpt>
      <trkpt lat="44.38315" lon="5.77421">
        <ele>726</ele>
        <time>2010-07-18T08:57:38Z</time>
      </trkpt>
      <trkpt lat="44.38303" lon="5.77385">
        <ele>726</ele>
        <time>2010-07-18T08:57:45Z</time>
      </trkpt>
      <trkpt lat="44.38297" lon="5.77341">
        <ele>726</ele>
        <time>2010-07-18T08:57:52Z</time>
      </trkpt>
      <trkpt lat="44.38284" lon="5.77298">
        <ele>726</ele>
        <time>2010-07-18T08:57:59Z</time>
      </trkpt>
      <trkpt lat="44.38278" lon="5.77267">
        <ele>726</ele>
        <time>2010-07-18T08:58:06Z</time>
      </trkpt>
      <trkpt lat="44.38276" lon="5.77263">
        <ele>726</ele>
        <time>2010-07-18T08:58:16Z</time>
      </trkpt>
      <trkpt lat="44.38273" lon="5.7726">
        <ele>726</ele>
        <time>2010-07-18T08:58:32Z</time>
      </trkpt>
      <trkpt lat="44.38263" lon="5.77251">
        <ele>726</ele>
        <time>2010-07-18T08:58:39Z</time>
      </trkpt>
      <trkpt lat="44.38256" lon="5.77229">
        <ele>726</ele>
        <time>2010-07-18T08:58:46Z</time>
      </trkpt>
      <trkpt lat="44.38252" lon="5.77202">
        <ele>726</ele>
        <time>2010-07-18T08:58:53Z</time>
      </trkpt>
      <trkpt lat="44.38252" lon="5.77165">
        <ele>726</ele>
        <time>2010-07-18T08:59:00Z</time>
      </trkpt>
      <trkpt lat="44.38265" lon="5.77129">
        <ele>729</ele>
        <time>2010-07-18T08:59:07Z</time>
      </trkpt>
      <trkpt lat="44.38269" lon="5.77105">
        <ele>730</ele>
        <time>2010-07-18T08:59:14Z</time>
      </trkpt>
      <trkpt lat="44.38267" lon="5.77092">
        <ele>729</ele>
        <time>2010-07-18T08:59:21Z</time>
      </trkpt>
      <trkpt lat="44.38256" lon="5.77071">
        <ele>728</ele>
        <time>2010-07-18T08:59:28Z</time>
      </trkpt>
      <trkpt lat="44.38253" lon="5.77053">
        <ele>728</ele>
        <time>2010-07-18T08:59:35Z</time>
      </trkpt>
      <trkpt lat="44.38247" lon="5.77051">
        <ele>728</ele>
        <time>2010-07-18T08:59:42Z</time>
      </trkpt>
      <trkpt lat="44.38238" lon="5.7706">
        <ele>728</ele>
        <time>2010-07-18T08:59:49Z</time>
      </trkpt>
      <trkpt lat="44.38228" lon="5.77078">
        <ele>730</ele>
        <time>2010-07-18T08:59:56Z</time>
      </trkpt>
      <trkpt lat="44.38215" lon="5.7709">
        <ele>732</ele>
        <time>2010-07-18T09:00:03Z</time>
      </trkpt>
      <trkpt lat="44.38202" lon="5.77103">
        <ele>733</ele>
        <time>2010-07-18T09:00:10Z</time>
      </trkpt>
      <trkpt lat="44.38183" lon="5.77095">
        <ele>734</ele>
        <time>2010-07-18T09:00:17Z</time>
      </trkpt>
      <trkpt lat="44.38163" lon="5.77085">
        <ele>734</ele>
        <time>2010-07-18T09:00:24Z</time>
      </trkpt>
      <trkpt lat="44.38132" lon="5.77075">
        <ele>734</ele>
        <time>2010-07-18T09:00:31Z</time>
      </trkpt>
      <trkpt lat="44.38103" lon="5.77045">
        <ele>734</ele>
        <time>2010-07-18T09:00:38Z</time>
      </trkpt>
      <trkpt lat="44.38096" lon="5.76999">
        <ele>733</ele>
        <time>2010-07-18T09:00:45Z</time>
      </trkpt>
      <trkpt lat="44.38117" lon="5.76956">
        <ele>732</ele>
        <time>2010-07-18T09:00:52Z</time>
      </trkpt>
      <trkpt lat="44.38119" lon="5.76901">
        <ele>732</ele>
        <time>2010-07-18T09:00:59Z</time>
      </trkpt>
      <trkpt lat="44.38082" lon="5.76876">
        <ele>730</ele>
        <time>2010-07-18T09:01:06Z</time>
      </trkpt>
      <trkpt lat="44.38034" lon="5.76906">
        <ele>728</ele>
        <time>2010-07-18T09:01:13Z</time>
      </trkpt>
      <trkpt lat="44.3797" lon="5.7691">
        <ele>721</ele>
        <time>2010-07-18T09:01:20Z</time>
      </trkpt>
      <trkpt lat="44.37931" lon="5.76891">
        <ele>714</ele>
        <time>2010-07-18T09:01:27Z</time>
      </trkpt>
      <trkpt lat="44.3791" lon="5.76878">
        <ele>711</ele>
        <time>2010-07-18T09:01:34Z</time>
      </trkpt>
      <trkpt lat="44.3791" lon="5.76878">
        <ele>703</ele>
        <time>2010-07-18T09:01:48Z</time>
      </trkpt>
      <trkpt lat="44.37915" lon="5.76876">
        <ele>700</ele>
        <time>2010-07-18T09:01:56Z</time>
      </trkpt>
      <trkpt lat="44.37918" lon="5.76874">
        <ele>699</ele>
        <time>2010-07-18T09:02:07Z</time>
      </trkpt>
      <trkpt lat="44.37918" lon="5.76877">
        <ele>693</ele>
        <time>2010-07-18T09:02:16Z</time>
      </trkpt>
      <trkpt lat="44.37914" lon="5.76878">
        <ele>696</ele>
        <time>2010-07-18T09:02:25Z</time>
      </trkpt>
      <trkpt lat="44.37913" lon="5.7688">
        <ele>701</ele>
        <time>2010-07-18T09:02:38Z</time>
      </trkpt>
      <trkpt lat="44.37912" lon="5.76879">
        <ele>706</ele>
        <time>2010-07-18T09:02:45Z</time>
      </trkpt>
      <trkpt lat="44.37905" lon="5.76879">
        <ele>709</ele>
        <time>2010-07-18T09:02:59Z</time>
      </trkpt>
      <trkpt lat="44.37904" lon="5.76877">
        <ele>714</ele>
        <time>2010-07-18T09:03:09Z</time>
      </trkpt>
      <trkpt lat="44.37904" lon="5.76876">
        <ele>716</ele>
        <time>2010-07-18T09:03:17Z</time>
      </trkpt>
      <trkpt lat="44.37906" lon="5.76872">
        <ele>719</ele>
        <time>2010-07-18T09:03:24Z</time>
      </trkpt>
      <trkpt lat="44.37909" lon="5.76868">
        <ele>723</ele>
        <time>2010-07-18T09:03:33Z</time>
      </trkpt>
      <trkpt lat="44.3791" lon="5.76864">
        <ele>727</ele>
        <time>2010-07-18T09:03:42Z</time>
      </trkpt>
      <trkpt lat="44.37911" lon="5.76861">
        <ele>731</ele>
        <time>2010-07-18T09:03:51Z</time>
      </trkpt>
      <trkpt lat="44.3791" lon="5.76861">
        <ele>733</ele>
        <time>2010-07-18T09:03:58Z</time>
      </trkpt>
      <trkpt lat="44.37906" lon="5.76859">
        <ele>733</ele>
        <time>2010-07-18T09:04:06Z</time>
      </trkpt>
      <trkpt lat="44.37904" lon="5.76858">
        <ele>733</ele>
        <time>2010-07-18T09:04:13Z</time>
      </trkpt>
      <trkpt lat="44.37907" lon="5.76862">
        <ele>733</ele>
        <time>2010-07-18T09:04:20Z</time>
      </trkpt>
      <trkpt lat="44.37907" lon="5.76866">
        <ele>731</ele>
        <time>2010-07-18T09:04:27Z</time>
      </trkpt>
      <trkpt lat="44.37905" lon="5.76867">
        <ele>730</ele>
        <time>2010-07-18T09:04:36Z</time>
      </trkpt>
      <trkpt lat="44.37907" lon="5.76868">
        <ele>730</ele>
        <time>2010-07-18T09:04:44Z</time>
      </trkpt>
      <trkpt lat="44.37911" lon="5.76867">
        <ele>730</ele>
        <time>2010-07-18T09:04:51Z</time>
      </trkpt>
      <trkpt lat="44.37914" lon="5.76871">
        <ele>730</ele>
        <time>2010-07-18T09:04:58Z</time>
      </trkpt>
      <trkpt lat="44.37678" lon="5.76626">
        <ele>689</ele>
        <time>2010-07-18T09:05:06Z</time>
      </trkpt>
      <trkpt lat="44.37645" lon="5.76595">
        <ele>686</ele>
        <time>2010-07-18T09:05:13Z</time>
      </trkpt>
      <trkpt lat="44.37616" lon="5.76545">
        <ele>686</ele>
        <time>2010-07-18T09:05:20Z</time>
      </trkpt>
      <trkpt lat="44.37592" lon="5.76495">
        <ele>686</ele>
        <time>2010-07-18T09:05:27Z</time>
      </trkpt>
      <trkpt lat="44.3757" lon="5.76452">
        <ele>684</ele>
        <time>2010-07-18T09:05:35Z</time>
      </trkpt>
      <trkpt lat="44.3753" lon="5.76503">
        <ele>682</ele>
        <time>2010-07-18T09:05:42Z</time>
      </trkpt>
      <trkpt lat="44.37489" lon="5.76558">
        <ele>681</ele>
        <time>2010-07-18T09:05:49Z</time>
      </trkpt>
      <trkpt lat="44.37452" lon="5.76624">
        <ele>677</ele>
        <time>2010-07-18T09:05:56Z</time>
      </trkpt>
      <trkpt lat="44.37416" lon="5.76718">
        <ele>670</ele>
        <time>2010-07-18T09:06:04Z</time>
      </trkpt>
      <trkpt lat="44.37391" lon="5.76794">
        <ele>663</ele>
        <time>2010-07-18T09:06:11Z</time>
      </trkpt>
      <trkpt lat="44.37329" lon="5.76802">
        <ele>660</ele>
        <time>2010-07-18T09:06:18Z</time>
      </trkpt>
      <trkpt lat="44.3727" lon="5.76835">
        <ele>655</ele>
        <time>2010-07-18T09:06:25Z</time>
      </trkpt>
      <trkpt lat="44.37216" lon="5.76885">
        <ele>651</ele>
        <time>2010-07-18T09:06:32Z</time>
      </trkpt>
      <trkpt lat="44.37156" lon="5.76898">
        <ele>645</ele>
        <time>2010-07-18T09:06:39Z</time>
      </trkpt>
      <trkpt lat="44.37097" lon="5.76899">
        <ele>643</ele>
        <time>2010-07-18T09:06:46Z</time>
      </trkpt>
      <trkpt lat="44.3704" lon="5.76905">
        <ele>642</ele>
        <time>2010-07-18T09:06:53Z</time>
      </trkpt>
      <trkpt lat="44.36998" lon="5.76905">
        <ele>640</ele>
        <time>2010-07-18T09:07:00Z</time>
      </trkpt>
      <trkpt lat="44.36976" lon="5.76917">
        <ele>640</ele>
        <time>2010-07-18T09:07:07Z</time>
      </trkpt>
      <trkpt lat="44.36963" lon="5.76925">
        <ele>640</ele>
        <time>2010-07-18T09:07:17Z</time>
      </trkpt>
      <trkpt lat="44.36954" lon="5.76941">
        <ele>639</ele>
        <time>2010-07-18T09:07:26Z</time>
      </trkpt>
      <trkpt lat="44.36955" lon="5.76943">
        <ele>639</ele>
        <time>2010-07-18T09:07:33Z</time>
      </trkpt>
      <trkpt lat="44.36961" lon="5.76927">
        <ele>639</ele>
        <time>2010-07-18T09:07:41Z</time>
      </trkpt>
      <trkpt lat="44.36948" lon="5.76916">
        <ele>639</ele>
        <time>2010-07-18T09:07:48Z</time>
      </trkpt>
      <trkpt lat="44.36951" lon="5.76927">
        <ele>643</ele>
        <time>2010-07-18T09:07:57Z</time>
      </trkpt>
      <trkpt lat="44.36953" lon="5.7694">
        <ele>646</ele>
        <time>2010-07-18T09:08:05Z</time>
      </trkpt>
      <trkpt lat="44.36948" lon="5.76947">
        <ele>646</ele>
        <time>2010-07-18T09:08:12Z</time>
      </trkpt>
      <trkpt lat="44.36935" lon="5.76965">
        <ele>648</ele>
        <time>2010-07-18T09:08:25Z</time>
      </trkpt>
      <trkpt lat="44.36928" lon="5.76971">
        <ele>648</ele>
        <time>2010-07-18T09:08:32Z</time>
      </trkpt>
      <trkpt lat="44.36921" lon="5.7698">
        <ele>649</ele>
        <time>2010-07-18T09:08:40Z</time>
      </trkpt>
      <trkpt lat="44.36905" lon="5.77001">
        <ele>649</ele>
        <time>2010-07-18T09:08:48Z</time>
      </trkpt>
      <trkpt lat="44.36895" lon="5.77011">
        <ele>649</ele>
        <time>2010-07-18T09:08:55Z</time>
      </trkpt>
      <trkpt lat="44.36881" lon="5.77024">
        <ele>651</ele>
        <time>2010-07-18T09:09:02Z</time>
      </trkpt>
      <trkpt lat="44.36867" lon="5.77038">
        <ele>651</ele>
        <time>2010-07-18T09:09:09Z</time>
      </trkpt>
      <trkpt lat="44.36856" lon="5.77054">
        <ele>651</ele>
        <time>2010-07-18T09:09:16Z</time>
      </trkpt>
      <trkpt lat="44.36845" lon="5.7707">
        <ele>651</ele>
        <time>2010-07-18T09:09:23Z</time>
      </trkpt>
      <trkpt lat="44.36835" lon="5.7709">
        <ele>653</ele>
        <time>2010-07-18T09:09:30Z</time>
      </trkpt>
      <trkpt lat="44.36826" lon="5.77114">
        <ele>653</ele>
        <time>2010-07-18T09:09:37Z</time>
      </trkpt>
      <trkpt lat="44.36811" lon="5.77165">
        <ele>653</ele>
        <time>2010-07-18T09:09:44Z</time>
      </trkpt>
      <trkpt lat="44.36791" lon="5.77219">
        <ele>653</ele>
        <time>2010-07-18T09:09:51Z</time>
      </trkpt>
      <trkpt lat="44.3677" lon="5.77259">
        <ele>653</ele>
        <time>2010-07-18T09:09:58Z</time>
      </trkpt>
      <trkpt lat="44.36746" lon="5.77294">
        <ele>653</ele>
        <time>2010-07-18T09:10:05Z</time>
      </trkpt>
      <trkpt lat="44.36721" lon="5.77323">
        <ele>653</ele>
        <time>2010-07-18T09:10:12Z</time>
      </trkpt>
      <trkpt lat="44.36705" lon="5.77342">
        <ele>653</ele>
        <time>2010-07-18T09:10:19Z</time>
      </trkpt>
      <trkpt lat="44.3669" lon="5.77345">
        <ele>653</ele>
        <time>2010-07-18T09:10:26Z</time>
      </trkpt>
      <trkpt lat="44.36685" lon="5.77341">
        <ele>653</ele>
        <time>2010-07-18T09:10:33Z</time>
      </trkpt>
      <trkpt lat="44.36685" lon="5.77339">
        <ele>653</ele>
        <time>2010-07-18T09:10:41Z</time>
      </trkpt>
      <trkpt lat="44.36684" lon="5.77341">
        <ele>653</ele>
        <time>2010-07-18T09:10:48Z</time>
      </trkpt>
      <trkpt lat="44.36678" lon="5.77342">
        <ele>653</ele>
        <time>2010-07-18T09:10:55Z</time>
      </trkpt>
      <trkpt lat="44.36669" lon="5.77344">
        <ele>653</ele>
        <time>2010-07-18T09:11:02Z</time>
      </trkpt>
      <trkpt lat="44.3666" lon="5.7735">
        <ele>653</ele>
        <time>2010-07-18T09:11:10Z</time>
      </trkpt>
      <trkpt lat="44.36652" lon="5.77353">
        <ele>655</ele>
        <time>2010-07-18T09:11:17Z</time>
      </trkpt>
      <trkpt lat="44.36643" lon="5.77358">
        <ele>656</ele>
        <time>2010-07-18T09:11:24Z</time>
      </trkpt>
      <trkpt lat="44.36634" lon="5.7736">
        <ele>658</ele>
        <time>2010-07-18T09:11:31Z</time>
      </trkpt>
      <trkpt lat="44.36626" lon="5.77362">
        <ele>659</ele>
        <time>2010-07-18T09:11:38Z</time>
      </trkpt>
      <trkpt lat="44.36617" lon="5.77363">
        <ele>661</ele>
        <time>2010-07-18T09:11:45Z</time>
      </trkpt>
      <trkpt lat="44.36607" lon="5.77365">
        <ele>662</ele>
        <time>2010-07-18T09:11:52Z</time>
      </trkpt>
      <trkpt lat="44.36596" lon="5.77366">
        <ele>663</ele>
        <time>2010-07-18T09:11:59Z</time>
      </trkpt>
      <trkpt lat="44.36585" lon="5.7737">
        <ele>665</ele>
        <time>2010-07-18T09:12:06Z</time>
      </trkpt>
      <trkpt lat="44.36566" lon="5.77377">
        <ele>666</ele>
        <time>2010-07-18T09:12:14Z</time>
      </trkpt>
      <trkpt lat="44.36544" lon="5.77394">
        <ele>666</ele>
        <time>2010-07-18T09:12:21Z</time>
      </trkpt>
      <trkpt lat="44.3652" lon="5.77421">
        <ele>666</ele>
        <time>2010-07-18T09:12:28Z</time>
      </trkpt>
      <trkpt lat="44.36495" lon="5.77448">
        <ele>666</ele>
        <time>2010-07-18T09:12:35Z</time>
      </trkpt>
      <trkpt lat="44.36478" lon="5.77499">
        <ele>666</ele>
        <time>2010-07-18T09:12:42Z</time>
      </trkpt>
      <trkpt lat="44.36466" lon="5.77551">
        <ele>661</ele>
        <time>2010-07-18T09:12:49Z</time>
      </trkpt>
      <trkpt lat="44.36442" lon="5.77599">
        <ele>661</ele>
        <time>2010-07-18T09:12:56Z</time>
      </trkpt>
      <trkpt lat="44.36413" lon="5.77647">
        <ele>661</ele>
        <time>2010-07-18T09:13:03Z</time>
      </trkpt>
      <trkpt lat="44.36383" lon="5.77693">
        <ele>660</ele>
        <time>2010-07-18T09:13:10Z</time>
      </trkpt>
      <trkpt lat="44.36343" lon="5.77707">
        <ele>660</ele>
        <time>2010-07-18T09:13:17Z</time>
      </trkpt>
      <trkpt lat="44.36316" lon="5.77735">
        <ele>660</ele>
        <time>2010-07-18T09:13:24Z</time>
      </trkpt>
      <trkpt lat="44.363" lon="5.77755">
        <ele>660</ele>
        <time>2010-07-18T09:13:31Z</time>
      </trkpt>
      <trkpt lat="44.3628" lon="5.7777">
        <ele>662</ele>
        <time>2010-07-18T09:13:38Z</time>
      </trkpt>
      <trkpt lat="44.36261" lon="5.77786">
        <ele>664</ele>
        <time>2010-07-18T09:13:45Z</time>
      </trkpt>
      <trkpt lat="44.36238" lon="5.77813">
        <ele>665</ele>
        <time>2010-07-18T09:13:52Z</time>
      </trkpt>
      <trkpt lat="44.36204" lon="5.77844">
        <ele>665</ele>
        <time>2010-07-18T09:13:59Z</time>
      </trkpt>
      <trkpt lat="44.36172" lon="5.77864">
        <ele>665</ele>
        <time>2010-07-18T09:14:06Z</time>
      </trkpt>
      <trkpt lat="44.36152" lon="5.77907">
        <ele>660</ele>
        <time>2010-07-18T09:14:14Z</time>
      </trkpt>
      <trkpt lat="44.36146" lon="5.77925">
        <ele>656</ele>
        <time>2010-07-18T09:14:21Z</time>
      </trkpt>
      <trkpt lat="44.36137" lon="5.77923">
        <ele>654</ele>
        <time>2010-07-18T09:14:28Z</time>
      </trkpt>
      <trkpt lat="44.3613" lon="5.77927">
        <ele>654</ele>
        <time>2010-07-18T09:14:36Z</time>
      </trkpt>
      <trkpt lat="44.36129" lon="5.77928">
        <ele>654</ele>
        <time>2010-07-18T09:14:43Z</time>
      </trkpt>
      <trkpt lat="44.36125" lon="5.77932">
        <ele>654</ele>
        <time>2010-07-18T09:14:51Z</time>
      </trkpt>
      <trkpt lat="44.3612" lon="5.7794">
        <ele>657</ele>
        <time>2010-07-18T09:14:58Z</time>
      </trkpt>
      <trkpt lat="44.36118" lon="5.77946">
        <ele>659</ele>
        <time>2010-07-18T09:15:05Z</time>
      </trkpt>
      <trkpt lat="44.36118" lon="5.77954">
        <ele>663</ele>
        <time>2010-07-18T09:15:14Z</time>
      </trkpt>
      <trkpt lat="44.36119" lon="5.77961">
        <ele>666</ele>
        <time>2010-07-18T09:15:22Z</time>
      </trkpt>
      <trkpt lat="44.3612" lon="5.7797">
        <ele>668</ele>
        <time>2010-07-18T09:15:30Z</time>
      </trkpt>
      <trkpt lat="44.36121" lon="5.77977">
        <ele>669</ele>
        <time>2010-07-18T09:15:38Z</time>
      </trkpt>
      <trkpt lat="44.36123" lon="5.77982">
        <ele>670</ele>
        <time>2010-07-18T09:15:45Z</time>
      </trkpt>
      <trkpt lat="44.36122" lon="5.7799">
        <ele>672</ele>
        <time>2010-07-18T09:15:53Z</time>
      </trkpt>
      <trkpt lat="44.36121" lon="5.77998">
        <ele>672</ele>
        <time>2010-07-18T09:16:00Z</time>
      </trkpt>
      <trkpt lat="44.36118" lon="5.78013">
        <ele>672</ele>
        <time>2010-07-18T09:16:07Z</time>
      </trkpt>
      <trkpt lat="44.36115" lon="5.78029">
        <ele>672</ele>
        <time>2010-07-18T09:16:14Z</time>
      </trkpt>
      <trkpt lat="44.36113" lon="5.78044">
        <ele>674</ele>
        <time>2010-07-18T09:16:21Z</time>
      </trkpt>
      <trkpt lat="44.36116" lon="5.78062">
        <ele>674</ele>
        <time>2010-07-18T09:16:28Z</time>
      </trkpt>
      <trkpt lat="44.36123" lon="5.78076">
        <ele>674</ele>
        <time>2010-07-18T09:16:35Z</time>
      </trkpt>
      <trkpt lat="44.36132" lon="5.78086">
        <ele>674</ele>
        <time>2010-07-18T09:16:42Z</time>
      </trkpt>
      <trkpt lat="44.36137" lon="5.781">
        <ele>674</ele>
        <time>2010-07-18T09:16:49Z</time>
      </trkpt>
      <trkpt lat="44.36137" lon="5.78117">
        <ele>676</ele>
        <time>2010-07-18T09:16:56Z</time>
      </trkpt>
      <trkpt lat="44.36133" lon="5.78133">
        <ele>677</ele>
        <time>2010-07-18T09:17:03Z</time>
      </trkpt>
      <trkpt lat="44.36112" lon="5.78154">
        <ele>677</ele>
        <time>2010-07-18T09:17:10Z</time>
      </trkpt>
      <trkpt lat="44.36095" lon="5.78164">
        <ele>677</ele>
        <time>2010-07-18T09:17:17Z</time>
      </trkpt>
      <trkpt lat="44.3609" lon="5.78167">
        <ele>677</ele>
        <time>2010-07-18T09:17:24Z</time>
      </trkpt>
      <trkpt lat="44.36088" lon="5.78186">
        <ele>677</ele>
        <time>2010-07-18T09:17:32Z</time>
      </trkpt>
      <trkpt lat="44.36084" lon="5.7819">
        <ele>677</ele>
        <time>2010-07-18T09:17:39Z</time>
      </trkpt>
      <trkpt lat="44.3608" lon="5.78194">
        <ele>677</ele>
        <time>2010-07-18T09:17:47Z</time>
      </trkpt>
      <trkpt lat="44.36076" lon="5.78196">
        <ele>677</ele>
        <time>2010-07-18T09:17:54Z</time>
      </trkpt>
      <trkpt lat="44.36073" lon="5.78196">
        <ele>677</ele>
        <time>2010-07-18T09:18:01Z</time>
      </trkpt>
      <trkpt lat="44.36067" lon="5.782">
        <ele>680</ele>
        <time>2010-07-18T09:18:10Z</time>
      </trkpt>
      <trkpt lat="44.36063" lon="5.78202">
        <ele>680</ele>
        <time>2010-07-18T09:18:41Z</time>
      </trkpt>
      <trkpt lat="44.36046" lon="5.78219">
        <ele>680</ele>
        <time>2010-07-18T09:18:49Z</time>
      </trkpt>
      <trkpt lat="44.36039" lon="5.78237">
        <ele>680</ele>
        <time>2010-07-18T09:18:56Z</time>
      </trkpt>
      <trkpt lat="44.36031" lon="5.78259">
        <ele>680</ele>
        <time>2010-07-18T09:19:04Z</time>
      </trkpt>
      <trkpt lat="44.36015" lon="5.7827">
        <ele>680</ele>
        <time>2010-07-18T09:19:11Z</time>
      </trkpt>
      <trkpt lat="44.35994" lon="5.78277">
        <ele>680</ele>
        <time>2010-07-18T09:19:19Z</time>
      </trkpt>
      <trkpt lat="44.35982" lon="5.78274">
        <ele>680</ele>
        <time>2010-07-18T09:19:26Z</time>
      </trkpt>
      <trkpt lat="44.35972" lon="5.78276">
        <ele>681</ele>
        <time>2010-07-18T09:19:33Z</time>
      </trkpt>
      <trkpt lat="44.35964" lon="5.78279">
        <ele>681</ele>
        <time>2010-07-18T09:19:43Z</time>
      </trkpt>
      <trkpt lat="44.35957" lon="5.7828">
        <ele>685</ele>
        <time>2010-07-18T09:19:55Z</time>
      </trkpt>
      <trkpt lat="44.35953" lon="5.78283">
        <ele>688</ele>
        <time>2010-07-18T09:20:02Z</time>
      </trkpt>
      <trkpt lat="44.35949" lon="5.78284">
        <ele>690</ele>
        <time>2010-07-18T09:20:10Z</time>
      </trkpt>
      <trkpt lat="44.35944" lon="5.78289">
        <ele>693</ele>
        <time>2010-07-18T09:20:18Z</time>
      </trkpt>
      <trkpt lat="44.3594" lon="5.7829">
        <ele>696</ele>
        <time>2010-07-18T09:20:29Z</time>
      </trkpt>
      <trkpt lat="44.35941" lon="5.7829">
        <ele>696</ele>
        <time>2010-07-18T09:20:37Z</time>
      </trkpt>
      <trkpt lat="44.35942" lon="5.78289">
        <ele>696</ele>
        <time>2010-07-18T09:20:48Z</time>
      </trkpt>
      <trkpt lat="44.35941" lon="5.78289">
        <ele>696</ele>
        <time>2010-07-18T09:21:01Z</time>
      </trkpt>
      <trkpt lat="44.35937" lon="5.7829">
        <ele>696</ele>
        <time>2010-07-18T09:21:09Z</time>
      </trkpt>
      <trkpt lat="44.35925" lon="5.78297">
        <ele>696</ele>
        <time>2010-07-18T09:21:16Z</time>
      </trkpt>
      <trkpt lat="44.35918" lon="5.78315">
        <ele>692</ele>
        <time>2010-07-18T09:21:23Z</time>
      </trkpt>
      <trkpt lat="44.35913" lon="5.78343">
        <ele>685</ele>
        <time>2010-07-18T09:21:31Z</time>
      </trkpt>
      <trkpt lat="44.35883" lon="5.78371">
        <ele>682</ele>
        <time>2010-07-18T09:21:39Z</time>
      </trkpt>
      <trkpt lat="44.35869" lon="5.78394">
        <ele>681</ele>
        <time>2010-07-18T09:21:46Z</time>
      </trkpt>
      <trkpt lat="44.35869" lon="5.78411">
        <ele>681</ele>
        <time>2010-07-18T09:21:55Z</time>
      </trkpt>
      <trkpt lat="44.35865" lon="5.7842">
        <ele>681</ele>
        <time>2010-07-18T09:22:02Z</time>
      </trkpt>
      <trkpt lat="44.35864" lon="5.78425">
        <ele>681</ele>
        <time>2010-07-18T09:22:19Z</time>
      </trkpt>
      <trkpt lat="44.35862" lon="5.78426">
        <ele>681</ele>
        <time>2010-07-18T09:22:30Z</time>
      </trkpt>
      <trkpt lat="44.35832" lon="5.7844">
        <ele>681</ele>
        <time>2010-07-18T09:22:37Z</time>
      </trkpt>
      <trkpt lat="44.35788" lon="5.78453">
        <ele>681</ele>
        <time>2010-07-18T09:22:44Z</time>
      </trkpt>
      <trkpt lat="44.35742" lon="5.7846">
        <ele>679</ele>
        <time>2010-07-18T09:22:51Z</time>
      </trkpt>
      <trkpt lat="44.35692" lon="5.78463">
        <ele>677</ele>
        <time>2010-07-18T09:22:59Z</time>
      </trkpt>
      <trkpt lat="44.35654" lon="5.78497">
        <ele>675</ele>
        <time>2010-07-18T09:23:06Z</time>
      </trkpt>
      <trkpt lat="44.35617" lon="5.78537">
        <ele>673</ele>
        <time>2010-07-18T09:23:14Z</time>
      </trkpt>
      <trkpt lat="44.35586" lon="5.78567">
        <ele>671</ele>
        <time>2010-07-18T09:23:21Z</time>
      </trkpt>
      <trkpt lat="44.35545" lon="5.78616">
        <ele>668</ele>
        <time>2010-07-18T09:23:29Z</time>
      </trkpt>
      <trkpt lat="44.35506" lon="5.78664">
        <ele>663</ele>
        <time>2010-07-18T09:23:36Z</time>
      </trkpt>
      <trkpt lat="44.35441" lon="5.78691">
        <ele>658</ele>
        <time>2010-07-18T09:23:44Z</time>
      </trkpt>
      <trkpt lat="44.35405" lon="5.7868">
        <ele>653</ele>
        <time>2010-07-18T09:23:51Z</time>
      </trkpt>
      <trkpt lat="44.35374" lon="5.78644">
        <ele>648</ele>
        <time>2010-07-18T09:23:59Z</time>
      </trkpt>
      <trkpt lat="44.35366" lon="5.7865">
        <ele>648</ele>
        <time>2010-07-18T09:24:06Z</time>
      </trkpt>
      <trkpt lat="44.35364" lon="5.78663">
        <ele>648</ele>
        <time>2010-07-18T09:24:15Z</time>
      </trkpt>
      <trkpt lat="44.35368" lon="5.78675">
        <ele>648</ele>
        <time>2010-07-18T09:24:23Z</time>
      </trkpt>
      <trkpt lat="44.3537" lon="5.78684">
        <ele>650</ele>
        <time>2010-07-18T09:24:30Z</time>
      </trkpt>
      <trkpt lat="44.35373" lon="5.78696">
        <ele>650</ele>
        <time>2010-07-18T09:24:38Z</time>
      </trkpt>
      <trkpt lat="44.35374" lon="5.78705">
        <ele>650</ele>
        <time>2010-07-18T09:24:46Z</time>
      </trkpt>
      <trkpt lat="44.35368" lon="5.78715">
        <ele>653</ele>
        <time>2010-07-18T09:24:55Z</time>
      </trkpt>
      <trkpt lat="44.3536" lon="5.78722">
        <ele>655</ele>
        <time>2010-07-18T09:25:02Z</time>
      </trkpt>
      <trkpt lat="44.35351" lon="5.78728">
        <ele>656</ele>
        <time>2010-07-18T09:25:09Z</time>
      </trkpt>
      <trkpt lat="44.35342" lon="5.78733">
        <ele>657</ele>
        <time>2010-07-18T09:25:16Z</time>
      </trkpt>
      <trkpt lat="44.35331" lon="5.78739">
        <ele>659</ele>
        <time>2010-07-18T09:25:24Z</time>
      </trkpt>
      <trkpt lat="44.35321" lon="5.7874">
        <ele>660</ele>
        <time>2010-07-18T09:25:31Z</time>
      </trkpt>
      <trkpt lat="44.3531" lon="5.78737">
        <ele>661</ele>
        <time>2010-07-18T09:25:39Z</time>
      </trkpt>
      <trkpt lat="44.353" lon="5.78732">
        <ele>662</ele>
        <time>2010-07-18T09:25:46Z</time>
      </trkpt>
      <trkpt lat="44.35289" lon="5.78726">
        <ele>663</ele>
        <time>2010-07-18T09:25:54Z</time>
      </trkpt>
      <trkpt lat="44.35278" lon="5.78721">
        <ele>664</ele>
        <time>2010-07-18T09:26:01Z</time>
      </trkpt>
      <trkpt lat="44.35268" lon="5.78719">
        <ele>667</ele>
        <time>2010-07-18T09:26:08Z</time>
      </trkpt>
      <trkpt lat="44.35265" lon="5.7871">
        <ele>668</ele>
        <time>2010-07-18T09:26:17Z</time>
      </trkpt>
      <trkpt lat="44.35266" lon="5.787">
        <ele>670</ele>
        <time>2010-07-18T09:26:25Z</time>
      </trkpt>
      <trkpt lat="44.35268" lon="5.78688">
        <ele>673</ele>
        <time>2010-07-18T09:26:32Z</time>
      </trkpt>
      <trkpt lat="44.3527" lon="5.78674">
        <ele>676</ele>
        <time>2010-07-18T09:26:39Z</time>
      </trkpt>
      <trkpt lat="44.35269" lon="5.78661">
        <ele>679</ele>
        <time>2010-07-18T09:26:46Z</time>
      </trkpt>
      <trkpt lat="44.35263" lon="5.78648">
        <ele>680</ele>
        <time>2010-07-18T09:26:55Z</time>
      </trkpt>
      <trkpt lat="44.35259" lon="5.78631">
        <ele>683</ele>
        <time>2010-07-18T09:27:02Z</time>
      </trkpt>
      <trkpt lat="44.35258" lon="5.7861">
        <ele>683</ele>
        <time>2010-07-18T09:27:10Z</time>
      </trkpt>
      <trkpt lat="44.35246" lon="5.78608">
        <ele>683</ele>
        <time>2010-07-18T09:27:17Z</time>
      </trkpt>
      <trkpt lat="44.35239" lon="5.78597">
        <ele>683</ele>
        <time>2010-07-18T09:27:24Z</time>
      </trkpt>
      <trkpt lat="44.35239" lon="5.78578">
        <ele>684</ele>
        <time>2010-07-18T09:27:31Z</time>
      </trkpt>
      <trkpt lat="44.3524" lon="5.78561">
        <ele>687</ele>
        <time>2010-07-18T09:27:39Z</time>
      </trkpt>
      <trkpt lat="44.35234" lon="5.78553">
        <ele>689</ele>
        <time>2010-07-18T09:27:47Z</time>
      </trkpt>
      <trkpt lat="44.35225" lon="5.78553">
        <ele>690</ele>
        <time>2010-07-18T09:27:54Z</time>
      </trkpt>
      <trkpt lat="44.35219" lon="5.78559">
        <ele>690</ele>
        <time>2010-07-18T09:28:01Z</time>
      </trkpt>
      <trkpt lat="44.35211" lon="5.78568">
        <ele>690</ele>
        <time>2010-07-18T09:28:10Z</time>
      </trkpt>
      <trkpt lat="44.35204" lon="5.7857">
        <ele>690</ele>
        <time>2010-07-18T09:28:17Z</time>
      </trkpt>
      <trkpt lat="44.35194" lon="5.78575">
        <ele>691</ele>
        <time>2010-07-18T09:28:25Z</time>
      </trkpt>
      <trkpt lat="44.35187" lon="5.78582">
        <ele>693</ele>
        <time>2010-07-18T09:28:33Z</time>
      </trkpt>
      <trkpt lat="44.35178" lon="5.78585">
        <ele>694</ele>
        <time>2010-07-18T09:28:41Z</time>
      </trkpt>
      <trkpt lat="44.35173" lon="5.78577">
        <ele>698</ele>
        <time>2010-07-18T09:28:49Z</time>
      </trkpt>
      <trkpt lat="44.35165" lon="5.78573">
        <ele>702</ele>
        <time>2010-07-18T09:28:57Z</time>
      </trkpt>
      <trkpt lat="44.35157" lon="5.78576">
        <ele>703</ele>
        <time>2010-07-18T09:29:04Z</time>
      </trkpt>
      <trkpt lat="44.3515" lon="5.7858">
        <ele>705</ele>
        <time>2010-07-18T09:29:12Z</time>
      </trkpt>
      <trkpt lat="44.35141" lon="5.78581">
        <ele>706</ele>
        <time>2010-07-18T09:29:19Z</time>
      </trkpt>
      <trkpt lat="44.35135" lon="5.78583">
        <ele>707</ele>
        <time>2010-07-18T09:29:43Z</time>
      </trkpt>
      <trkpt lat="44.35133" lon="5.7858">
        <ele>707</ele>
        <time>2010-07-18T09:29:51Z</time>
      </trkpt>
      <trkpt lat="44.35128" lon="5.78573">
        <ele>707</ele>
        <time>2010-07-18T09:29:59Z</time>
      </trkpt>
      <trkpt lat="44.35124" lon="5.78566">
        <ele>707</ele>
        <time>2010-07-18T09:30:07Z</time>
      </trkpt>
      <trkpt lat="44.35121" lon="5.78558">
        <ele>709</ele>
        <time>2010-07-18T09:30:15Z</time>
      </trkpt>
      <trkpt lat="44.3512" lon="5.78551">
        <ele>710</ele>
        <time>2010-07-18T09:30:23Z</time>
      </trkpt>
      <trkpt lat="44.35119" lon="5.78544">
        <ele>711</ele>
        <time>2010-07-18T09:30:31Z</time>
      </trkpt>
      <trkpt lat="44.35119" lon="5.78535">
        <ele>712</ele>
        <time>2010-07-18T09:30:39Z</time>
      </trkpt>
      <trkpt lat="44.35118" lon="5.78527">
        <ele>713</ele>
        <time>2010-07-18T09:30:47Z</time>
      </trkpt>
      <trkpt lat="44.35117" lon="5.78522">
        <ele>715</ele>
        <time>2010-07-18T09:30:54Z</time>
      </trkpt>
      <trkpt lat="44.35114" lon="5.7852">
        <ele>717</ele>
        <time>2010-07-18T09:31:01Z</time>
      </trkpt>
      <trkpt lat="44.3511" lon="5.78525">
        <ele>720</ele>
        <time>2010-07-18T09:31:10Z</time>
      </trkpt>
      <trkpt lat="44.35107" lon="5.7853">
        <ele>722</ele>
        <time>2010-07-18T09:31:18Z</time>
      </trkpt>
      <trkpt lat="44.35104" lon="5.78534">
        <ele>724</ele>
        <time>2010-07-18T09:31:25Z</time>
      </trkpt>
      <trkpt lat="44.351" lon="5.78537">
        <ele>726</ele>
        <time>2010-07-18T09:31:32Z</time>
      </trkpt>
      <trkpt lat="44.35094" lon="5.78539">
        <ele>728</ele>
        <time>2010-07-18T09:31:41Z</time>
      </trkpt>
      <trkpt lat="44.3509" lon="5.78535">
        <ele>730</ele>
        <time>2010-07-18T09:31:50Z</time>
      </trkpt>
      <trkpt lat="44.35086" lon="5.78529">
        <ele>731</ele>
        <time>2010-07-18T09:31:58Z</time>
      </trkpt>
      <trkpt lat="44.35083" lon="5.78522">
        <ele>732</ele>
        <time>2010-07-18T09:32:05Z</time>
      </trkpt>
      <trkpt lat="44.3508" lon="5.78514">
        <ele>733</ele>
        <time>2010-07-18T09:32:15Z</time>
      </trkpt>
      <trkpt lat="44.3508" lon="5.78513">
        <ele>733</ele>
        <time>2010-07-18T09:32:26Z</time>
      </trkpt>
      <trkpt lat="44.35077" lon="5.785">
        <ele>733</ele>
        <time>2010-07-18T09:32:35Z</time>
      </trkpt>
      <trkpt lat="44.35074" lon="5.78491">
        <ele>735</ele>
        <time>2010-07-18T09:32:42Z</time>
      </trkpt>
      <trkpt lat="44.35071" lon="5.7848">
        <ele>739</ele>
        <time>2010-07-18T09:32:49Z</time>
      </trkpt>
      <trkpt lat="44.35065" lon="5.78484">
        <ele>742</ele>
        <time>2010-07-18T09:32:56Z</time>
      </trkpt>
      <trkpt lat="44.35061" lon="5.785">
        <ele>743</ele>
        <time>2010-07-18T09:33:04Z</time>
      </trkpt>
      <trkpt lat="44.35055" lon="5.7852">
        <ele>743</ele>
        <time>2010-07-18T09:33:11Z</time>
      </trkpt>
      <trkpt lat="44.35043" lon="5.7855">
        <ele>744</ele>
        <time>2010-07-18T09:33:19Z</time>
      </trkpt>
      <trkpt lat="44.35032" lon="5.78568">
        <ele>744</ele>
        <time>2010-07-18T09:33:26Z</time>
      </trkpt>
      <trkpt lat="44.35021" lon="5.78589">
        <ele>744</ele>
        <time>2010-07-18T09:33:34Z</time>
      </trkpt>
      <trkpt lat="44.35012" lon="5.7861">
        <ele>747</ele>
        <time>2010-07-18T09:33:41Z</time>
      </trkpt>
      <trkpt lat="44.35005" lon="5.78637">
        <ele>747</ele>
        <time>2010-07-18T09:33:49Z</time>
      </trkpt>
      <trkpt lat="44.34996" lon="5.78656">
        <ele>747</ele>
        <time>2010-07-18T09:33:56Z</time>
      </trkpt>
      <trkpt lat="44.34986" lon="5.78678">
        <ele>747</ele>
        <time>2010-07-18T09:34:04Z</time>
      </trkpt>
      <trkpt lat="44.34974" lon="5.78697">
        <ele>747</ele>
        <time>2010-07-18T09:34:11Z</time>
      </trkpt>
      <trkpt lat="44.34961" lon="5.78719">
        <ele>747</ele>
        <time>2010-07-18T09:34:19Z</time>
      </trkpt>
      <trkpt lat="44.3495" lon="5.78735">
        <ele>747</ele>
        <time>2010-07-18T09:34:26Z</time>
      </trkpt>
      <trkpt lat="44.34936" lon="5.78751">
        <ele>747</ele>
        <time>2010-07-18T09:34:34Z</time>
      </trkpt>
      <trkpt lat="44.34924" lon="5.78764">
        <ele>748</ele>
        <time>2010-07-18T09:34:41Z</time>
      </trkpt>
      <trkpt lat="44.34912" lon="5.78778">
        <ele>749</ele>
        <time>2010-07-18T09:34:49Z</time>
      </trkpt>
      <trkpt lat="44.34904" lon="5.7879">
        <ele>749</ele>
        <time>2010-07-18T09:34:56Z</time>
      </trkpt>
      <trkpt lat="44.34895" lon="5.78801">
        <ele>749</ele>
        <time>2010-07-18T09:35:05Z</time>
      </trkpt>
      <trkpt lat="44.34886" lon="5.78808">
        <ele>751</ele>
        <time>2010-07-18T09:35:12Z</time>
      </trkpt>
      <trkpt lat="44.34877" lon="5.78819">
        <ele>753</ele>
        <time>2010-07-18T09:35:19Z</time>
      </trkpt>
      <trkpt lat="44.34865" lon="5.78827">
        <ele>755</ele>
        <time>2010-07-18T09:35:26Z</time>
      </trkpt>
      <trkpt lat="44.34851" lon="5.78843">
        <ele>758</ele>
        <time>2010-07-18T09:35:34Z</time>
      </trkpt>
      <trkpt lat="44.34838" lon="5.78858">
        <ele>758</ele>
        <time>2010-07-18T09:35:41Z</time>
      </trkpt>
      <trkpt lat="44.34823" lon="5.78874">
        <ele>761</ele>
        <time>2010-07-18T09:35:49Z</time>
      </trkpt>
      <trkpt lat="44.34811" lon="5.78889">
        <ele>761</ele>
        <time>2010-07-18T09:35:56Z</time>
      </trkpt>
      <trkpt lat="44.34794" lon="5.78909">
        <ele>763</ele>
        <time>2010-07-18T09:36:04Z</time>
      </trkpt>
      <trkpt lat="44.34785" lon="5.78919">
        <ele>763</ele>
        <time>2010-07-18T09:36:11Z</time>
      </trkpt>
      <trkpt lat="44.34783" lon="5.78931">
        <ele>763</ele>
        <time>2010-07-18T09:36:19Z</time>
      </trkpt>
      <trkpt lat="44.34783" lon="5.78943">
        <ele>763</ele>
        <time>2010-07-18T09:36:26Z</time>
      </trkpt>
      <trkpt lat="44.34778" lon="5.7896">
        <ele>763</ele>
        <time>2010-07-18T09:36:35Z</time>
      </trkpt>
      <trkpt lat="44.34772" lon="5.7897">
        <ele>763</ele>
        <time>2010-07-18T09:36:42Z</time>
      </trkpt>
      <trkpt lat="44.34768" lon="5.78981">
        <ele>765</ele>
        <time>2010-07-18T09:36:49Z</time>
      </trkpt>
      <trkpt lat="44.34763" lon="5.78993">
        <ele>768</ele>
        <time>2010-07-18T09:36:57Z</time>
      </trkpt>
      <trkpt lat="44.34759" lon="5.79004">
        <ele>774</ele>
        <time>2010-07-18T09:37:04Z</time>
      </trkpt>
      <trkpt lat="44.34753" lon="5.79013">
        <ele>779</ele>
        <time>2010-07-18T09:37:12Z</time>
      </trkpt>
      <trkpt lat="44.34747" lon="5.79022">
        <ele>781</ele>
        <time>2010-07-18T09:37:19Z</time>
      </trkpt>
      <trkpt lat="44.34742" lon="5.79034">
        <ele>784</ele>
        <time>2010-07-18T09:37:27Z</time>
      </trkpt>
      <trkpt lat="44.34737" lon="5.79044">
        <ele>785</ele>
        <time>2010-07-18T09:37:34Z</time>
      </trkpt>
      <trkpt lat="44.34732" lon="5.79056">
        <ele>785</ele>
        <time>2010-07-18T09:37:41Z</time>
      </trkpt>
      <trkpt lat="44.34726" lon="5.79067">
        <ele>785</ele>
        <time>2010-07-18T09:37:49Z</time>
      </trkpt>
      <trkpt lat="44.34719" lon="5.79076">
        <ele>786</ele>
        <time>2010-07-18T09:37:57Z</time>
      </trkpt>
      <trkpt lat="44.34716" lon="5.79084">
        <ele>788</ele>
        <time>2010-07-18T09:38:05Z</time>
      </trkpt>
      <trkpt lat="44.34712" lon="5.79093">
        <ele>791</ele>
        <time>2010-07-18T09:38:13Z</time>
      </trkpt>
      <trkpt lat="44.34709" lon="5.79102">
        <ele>795</ele>
        <time>2010-07-18T09:38:21Z</time>
      </trkpt>
      <trkpt lat="44.34705" lon="5.79112">
        <ele>800</ele>
        <time>2010-07-18T09:38:30Z</time>
      </trkpt>
      <trkpt lat="44.34701" lon="5.79124">
        <ele>802</ele>
        <time>2010-07-18T09:38:38Z</time>
      </trkpt>
      <trkpt lat="44.34699" lon="5.79137">
        <ele>803</ele>
        <time>2010-07-18T09:38:45Z</time>
      </trkpt>
      <trkpt lat="44.34698" lon="5.79147">
        <ele>803</ele>
        <time>2010-07-18T09:38:53Z</time>
      </trkpt>
      <trkpt lat="44.34696" lon="5.79158">
        <ele>803</ele>
        <time>2010-07-18T09:39:00Z</time>
      </trkpt>
      <trkpt lat="44.34693" lon="5.79167">
        <ele>803</ele>
        <time>2010-07-18T09:39:07Z</time>
      </trkpt>
      <trkpt lat="44.34689" lon="5.79178">
        <ele>803</ele>
        <time>2010-07-18T09:39:15Z</time>
      </trkpt>
      <trkpt lat="44.34685" lon="5.79189">
        <ele>803</ele>
        <time>2010-07-18T09:39:23Z</time>
      </trkpt>
      <trkpt lat="44.34681" lon="5.79201">
        <ele>806</ele>
        <time>2010-07-18T09:39:30Z</time>
      </trkpt>
      <trkpt lat="44.34679" lon="5.79214">
        <ele>809</ele>
        <time>2010-07-18T09:39:37Z</time>
      </trkpt>
      <trkpt lat="44.34676" lon="5.79221">
        <ele>809</ele>
        <time>2010-07-18T09:39:45Z</time>
      </trkpt>
      <trkpt lat="44.34669" lon="5.79239">
        <ele>811</ele>
        <time>2010-07-18T09:39:52Z</time>
      </trkpt>
      <trkpt lat="44.3466" lon="5.79256">
        <ele>813</ele>
        <time>2010-07-18T09:40:00Z</time>
      </trkpt>
      <trkpt lat="44.34655" lon="5.79271">
        <ele>814</ele>
        <time>2010-07-18T09:40:07Z</time>
      </trkpt>
      <trkpt lat="44.3465" lon="5.79286">
        <ele>816</ele>
        <time>2010-07-18T09:40:14Z</time>
      </trkpt>
      <trkpt lat="44.34643" lon="5.79302">
        <ele>817</ele>
        <time>2010-07-18T09:40:21Z</time>
      </trkpt>
      <trkpt lat="44.3464" lon="5.79315">
        <ele>819</ele>
        <time>2010-07-18T09:40:29Z</time>
      </trkpt>
      <trkpt lat="44.34637" lon="5.79328">
        <ele>820</ele>
        <time>2010-07-18T09:40:36Z</time>
      </trkpt>
      <trkpt lat="44.34634" lon="5.79342">
        <ele>821</ele>
        <time>2010-07-18T09:40:45Z</time>
      </trkpt>
      <trkpt lat="44.34629" lon="5.79358">
        <ele>822</ele>
        <time>2010-07-18T09:40:52Z</time>
      </trkpt>
      <trkpt lat="44.34625" lon="5.79377">
        <ele>823</ele>
        <time>2010-07-18T09:40:59Z</time>
      </trkpt>
      <trkpt lat="44.34623" lon="5.79395">
        <ele>824</ele>
        <time>2010-07-18T09:41:06Z</time>
      </trkpt>
      <trkpt lat="44.34623" lon="5.79415">
        <ele>825</ele>
        <time>2010-07-18T09:41:14Z</time>
      </trkpt>
      <trkpt lat="44.34623" lon="5.79434">
        <ele>825</ele>
        <time>2010-07-18T09:41:21Z</time>
      </trkpt>
      <trkpt lat="44.34629" lon="5.79458">
        <ele>825</ele>
        <time>2010-07-18T09:41:29Z</time>
      </trkpt>
      <trkpt lat="44.34634" lon="5.79483">
        <ele>825</ele>
        <time>2010-07-18T09:41:36Z</time>
      </trkpt>
      <trkpt lat="44.34635" lon="5.79516">
        <ele>825</ele>
        <time>2010-07-18T09:41:44Z</time>
      </trkpt>
      <trkpt lat="44.34632" lon="5.79545">
        <ele>825</ele>
        <time>2010-07-18T09:41:51Z</time>
      </trkpt>
      <trkpt lat="44.34629" lon="5.79577">
        <ele>826</ele>
        <time>2010-07-18T09:41:59Z</time>
      </trkpt>
      <trkpt lat="44.34629" lon="5.79603">
        <ele>829</ele>
        <time>2010-07-18T09:42:06Z</time>
      </trkpt>
      <trkpt lat="44.34637" lon="5.79627">
        <ele>829</ele>
        <time>2010-07-18T09:42:14Z</time>
      </trkpt>
      <trkpt lat="44.34637" lon="5.79648">
        <ele>829</ele>
        <time>2010-07-18T09:42:21Z</time>
      </trkpt>
      <trkpt lat="44.34634" lon="5.79674">
        <ele>832</ele>
        <time>2010-07-18T09:42:29Z</time>
      </trkpt>
      <trkpt lat="44.34623" lon="5.79697">
        <ele>837</ele>
        <time>2010-07-18T09:42:36Z</time>
      </trkpt>
      <trkpt lat="44.34612" lon="5.7973">
        <ele>838</ele>
        <time>2010-07-18T09:42:44Z</time>
      </trkpt>
      <trkpt lat="44.34611" lon="5.79775">
        <ele>838</ele>
        <time>2010-07-18T09:42:51Z</time>
      </trkpt>
      <trkpt lat="44.34621" lon="5.79818">
        <ele>838</ele>
        <time>2010-07-18T09:42:59Z</time>
      </trkpt>
      <trkpt lat="44.34625" lon="5.79843">
        <ele>834</ele>
        <time>2010-07-18T09:43:06Z</time>
      </trkpt>
      <trkpt lat="44.34624" lon="5.79855">
        <ele>828</ele>
        <time>2010-07-18T09:43:16Z</time>
      </trkpt>
      <trkpt lat="44.34625" lon="5.79855">
        <ele>827</ele>
        <time>2010-07-18T09:43:32Z</time>
      </trkpt>
      <trkpt lat="44.34626" lon="5.79856">
        <ele>827</ele>
        <time>2010-07-18T09:43:49Z</time>
      </trkpt>
      <trkpt lat="44.34624" lon="5.79856">
        <ele>827</ele>
        <time>2010-07-18T09:43:56Z</time>
      </trkpt>
      <trkpt lat="44.34624" lon="5.79855">
        <ele>827</ele>
        <time>2010-07-18T09:44:22Z</time>
      </trkpt>
      <trkpt lat="44.34624" lon="5.79858">
        <ele>827</ele>
        <time>2010-07-18T09:44:29Z</time>
      </trkpt>
      <trkpt lat="44.34624" lon="5.79856">
        <ele>821</ele>
        <time>2010-07-18T09:44:47Z</time>
      </trkpt>
      <trkpt lat="44.34623" lon="5.79855">
        <ele>817</ele>
        <time>2010-07-18T09:44:56Z</time>
      </trkpt>
      <trkpt lat="44.34621" lon="5.79854">
        <ele>815</ele>
        <time>2010-07-18T09:45:10Z</time>
      </trkpt>
      <trkpt lat="44.34621" lon="5.79852">
        <ele>815</ele>
        <time>2010-07-18T09:45:21Z</time>
      </trkpt>
      <trkpt lat="44.34619" lon="5.79856">
        <ele>815</ele>
        <time>2010-07-18T09:45:37Z</time>
      </trkpt>
      <trkpt lat="44.34619" lon="5.79859">
        <ele>815</ele>
        <time>2010-07-18T09:45:47Z</time>
      </trkpt>
      <trkpt lat="44.3462" lon="5.7986">
        <ele>817</ele>
        <time>2010-07-18T09:46:03Z</time>
      </trkpt>
      <trkpt lat="44.34636" lon="5.79867">
        <ele>817</ele>
        <time>2010-07-18T09:46:12Z</time>
      </trkpt>
      <trkpt lat="44.34653" lon="5.79876">
        <ele>817</ele>
        <time>2010-07-18T09:46:19Z</time>
      </trkpt>
      <trkpt lat="44.3469" lon="5.79867">
        <ele>815</ele>
        <time>2010-07-18T09:46:26Z</time>
      </trkpt>
      <trkpt lat="44.34721" lon="5.79875">
        <ele>811</ele>
        <time>2010-07-18T09:46:34Z</time>
      </trkpt>
      <trkpt lat="44.34741" lon="5.79905">
        <ele>807</ele>
        <time>2010-07-18T09:46:41Z</time>
      </trkpt>
      <trkpt lat="44.34736" lon="5.79931">
        <ele>803</ele>
        <time>2010-07-18T09:46:49Z</time>
      </trkpt>
      <trkpt lat="44.34729" lon="5.79944">
        <ele>803</ele>
        <time>2010-07-18T09:46:56Z</time>
      </trkpt>
      <trkpt lat="44.34723" lon="5.79953">
        <ele>803</ele>
        <time>2010-07-18T09:47:04Z</time>
      </trkpt>
      <trkpt lat="44.34711" lon="5.79985">
        <ele>803</ele>
        <time>2010-07-18T09:47:16Z</time>
      </trkpt>
      <trkpt lat="44.3471" lon="5.79988">
        <ele>803</ele>
        <time>2010-07-18T09:47:26Z</time>
      </trkpt>
      <trkpt lat="44.34703" lon="5.8001">
        <ele>803</ele>
        <time>2010-07-18T09:47:34Z</time>
      </trkpt>
      <trkpt lat="44.34687" lon="5.80059">
        <ele>803</ele>
        <time>2010-07-18T09:47:41Z</time>
      </trkpt>
      <trkpt lat="44.34659" lon="5.80082">
        <ele>800</ele>
        <time>2010-07-18T09:47:49Z</time>
      </trkpt>
      <trkpt lat="44.34613" lon="5.80137">
        <ele>796</ele>
        <time>2010-07-18T09:47:58Z</time>
      </trkpt>
      <trkpt lat="44.34558" lon="5.80173">
        <ele>792</ele>
        <time>2010-07-18T09:48:09Z</time>
      </trkpt>
      <trkpt lat="44.34544" lon="5.80186">
        <ele>787</ele>
        <time>2010-07-18T09:48:22Z</time>
      </trkpt>
      <trkpt lat="44.34545" lon="5.80186">
        <ele>787</ele>
        <time>2010-07-18T09:48:34Z</time>
      </trkpt>
      <trkpt lat="44.34541" lon="5.80187">
        <ele>787</ele>
        <time>2010-07-18T09:48:42Z</time>
      </trkpt>
      <trkpt lat="44.34517" lon="5.80204">
        <ele>785</ele>
        <time>2010-07-18T09:48:50Z</time>
      </trkpt>
      <trkpt lat="44.34489" lon="5.80233">
        <ele>782</ele>
        <time>2010-07-18T09:48:58Z</time>
      </trkpt>
      <trkpt lat="44.34481" lon="5.80252">
        <ele>780</ele>
        <time>2010-07-18T09:49:05Z</time>
      </trkpt>
      <trkpt lat="44.34477" lon="5.80293">
        <ele>774</ele>
        <time>2010-07-18T09:49:12Z</time>
      </trkpt>
      <trkpt lat="44.34485" lon="5.80292">
        <ele>771</ele>
        <time>2010-07-18T09:49:20Z</time>
      </trkpt>
      <trkpt lat="44.3451" lon="5.8029">
        <ele>768</ele>
        <time>2010-07-18T09:49:27Z</time>
      </trkpt>
      <trkpt lat="44.34525" lon="5.80287">
        <ele>768</ele>
        <time>2010-07-18T09:49:34Z</time>
      </trkpt>
      <trkpt lat="44.34541" lon="5.80284">
        <ele>768</ele>
        <time>2010-07-18T09:49:41Z</time>
      </trkpt>
      <trkpt lat="44.34557" lon="5.80278">
        <ele>768</ele>
        <time>2010-07-18T09:49:48Z</time>
      </trkpt>
      <trkpt lat="44.34573" lon="5.8027">
        <ele>768</ele>
        <time>2010-07-18T09:49:55Z</time>
      </trkpt>
      <trkpt lat="44.34593" lon="5.80263">
        <ele>768</ele>
        <time>2010-07-18T09:50:02Z</time>
      </trkpt>
      <trkpt lat="44.34616" lon="5.80258">
        <ele>768</ele>
        <time>2010-07-18T09:50:09Z</time>
      </trkpt>
      <trkpt lat="44.34645" lon="5.80238">
        <ele>767</ele>
        <time>2010-07-18T09:50:16Z</time>
      </trkpt>
      <trkpt lat="44.34682" lon="5.80229">
        <ele>764</ele>
        <time>2010-07-18T09:50:24Z</time>
      </trkpt>
      <trkpt lat="44.34708" lon="5.80232">
        <ele>764</ele>
        <time>2010-07-18T09:50:31Z</time>
      </trkpt>
      <trkpt lat="44.34726" lon="5.8024">
        <ele>764</ele>
        <time>2010-07-18T09:50:39Z</time>
      </trkpt>
      <trkpt lat="44.3474" lon="5.80239">
        <ele>764</ele>
        <time>2010-07-18T09:50:46Z</time>
      </trkpt>
      <trkpt lat="44.34753" lon="5.80233">
        <ele>764</ele>
        <time>2010-07-18T09:50:54Z</time>
      </trkpt>
      <trkpt lat="44.34763" lon="5.80228">
        <ele>764</ele>
        <time>2010-07-18T09:51:01Z</time>
      </trkpt>
      <trkpt lat="44.34777" lon="5.80233">
        <ele>764</ele>
        <time>2010-07-18T09:51:09Z</time>
      </trkpt>
      <trkpt lat="44.34791" lon="5.80235">
        <ele>764</ele>
        <time>2010-07-18T09:51:16Z</time>
      </trkpt>
      <trkpt lat="44.34804" lon="5.80239">
        <ele>765</ele>
        <time>2010-07-18T09:51:24Z</time>
      </trkpt>
      <trkpt lat="44.34809" lon="5.80246">
        <ele>769</ele>
        <time>2010-07-18T09:51:33Z</time>
      </trkpt>
      <trkpt lat="44.34815" lon="5.80257">
        <ele>770</ele>
        <time>2010-07-18T09:51:40Z</time>
      </trkpt>
      <trkpt lat="44.34821" lon="5.80272">
        <ele>772</ele>
        <time>2010-07-18T09:51:47Z</time>
      </trkpt>
      <trkpt lat="44.34828" lon="5.80288">
        <ele>773</ele>
        <time>2010-07-18T09:51:54Z</time>
      </trkpt>
      <trkpt lat="44.34832" lon="5.80306">
        <ele>774</ele>
        <time>2010-07-18T09:52:01Z</time>
      </trkpt>
      <trkpt lat="44.34833" lon="5.8033">
        <ele>774</ele>
        <time>2010-07-18T09:52:09Z</time>
      </trkpt>
      <trkpt lat="44.34831" lon="5.80356">
        <ele>776</ele>
        <time>2010-07-18T09:52:16Z</time>
      </trkpt>
      <trkpt lat="44.34829" lon="5.80378">
        <ele>778</ele>
        <time>2010-07-18T09:52:24Z</time>
      </trkpt>
      <trkpt lat="44.3483" lon="5.80396">
        <ele>780</ele>
        <time>2010-07-18T09:52:31Z</time>
      </trkpt>
      <trkpt lat="44.34834" lon="5.80417">
        <ele>782</ele>
        <time>2010-07-18T09:52:39Z</time>
      </trkpt>
      <trkpt lat="44.34839" lon="5.80433">
        <ele>784</ele>
        <time>2010-07-18T09:52:46Z</time>
      </trkpt>
      <trkpt lat="44.34849" lon="5.80462">
        <ele>785</ele>
        <time>2010-07-18T09:52:58Z</time>
      </trkpt>
      <trkpt lat="44.34856" lon="5.80484">
        <ele>785</ele>
        <time>2010-07-18T09:53:05Z</time>
      </trkpt>
      <trkpt lat="44.34863" lon="5.80507">
        <ele>785</ele>
        <time>2010-07-18T09:53:12Z</time>
      </trkpt>
      <trkpt lat="44.34862" lon="5.80528">
        <ele>785</ele>
        <time>2010-07-18T09:53:20Z</time>
      </trkpt>
      <trkpt lat="44.34856" lon="5.8055">
        <ele>788</ele>
        <time>2010-07-18T09:53:27Z</time>
      </trkpt>
      <trkpt lat="44.34839" lon="5.80569">
        <ele>789</ele>
        <time>2010-07-18T09:53:34Z</time>
      </trkpt>
      <trkpt lat="44.34822" lon="5.80589">
        <ele>790</ele>
        <time>2010-07-18T09:53:41Z</time>
      </trkpt>
      <trkpt lat="44.34805" lon="5.80616">
        <ele>790</ele>
        <time>2010-07-18T09:53:49Z</time>
      </trkpt>
      <trkpt lat="44.34786" lon="5.8064">
        <ele>790</ele>
        <time>2010-07-18T09:53:56Z</time>
      </trkpt>
      <trkpt lat="44.34769" lon="5.80685">
        <ele>790</ele>
        <time>2010-07-18T09:54:04Z</time>
      </trkpt>
      <trkpt lat="44.34766" lon="5.80735">
        <ele>790</ele>
        <time>2010-07-18T09:54:11Z</time>
      </trkpt>
      <trkpt lat="44.34769" lon="5.80788">
        <ele>789</ele>
        <time>2010-07-18T09:54:19Z</time>
      </trkpt>
      <trkpt lat="44.34784" lon="5.80809">
        <ele>788</ele>
        <time>2010-07-18T09:54:26Z</time>
      </trkpt>
      <trkpt lat="44.34793" lon="5.80855">
        <ele>784</ele>
        <time>2010-07-18T09:54:34Z</time>
      </trkpt>
      <trkpt lat="44.34771" lon="5.80868">
        <ele>782</ele>
        <time>2010-07-18T09:54:41Z</time>
      </trkpt>
      <trkpt lat="44.34743" lon="5.80886">
        <ele>780</ele>
        <time>2010-07-18T09:54:49Z</time>
      </trkpt>
      <trkpt lat="44.34723" lon="5.80914">
        <ele>780</ele>
        <time>2010-07-18T09:54:56Z</time>
      </trkpt>
      <trkpt lat="44.34716" lon="5.8095">
        <ele>778</ele>
        <time>2010-07-18T09:55:04Z</time>
      </trkpt>
      <trkpt lat="44.34708" lon="5.80984">
        <ele>776</ele>
        <time>2010-07-18T09:55:11Z</time>
      </trkpt>
      <trkpt lat="44.34693" lon="5.81011">
        <ele>770</ele>
        <time>2010-07-18T09:55:19Z</time>
      </trkpt>
      <trkpt lat="44.34672" lon="5.81037">
        <ele>764</ele>
        <time>2010-07-18T09:55:26Z</time>
      </trkpt>
      <trkpt lat="44.34632" lon="5.81066">
        <ele>758</ele>
        <time>2010-07-18T09:55:34Z</time>
      </trkpt>
      <trkpt lat="44.34616" lon="5.81058">
        <ele>751</ele>
        <time>2010-07-18T09:55:41Z</time>
      </trkpt>
      <trkpt lat="44.34579" lon="5.81078">
        <ele>743</ele>
        <time>2010-07-18T09:55:49Z</time>
      </trkpt>
      <trkpt lat="44.34535" lon="5.81091">
        <ele>736</ele>
        <time>2010-07-18T09:55:56Z</time>
      </trkpt>
      <trkpt lat="44.34474" lon="5.81104">
        <ele>730</ele>
        <time>2010-07-18T09:56:04Z</time>
      </trkpt>
      <trkpt lat="44.34428" lon="5.81114">
        <ele>724</ele>
        <time>2010-07-18T09:56:11Z</time>
      </trkpt>
      <trkpt lat="44.34377" lon="5.81131">
        <ele>716</ele>
        <time>2010-07-18T09:56:19Z</time>
      </trkpt>
      <trkpt lat="44.34327" lon="5.81143">
        <ele>709</ele>
        <time>2010-07-18T09:56:26Z</time>
      </trkpt>
      <trkpt lat="44.34284" lon="5.81147">
        <ele>701</ele>
        <time>2010-07-18T09:56:34Z</time>
      </trkpt>
      <trkpt lat="44.3427" lon="5.81196">
        <ele>694</ele>
        <time>2010-07-18T09:56:41Z</time>
      </trkpt>
      <trkpt lat="44.34244" lon="5.81217">
        <ele>692</ele>
        <time>2010-07-18T09:56:49Z</time>
      </trkpt>
      <trkpt lat="44.34232" lon="5.81222">
        <ele>691</ele>
        <time>2010-07-18T09:56:56Z</time>
      </trkpt>
      <trkpt lat="44.34236" lon="5.81222">
        <ele>691</ele>
        <time>2010-07-18T09:57:04Z</time>
      </trkpt>
      <trkpt lat="44.3424" lon="5.81225">
        <ele>691</ele>
        <time>2010-07-18T09:57:12Z</time>
      </trkpt>
      <trkpt lat="44.34245" lon="5.81222">
        <ele>686</ele>
        <time>2010-07-18T09:57:42Z</time>
      </trkpt>
      <trkpt lat="44.34241" lon="5.8122">
        <ele>687</ele>
        <time>2010-07-18T09:57:51Z</time>
      </trkpt>
      <trkpt lat="44.34227" lon="5.81221">
        <ele>687</ele>
        <time>2010-07-18T09:57:58Z</time>
      </trkpt>
      <trkpt lat="44.34205" lon="5.81223">
        <ele>687</ele>
        <time>2010-07-18T09:58:05Z</time>
      </trkpt>
      <trkpt lat="44.34187" lon="5.81234">
        <ele>687</ele>
        <time>2010-07-18T09:58:13Z</time>
      </trkpt>
      <trkpt lat="44.3417" lon="5.81251">
        <ele>687</ele>
        <time>2010-07-18T09:58:20Z</time>
      </trkpt>
      <trkpt lat="44.34158" lon="5.81277">
        <ele>687</ele>
        <time>2010-07-18T09:58:28Z</time>
      </trkpt>
      <trkpt lat="44.34125" lon="5.81311">
        <ele>687</ele>
        <time>2010-07-18T09:58:37Z</time>
      </trkpt>
      <trkpt lat="44.34103" lon="5.8132">
        <ele>686</ele>
        <time>2010-07-18T09:58:45Z</time>
      </trkpt>
      <trkpt lat="44.34109" lon="5.81319">
        <ele>686</ele>
        <time>2010-07-18T09:58:53Z</time>
      </trkpt>
      <trkpt lat="44.34125" lon="5.81311">
        <ele>686</ele>
        <time>2010-07-18T09:59:00Z</time>
      </trkpt>
      <trkpt lat="44.34142" lon="5.81301">
        <ele>686</ele>
        <time>2010-07-18T09:59:07Z</time>
      </trkpt>
      <trkpt lat="44.34157" lon="5.81282">
        <ele>686</ele>
        <time>2010-07-18T09:59:15Z</time>
      </trkpt>
      <trkpt lat="44.34166" lon="5.81262">
        <ele>686</ele>
        <time>2010-07-18T09:59:22Z</time>
      </trkpt>
      <trkpt lat="44.34185" lon="5.81234">
        <ele>686</ele>
        <time>2010-07-18T09:59:30Z</time>
      </trkpt>
      <trkpt lat="44.34201" lon="5.81224">
        <ele>686</ele>
        <time>2010-07-18T09:59:37Z</time>
      </trkpt>
      <trkpt lat="44.3424" lon="5.81221">
        <ele>686</ele>
        <time>2010-07-18T09:59:46Z</time>
      </trkpt>
      <trkpt lat="44.3425" lon="5.81239">
        <ele>686</ele>
        <time>2010-07-18T09:59:54Z</time>
      </trkpt>
      <trkpt lat="44.34268" lon="5.81331">
        <ele>683</ele>
        <time>2010-07-18T10:00:02Z</time>
      </trkpt>
      <trkpt lat="44.34255" lon="5.81369">
        <ele>680</ele>
        <time>2010-07-18T10:00:09Z</time>
      </trkpt>
      <trkpt lat="44.34242" lon="5.81397">
        <ele>678</ele>
        <time>2010-07-18T10:00:16Z</time>
      </trkpt>
      <trkpt lat="44.34223" lon="5.81433">
        <ele>675</ele>
        <time>2010-07-18T10:00:23Z</time>
      </trkpt>
      <trkpt lat="44.34197" lon="5.81463">
        <ele>671</ele>
        <time>2010-07-18T10:00:30Z</time>
      </trkpt>
      <trkpt lat="44.34179" lon="5.81511">
        <ele>665</ele>
        <time>2010-07-18T10:00:38Z</time>
      </trkpt>
      <trkpt lat="44.34147" lon="5.8154">
        <ele>660</ele>
        <time>2010-07-18T10:00:45Z</time>
      </trkpt>
      <trkpt lat="44.34099" lon="5.81542">
        <ele>654</ele>
        <time>2010-07-18T10:00:53Z</time>
      </trkpt>
      <trkpt lat="44.34063" lon="5.81584">
        <ele>649</ele>
        <time>2010-07-18T10:01:00Z</time>
      </trkpt>
      <trkpt lat="44.34026" lon="5.81648">
        <ele>644</ele>
        <time>2010-07-18T10:01:08Z</time>
      </trkpt>
      <trkpt lat="44.34022" lon="5.81704">
        <ele>638</ele>
        <time>2010-07-18T10:01:15Z</time>
      </trkpt>
      <trkpt lat="44.33987" lon="5.81736">
        <ele>635</ele>
        <time>2010-07-18T10:01:23Z</time>
      </trkpt>
      <trkpt lat="44.33971" lon="5.81765">
        <ele>634</ele>
        <time>2010-07-18T10:01:30Z</time>
      </trkpt>
      <trkpt lat="44.3395" lon="5.81808">
        <ele>633</ele>
        <time>2010-07-18T10:01:38Z</time>
      </trkpt>
      <trkpt lat="44.33936" lon="5.81856">
        <ele>632</ele>
        <time>2010-07-18T10:01:45Z</time>
      </trkpt>
      <trkpt lat="44.33915" lon="5.81906">
        <ele>632</ele>
        <time>2010-07-18T10:01:53Z</time>
      </trkpt>
      <trkpt lat="44.33879" lon="5.81926">
        <ele>632</ele>
        <time>2010-07-18T10:02:00Z</time>
      </trkpt>
      <trkpt lat="44.33836" lon="5.81939">
        <ele>630</ele>
        <time>2010-07-18T10:02:08Z</time>
      </trkpt>
      <trkpt lat="44.33797" lon="5.81967">
        <ele>628</ele>
        <time>2010-07-18T10:02:15Z</time>
      </trkpt>
      <trkpt lat="44.33756" lon="5.82027">
        <ele>625</ele>
        <time>2010-07-18T10:02:23Z</time>
      </trkpt>
      <trkpt lat="44.33736" lon="5.82103">
        <ele>622</ele>
        <time>2010-07-18T10:02:30Z</time>
      </trkpt>
      <trkpt lat="44.33723" lon="5.82177">
        <ele>621</ele>
        <time>2010-07-18T10:02:38Z</time>
      </trkpt>
      <trkpt lat="44.33712" lon="5.82234">
        <ele>621</ele>
        <time>2010-07-18T10:02:45Z</time>
      </trkpt>
      <trkpt lat="44.33727" lon="5.82283">
        <ele>621</ele>
        <time>2010-07-18T10:02:53Z</time>
      </trkpt>
      <trkpt lat="44.33728" lon="5.82323">
        <ele>621</ele>
        <time>2010-07-18T10:03:00Z</time>
      </trkpt>
      <trkpt lat="44.33731" lon="5.82359">
        <ele>621</ele>
        <time>2010-07-18T10:03:07Z</time>
      </trkpt>
      <trkpt lat="44.33733" lon="5.82383">
        <ele>621</ele>
        <time>2010-07-18T10:03:17Z</time>
      </trkpt>
      <trkpt lat="44.33736" lon="5.82404">
        <ele>621</ele>
        <time>2010-07-18T10:03:24Z</time>
      </trkpt>
      <trkpt lat="44.33754" lon="5.82466">
        <ele>621</ele>
        <time>2010-07-18T10:03:31Z</time>
      </trkpt>
      <trkpt lat="44.33757" lon="5.82521">
        <ele>620</ele>
        <time>2010-07-18T10:03:39Z</time>
      </trkpt>
      <trkpt lat="44.33758" lon="5.82541">
        <ele>617</ele>
        <time>2010-07-18T10:03:48Z</time>
      </trkpt>
      <trkpt lat="44.33757" lon="5.82543">
        <ele>617</ele>
        <time>2010-07-18T10:03:56Z</time>
      </trkpt>
      <trkpt lat="44.33758" lon="5.82548">
        <ele>617</ele>
        <time>2010-07-18T10:04:05Z</time>
      </trkpt>
      <trkpt lat="44.33757" lon="5.82534">
        <ele>617</ele>
        <time>2010-07-18T10:04:17Z</time>
      </trkpt>
      <trkpt lat="44.33756" lon="5.8252">
        <ele>617</ele>
        <time>2010-07-18T10:04:24Z</time>
      </trkpt>
      <trkpt lat="44.33754" lon="5.82502">
        <ele>617</ele>
        <time>2010-07-18T10:04:31Z</time>
      </trkpt>
      <trkpt lat="44.33755" lon="5.82477">
        <ele>617</ele>
        <time>2010-07-18T10:04:39Z</time>
      </trkpt>
      <trkpt lat="44.33754" lon="5.82467">
        <ele>617</ele>
        <time>2010-07-18T10:04:46Z</time>
      </trkpt>
      <trkpt lat="44.33745" lon="5.82456">
        <ele>617</ele>
        <time>2010-07-18T10:04:55Z</time>
      </trkpt>
      <trkpt lat="44.33729" lon="5.82477">
        <ele>617</ele>
        <time>2010-07-18T10:05:02Z</time>
      </trkpt>
      <trkpt lat="44.33711" lon="5.82491">
        <ele>617</ele>
        <time>2010-07-18T10:05:11Z</time>
      </trkpt>
      <trkpt lat="44.33688" lon="5.82489">
        <ele>615</ele>
        <time>2010-07-18T10:05:19Z</time>
      </trkpt>
      <trkpt lat="44.33661" lon="5.82494">
        <ele>614</ele>
        <time>2010-07-18T10:05:27Z</time>
      </trkpt>
      <trkpt lat="44.33639" lon="5.82509">
        <ele>614</ele>
        <time>2010-07-18T10:05:35Z</time>
      </trkpt>
      <trkpt lat="44.33623" lon="5.82515">
        <ele>614</ele>
        <time>2010-07-18T10:05:45Z</time>
      </trkpt>
      <trkpt lat="44.33582" lon="5.82561">
        <ele>614</ele>
        <time>2010-07-18T10:05:53Z</time>
      </trkpt>
      <trkpt lat="44.33557" lon="5.82597">
        <ele>611</ele>
        <time>2010-07-18T10:06:00Z</time>
      </trkpt>
      <trkpt lat="44.33544" lon="5.82616">
        <ele>608</ele>
        <time>2010-07-18T10:06:08Z</time>
      </trkpt>
      <trkpt lat="44.33525" lon="5.82636">
        <ele>607</ele>
        <time>2010-07-18T10:06:15Z</time>
      </trkpt>
      <trkpt lat="44.33507" lon="5.82669">
        <ele>606</ele>
        <time>2010-07-18T10:06:23Z</time>
      </trkpt>
      <trkpt lat="44.33485" lon="5.82692">
        <ele>604</ele>
        <time>2010-07-18T10:06:30Z</time>
      </trkpt>
      <trkpt lat="44.33477" lon="5.82685">
        <ele>603</ele>
        <time>2010-07-18T10:06:39Z</time>
      </trkpt>
      <trkpt lat="44.33453" lon="5.82667">
        <ele>603</ele>
        <time>2010-07-18T10:06:47Z</time>
      </trkpt>
      <trkpt lat="44.33445" lon="5.82654">
        <ele>603</ele>
        <time>2010-07-18T10:06:55Z</time>
      </trkpt>
      <trkpt lat="44.33449" lon="5.82645">
        <ele>603</ele>
        <time>2010-07-18T10:07:03Z</time>
      </trkpt>
      <trkpt lat="44.33445" lon="5.8263">
        <ele>603</ele>
        <time>2010-07-18T10:07:14Z</time>
      </trkpt>
      <trkpt lat="44.33443" lon="5.82626">
        <ele>603</ele>
        <time>2010-07-18T10:07:23Z</time>
      </trkpt>
      <trkpt lat="44.33437" lon="5.82626">
        <ele>603</ele>
        <time>2010-07-18T10:07:33Z</time>
      </trkpt>
      <trkpt lat="44.3343" lon="5.82627">
        <ele>603</ele>
        <time>2010-07-18T10:07:41Z</time>
      </trkpt>
      <trkpt lat="44.33426" lon="5.82626">
        <ele>602</ele>
        <time>2010-07-18T10:07:49Z</time>
      </trkpt>
      <trkpt lat="44.33425" lon="5.82624">
        <ele>602</ele>
        <time>2010-07-18T10:07:59Z</time>
      </trkpt>
      <trkpt lat="44.33426" lon="5.82623">
        <ele>602</ele>
        <time>2010-07-18T10:08:08Z</time>
      </trkpt>
      <trkpt lat="44.33427" lon="5.8262">
        <ele>602</ele>
        <time>2010-07-18T10:08:17Z</time>
      </trkpt>
      <trkpt lat="44.33432" lon="5.82609">
        <ele>602</ele>
        <time>2010-07-18T10:08:25Z</time>
      </trkpt>
      <trkpt lat="44.33434" lon="5.82593">
        <ele>602</ele>
        <time>2010-07-18T10:08:34Z</time>
      </trkpt>
      <trkpt lat="44.33424" lon="5.82581">
        <ele>602</ele>
        <time>2010-07-18T10:08:42Z</time>
      </trkpt>
      <trkpt lat="44.33412" lon="5.82574">
        <ele>602</ele>
        <time>2010-07-18T10:08:50Z</time>
      </trkpt>
      <trkpt lat="44.33402" lon="5.8257">
        <ele>602</ele>
        <time>2010-07-18T10:08:58Z</time>
      </trkpt>
      <trkpt lat="44.33398" lon="5.8257">
        <ele>602</ele>
        <time>2010-07-18T10:09:05Z</time>
      </trkpt>
      <trkpt lat="44.3339" lon="5.82584">
        <ele>605</ele>
        <time>2010-07-18T10:09:16Z</time>
      </trkpt>
      <trkpt lat="44.33388" lon="5.82597">
        <ele>606</ele>
        <time>2010-07-18T10:09:23Z</time>
      </trkpt>
      <trkpt lat="44.33382" lon="5.8261">
        <ele>609</ele>
        <time>2010-07-18T10:09:33Z</time>
      </trkpt>
      <trkpt lat="44.33373" lon="5.82612">
        <ele>611</ele>
        <time>2010-07-18T10:09:41Z</time>
      </trkpt>
      <trkpt lat="44.33363" lon="5.82605">
        <ele>612</ele>
        <time>2010-07-18T10:09:49Z</time>
      </trkpt>
      <trkpt lat="44.3335" lon="5.82594">
        <ele>614</ele>
        <time>2010-07-18T10:09:57Z</time>
      </trkpt>
      <trkpt lat="44.33343" lon="5.82583">
        <ele>615</ele>
        <time>2010-07-18T10:10:05Z</time>
      </trkpt>
      <trkpt lat="44.33337" lon="5.82571">
        <ele>616</ele>
        <time>2010-07-18T10:10:13Z</time>
      </trkpt>
      <trkpt lat="44.3333" lon="5.82564">
        <ele>617</ele>
        <time>2010-07-18T10:10:20Z</time>
      </trkpt>
      <trkpt lat="44.3332" lon="5.82568">
        <ele>619</ele>
        <time>2010-07-18T10:10:28Z</time>
      </trkpt>
      <trkpt lat="44.33311" lon="5.82568">
        <ele>620</ele>
        <time>2010-07-18T10:10:35Z</time>
      </trkpt>
      <trkpt lat="44.33302" lon="5.82564">
        <ele>622</ele>
        <time>2010-07-18T10:10:43Z</time>
      </trkpt>
      <trkpt lat="44.33293" lon="5.82566">
        <ele>623</ele>
        <time>2010-07-18T10:10:50Z</time>
      </trkpt>
      <trkpt lat="44.33283" lon="5.82573">
        <ele>624</ele>
        <time>2010-07-18T10:10:58Z</time>
      </trkpt>
      <trkpt lat="44.33275" lon="5.82576">
        <ele>625</ele>
        <time>2010-07-18T10:11:05Z</time>
      </trkpt>
      <trkpt lat="44.33266" lon="5.82577">
        <ele>627</ele>
        <time>2010-07-18T10:11:13Z</time>
      </trkpt>
      <trkpt lat="44.33258" lon="5.8258">
        <ele>629</ele>
        <time>2010-07-18T10:11:20Z</time>
      </trkpt>
      <trkpt lat="44.33246" lon="5.82581">
        <ele>631</ele>
        <time>2010-07-18T10:11:28Z</time>
      </trkpt>
      <trkpt lat="44.33235" lon="5.82581">
        <ele>631</ele>
        <time>2010-07-18T10:11:35Z</time>
      </trkpt>
      <trkpt lat="44.33224" lon="5.82584">
        <ele>634</ele>
        <time>2010-07-18T10:11:43Z</time>
      </trkpt>
      <trkpt lat="44.33216" lon="5.82585">
        <ele>635</ele>
        <time>2010-07-18T10:11:50Z</time>
      </trkpt>
      <trkpt lat="44.33205" lon="5.82588">
        <ele>638</ele>
        <time>2010-07-18T10:11:58Z</time>
      </trkpt>
      <trkpt lat="44.33193" lon="5.82593">
        <ele>638</ele>
        <time>2010-07-18T10:12:05Z</time>
      </trkpt>
      <trkpt lat="44.33175" lon="5.82604">
        <ele>638</ele>
        <time>2010-07-18T10:12:13Z</time>
      </trkpt>
      <trkpt lat="44.3316" lon="5.82612">
        <ele>638</ele>
        <time>2010-07-18T10:12:21Z</time>
      </trkpt>
      <trkpt lat="44.33132" lon="5.8264">
        <ele>636</ele>
        <time>2010-07-18T10:12:29Z</time>
      </trkpt>
      <trkpt lat="44.33112" lon="5.827">
        <ele>630</ele>
        <time>2010-07-18T10:12:36Z</time>
      </trkpt>
      <trkpt lat="44.33091" lon="5.82779">
        <ele>624</ele>
        <time>2010-07-18T10:12:43Z</time>
      </trkpt>
      <trkpt lat="44.3308" lon="5.82863">
        <ele>617</ele>
        <time>2010-07-18T10:12:50Z</time>
      </trkpt>
      <trkpt lat="44.3305" lon="5.82954">
        <ele>610</ele>
        <time>2010-07-18T10:12:57Z</time>
      </trkpt>
      <trkpt lat="44.33029" lon="5.83042">
        <ele>604</ele>
        <time>2010-07-18T10:13:04Z</time>
      </trkpt>
      <trkpt lat="44.33" lon="5.8309">
        <ele>599</ele>
        <time>2010-07-18T10:13:11Z</time>
      </trkpt>
      <trkpt lat="44.32955" lon="5.83108">
        <ele>597</ele>
        <time>2010-07-18T10:13:18Z</time>
      </trkpt>
      <trkpt lat="44.32906" lon="5.83121">
        <ele>593</ele>
        <time>2010-07-18T10:13:25Z</time>
      </trkpt>
      <trkpt lat="44.3288" lon="5.83164">
        <ele>590</ele>
        <time>2010-07-18T10:13:33Z</time>
      </trkpt>
      <trkpt lat="44.32865" lon="5.83217">
        <ele>590</ele>
        <time>2010-07-18T10:13:40Z</time>
      </trkpt>
      <trkpt lat="44.32852" lon="5.83274">
        <ele>588</ele>
        <time>2010-07-18T10:13:47Z</time>
      </trkpt>
      <trkpt lat="44.3284" lon="5.83329">
        <ele>587</ele>
        <time>2010-07-18T10:13:54Z</time>
      </trkpt>
      <trkpt lat="44.32829" lon="5.83379">
        <ele>587</ele>
        <time>2010-07-18T10:14:01Z</time>
      </trkpt>
      <trkpt lat="44.32798" lon="5.83375">
        <ele>585</ele>
        <time>2010-07-18T10:14:08Z</time>
      </trkpt>
      <trkpt lat="44.32761" lon="5.83347">
        <ele>585</ele>
        <time>2010-07-18T10:14:15Z</time>
      </trkpt>
      <trkpt lat="44.32719" lon="5.83317">
        <ele>585</ele>
        <time>2010-07-18T10:14:23Z</time>
      </trkpt>
      <trkpt lat="44.32687" lon="5.83294">
        <ele>584</ele>
        <time>2010-07-18T10:14:30Z</time>
      </trkpt>
      <trkpt lat="44.3266" lon="5.83273">
        <ele>584</ele>
        <time>2010-07-18T10:14:37Z</time>
      </trkpt>
      <trkpt lat="44.32652" lon="5.83261">
        <ele>584</ele>
        <time>2010-07-18T10:14:51Z</time>
      </trkpt>
      <trkpt lat="44.32651" lon="5.83259">
        <ele>584</ele>
        <time>2010-07-18T10:14:58Z</time>
      </trkpt>
      <trkpt lat="44.32649" lon="5.83259">
        <ele>584</ele>
        <time>2010-07-18T10:15:12Z</time>
      </trkpt>
      <trkpt lat="44.32647" lon="5.83257">
        <ele>584</ele>
        <time>2010-07-18T10:15:26Z</time>
      </trkpt>
      <trkpt lat="44.32645" lon="5.83263">
        <ele>584</ele>
        <time>2010-07-18T10:15:34Z</time>
      </trkpt>
      <trkpt lat="44.32647" lon="5.83264">
        <ele>585</ele>
        <time>2010-07-18T10:15:44Z</time>
      </trkpt>
      <trkpt lat="44.32649" lon="5.83263">
        <ele>585</ele>
        <time>2010-07-18T10:15:55Z</time>
      </trkpt>
      <trkpt lat="44.3265" lon="5.83265">
        <ele>585</ele>
        <time>2010-07-18T10:16:05Z</time>
      </trkpt>
      <trkpt lat="44.32636" lon="5.83256">
        <ele>585</ele>
        <time>2010-07-18T10:16:12Z</time>
      </trkpt>
      <trkpt lat="44.32613" lon="5.83239">
        <ele>585</ele>
        <time>2010-07-18T10:16:19Z</time>
      </trkpt>
      <trkpt lat="44.32583" lon="5.83221">
        <ele>585</ele>
        <time>2010-07-18T10:16:26Z</time>
      </trkpt>
      <trkpt lat="44.32551" lon="5.83208">
        <ele>585</ele>
        <time>2010-07-18T10:16:33Z</time>
      </trkpt>
      <trkpt lat="44.32517" lon="5.83191">
        <ele>585</ele>
        <time>2010-07-18T10:16:40Z</time>
      </trkpt>
      <trkpt lat="44.32481" lon="5.83173">
        <ele>585</ele>
        <time>2010-07-18T10:16:47Z</time>
      </trkpt>
      <trkpt lat="44.32449" lon="5.83147">
        <ele>585</ele>
        <time>2010-07-18T10:16:54Z</time>
      </trkpt>
      <trkpt lat="44.32418" lon="5.83117">
        <ele>585</ele>
        <time>2010-07-18T10:17:01Z</time>
      </trkpt>
      <trkpt lat="44.32391" lon="5.83078">
        <ele>585</ele>
        <time>2010-07-18T10:17:08Z</time>
      </trkpt>
      <trkpt lat="44.32374" lon="5.83033">
        <ele>585</ele>
        <time>2010-07-18T10:17:15Z</time>
      </trkpt>
      <trkpt lat="44.32359" lon="5.82993">
        <ele>585</ele>
        <time>2010-07-18T10:17:22Z</time>
      </trkpt>
      <trkpt lat="44.32345" lon="5.82974">
        <ele>585</ele>
        <time>2010-07-18T10:17:29Z</time>
      </trkpt>
      <trkpt lat="44.32296" lon="5.82945">
        <ele>585</ele>
        <time>2010-07-18T10:17:38Z</time>
      </trkpt>
      <trkpt lat="44.32233" lon="5.82914">
        <ele>584</ele>
        <time>2010-07-18T10:17:45Z</time>
      </trkpt>
      <trkpt lat="44.3218" lon="5.82889">
        <ele>582</ele>
        <time>2010-07-18T10:17:53Z</time>
      </trkpt>
      <trkpt lat="44.32136" lon="5.82868">
        <ele>582</ele>
        <time>2010-07-18T10:18:00Z</time>
      </trkpt>
      <trkpt lat="44.32086" lon="5.82854">
        <ele>581</ele>
        <time>2010-07-18T10:18:08Z</time>
      </trkpt>
      <trkpt lat="44.32038" lon="5.82825">
        <ele>578</ele>
        <time>2010-07-18T10:18:15Z</time>
      </trkpt>
      <trkpt lat="44.31985" lon="5.82796">
        <ele>575</ele>
        <time>2010-07-18T10:18:22Z</time>
      </trkpt>
      <trkpt lat="44.31932" lon="5.82776">
        <ele>574</ele>
        <time>2010-07-18T10:18:29Z</time>
      </trkpt>
      <trkpt lat="44.31884" lon="5.82772">
        <ele>572</ele>
        <time>2010-07-18T10:18:36Z</time>
      </trkpt>
      <trkpt lat="44.31837" lon="5.82758">
        <ele>571</ele>
        <time>2010-07-18T10:18:43Z</time>
      </trkpt>
      <trkpt lat="44.318" lon="5.82726">
        <ele>571</ele>
        <time>2010-07-18T10:18:50Z</time>
      </trkpt>
      <trkpt lat="44.31759" lon="5.82686">
        <ele>570</ele>
        <time>2010-07-18T10:18:58Z</time>
      </trkpt>
      <trkpt lat="44.31725" lon="5.82652">
        <ele>570</ele>
        <time>2010-07-18T10:19:05Z</time>
      </trkpt>
      <trkpt lat="44.31687" lon="5.82615">
        <ele>570</ele>
        <time>2010-07-18T10:19:13Z</time>
      </trkpt>
      <trkpt lat="44.31655" lon="5.82582">
        <ele>569</ele>
        <time>2010-07-18T10:19:20Z</time>
      </trkpt>
      <trkpt lat="44.31612" lon="5.82538">
        <ele>569</ele>
        <time>2010-07-18T10:19:30Z</time>
      </trkpt>
      <trkpt lat="44.3158" lon="5.82507">
        <ele>569</ele>
        <time>2010-07-18T10:19:37Z</time>
      </trkpt>
      <trkpt lat="44.31555" lon="5.82477">
        <ele>569</ele>
        <time>2010-07-18T10:19:44Z</time>
      </trkpt>
      <trkpt lat="44.31531" lon="5.82454">
        <ele>569</ele>
        <time>2010-07-18T10:19:51Z</time>
      </trkpt>
      <trkpt lat="44.31506" lon="5.82434">
        <ele>569</ele>
        <time>2010-07-18T10:19:58Z</time>
      </trkpt>
      <trkpt lat="44.31487" lon="5.82414">
        <ele>569</ele>
        <time>2010-07-18T10:20:05Z</time>
      </trkpt>
      <trkpt lat="44.31466" lon="5.82397">
        <ele>569</ele>
        <time>2010-07-18T10:20:12Z</time>
      </trkpt>
      <trkpt lat="44.31448" lon="5.82377">
        <ele>569</ele>
        <time>2010-07-18T10:20:19Z</time>
      </trkpt>
      <trkpt lat="44.31439" lon="5.82368">
        <ele>575</ele>
        <time>2010-07-18T10:20:26Z</time>
      </trkpt>
      <trkpt lat="44.31438" lon="5.82357">
        <ele>576</ele>
        <time>2010-07-18T10:20:33Z</time>
      </trkpt>
      <trkpt lat="44.31425" lon="5.82334">
        <ele>576</ele>
        <time>2010-07-18T10:20:40Z</time>
      </trkpt>
      <trkpt lat="44.31417" lon="5.8231">
        <ele>578</ele>
        <time>2010-07-18T10:20:47Z</time>
      </trkpt>
      <trkpt lat="44.31411" lon="5.82286">
        <ele>578</ele>
        <time>2010-07-18T10:20:54Z</time>
      </trkpt>
      <trkpt lat="44.31405" lon="5.82263">
        <ele>578</ele>
        <time>2010-07-18T10:21:01Z</time>
      </trkpt>
      <trkpt lat="44.31399" lon="5.82246">
        <ele>578</ele>
        <time>2010-07-18T10:21:08Z</time>
      </trkpt>
      <trkpt lat="44.31402" lon="5.82246">
        <ele>578</ele>
        <time>2010-07-18T10:21:16Z</time>
      </trkpt>
      <trkpt lat="44.31371" lon="5.82293">
        <ele>576</ele>
        <time>2010-07-18T10:21:25Z</time>
      </trkpt>
      <trkpt lat="44.31374" lon="5.82293">
        <ele>576</ele>
        <time>2010-07-18T10:21:36Z</time>
      </trkpt>
      <trkpt lat="44.31391" lon="5.82292">
        <ele>576</ele>
        <time>2010-07-18T10:21:44Z</time>
      </trkpt>
      <trkpt lat="44.31401" lon="5.82303">
        <ele>574</ele>
        <time>2010-07-18T10:21:51Z</time>
      </trkpt>
      <trkpt lat="44.3141" lon="5.82319">
        <ele>570</ele>
        <time>2010-07-18T10:21:59Z</time>
      </trkpt>
      <trkpt lat="44.31421" lon="5.82338">
        <ele>570</ele>
        <time>2010-07-18T10:22:06Z</time>
      </trkpt>
      <trkpt lat="44.31436" lon="5.82376">
        <ele>569</ele>
        <time>2010-07-18T10:22:16Z</time>
      </trkpt>
      <trkpt lat="44.31438" lon="5.82414">
        <ele>568</ele>
        <time>2010-07-18T10:22:23Z</time>
      </trkpt>
      <trkpt lat="44.31434" lon="5.82457">
        <ele>566</ele>
        <time>2010-07-18T10:22:30Z</time>
      </trkpt>
      <trkpt lat="44.3142" lon="5.82498">
        <ele>566</ele>
        <time>2010-07-18T10:22:38Z</time>
      </trkpt>
      <trkpt lat="44.31414" lon="5.82536">
        <ele>566</ele>
        <time>2010-07-18T10:22:46Z</time>
      </trkpt>
      <trkpt lat="44.31406" lon="5.82585">
        <ele>566</ele>
        <time>2010-07-18T10:22:55Z</time>
      </trkpt>
      <trkpt lat="44.3139" lon="5.82642">
        <ele>566</ele>
        <time>2010-07-18T10:23:06Z</time>
      </trkpt>
      <trkpt lat="44.31362" lon="5.8269">
        <ele>566</ele>
        <time>2010-07-18T10:23:13Z</time>
      </trkpt>
      <trkpt lat="44.31375" lon="5.82723">
        <ele>566</ele>
        <time>2010-07-18T10:23:20Z</time>
      </trkpt>
      <trkpt lat="44.31377" lon="5.82768">
        <ele>565</ele>
        <time>2010-07-18T10:23:32Z</time>
      </trkpt>
      <trkpt lat="44.31375" lon="5.82818">
        <ele>564</ele>
        <time>2010-07-18T10:23:39Z</time>
      </trkpt>
      <trkpt lat="44.31372" lon="5.82853">
        <ele>564</ele>
        <time>2010-07-18T10:23:46Z</time>
      </trkpt>
      <trkpt lat="44.31367" lon="5.82893">
        <ele>564</ele>
        <time>2010-07-18T10:23:57Z</time>
      </trkpt>
      <trkpt lat="44.31361" lon="5.82947">
        <ele>564</ele>
        <time>2010-07-18T10:24:04Z</time>
      </trkpt>
      <trkpt lat="44.31356" lon="5.82985">
        <ele>564</ele>
        <time>2010-07-18T10:24:11Z</time>
      </trkpt>
      <trkpt lat="44.31351" lon="5.83025">
        <ele>564</ele>
        <time>2010-07-18T10:24:22Z</time>
      </trkpt>
      <trkpt lat="44.31343" lon="5.83075">
        <ele>564</ele>
        <time>2010-07-18T10:24:29Z</time>
      </trkpt>
      <trkpt lat="44.31343" lon="5.83114">
        <ele>564</ele>
        <time>2010-07-18T10:24:36Z</time>
      </trkpt>
      <trkpt lat="44.31348" lon="5.83158">
        <ele>564</ele>
        <time>2010-07-18T10:24:47Z</time>
      </trkpt>
      <trkpt lat="44.31356" lon="5.83213">
        <ele>564</ele>
        <time>2010-07-18T10:24:54Z</time>
      </trkpt>
      <trkpt lat="44.31356" lon="5.83253">
        <ele>564</ele>
        <time>2010-07-18T10:25:01Z</time>
      </trkpt>
      <trkpt lat="44.31354" lon="5.83299">
        <ele>564</ele>
        <time>2010-07-18T10:25:12Z</time>
      </trkpt>
      <trkpt lat="44.31351" lon="5.83357">
        <ele>564</ele>
        <time>2010-07-18T10:25:19Z</time>
      </trkpt>
      <trkpt lat="44.3135" lon="5.83397">
        <ele>564</ele>
        <time>2010-07-18T10:25:26Z</time>
      </trkpt>
      <trkpt lat="44.31348" lon="5.83434">
        <ele>564</ele>
        <time>2010-07-18T10:25:34Z</time>
      </trkpt>
      <trkpt lat="44.31345" lon="5.83491">
        <ele>564</ele>
        <time>2010-07-18T10:25:41Z</time>
      </trkpt>
      <trkpt lat="44.31343" lon="5.83535">
        <ele>564</ele>
        <time>2010-07-18T10:25:48Z</time>
      </trkpt>
      <trkpt lat="44.31341" lon="5.83593">
        <ele>564</ele>
        <time>2010-07-18T10:25:59Z</time>
      </trkpt>
      <trkpt lat="44.31338" lon="5.83651">
        <ele>564</ele>
        <time>2010-07-18T10:26:06Z</time>
      </trkpt>
      <trkpt lat="44.31336" lon="5.83698">
        <ele>564</ele>
        <time>2010-07-18T10:26:13Z</time>
      </trkpt>
      <trkpt lat="44.31334" lon="5.83769">
        <ele>564</ele>
        <time>2010-07-18T10:26:24Z</time>
      </trkpt>
      <trkpt lat="44.31331" lon="5.83817">
        <ele>564</ele>
        <time>2010-07-18T10:26:32Z</time>
      </trkpt>
      <trkpt lat="44.31328" lon="5.83887">
        <ele>564</ele>
        <time>2010-07-18T10:26:43Z</time>
      </trkpt>
      <trkpt lat="44.31326" lon="5.83937">
        <ele>564</ele>
        <time>2010-07-18T10:26:51Z</time>
      </trkpt>
      <trkpt lat="44.31324" lon="5.83985">
        <ele>564</ele>
        <time>2010-07-18T10:27:02Z</time>
      </trkpt>
      <trkpt lat="44.31321" lon="5.84045">
        <ele>564</ele>
        <time>2010-07-18T10:27:09Z</time>
      </trkpt>
      <trkpt lat="44.31319" lon="5.84086">
        <ele>564</ele>
        <time>2010-07-18T10:27:16Z</time>
      </trkpt>
      <trkpt lat="44.31316" lon="5.84132">
        <ele>564</ele>
        <time>2010-07-18T10:27:27Z</time>
      </trkpt>
      <trkpt lat="44.31313" lon="5.84188">
        <ele>565</ele>
        <time>2010-07-18T10:27:35Z</time>
      </trkpt>
      <trkpt lat="44.31311" lon="5.84202">
        <ele>566</ele>
        <time>2010-07-18T10:27:43Z</time>
      </trkpt>
      <trkpt lat="44.31311" lon="5.842">
        <ele>568</ele>
        <time>2010-07-18T10:27:57Z</time>
      </trkpt>
      <trkpt lat="44.31312" lon="5.84199">
        <ele>570</ele>
        <time>2010-07-18T10:28:11Z</time>
      </trkpt>
      <trkpt lat="44.31311" lon="5.84199">
        <ele>570</ele>
        <time>2010-07-18T10:28:25Z</time>
      </trkpt>
      <trkpt lat="44.31311" lon="5.84197">
        <ele>572</ele>
        <time>2010-07-18T10:28:49Z</time>
      </trkpt>
      <trkpt lat="44.31312" lon="5.84197">
        <ele>573</ele>
        <time>2010-07-18T10:28:57Z</time>
      </trkpt>
      <trkpt lat="44.31313" lon="5.84198">
        <ele>574</ele>
        <time>2010-07-18T10:29:14Z</time>
      </trkpt>
      <trkpt lat="44.31312" lon="5.842">
        <ele>574</ele>
        <time>2010-07-18T10:29:22Z</time>
      </trkpt>
      <trkpt lat="44.31315" lon="5.84195">
        <ele>571</ele>
        <time>2010-07-18T10:29:48Z</time>
      </trkpt>
      <trkpt lat="44.31327" lon="5.84163">
        <ele>571</ele>
        <time>2010-07-18T10:29:55Z</time>
      </trkpt>
      <trkpt lat="44.31341" lon="5.84134">
        <ele>571</ele>
        <time>2010-07-18T10:30:06Z</time>
      </trkpt>
      <trkpt lat="44.31352" lon="5.84124">
        <ele>571</ele>
        <time>2010-07-18T10:30:15Z</time>
      </trkpt>
      <trkpt lat="44.3134" lon="5.84137">
        <ele>571</ele>
        <time>2010-07-18T10:30:23Z</time>
      </trkpt>
      <trkpt lat="44.3132" lon="5.84154">
        <ele>571</ele>
        <time>2010-07-18T10:30:30Z</time>
      </trkpt>
      <trkpt lat="44.31324" lon="5.8411">
        <ele>571</ele>
        <time>2010-07-18T10:30:38Z</time>
      </trkpt>
      <trkpt lat="44.31326" lon="5.84048">
        <ele>571</ele>
        <time>2010-07-18T10:30:49Z</time>
      </trkpt>
      <trkpt lat="44.31329" lon="5.8398">
        <ele>570</ele>
        <time>2010-07-18T10:30:56Z</time>
      </trkpt>
      <trkpt lat="44.3133" lon="5.83927">
        <ele>570</ele>
        <time>2010-07-18T10:31:03Z</time>
      </trkpt>
      <trkpt lat="44.31332" lon="5.83861">
        <ele>570</ele>
        <time>2010-07-18T10:31:14Z</time>
      </trkpt>
      <trkpt lat="44.31336" lon="5.83786">
        <ele>570</ele>
        <time>2010-07-18T10:31:22Z</time>
      </trkpt>
      <trkpt lat="44.31339" lon="5.83719">
        <ele>570</ele>
        <time>2010-07-18T10:31:33Z</time>
      </trkpt>
      <trkpt lat="44.31342" lon="5.83648">
        <ele>570</ele>
        <time>2010-07-18T10:31:41Z</time>
      </trkpt>
      <trkpt lat="44.31345" lon="5.8359">
        <ele>570</ele>
        <time>2010-07-18T10:31:52Z</time>
      </trkpt>
      <trkpt lat="44.31347" lon="5.83509">
        <ele>570</ele>
        <time>2010-07-18T10:32:00Z</time>
      </trkpt>
      <trkpt lat="44.31349" lon="5.83451">
        <ele>570</ele>
        <time>2010-07-18T10:32:11Z</time>
      </trkpt>
      <trkpt lat="44.31353" lon="5.83372">
        <ele>570</ele>
        <time>2010-07-18T10:32:19Z</time>
      </trkpt>
      <trkpt lat="44.31355" lon="5.83307">
        <ele>570</ele>
        <time>2010-07-18T10:32:30Z</time>
      </trkpt>
      <trkpt lat="44.31369" lon="5.83268">
        <ele>570</ele>
        <time>2010-07-18T10:32:38Z</time>
      </trkpt>
      <trkpt lat="44.31402" lon="5.83287">
        <ele>570</ele>
        <time>2010-07-18T10:32:45Z</time>
      </trkpt>
      <trkpt lat="44.31433" lon="5.8331">
        <ele>569</ele>
        <time>2010-07-18T10:32:56Z</time>
      </trkpt>
      <trkpt lat="44.31472" lon="5.8335">
        <ele>568</ele>
        <time>2010-07-18T10:33:04Z</time>
      </trkpt>
      <trkpt lat="44.315" lon="5.83382">
        <ele>568</ele>
        <time>2010-07-18T10:33:15Z</time>
      </trkpt>
      <trkpt lat="44.31525" lon="5.8343">
        <ele>569</ele>
        <time>2010-07-18T10:33:23Z</time>
      </trkpt>
      <trkpt lat="44.31549" lon="5.8347">
        <ele>569</ele>
        <time>2010-07-18T10:33:34Z</time>
      </trkpt>
      <trkpt lat="44.31559" lon="5.83489">
        <ele>569</ele>
        <time>2010-07-18T10:33:42Z</time>
      </trkpt>
      <trkpt lat="44.31566" lon="5.83524">
        <ele>569</ele>
        <time>2010-07-18T10:33:49Z</time>
      </trkpt>
      <trkpt lat="44.3157" lon="5.83547">
        <ele>569</ele>
        <time>2010-07-18T10:33:56Z</time>
      </trkpt>
      <trkpt lat="44.31573" lon="5.83547">
        <ele>568</ele>
        <time>2010-07-18T10:34:11Z</time>
      </trkpt>
      <trkpt lat="44.31574" lon="5.83549">
        <ele>568</ele>
        <time>2010-07-18T10:34:28Z</time>
      </trkpt>
      <trkpt lat="44.31572" lon="5.83558">
        <ele>568</ele>
        <time>2010-07-18T10:34:37Z</time>
      </trkpt>
      <trkpt lat="44.31579" lon="5.83584">
        <ele>568</ele>
        <time>2010-07-18T10:34:44Z</time>
      </trkpt>
      <trkpt lat="44.31583" lon="5.83612">
        <ele>568</ele>
        <time>2010-07-18T10:34:51Z</time>
      </trkpt>
      <trkpt lat="44.31591" lon="5.83637">
        <ele>568</ele>
        <time>2010-07-18T10:34:58Z</time>
      </trkpt>
      <trkpt lat="44.31605" lon="5.83664">
        <ele>568</ele>
        <time>2010-07-18T10:35:06Z</time>
      </trkpt>
      <trkpt lat="44.31617" lon="5.83693">
        <ele>571</ele>
        <time>2010-07-18T10:35:13Z</time>
      </trkpt>
      <trkpt lat="44.31626" lon="5.83734">
        <ele>572</ele>
        <time>2010-07-18T10:35:21Z</time>
      </trkpt>
      <trkpt lat="44.31633" lon="5.83768">
        <ele>573</ele>
        <time>2010-07-18T10:35:28Z</time>
      </trkpt>
      <trkpt lat="44.31646" lon="5.838">
        <ele>576</ele>
        <time>2010-07-18T10:35:36Z</time>
      </trkpt>
      <trkpt lat="44.31653" lon="5.8383">
        <ele>577</ele>
        <time>2010-07-18T10:35:43Z</time>
      </trkpt>
      <trkpt lat="44.3166" lon="5.83865">
        <ele>577</ele>
        <time>2010-07-18T10:35:51Z</time>
      </trkpt>
      <trkpt lat="44.31673" lon="5.83898">
        <ele>577</ele>
        <time>2010-07-18T10:35:58Z</time>
      </trkpt>
      <trkpt lat="44.31689" lon="5.83928">
        <ele>577</ele>
        <time>2010-07-18T10:36:05Z</time>
      </trkpt>
      <trkpt lat="44.31709" lon="5.83965">
        <ele>577</ele>
        <time>2010-07-18T10:36:15Z</time>
      </trkpt>
      <trkpt lat="44.31723" lon="5.83995">
        <ele>579</ele>
        <time>2010-07-18T10:36:22Z</time>
      </trkpt>
      <trkpt lat="44.3171" lon="5.84012">
        <ele>582</ele>
        <time>2010-07-18T10:36:30Z</time>
      </trkpt>
      <trkpt lat="44.31692" lon="5.84006">
        <ele>583</ele>
        <time>2010-07-18T10:36:37Z</time>
      </trkpt>
      <trkpt lat="44.31667" lon="5.8401">
        <ele>583</ele>
        <time>2010-07-18T10:36:45Z</time>
      </trkpt>
      <trkpt lat="44.31653" lon="5.84028">
        <ele>583</ele>
        <time>2010-07-18T10:36:52Z</time>
      </trkpt>
      <trkpt lat="44.31659" lon="5.84045">
        <ele>583</ele>
        <time>2010-07-18T10:36:59Z</time>
      </trkpt>
      <trkpt lat="44.31665" lon="5.84058">
        <ele>583</ele>
        <time>2010-07-18T10:37:06Z</time>
      </trkpt>
      <trkpt lat="44.31672" lon="5.84075">
        <ele>584</ele>
        <time>2010-07-18T10:37:13Z</time>
      </trkpt>
      <trkpt lat="44.31677" lon="5.84099">
        <ele>585</ele>
        <time>2010-07-18T10:37:21Z</time>
      </trkpt>
      <trkpt lat="44.31678" lon="5.84115">
        <ele>586</ele>
        <time>2010-07-18T10:37:28Z</time>
      </trkpt>
      <trkpt lat="44.31672" lon="5.84136">
        <ele>587</ele>
        <time>2010-07-18T10:37:36Z</time>
      </trkpt>
      <trkpt lat="44.31669" lon="5.84153">
        <ele>587</ele>
        <time>2010-07-18T10:37:43Z</time>
      </trkpt>
      <trkpt lat="44.31664" lon="5.84166">
        <ele>587</ele>
        <time>2010-07-18T10:37:52Z</time>
      </trkpt>
      <trkpt lat="44.31658" lon="5.8418">
        <ele>587</ele>
        <time>2010-07-18T10:38:00Z</time>
      </trkpt>
      <trkpt lat="44.31647" lon="5.84192">
        <ele>590</ele>
        <time>2010-07-18T10:38:08Z</time>
      </trkpt>
      <trkpt lat="44.3164" lon="5.84203">
        <ele>596</ele>
        <time>2010-07-18T10:38:16Z</time>
      </trkpt>
      <trkpt lat="44.3164" lon="5.84208">
        <ele>596</ele>
        <time>2010-07-18T10:38:25Z</time>
      </trkpt>
      <trkpt lat="44.31641" lon="5.8421">
        <ele>596</ele>
        <time>2010-07-18T10:38:34Z</time>
      </trkpt>
      <trkpt lat="44.31643" lon="5.84212">
        <ele>596</ele>
        <time>2010-07-18T10:38:44Z</time>
      </trkpt>
      <trkpt lat="44.31646" lon="5.84216">
        <ele>596</ele>
        <time>2010-07-18T10:38:53Z</time>
      </trkpt>
      <trkpt lat="44.31651" lon="5.8422">
        <ele>596</ele>
        <time>2010-07-18T10:39:00Z</time>
      </trkpt>
      <trkpt lat="44.31651" lon="5.84221">
        <ele>600</ele>
        <time>2010-07-18T10:39:10Z</time>
      </trkpt>
      <trkpt lat="44.31653" lon="5.84224">
        <ele>602</ele>
        <time>2010-07-18T10:39:19Z</time>
      </trkpt>
      <trkpt lat="44.31657" lon="5.84227">
        <ele>602</ele>
        <time>2010-07-18T10:39:27Z</time>
      </trkpt>
      <trkpt lat="44.31661" lon="5.84231">
        <ele>602</ele>
        <time>2010-07-18T10:39:36Z</time>
      </trkpt>
      <trkpt lat="44.31662" lon="5.84236">
        <ele>605</ele>
        <time>2010-07-18T10:39:43Z</time>
      </trkpt>
      <trkpt lat="44.31664" lon="5.84241">
        <ele>608</ele>
        <time>2010-07-18T10:39:51Z</time>
      </trkpt>
      <trkpt lat="44.31666" lon="5.84248">
        <ele>608</ele>
        <time>2010-07-18T10:39:59Z</time>
      </trkpt>
      <trkpt lat="44.31666" lon="5.84255">
        <ele>610</ele>
        <time>2010-07-18T10:40:07Z</time>
      </trkpt>
      <trkpt lat="44.31667" lon="5.8426">
        <ele>612</ele>
        <time>2010-07-18T10:40:14Z</time>
      </trkpt>
      <trkpt lat="44.31671" lon="5.84266">
        <ele>612</ele>
        <time>2010-07-18T10:40:27Z</time>
      </trkpt>
      <trkpt lat="44.31675" lon="5.84276">
        <ele>612</ele>
        <time>2010-07-18T10:40:35Z</time>
      </trkpt>
      <trkpt lat="44.3168" lon="5.84286">
        <ele>613</ele>
        <time>2010-07-18T10:40:42Z</time>
      </trkpt>
      <trkpt lat="44.31688" lon="5.843">
        <ele>614</ele>
        <time>2010-07-18T10:40:50Z</time>
      </trkpt>
      <trkpt lat="44.31711" lon="5.84317">
        <ele>614</ele>
        <time>2010-07-18T10:40:57Z</time>
      </trkpt>
      <trkpt lat="44.31733" lon="5.84329">
        <ele>614</ele>
        <time>2010-07-18T10:41:04Z</time>
      </trkpt>
      <trkpt lat="44.31739" lon="5.8434">
        <ele>615</ele>
        <time>2010-07-18T10:41:12Z</time>
      </trkpt>
      <trkpt lat="44.31746" lon="5.84349">
        <ele>617</ele>
        <time>2010-07-18T10:41:19Z</time>
      </trkpt>
      <trkpt lat="44.31749" lon="5.84355">
        <ele>617</ele>
        <time>2010-07-18T10:41:26Z</time>
      </trkpt>
      <trkpt lat="44.31751" lon="5.84364">
        <ele>617</ele>
        <time>2010-07-18T10:41:35Z</time>
      </trkpt>
      <trkpt lat="44.31755" lon="5.84369">
        <ele>618</ele>
        <time>2010-07-18T10:41:43Z</time>
      </trkpt>
      <trkpt lat="44.31761" lon="5.84378">
        <ele>619</ele>
        <time>2010-07-18T10:41:54Z</time>
      </trkpt>
      <trkpt lat="44.31765" lon="5.84381">
        <ele>620</ele>
        <time>2010-07-18T10:42:01Z</time>
      </trkpt>
      <trkpt lat="44.31775" lon="5.84392">
        <ele>621</ele>
        <time>2010-07-18T10:42:08Z</time>
      </trkpt>
      <trkpt lat="44.31786" lon="5.84397">
        <ele>624</ele>
        <time>2010-07-18T10:42:16Z</time>
      </trkpt>
      <trkpt lat="44.31799" lon="5.84417">
        <ele>624</ele>
        <time>2010-07-18T10:42:23Z</time>
      </trkpt>
      <trkpt lat="44.31816" lon="5.84443">
        <ele>623</ele>
        <time>2010-07-18T10:42:31Z</time>
      </trkpt>
      <trkpt lat="44.31826" lon="5.84445">
        <ele>623</ele>
        <time>2010-07-18T10:42:38Z</time>
      </trkpt>
      <trkpt lat="44.31835" lon="5.84459">
        <ele>623</ele>
        <time>2010-07-18T10:42:46Z</time>
      </trkpt>
      <trkpt lat="44.31844" lon="5.84465">
        <ele>624</ele>
        <time>2010-07-18T10:42:53Z</time>
      </trkpt>
      <trkpt lat="44.31852" lon="5.8447">
        <ele>632</ele>
        <time>2010-07-18T10:43:09Z</time>
      </trkpt>
      <trkpt lat="44.31856" lon="5.84475">
        <ele>634</ele>
        <time>2010-07-18T10:43:17Z</time>
      </trkpt>
      <trkpt lat="44.3186" lon="5.84479">
        <ele>634</ele>
        <time>2010-07-18T10:43:24Z</time>
      </trkpt>
      <trkpt lat="44.31861" lon="5.84488">
        <ele>635</ele>
        <time>2010-07-18T10:43:35Z</time>
      </trkpt>
      <trkpt lat="44.31862" lon="5.84494">
        <ele>635</ele>
        <time>2010-07-18T10:43:43Z</time>
      </trkpt>
      <trkpt lat="44.31863" lon="5.84501">
        <ele>634</ele>
        <time>2010-07-18T10:43:51Z</time>
      </trkpt>
      <trkpt lat="44.31866" lon="5.84512">
        <ele>634</ele>
        <time>2010-07-18T10:43:58Z</time>
      </trkpt>
      <trkpt lat="44.3187" lon="5.84526">
        <ele>634</ele>
        <time>2010-07-18T10:44:06Z</time>
      </trkpt>
      <trkpt lat="44.3187" lon="5.84538">
        <ele>636</ele>
        <time>2010-07-18T10:44:13Z</time>
      </trkpt>
      <trkpt lat="44.31881" lon="5.8455">
        <ele>637</ele>
        <time>2010-07-18T10:44:21Z</time>
      </trkpt>
      <trkpt lat="44.31889" lon="5.8456">
        <ele>638</ele>
        <time>2010-07-18T10:44:28Z</time>
      </trkpt>
      <trkpt lat="44.31901" lon="5.84572">
        <ele>638</ele>
        <time>2010-07-18T10:44:37Z</time>
      </trkpt>
      <trkpt lat="44.31923" lon="5.84585">
        <ele>638</ele>
        <time>2010-07-18T10:44:47Z</time>
      </trkpt>
      <trkpt lat="44.31969" lon="5.84625">
        <ele>638</ele>
        <time>2010-07-18T10:44:55Z</time>
      </trkpt>
      <trkpt lat="44.31971" lon="5.84651">
        <ele>636</ele>
        <time>2010-07-18T10:45:02Z</time>
      </trkpt>
      <trkpt lat="44.31969" lon="5.84679">
        <ele>635</ele>
        <time>2010-07-18T10:45:09Z</time>
      </trkpt>
      <trkpt lat="44.31964" lon="5.84714">
        <ele>634</ele>
        <time>2010-07-18T10:45:16Z</time>
      </trkpt>
      <trkpt lat="44.31981" lon="5.84707">
        <ele>633</ele>
        <time>2010-07-18T10:45:23Z</time>
      </trkpt>
      <trkpt lat="44.31986" lon="5.84707">
        <ele>633</ele>
        <time>2010-07-18T10:45:34Z</time>
      </trkpt>
      <trkpt lat="44.31998" lon="5.84709">
        <ele>633</ele>
        <time>2010-07-18T10:45:41Z</time>
      </trkpt>
      <trkpt lat="44.32002" lon="5.84715">
        <ele>649</ele>
        <time>2010-07-18T10:45:57Z</time>
      </trkpt>
      <trkpt lat="44.32005" lon="5.84719">
        <ele>657</ele>
        <time>2010-07-18T10:46:05Z</time>
      </trkpt>
      <trkpt lat="44.3201" lon="5.84725">
        <ele>661</ele>
        <time>2010-07-18T10:46:12Z</time>
      </trkpt>
      <trkpt lat="44.32012" lon="5.84727">
        <ele>661</ele>
        <time>2010-07-18T10:46:19Z</time>
      </trkpt>
      <trkpt lat="44.32013" lon="5.84733">
        <ele>661</ele>
        <time>2010-07-18T10:46:28Z</time>
      </trkpt>
      <trkpt lat="44.32013" lon="5.84738">
        <ele>661</ele>
        <time>2010-07-18T10:46:37Z</time>
      </trkpt>
      <trkpt lat="44.32016" lon="5.84746">
        <ele>663</ele>
        <time>2010-07-18T10:46:46Z</time>
      </trkpt>
      <trkpt lat="44.32016" lon="5.84753">
        <ele>663</ele>
        <time>2010-07-18T10:46:53Z</time>
      </trkpt>
      <trkpt lat="44.32017" lon="5.8476">
        <ele>663</ele>
        <time>2010-07-18T10:47:01Z</time>
      </trkpt>
      <trkpt lat="44.32019" lon="5.84769">
        <ele>660</ele>
        <time>2010-07-18T10:47:09Z</time>
      </trkpt>
      <trkpt lat="44.3202" lon="5.84776">
        <ele>660</ele>
        <time>2010-07-18T10:47:17Z</time>
      </trkpt>
      <trkpt lat="44.32022" lon="5.84781">
        <ele>660</ele>
        <time>2010-07-18T10:47:25Z</time>
      </trkpt>
      <trkpt lat="44.32025" lon="5.84785">
        <ele>660</ele>
        <time>2010-07-18T10:47:36Z</time>
      </trkpt>
      <trkpt lat="44.32024" lon="5.84786">
        <ele>660</ele>
        <time>2010-07-18T10:47:45Z</time>
      </trkpt>
      <trkpt lat="44.32023" lon="5.84796">
        <ele>660</ele>
        <time>2010-07-18T10:47:54Z</time>
      </trkpt>
      <trkpt lat="44.32024" lon="5.84817">
        <ele>659</ele>
        <time>2010-07-18T10:48:01Z</time>
      </trkpt>
      <trkpt lat="44.32023" lon="5.84842">
        <ele>659</ele>
        <time>2010-07-18T10:48:08Z</time>
      </trkpt>
      <trkpt lat="44.32022" lon="5.84861">
        <ele>659</ele>
        <time>2010-07-18T10:48:16Z</time>
      </trkpt>
      <trkpt lat="44.32022" lon="5.84877">
        <ele>659</ele>
        <time>2010-07-18T10:48:23Z</time>
      </trkpt>
      <trkpt lat="44.3202" lon="5.84891">
        <ele>662</ele>
        <time>2010-07-18T10:48:32Z</time>
      </trkpt>
      <trkpt lat="44.32022" lon="5.84897">
        <ele>664</ele>
        <time>2010-07-18T10:48:42Z</time>
      </trkpt>
      <trkpt lat="44.32028" lon="5.84894">
        <ele>665</ele>
        <time>2010-07-18T10:48:49Z</time>
      </trkpt>
      <trkpt lat="44.32031" lon="5.84889">
        <ele>665</ele>
        <time>2010-07-18T10:48:56Z</time>
      </trkpt>
      <trkpt lat="44.32032" lon="5.84883">
        <ele>665</ele>
        <time>2010-07-18T10:49:04Z</time>
      </trkpt>
      <trkpt lat="44.32037" lon="5.84873">
        <ele>665</ele>
        <time>2010-07-18T10:49:12Z</time>
      </trkpt>
      <trkpt lat="44.3204" lon="5.84863">
        <ele>665</ele>
        <time>2010-07-18T10:49:19Z</time>
      </trkpt>
      <trkpt lat="44.32045" lon="5.84851">
        <ele>669</ele>
        <time>2010-07-18T10:49:26Z</time>
      </trkpt>
      <trkpt lat="44.32049" lon="5.8484">
        <ele>669</ele>
        <time>2010-07-18T10:49:33Z</time>
      </trkpt>
      <trkpt lat="44.32052" lon="5.84828">
        <ele>672</ele>
        <time>2010-07-18T10:49:41Z</time>
      </trkpt>
      <trkpt lat="44.32054" lon="5.84821">
        <ele>674</ele>
        <time>2010-07-18T10:49:48Z</time>
      </trkpt>
      <trkpt lat="44.32056" lon="5.84824">
        <ele>674</ele>
        <time>2010-07-18T10:49:58Z</time>
      </trkpt>
      <trkpt lat="44.32057" lon="5.84824">
        <ele>674</ele>
        <time>2010-07-18T10:50:17Z</time>
      </trkpt>
      <trkpt lat="44.32056" lon="5.84843">
        <ele>674</ele>
        <time>2010-07-18T10:50:24Z</time>
      </trkpt>
      <trkpt lat="44.32052" lon="5.8487">
        <ele>674</ele>
        <time>2010-07-18T10:50:31Z</time>
      </trkpt>
      <trkpt lat="44.32048" lon="5.84898">
        <ele>674</ele>
        <time>2010-07-18T10:50:38Z</time>
      </trkpt>
      <trkpt lat="44.32042" lon="5.84935">
        <ele>674</ele>
        <time>2010-07-18T10:50:46Z</time>
      </trkpt>
      <trkpt lat="44.32045" lon="5.84976">
        <ele>674</ele>
        <time>2010-07-18T10:50:53Z</time>
      </trkpt>
      <trkpt lat="44.32047" lon="5.85029">
        <ele>672</ele>
        <time>2010-07-18T10:51:01Z</time>
      </trkpt>
      <trkpt lat="44.32055" lon="5.85068">
        <ele>672</ele>
        <time>2010-07-18T10:51:08Z</time>
      </trkpt>
      <trkpt lat="44.32058" lon="5.85112">
        <ele>671</ele>
        <time>2010-07-18T10:51:16Z</time>
      </trkpt>
      <trkpt lat="44.32046" lon="5.85147">
        <ele>667</ele>
        <time>2010-07-18T10:51:23Z</time>
      </trkpt>
      <trkpt lat="44.32047" lon="5.85168">
        <ele>667</ele>
        <time>2010-07-18T10:51:32Z</time>
      </trkpt>
      <trkpt lat="44.32042" lon="5.85182">
        <ele>667</ele>
        <time>2010-07-18T10:51:39Z</time>
      </trkpt>
      <trkpt lat="44.32039" lon="5.85192">
        <ele>668</ele>
        <time>2010-07-18T10:51:46Z</time>
      </trkpt>
      <trkpt lat="44.32035" lon="5.85208">
        <ele>669</ele>
        <time>2010-07-18T10:51:53Z</time>
      </trkpt>
      <trkpt lat="44.3203" lon="5.85242">
        <ele>669</ele>
        <time>2010-07-18T10:52:01Z</time>
      </trkpt>
      <trkpt lat="44.32027" lon="5.85281">
        <ele>669</ele>
        <time>2010-07-18T10:52:08Z</time>
      </trkpt>
      <trkpt lat="44.32033" lon="5.85318">
        <ele>669</ele>
        <time>2010-07-18T10:52:16Z</time>
      </trkpt>
      <trkpt lat="44.32038" lon="5.85332">
        <ele>671</ele>
        <time>2010-07-18T10:52:23Z</time>
      </trkpt>
      <trkpt lat="44.32041" lon="5.85347">
        <ele>676</ele>
        <time>2010-07-18T10:52:31Z</time>
      </trkpt>
      <trkpt lat="44.32044" lon="5.85359">
        <ele>679</ele>
        <time>2010-07-18T10:52:38Z</time>
      </trkpt>
      <trkpt lat="44.32048" lon="5.85373">
        <ele>682</ele>
        <time>2010-07-18T10:52:47Z</time>
      </trkpt>
      <trkpt lat="44.3205" lon="5.85385">
        <ele>685</ele>
        <time>2010-07-18T10:52:54Z</time>
      </trkpt>
      <trkpt lat="44.32048" lon="5.85398">
        <ele>687</ele>
        <time>2010-07-18T10:53:01Z</time>
      </trkpt>
      <trkpt lat="44.32048" lon="5.85407">
        <ele>691</ele>
        <time>2010-07-18T10:53:08Z</time>
      </trkpt>
      <trkpt lat="44.32054" lon="5.85416">
        <ele>694</ele>
        <time>2010-07-18T10:53:19Z</time>
      </trkpt>
      <trkpt lat="44.32054" lon="5.8542">
        <ele>694</ele>
        <time>2010-07-18T10:53:35Z</time>
      </trkpt>
      <trkpt lat="44.32056" lon="5.85424">
        <ele>691</ele>
        <time>2010-07-18T10:53:42Z</time>
      </trkpt>
      <trkpt lat="44.32072" lon="5.85453">
        <ele>687</ele>
        <time>2010-07-18T10:53:49Z</time>
      </trkpt>
      <trkpt lat="44.32089" lon="5.85475">
        <ele>682</ele>
        <time>2010-07-18T10:53:56Z</time>
      </trkpt>
      <trkpt lat="44.32095" lon="5.85496">
        <ele>677</ele>
        <time>2010-07-18T10:54:03Z</time>
      </trkpt>
      <trkpt lat="44.32104" lon="5.85515">
        <ele>670</ele>
        <time>2010-07-18T10:54:11Z</time>
      </trkpt>
      <trkpt lat="44.32117" lon="5.85548">
        <ele>666</ele>
        <time>2010-07-18T10:54:19Z</time>
      </trkpt>
      <trkpt lat="44.32118" lon="5.85551">
        <ele>666</ele>
        <time>2010-07-18T10:54:26Z</time>
      </trkpt>
      <trkpt lat="44.32119" lon="5.85556">
        <ele>666</ele>
        <time>2010-07-18T10:54:34Z</time>
      </trkpt>
      <trkpt lat="44.3212" lon="5.8556">
        <ele>666</ele>
        <time>2010-07-18T10:54:41Z</time>
      </trkpt>
      <trkpt lat="44.32122" lon="5.85566">
        <ele>666</ele>
        <time>2010-07-18T10:54:50Z</time>
      </trkpt>
      <trkpt lat="44.3212" lon="5.85567">
        <ele>668</ele>
        <time>2010-07-18T10:55:06Z</time>
      </trkpt>
      <trkpt lat="44.32119" lon="5.85568">
        <ele>668</ele>
        <time>2010-07-18T10:55:34Z</time>
      </trkpt>
      <trkpt lat="44.32118" lon="5.8557">
        <ele>668</ele>
        <time>2010-07-18T10:55:55Z</time>
      </trkpt>
      <trkpt lat="44.32119" lon="5.85574">
        <ele>668</ele>
        <time>2010-07-18T10:56:02Z</time>
      </trkpt>
      <trkpt lat="44.3212" lon="5.85579">
        <ele>671</ele>
        <time>2010-07-18T10:56:10Z</time>
      </trkpt>
      <trkpt lat="44.3212" lon="5.85585">
        <ele>673</ele>
        <time>2010-07-18T10:56:17Z</time>
      </trkpt>
      <trkpt lat="44.3212" lon="5.8559">
        <ele>675</ele>
        <time>2010-07-18T10:56:24Z</time>
      </trkpt>
      <trkpt lat="44.32121" lon="5.85595">
        <ele>676</ele>
        <time>2010-07-18T10:56:31Z</time>
      </trkpt>
      <trkpt lat="44.32124" lon="5.85599">
        <ele>678</ele>
        <time>2010-07-18T10:56:39Z</time>
      </trkpt>
      <trkpt lat="44.32127" lon="5.85604">
        <ele>680</ele>
        <time>2010-07-18T10:56:46Z</time>
      </trkpt>
      <trkpt lat="44.32128" lon="5.8561">
        <ele>682</ele>
        <time>2010-07-18T10:56:53Z</time>
      </trkpt>
      <trkpt lat="44.32131" lon="5.85617">
        <ele>683</ele>
        <time>2010-07-18T10:57:02Z</time>
      </trkpt>
      <trkpt lat="44.3213" lon="5.85616">
        <ele>686</ele>
        <time>2010-07-18T10:57:13Z</time>
      </trkpt>
      <trkpt lat="44.32132" lon="5.85617">
        <ele>688</ele>
        <time>2010-07-18T10:57:22Z</time>
      </trkpt>
      <trkpt lat="44.32134" lon="5.85621">
        <ele>689</ele>
        <time>2010-07-18T10:57:32Z</time>
      </trkpt>
      <trkpt lat="44.32134" lon="5.85629">
        <ele>689</ele>
        <time>2010-07-18T10:57:39Z</time>
      </trkpt>
      <trkpt lat="44.32134" lon="5.85644">
        <ele>689</ele>
        <time>2010-07-18T10:57:46Z</time>
      </trkpt>
      <trkpt lat="44.32134" lon="5.8566">
        <ele>689</ele>
        <time>2010-07-18T10:57:53Z</time>
      </trkpt>
      <trkpt lat="44.32131" lon="5.85675">
        <ele>689</ele>
        <time>2010-07-18T10:58:01Z</time>
      </trkpt>
      <trkpt lat="44.32132" lon="5.85688">
        <ele>689</ele>
        <time>2010-07-18T10:58:08Z</time>
      </trkpt>
      <trkpt lat="44.3213" lon="5.85703">
        <ele>690</ele>
        <time>2010-07-18T10:58:16Z</time>
      </trkpt>
      <trkpt lat="44.32127" lon="5.85715">
        <ele>692</ele>
        <time>2010-07-18T10:58:23Z</time>
      </trkpt>
      <trkpt lat="44.32128" lon="5.85733">
        <ele>693</ele>
        <time>2010-07-18T10:58:31Z</time>
      </trkpt>
      <trkpt lat="44.3213" lon="5.85754">
        <ele>693</ele>
        <time>2010-07-18T10:58:38Z</time>
      </trkpt>
      <trkpt lat="44.32124" lon="5.85772">
        <ele>693</ele>
        <time>2010-07-18T10:58:46Z</time>
      </trkpt>
      <trkpt lat="44.32115" lon="5.85796">
        <ele>693</ele>
        <time>2010-07-18T10:58:53Z</time>
      </trkpt>
      <trkpt lat="44.32108" lon="5.85818">
        <ele>693</ele>
        <time>2010-07-18T10:59:01Z</time>
      </trkpt>
      <trkpt lat="44.32097" lon="5.8584">
        <ele>693</ele>
        <time>2010-07-18T10:59:08Z</time>
      </trkpt>
      <trkpt lat="44.32083" lon="5.85867">
        <ele>693</ele>
        <time>2010-07-18T10:59:16Z</time>
      </trkpt>
      <trkpt lat="44.3207" lon="5.85883">
        <ele>696</ele>
        <time>2010-07-18T10:59:23Z</time>
      </trkpt>
      <trkpt lat="44.32059" lon="5.85912">
        <ele>697</ele>
        <time>2010-07-18T10:59:31Z</time>
      </trkpt>
      <trkpt lat="44.3205" lon="5.85946">
        <ele>698</ele>
        <time>2010-07-18T10:59:38Z</time>
      </trkpt>
      <trkpt lat="44.32039" lon="5.86">
        <ele>698</ele>
        <time>2010-07-18T10:59:46Z</time>
      </trkpt>
      <trkpt lat="44.32042" lon="5.86062">
        <ele>696</ele>
        <time>2010-07-18T10:59:53Z</time>
      </trkpt>
      <trkpt lat="44.32065" lon="5.86128">
        <ele>692</ele>
        <time>2010-07-18T11:00:01Z</time>
      </trkpt>
      <trkpt lat="44.3208" lon="5.86142">
        <ele>692</ele>
        <time>2010-07-18T11:00:08Z</time>
      </trkpt>
      <trkpt lat="44.32083" lon="5.86158">
        <ele>692</ele>
        <time>2010-07-18T11:00:16Z</time>
      </trkpt>
      <trkpt lat="44.32083" lon="5.8617">
        <ele>693</ele>
        <time>2010-07-18T11:00:23Z</time>
      </trkpt>
      <trkpt lat="44.32084" lon="5.86182">
        <ele>696</ele>
        <time>2010-07-18T11:00:30Z</time>
      </trkpt>
      <trkpt lat="44.32085" lon="5.86195">
        <ele>700</ele>
        <time>2010-07-18T11:00:38Z</time>
      </trkpt>
      <trkpt lat="44.32086" lon="5.86207">
        <ele>702</ele>
        <time>2010-07-18T11:00:46Z</time>
      </trkpt>
      <trkpt lat="44.32087" lon="5.86218">
        <ele>704</ele>
        <time>2010-07-18T11:00:53Z</time>
      </trkpt>
      <trkpt lat="44.32086" lon="5.86232">
        <ele>706</ele>
        <time>2010-07-18T11:01:01Z</time>
      </trkpt>
      <trkpt lat="44.32087" lon="5.86244">
        <ele>706</ele>
        <time>2010-07-18T11:01:08Z</time>
      </trkpt>
      <trkpt lat="44.32087" lon="5.86258">
        <ele>707</ele>
        <time>2010-07-18T11:01:16Z</time>
      </trkpt>
      <trkpt lat="44.32084" lon="5.86271">
        <ele>708</ele>
        <time>2010-07-18T11:01:23Z</time>
      </trkpt>
      <trkpt lat="44.3208" lon="5.86283">
        <ele>710</ele>
        <time>2010-07-18T11:01:31Z</time>
      </trkpt>
      <trkpt lat="44.32077" lon="5.86296">
        <ele>712</ele>
        <time>2010-07-18T11:01:38Z</time>
      </trkpt>
      <trkpt lat="44.32074" lon="5.8631">
        <ele>715</ele>
        <time>2010-07-18T11:01:46Z</time>
      </trkpt>
      <trkpt lat="44.32075" lon="5.86327">
        <ele>715</ele>
        <time>2010-07-18T11:01:53Z</time>
      </trkpt>
      <trkpt lat="44.32074" lon="5.86345">
        <ele>715</ele>
        <time>2010-07-18T11:02:01Z</time>
      </trkpt>
      <trkpt lat="44.32075" lon="5.8636">
        <ele>715</ele>
        <time>2010-07-18T11:02:08Z</time>
      </trkpt>
      <trkpt lat="44.32077" lon="5.86376">
        <ele>715</ele>
        <time>2010-07-18T11:02:16Z</time>
      </trkpt>
      <trkpt lat="44.32079" lon="5.8639">
        <ele>715</ele>
        <time>2010-07-18T11:02:23Z</time>
      </trkpt>
      <trkpt lat="44.3208" lon="5.86406">
        <ele>717</ele>
        <time>2010-07-18T11:02:31Z</time>
      </trkpt>
      <trkpt lat="44.3208" lon="5.86421">
        <ele>719</ele>
        <time>2010-07-18T11:02:38Z</time>
      </trkpt>
      <trkpt lat="44.32077" lon="5.86443">
        <ele>719</ele>
        <time>2010-07-18T11:02:46Z</time>
      </trkpt>
      <trkpt lat="44.32074" lon="5.86474">
        <ele>719</ele>
        <time>2010-07-18T11:02:53Z</time>
      </trkpt>
      <trkpt lat="44.32079" lon="5.86509">
        <ele>719</ele>
        <time>2010-07-18T11:03:01Z</time>
      </trkpt>
      <trkpt lat="44.32078" lon="5.8654">
        <ele>719</ele>
        <time>2010-07-18T11:03:08Z</time>
      </trkpt>
      <trkpt lat="44.32083" lon="5.86579">
        <ele>720</ele>
        <time>2010-07-18T11:03:16Z</time>
      </trkpt>
      <trkpt lat="44.32086" lon="5.86619">
        <ele>720</ele>
        <time>2010-07-18T11:03:23Z</time>
      </trkpt>
      <trkpt lat="44.32091" lon="5.86669">
        <ele>720</ele>
        <time>2010-07-18T11:03:31Z</time>
      </trkpt>
      <trkpt lat="44.32095" lon="5.86714">
        <ele>720</ele>
        <time>2010-07-18T11:03:38Z</time>
      </trkpt>
      <trkpt lat="44.32099" lon="5.86758">
        <ele>720</ele>
        <time>2010-07-18T11:03:46Z</time>
      </trkpt>
      <trkpt lat="44.32103" lon="5.86786">
        <ele>720</ele>
        <time>2010-07-18T11:03:53Z</time>
      </trkpt>
      <trkpt lat="44.32106" lon="5.8681">
        <ele>720</ele>
        <time>2010-07-18T11:04:01Z</time>
      </trkpt>
      <trkpt lat="44.32104" lon="5.86832">
        <ele>721</ele>
        <time>2010-07-18T11:04:08Z</time>
      </trkpt>
      <trkpt lat="44.32097" lon="5.86854">
        <ele>723</ele>
        <time>2010-07-18T11:04:16Z</time>
      </trkpt>
      <trkpt lat="44.32093" lon="5.86874">
        <ele>724</ele>
        <time>2010-07-18T11:04:23Z</time>
      </trkpt>
      <trkpt lat="44.32094" lon="5.86907">
        <ele>724</ele>
        <time>2010-07-18T11:04:31Z</time>
      </trkpt>
      <trkpt lat="44.32099" lon="5.86943">
        <ele>724</ele>
        <time>2010-07-18T11:04:38Z</time>
      </trkpt>
      <trkpt lat="44.32104" lon="5.86977">
        <ele>725</ele>
        <time>2010-07-18T11:04:46Z</time>
      </trkpt>
      <trkpt lat="44.32113" lon="5.87004">
        <ele>727</ele>
        <time>2010-07-18T11:04:53Z</time>
      </trkpt>
      <trkpt lat="44.32129" lon="5.87062">
        <ele>727</ele>
        <time>2010-07-18T11:05:01Z</time>
      </trkpt>
      <trkpt lat="44.32123" lon="5.87141">
        <ele>725</ele>
        <time>2010-07-18T11:05:08Z</time>
      </trkpt>
      <trkpt lat="44.32089" lon="5.87212">
        <ele>721</ele>
        <time>2010-07-18T11:05:16Z</time>
      </trkpt>
      <trkpt lat="44.32073" lon="5.87251">
        <ele>721</ele>
        <time>2010-07-18T11:05:23Z</time>
      </trkpt>
      <trkpt lat="44.3206" lon="5.87272">
        <ele>721</ele>
        <time>2010-07-18T11:05:30Z</time>
      </trkpt>
      <trkpt lat="44.3205" lon="5.87293">
        <ele>721</ele>
        <time>2010-07-18T11:05:37Z</time>
      </trkpt>
      <trkpt lat="44.32038" lon="5.87311">
        <ele>721</ele>
        <time>2010-07-18T11:05:44Z</time>
      </trkpt>
      <trkpt lat="44.32025" lon="5.87335">
        <ele>722</ele>
        <time>2010-07-18T11:05:51Z</time>
      </trkpt>
      <trkpt lat="44.3202" lon="5.87359">
        <ele>724</ele>
        <time>2010-07-18T11:05:58Z</time>
      </trkpt>
      <trkpt lat="44.32017" lon="5.87383">
        <ele>727</ele>
        <time>2010-07-18T11:06:06Z</time>
      </trkpt>
      <trkpt lat="44.32009" lon="5.87408">
        <ele>729</ele>
        <time>2010-07-18T11:06:13Z</time>
      </trkpt>
      <trkpt lat="44.31993" lon="5.87438">
        <ele>729</ele>
        <time>2010-07-18T11:06:20Z</time>
      </trkpt>
      <trkpt lat="44.3198" lon="5.87456">
        <ele>729</ele>
        <time>2010-07-18T11:06:27Z</time>
      </trkpt>
      <trkpt lat="44.31965" lon="5.8748">
        <ele>729</ele>
        <time>2010-07-18T11:06:34Z</time>
      </trkpt>
      <trkpt lat="44.31955" lon="5.87493">
        <ele>729</ele>
        <time>2010-07-18T11:06:45Z</time>
      </trkpt>
      <trkpt lat="44.31943" lon="5.87503">
        <ele>729</ele>
        <time>2010-07-18T11:06:53Z</time>
      </trkpt>
      <trkpt lat="44.31938" lon="5.87508">
        <ele>729</ele>
        <time>2010-07-18T11:07:02Z</time>
      </trkpt>
      <trkpt lat="44.31916" lon="5.87516">
        <ele>729</ele>
        <time>2010-07-18T11:07:09Z</time>
      </trkpt>
      <trkpt lat="44.31895" lon="5.87533">
        <ele>729</ele>
        <time>2010-07-18T11:07:16Z</time>
      </trkpt>
      <trkpt lat="44.31881" lon="5.87543">
        <ele>730</ele>
        <time>2010-07-18T11:07:23Z</time>
      </trkpt>
      <trkpt lat="44.31879" lon="5.87547">
        <ele>728</ele>
        <time>2010-07-18T11:07:54Z</time>
      </trkpt>
      <trkpt lat="44.31879" lon="5.8755">
        <ele>724</ele>
        <time>2010-07-18T11:08:02Z</time>
      </trkpt>
      <trkpt lat="44.31878" lon="5.87551">
        <ele>723</ele>
        <time>2010-07-18T11:08:18Z</time>
      </trkpt>
      <trkpt lat="44.31875" lon="5.87552">
        <ele>723</ele>
        <time>2010-07-18T11:08:25Z</time>
      </trkpt>
      <trkpt lat="44.31875" lon="5.87555">
        <ele>723</ele>
        <time>2010-07-18T11:08:32Z</time>
      </trkpt>
      <trkpt lat="44.31874" lon="5.87554">
        <ele>724</ele>
        <time>2010-07-18T11:08:54Z</time>
      </trkpt>
      <trkpt lat="44.31844" lon="5.8755">
        <ele>724</ele>
        <time>2010-07-18T11:09:01Z</time>
      </trkpt>
      <trkpt lat="44.31819" lon="5.87515">
        <ele>724</ele>
        <time>2010-07-18T11:09:08Z</time>
      </trkpt>
      <trkpt lat="44.31804" lon="5.87494">
        <ele>724</ele>
        <time>2010-07-18T11:09:19Z</time>
      </trkpt>
      <trkpt lat="44.31796" lon="5.8749">
        <ele>724</ele>
        <time>2010-07-18T11:09:27Z</time>
      </trkpt>
      <trkpt lat="44.31789" lon="5.87475">
        <ele>725</ele>
        <time>2010-07-18T11:09:34Z</time>
      </trkpt>
      <trkpt lat="44.31783" lon="5.87473">
        <ele>727</ele>
        <time>2010-07-18T11:09:43Z</time>
      </trkpt>
      <trkpt lat="44.3177" lon="5.87475">
        <ele>727</ele>
        <time>2010-07-18T11:09:50Z</time>
      </trkpt>
      <trkpt lat="44.31749" lon="5.8748">
        <ele>727</ele>
        <time>2010-07-18T11:09:57Z</time>
      </trkpt>
      <trkpt lat="44.31736" lon="5.87491">
        <ele>728</ele>
        <time>2010-07-18T11:10:04Z</time>
      </trkpt>
      <trkpt lat="44.31702" lon="5.875">
        <ele>729</ele>
        <time>2010-07-18T11:10:12Z</time>
      </trkpt>
      <trkpt lat="44.31679" lon="5.87482">
        <ele>726</ele>
        <time>2010-07-18T11:10:20Z</time>
      </trkpt>
      <trkpt lat="44.31688" lon="5.87417">
        <ele>722</ele>
        <time>2010-07-18T11:10:27Z</time>
      </trkpt>
      <trkpt lat="44.31672" lon="5.87357">
        <ele>719</ele>
        <time>2010-07-18T11:10:35Z</time>
      </trkpt>
      <trkpt lat="44.31637" lon="5.87327">
        <ele>711</ele>
        <time>2010-07-18T11:10:47Z</time>
      </trkpt>
      <trkpt lat="44.31633" lon="5.87321">
        <ele>706</ele>
        <time>2010-07-18T11:10:55Z</time>
      </trkpt>
      <trkpt lat="44.31641" lon="5.87267">
        <ele>703</ele>
        <time>2010-07-18T11:11:03Z</time>
      </trkpt>
      <trkpt lat="44.31656" lon="5.87149">
        <ele>697</ele>
        <time>2010-07-18T11:11:16Z</time>
      </trkpt>
      <trkpt lat="44.31625" lon="5.87043">
        <ele>689</ele>
        <time>2010-07-18T11:11:24Z</time>
      </trkpt>
      <trkpt lat="44.31554" lon="5.86992">
        <ele>681</ele>
        <time>2010-07-18T11:11:31Z</time>
      </trkpt>
      <trkpt lat="44.31456" lon="5.86923">
        <ele>670</ele>
        <time>2010-07-18T11:11:39Z</time>
      </trkpt>
      <trkpt lat="44.31426" lon="5.86884">
        <ele>664</ele>
        <time>2010-07-18T11:11:47Z</time>
      </trkpt>
      <trkpt lat="44.31417" lon="5.86857">
        <ele>655</ele>
        <time>2010-07-18T11:12:18Z</time>
      </trkpt>
      <trkpt lat="44.31416" lon="5.86856">
        <ele>655</ele>
        <time>2010-07-18T11:12:51Z</time>
      </trkpt>
      <trkpt lat="44.31416" lon="5.86859">
        <ele>655</ele>
        <time>2010-07-18T11:12:59Z</time>
      </trkpt>
      <trkpt lat="44.31429" lon="5.86881">
        <ele>655</ele>
        <time>2010-07-18T11:13:06Z</time>
      </trkpt>
      <trkpt lat="44.31436" lon="5.86895">
        <ele>655</ele>
        <time>2010-07-18T11:13:13Z</time>
      </trkpt>
      <trkpt lat="44.3143" lon="5.86903">
        <ele>655</ele>
        <time>2010-07-18T11:13:20Z</time>
      </trkpt>
      <trkpt lat="44.31419" lon="5.86908">
        <ele>655</ele>
        <time>2010-07-18T11:13:27Z</time>
      </trkpt>
      <trkpt lat="44.31401" lon="5.86913">
        <ele>655</ele>
        <time>2010-07-18T11:13:35Z</time>
      </trkpt>
      <trkpt lat="44.31386" lon="5.86926">
        <ele>655</ele>
        <time>2010-07-18T11:13:47Z</time>
      </trkpt>
      <trkpt lat="44.31364" lon="5.86962">
        <ele>655</ele>
        <time>2010-07-18T11:13:54Z</time>
      </trkpt>
      <trkpt lat="44.31342" lon="5.87028">
        <ele>655</ele>
        <time>2010-07-18T11:14:04Z</time>
      </trkpt>
      <trkpt lat="44.31318" lon="5.87077">
        <ele>651</ele>
        <time>2010-07-18T11:14:12Z</time>
      </trkpt>
      <trkpt lat="44.31299" lon="5.87092">
        <ele>648</ele>
        <time>2010-07-18T11:14:24Z</time>
      </trkpt>
      <trkpt lat="44.31287" lon="5.87105">
        <ele>643</ele>
        <time>2010-07-18T11:14:39Z</time>
      </trkpt>
      <trkpt lat="44.31243" lon="5.87134">
        <ele>641</ele>
        <time>2010-07-18T11:14:47Z</time>
      </trkpt>
      <trkpt lat="44.3113" lon="5.87142">
        <ele>637</ele>
        <time>2010-07-18T11:15:01Z</time>
      </trkpt>
      <trkpt lat="44.31101" lon="5.87072">
        <ele>630</ele>
        <time>2010-07-18T11:15:08Z</time>
      </trkpt>
      <trkpt lat="44.31067" lon="5.87031">
        <ele>627</ele>
        <time>2010-07-18T11:15:15Z</time>
      </trkpt>
      <trkpt lat="44.31026" lon="5.87004">
        <ele>627</ele>
        <time>2010-07-18T11:15:22Z</time>
      </trkpt>
      <trkpt lat="44.30986" lon="5.86979">
        <ele>626</ele>
        <time>2010-07-18T11:15:29Z</time>
      </trkpt>
      <trkpt lat="44.30956" lon="5.86969">
        <ele>626</ele>
        <time>2010-07-18T11:15:36Z</time>
      </trkpt>
      <trkpt lat="44.30956" lon="5.86971">
        <ele>626</ele>
        <time>2010-07-18T11:15:51Z</time>
      </trkpt>
      <trkpt lat="44.30954" lon="5.86973">
        <ele>625</ele>
        <time>2010-07-18T11:16:01Z</time>
      </trkpt>
      <trkpt lat="44.30954" lon="5.86974">
        <ele>625</ele>
        <time>2010-07-18T11:16:10Z</time>
      </trkpt>
      <trkpt lat="44.30955" lon="5.86976">
        <ele>625</ele>
        <time>2010-07-18T11:16:28Z</time>
      </trkpt>
      <trkpt lat="44.30955" lon="5.86977">
        <ele>620</ele>
        <time>2010-07-18T11:16:41Z</time>
      </trkpt>
      <trkpt lat="44.30954" lon="5.86977">
        <ele>616</ele>
        <time>2010-07-18T11:17:06Z</time>
      </trkpt>
      <trkpt lat="44.30954" lon="5.86979">
        <ele>617</ele>
        <time>2010-07-18T11:17:28Z</time>
      </trkpt>
      <trkpt lat="44.30956" lon="5.86983">
        <ele>617</ele>
        <time>2010-07-18T11:17:40Z</time>
      </trkpt>
      <trkpt lat="44.30954" lon="5.86984">
        <ele>617</ele>
        <time>2010-07-18T11:17:57Z</time>
      </trkpt>
      <trkpt lat="44.30952" lon="5.86988">
        <ele>614</ele>
        <time>2010-07-18T11:18:07Z</time>
      </trkpt>
      <trkpt lat="44.3095" lon="5.86989">
        <ele>612</ele>
        <time>2010-07-18T11:18:14Z</time>
      </trkpt>
      <trkpt lat="44.30949" lon="5.86991">
        <ele>609</ele>
        <time>2010-07-18T11:18:38Z</time>
      </trkpt>
      <trkpt lat="44.3095" lon="5.86989">
        <ele>609</ele>
        <time>2010-07-18T11:18:47Z</time>
      </trkpt>
      <trkpt lat="44.30952" lon="5.86984">
        <ele>611</ele>
        <time>2010-07-18T11:18:54Z</time>
      </trkpt>
      <trkpt lat="44.30956" lon="5.86978">
        <ele>615</ele>
        <time>2010-07-18T11:19:04Z</time>
      </trkpt>
      <trkpt lat="44.30956" lon="5.86975">
        <ele>617</ele>
        <time>2010-07-18T11:19:13Z</time>
      </trkpt>
      <trkpt lat="44.30956" lon="5.86972">
        <ele>620</ele>
        <time>2010-07-18T11:19:21Z</time>
      </trkpt>
      <trkpt lat="44.30956" lon="5.86969">
        <ele>620</ele>
        <time>2010-07-18T11:19:29Z</time>
      </trkpt>
      <trkpt lat="44.30957" lon="5.86971">
        <ele>620</ele>
        <time>2010-07-18T11:19:46Z</time>
      </trkpt>
      <trkpt lat="44.30959" lon="5.86973">
        <ele>616</ele>
        <time>2010-07-18T11:19:54Z</time>
      </trkpt>
      <trkpt lat="44.30962" lon="5.86975">
        <ele>611</ele>
        <time>2010-07-18T11:20:03Z</time>
      </trkpt>
      <trkpt lat="44.30963" lon="5.86973">
        <ele>610</ele>
        <time>2010-07-18T11:20:12Z</time>
      </trkpt>
      <trkpt lat="44.30963" lon="5.86972">
        <ele>610</ele>
        <time>2010-07-18T11:20:19Z</time>
      </trkpt>
      <trkpt lat="44.30965" lon="5.86977">
        <ele>610</ele>
        <time>2010-07-18T11:20:31Z</time>
      </trkpt>
      <trkpt lat="44.30965" lon="5.86978">
        <ele>617</ele>
        <time>2010-07-18T11:20:44Z</time>
      </trkpt>
      <trkpt lat="44.30966" lon="5.86986">
        <ele>617</ele>
        <time>2010-07-18T11:20:52Z</time>
      </trkpt>
      <trkpt lat="44.30965" lon="5.86984">
        <ele>617</ele>
        <time>2010-07-18T11:21:01Z</time>
      </trkpt>
      <trkpt lat="44.30967" lon="5.8698">
        <ele>617</ele>
        <time>2010-07-18T11:21:08Z</time>
      </trkpt>
      <trkpt lat="44.30966" lon="5.8698">
        <ele>617</ele>
        <time>2010-07-18T11:21:19Z</time>
      </trkpt>
      <trkpt lat="44.30965" lon="5.86983">
        <ele>617</ele>
        <time>2010-07-18T11:21:28Z</time>
      </trkpt>
      <trkpt lat="44.30961" lon="5.86981">
        <ele>618</ele>
        <time>2010-07-18T11:21:36Z</time>
      </trkpt>
      <trkpt lat="44.30962" lon="5.86976">
        <ele>620</ele>
        <time>2010-07-18T11:21:44Z</time>
      </trkpt>
      <trkpt lat="44.30962" lon="5.86969">
        <ele>621</ele>
        <time>2010-07-18T11:21:51Z</time>
      </trkpt>
      <trkpt lat="44.30959" lon="5.86971">
        <ele>622</ele>
        <time>2010-07-18T11:21:59Z</time>
      </trkpt>
      <trkpt lat="44.30962" lon="5.86972">
        <ele>621</ele>
        <time>2010-07-18T11:22:06Z</time>
      </trkpt>
      <trkpt lat="44.3096" lon="5.86975">
        <ele>621</ele>
        <time>2010-07-18T11:22:14Z</time>
      </trkpt>
      <trkpt lat="44.30962" lon="5.86974">
        <ele>619</ele>
        <time>2010-07-18T11:22:32Z</time>
      </trkpt>
      <trkpt lat="44.30962" lon="5.86975">
        <ele>619</ele>
        <time>2010-07-18T11:22:46Z</time>
      </trkpt>
      <trkpt lat="44.30958" lon="5.86975">
        <ele>619</ele>
        <time>2010-07-18T11:22:53Z</time>
      </trkpt>
      <trkpt lat="44.30947" lon="5.86979">
        <ele>619</ele>
        <time>2010-07-18T11:23:00Z</time>
      </trkpt>
      <trkpt lat="44.30928" lon="5.8699">
        <ele>623</ele>
        <time>2010-07-18T11:23:08Z</time>
      </trkpt>
      <trkpt lat="44.30913" lon="5.87011">
        <ele>624</ele>
        <time>2010-07-18T11:23:15Z</time>
      </trkpt>
      <trkpt lat="44.30901" lon="5.87038">
        <ele>624</ele>
        <time>2010-07-18T11:23:22Z</time>
      </trkpt>
      <trkpt lat="44.30887" lon="5.87061">
        <ele>626</ele>
        <time>2010-07-18T11:23:30Z</time>
      </trkpt>
      <trkpt lat="44.3087" lon="5.87075">
        <ele>627</ele>
        <time>2010-07-18T11:23:37Z</time>
      </trkpt>
      <trkpt lat="44.30847" lon="5.87078">
        <ele>629</ele>
        <time>2010-07-18T11:23:45Z</time>
      </trkpt>
      <trkpt lat="44.30826" lon="5.87073">
        <ele>630</ele>
        <time>2010-07-18T11:23:52Z</time>
      </trkpt>
      <trkpt lat="44.30811" lon="5.87074">
        <ele>631</ele>
        <time>2010-07-18T11:23:59Z</time>
      </trkpt>
      <trkpt lat="44.308" lon="5.8708">
        <ele>632</ele>
        <time>2010-07-18T11:24:06Z</time>
      </trkpt>
      <trkpt lat="44.30788" lon="5.87088">
        <ele>634</ele>
        <time>2010-07-18T11:24:13Z</time>
      </trkpt>
      <trkpt lat="44.30777" lon="5.87098">
        <ele>634</ele>
        <time>2010-07-18T11:24:20Z</time>
      </trkpt>
      <trkpt lat="44.3076" lon="5.87097">
        <ele>635</ele>
        <time>2010-07-18T11:24:28Z</time>
      </trkpt>
      <trkpt lat="44.30741" lon="5.87113">
        <ele>635</ele>
        <time>2010-07-18T11:24:36Z</time>
      </trkpt>
      <trkpt lat="44.30727" lon="5.87132">
        <ele>635</ele>
        <time>2010-07-18T11:24:43Z</time>
      </trkpt>
      <trkpt lat="44.30714" lon="5.87153">
        <ele>635</ele>
        <time>2010-07-18T11:24:51Z</time>
      </trkpt>
      <trkpt lat="44.30702" lon="5.87172">
        <ele>635</ele>
        <time>2010-07-18T11:24:58Z</time>
      </trkpt>
      <trkpt lat="44.30689" lon="5.87191">
        <ele>635</ele>
        <time>2010-07-18T11:25:05Z</time>
      </trkpt>
      <trkpt lat="44.30676" lon="5.8721">
        <ele>635</ele>
        <time>2010-07-18T11:25:12Z</time>
      </trkpt>
      <trkpt lat="44.30663" lon="5.87231">
        <ele>635</ele>
        <time>2010-07-18T11:25:20Z</time>
      </trkpt>
      <trkpt lat="44.30651" lon="5.8725">
        <ele>635</ele>
        <time>2010-07-18T11:25:29Z</time>
      </trkpt>
      <trkpt lat="44.30634" lon="5.87273">
        <ele>635</ele>
        <time>2010-07-18T11:25:36Z</time>
      </trkpt>
      <trkpt lat="44.3062" lon="5.87295">
        <ele>635</ele>
        <time>2010-07-18T11:25:45Z</time>
      </trkpt>
      <trkpt lat="44.30604" lon="5.8732">
        <ele>635</ele>
        <time>2010-07-18T11:25:52Z</time>
      </trkpt>
      <trkpt lat="44.30592" lon="5.87343">
        <ele>637</ele>
        <time>2010-07-18T11:25:59Z</time>
      </trkpt>
      <trkpt lat="44.30581" lon="5.87369">
        <ele>638</ele>
        <time>2010-07-18T11:26:06Z</time>
      </trkpt>
      <trkpt lat="44.30569" lon="5.87395">
        <ele>639</ele>
        <time>2010-07-18T11:26:13Z</time>
      </trkpt>
      <trkpt lat="44.30553" lon="5.87419">
        <ele>640</ele>
        <time>2010-07-18T11:26:21Z</time>
      </trkpt>
      <trkpt lat="44.30539" lon="5.87443">
        <ele>642</ele>
        <time>2010-07-18T11:26:28Z</time>
      </trkpt>
      <trkpt lat="44.30533" lon="5.87476">
        <ele>644</ele>
        <time>2010-07-18T11:26:36Z</time>
      </trkpt>
      <trkpt lat="44.30532" lon="5.87502">
        <ele>646</ele>
        <time>2010-07-18T11:26:43Z</time>
      </trkpt>
      <trkpt lat="44.30529" lon="5.87531">
        <ele>649</ele>
        <time>2010-07-18T11:26:51Z</time>
      </trkpt>
      <trkpt lat="44.30523" lon="5.87545">
        <ele>650</ele>
        <time>2010-07-18T11:27:02Z</time>
      </trkpt>
      <trkpt lat="44.30497" lon="5.87534">
        <ele>651</ele>
        <time>2010-07-18T11:27:11Z</time>
      </trkpt>
      <trkpt lat="44.30482" lon="5.87522">
        <ele>653</ele>
        <time>2010-07-18T11:27:18Z</time>
      </trkpt>
      <trkpt lat="44.30461" lon="5.87515">
        <ele>654</ele>
        <time>2010-07-18T11:27:26Z</time>
      </trkpt>
      <trkpt lat="44.30445" lon="5.87516">
        <ele>656</ele>
        <time>2010-07-18T11:27:36Z</time>
      </trkpt>
      <trkpt lat="44.30412" lon="5.87523">
        <ele>657</ele>
        <time>2010-07-18T11:27:44Z</time>
      </trkpt>
      <trkpt lat="44.30387" lon="5.8753">
        <ele>658</ele>
        <time>2010-07-18T11:27:51Z</time>
      </trkpt>
      <trkpt lat="44.30352" lon="5.87539">
        <ele>658</ele>
        <time>2010-07-18T11:27:58Z</time>
      </trkpt>
      <trkpt lat="44.30315" lon="5.87546">
        <ele>658</ele>
        <time>2010-07-18T11:28:06Z</time>
      </trkpt>
      <trkpt lat="44.30277" lon="5.87555">
        <ele>658</ele>
        <time>2010-07-18T11:28:13Z</time>
      </trkpt>
      <trkpt lat="44.30235" lon="5.87564">
        <ele>658</ele>
        <time>2010-07-18T11:28:21Z</time>
      </trkpt>
      <trkpt lat="44.30198" lon="5.87587">
        <ele>658</ele>
        <time>2010-07-18T11:28:28Z</time>
      </trkpt>
      <trkpt lat="44.30155" lon="5.87636">
        <ele>657</ele>
        <time>2010-07-18T11:28:36Z</time>
      </trkpt>
      <trkpt lat="44.30116" lon="5.87637">
        <ele>657</ele>
        <time>2010-07-18T11:28:43Z</time>
      </trkpt>
      <trkpt lat="44.30079" lon="5.8762">
        <ele>657</ele>
        <time>2010-07-18T11:28:51Z</time>
      </trkpt>
      <trkpt lat="44.30044" lon="5.87608">
        <ele>657</ele>
        <time>2010-07-18T11:28:58Z</time>
      </trkpt>
      <trkpt lat="44.29998" lon="5.87576">
        <ele>655</ele>
        <time>2010-07-18T11:29:06Z</time>
      </trkpt>
      <trkpt lat="44.29953" lon="5.87544">
        <ele>653</ele>
        <time>2010-07-18T11:29:13Z</time>
      </trkpt>
      <trkpt lat="44.29894" lon="5.8752">
        <ele>651</ele>
        <time>2010-07-18T11:29:21Z</time>
      </trkpt>
      <trkpt lat="44.2984" lon="5.87511">
        <ele>649</ele>
        <time>2010-07-18T11:29:28Z</time>
      </trkpt>
      <trkpt lat="44.29805" lon="5.87488">
        <ele>648</ele>
        <time>2010-07-18T11:29:36Z</time>
      </trkpt>
      <trkpt lat="44.29839" lon="5.87467">
        <ele>647</ele>
        <time>2010-07-18T11:29:43Z</time>
      </trkpt>
      <trkpt lat="44.29863" lon="5.87435">
        <ele>647</ele>
        <time>2010-07-18T11:29:50Z</time>
      </trkpt>
      <trkpt lat="44.29853" lon="5.8743">
        <ele>647</ele>
        <time>2010-07-18T11:29:57Z</time>
      </trkpt>
      <trkpt lat="44.2982" lon="5.87451">
        <ele>645</ele>
        <time>2010-07-18T11:30:05Z</time>
      </trkpt>
      <trkpt lat="44.29785" lon="5.8743">
        <ele>643</ele>
        <time>2010-07-18T11:30:12Z</time>
      </trkpt>
      <trkpt lat="44.29747" lon="5.87383">
        <ele>641</ele>
        <time>2010-07-18T11:30:20Z</time>
      </trkpt>
      <trkpt lat="44.29707" lon="5.87348">
        <ele>639</ele>
        <time>2010-07-18T11:30:27Z</time>
      </trkpt>
      <trkpt lat="44.29672" lon="5.87358">
        <ele>639</ele>
        <time>2010-07-18T11:30:34Z</time>
      </trkpt>
      <trkpt lat="44.29631" lon="5.87372">
        <ele>638</ele>
        <time>2010-07-18T11:30:42Z</time>
      </trkpt>
      <trkpt lat="44.29598" lon="5.87393">
        <ele>637</ele>
        <time>2010-07-18T11:30:49Z</time>
      </trkpt>
      <trkpt lat="44.29566" lon="5.87413">
        <ele>636</ele>
        <time>2010-07-18T11:30:56Z</time>
      </trkpt>
      <trkpt lat="44.29534" lon="5.87436">
        <ele>635</ele>
        <time>2010-07-18T11:31:03Z</time>
      </trkpt>
      <trkpt lat="44.29499" lon="5.87466">
        <ele>635</ele>
        <time>2010-07-18T11:31:11Z</time>
      </trkpt>
      <trkpt lat="44.29467" lon="5.87495">
        <ele>634</ele>
        <time>2010-07-18T11:31:18Z</time>
      </trkpt>
      <trkpt lat="44.2943" lon="5.87529">
        <ele>634</ele>
        <time>2010-07-18T11:31:26Z</time>
      </trkpt>
      <trkpt lat="44.29398" lon="5.87558">
        <ele>634</ele>
        <time>2010-07-18T11:31:33Z</time>
      </trkpt>
      <trkpt lat="44.29374" lon="5.87581">
        <ele>633</ele>
        <time>2010-07-18T11:31:42Z</time>
      </trkpt>
      <trkpt lat="44.29343" lon="5.87543">
        <ele>633</ele>
        <time>2010-07-18T11:31:50Z</time>
      </trkpt>
      <trkpt lat="44.29319" lon="5.87501">
        <ele>633</ele>
        <time>2010-07-18T11:31:57Z</time>
      </trkpt>
      <trkpt lat="44.29291" lon="5.87464">
        <ele>633</ele>
        <time>2010-07-18T11:32:04Z</time>
      </trkpt>
      <trkpt lat="44.29264" lon="5.87429">
        <ele>633</ele>
        <time>2010-07-18T11:32:11Z</time>
      </trkpt>
      <trkpt lat="44.29233" lon="5.87401">
        <ele>633</ele>
        <time>2010-07-18T11:32:18Z</time>
      </trkpt>
      <trkpt lat="44.29193" lon="5.87378">
        <ele>633</ele>
        <time>2010-07-18T11:32:26Z</time>
      </trkpt>
      <trkpt lat="44.2916" lon="5.8735">
        <ele>633</ele>
        <time>2010-07-18T11:32:33Z</time>
      </trkpt>
      <trkpt lat="44.29123" lon="5.87319">
        <ele>633</ele>
        <time>2010-07-18T11:32:41Z</time>
      </trkpt>
      <trkpt lat="44.29091" lon="5.87294">
        <ele>633</ele>
        <time>2010-07-18T11:32:48Z</time>
      </trkpt>
      <trkpt lat="44.29055" lon="5.87259">
        <ele>633</ele>
        <time>2010-07-18T11:32:56Z</time>
      </trkpt>
      <trkpt lat="44.29025" lon="5.87228">
        <ele>633</ele>
        <time>2010-07-18T11:33:03Z</time>
      </trkpt>
      <trkpt lat="44.28992" lon="5.87192">
        <ele>632</ele>
        <time>2010-07-18T11:33:11Z</time>
      </trkpt>
      <trkpt lat="44.28966" lon="5.87159">
        <ele>632</ele>
        <time>2010-07-18T11:33:18Z</time>
      </trkpt>
      <trkpt lat="44.28936" lon="5.87126">
        <ele>632</ele>
        <time>2010-07-18T11:33:26Z</time>
      </trkpt>
      <trkpt lat="44.28905" lon="5.87103">
        <ele>632</ele>
        <time>2010-07-18T11:33:33Z</time>
      </trkpt>
      <trkpt lat="44.28872" lon="5.8708">
        <ele>632</ele>
        <time>2010-07-18T11:33:43Z</time>
      </trkpt>
      <trkpt lat="44.28858" lon="5.87083">
        <ele>632</ele>
        <time>2010-07-18T11:33:52Z</time>
      </trkpt>
      <trkpt lat="44.28848" lon="5.87086">
        <ele>633</ele>
        <time>2010-07-18T11:33:59Z</time>
      </trkpt>
      <trkpt lat="44.2884" lon="5.87081">
        <ele>636</ele>
        <time>2010-07-18T11:34:06Z</time>
      </trkpt>
      <trkpt lat="44.28826" lon="5.8707">
        <ele>637</ele>
        <time>2010-07-18T11:34:13Z</time>
      </trkpt>
      <trkpt lat="44.2881" lon="5.87057">
        <ele>637</ele>
        <time>2010-07-18T11:34:21Z</time>
      </trkpt>
      <trkpt lat="44.28793" lon="5.87048">
        <ele>640</ele>
        <time>2010-07-18T11:34:28Z</time>
      </trkpt>
      <trkpt lat="44.28778" lon="5.87037">
        <ele>640</ele>
        <time>2010-07-18T11:34:36Z</time>
      </trkpt>
      <trkpt lat="44.28763" lon="5.87021">
        <ele>642</ele>
        <time>2010-07-18T11:34:43Z</time>
      </trkpt>
      <trkpt lat="44.28746" lon="5.87013">
        <ele>644</ele>
        <time>2010-07-18T11:34:51Z</time>
      </trkpt>
      <trkpt lat="44.28733" lon="5.87009">
        <ele>645</ele>
        <time>2010-07-18T11:34:58Z</time>
      </trkpt>
      <trkpt lat="44.28717" lon="5.87005">
        <ele>645</ele>
        <time>2010-07-18T11:35:06Z</time>
      </trkpt>
      <trkpt lat="44.28706" lon="5.87002">
        <ele>645</ele>
        <time>2010-07-18T11:35:13Z</time>
      </trkpt>
      <trkpt lat="44.28696" lon="5.87001">
        <ele>645</ele>
        <time>2010-07-18T11:35:21Z</time>
      </trkpt>
      <trkpt lat="44.28688" lon="5.86999">
        <ele>647</ele>
        <time>2010-07-18T11:35:28Z</time>
      </trkpt>
      <trkpt lat="44.28677" lon="5.86998">
        <ele>650</ele>
        <time>2010-07-18T11:35:36Z</time>
      </trkpt>
      <trkpt lat="44.28667" lon="5.86999">
        <ele>653</ele>
        <time>2010-07-18T11:35:43Z</time>
      </trkpt>
      <trkpt lat="44.28658" lon="5.87003">
        <ele>655</ele>
        <time>2010-07-18T11:35:51Z</time>
      </trkpt>
      <trkpt lat="44.28648" lon="5.87006">
        <ele>656</ele>
        <time>2010-07-18T11:35:59Z</time>
      </trkpt>
      <trkpt lat="44.2864" lon="5.87007">
        <ele>658</ele>
        <time>2010-07-18T11:36:07Z</time>
      </trkpt>
      <trkpt lat="44.28633" lon="5.87006">
        <ele>660</ele>
        <time>2010-07-18T11:36:14Z</time>
      </trkpt>
      <trkpt lat="44.28625" lon="5.87008">
        <ele>661</ele>
        <time>2010-07-18T11:36:21Z</time>
      </trkpt>
      <trkpt lat="44.28623" lon="5.87016">
        <ele>663</ele>
        <time>2010-07-18T11:36:28Z</time>
      </trkpt>
      <trkpt lat="44.28627" lon="5.87028">
        <ele>664</ele>
        <time>2010-07-18T11:36:36Z</time>
      </trkpt>
      <trkpt lat="44.28632" lon="5.87035">
        <ele>666</ele>
        <time>2010-07-18T11:36:43Z</time>
      </trkpt>
      <trkpt lat="44.28635" lon="5.87045">
        <ele>667</ele>
        <time>2010-07-18T11:36:51Z</time>
      </trkpt>
      <trkpt lat="44.28637" lon="5.87056">
        <ele>670</ele>
        <time>2010-07-18T11:36:58Z</time>
      </trkpt>
      <trkpt lat="44.28639" lon="5.87068">
        <ele>672</ele>
        <time>2010-07-18T11:37:06Z</time>
      </trkpt>
      <trkpt lat="44.28643" lon="5.87079">
        <ele>673</ele>
        <time>2010-07-18T11:37:13Z</time>
      </trkpt>
      <trkpt lat="44.28652" lon="5.87088">
        <ele>675</ele>
        <time>2010-07-18T11:37:21Z</time>
      </trkpt>
      <trkpt lat="44.28663" lon="5.87097">
        <ele>676</ele>
        <time>2010-07-18T11:37:28Z</time>
      </trkpt>
      <trkpt lat="44.28676" lon="5.87108">
        <ele>676</ele>
        <time>2010-07-18T11:37:36Z</time>
      </trkpt>
      <trkpt lat="44.28688" lon="5.87122">
        <ele>679</ele>
        <time>2010-07-18T11:37:43Z</time>
      </trkpt>
      <trkpt lat="44.28706" lon="5.87145">
        <ele>680</ele>
        <time>2010-07-18T11:37:51Z</time>
      </trkpt>
      <trkpt lat="44.28723" lon="5.87168">
        <ele>681</ele>
        <time>2010-07-18T11:37:58Z</time>
      </trkpt>
      <trkpt lat="44.28746" lon="5.8719">
        <ele>681</ele>
        <time>2010-07-18T11:38:06Z</time>
      </trkpt>
      <trkpt lat="44.28762" lon="5.87213">
        <ele>682</ele>
        <time>2010-07-18T11:38:13Z</time>
      </trkpt>
      <trkpt lat="44.2877" lon="5.87228">
        <ele>682</ele>
        <time>2010-07-18T11:38:21Z</time>
      </trkpt>
      <trkpt lat="44.28772" lon="5.87254">
        <ele>682</ele>
        <time>2010-07-18T11:38:28Z</time>
      </trkpt>
      <trkpt lat="44.28777" lon="5.87285">
        <ele>682</ele>
        <time>2010-07-18T11:38:36Z</time>
      </trkpt>
      <trkpt lat="44.28789" lon="5.87308">
        <ele>682</ele>
        <time>2010-07-18T11:38:43Z</time>
      </trkpt>
      <trkpt lat="44.2881" lon="5.87337">
        <ele>682</ele>
        <time>2010-07-18T11:38:51Z</time>
      </trkpt>
      <trkpt lat="44.28815" lon="5.87372">
        <ele>682</ele>
        <time>2010-07-18T11:38:58Z</time>
      </trkpt>
      <trkpt lat="44.28805" lon="5.87413">
        <ele>682</ele>
        <time>2010-07-18T11:39:06Z</time>
      </trkpt>
      <trkpt lat="44.2879" lon="5.8744">
        <ele>682</ele>
        <time>2010-07-18T11:39:13Z</time>
      </trkpt>
      <trkpt lat="44.288" lon="5.87459">
        <ele>682</ele>
        <time>2010-07-18T11:39:21Z</time>
      </trkpt>
      <trkpt lat="44.28818" lon="5.87478">
        <ele>681</ele>
        <time>2010-07-18T11:39:28Z</time>
      </trkpt>
      <trkpt lat="44.28843" lon="5.8749">
        <ele>679</ele>
        <time>2010-07-18T11:39:36Z</time>
      </trkpt>
      <trkpt lat="44.28868" lon="5.8749">
        <ele>677</ele>
        <time>2010-07-18T11:39:46Z</time>
      </trkpt>
      <trkpt lat="44.28894" lon="5.87482">
        <ele>677</ele>
        <time>2010-07-18T11:39:54Z</time>
      </trkpt>
      <trkpt lat="44.28926" lon="5.87465">
        <ele>677</ele>
        <time>2010-07-18T11:40:02Z</time>
      </trkpt>
      <trkpt lat="44.2895" lon="5.87444">
        <ele>676</ele>
        <time>2010-07-18T11:40:14Z</time>
      </trkpt>
      <trkpt lat="44.28983" lon="5.87427">
        <ele>675</ele>
        <time>2010-07-18T11:40:21Z</time>
      </trkpt>
      <trkpt lat="44.28992" lon="5.87437">
        <ele>674</ele>
        <time>2010-07-18T11:40:31Z</time>
      </trkpt>
      <trkpt lat="44.28996" lon="5.87456">
        <ele>674</ele>
        <time>2010-07-18T11:40:40Z</time>
      </trkpt>
      <trkpt lat="44.28992" lon="5.87479">
        <ele>674</ele>
        <time>2010-07-18T11:40:47Z</time>
      </trkpt>
      <trkpt lat="44.28993" lon="5.87513">
        <ele>674</ele>
        <time>2010-07-18T11:40:54Z</time>
      </trkpt>
      <trkpt lat="44.28999" lon="5.87565">
        <ele>677</ele>
        <time>2010-07-18T11:41:02Z</time>
      </trkpt>
      <trkpt lat="44.29005" lon="5.87598">
        <ele>679</ele>
        <time>2010-07-18T11:41:09Z</time>
      </trkpt>
      <trkpt lat="44.29007" lon="5.87626">
        <ele>679</ele>
        <time>2010-07-18T11:41:16Z</time>
      </trkpt>
      <trkpt lat="44.29008" lon="5.87654">
        <ele>681</ele>
        <time>2010-07-18T11:41:23Z</time>
      </trkpt>
      <trkpt lat="44.2899" lon="5.87666">
        <ele>681</ele>
        <time>2010-07-18T11:41:31Z</time>
      </trkpt>
      <trkpt lat="44.28957" lon="5.87648">
        <ele>681</ele>
        <time>2010-07-18T11:41:38Z</time>
      </trkpt>
      <trkpt lat="44.28914" lon="5.87632">
        <ele>681</ele>
        <time>2010-07-18T11:41:46Z</time>
      </trkpt>
      <trkpt lat="44.28871" lon="5.87621">
        <ele>678</ele>
        <time>2010-07-18T11:41:53Z</time>
      </trkpt>
      <trkpt lat="44.28823" lon="5.87607">
        <ele>676</ele>
        <time>2010-07-18T11:42:01Z</time>
      </trkpt>
      <trkpt lat="44.28787" lon="5.8761">
        <ele>676</ele>
        <time>2010-07-18T11:42:08Z</time>
      </trkpt>
      <trkpt lat="44.28746" lon="5.87611">
        <ele>674</ele>
        <time>2010-07-18T11:42:16Z</time>
      </trkpt>
      <trkpt lat="44.28733" lon="5.87665">
        <ele>672</ele>
        <time>2010-07-18T11:42:23Z</time>
      </trkpt>
      <trkpt lat="44.2873" lon="5.87729">
        <ele>671</ele>
        <time>2010-07-18T11:42:31Z</time>
      </trkpt>
      <trkpt lat="44.28715" lon="5.87783">
        <ele>669</ele>
        <time>2010-07-18T11:42:38Z</time>
      </trkpt>
      <trkpt lat="44.28715" lon="5.87846">
        <ele>669</ele>
        <time>2010-07-18T11:42:46Z</time>
      </trkpt>
      <trkpt lat="44.28716" lon="5.87897">
        <ele>669</ele>
        <time>2010-07-18T11:42:53Z</time>
      </trkpt>
      <trkpt lat="44.28725" lon="5.87951">
        <ele>669</ele>
        <time>2010-07-18T11:43:01Z</time>
      </trkpt>
      <trkpt lat="44.28742" lon="5.87997">
        <ele>668</ele>
        <time>2010-07-18T11:43:08Z</time>
      </trkpt>
      <trkpt lat="44.28762" lon="5.88055">
        <ele>667</ele>
        <time>2010-07-18T11:43:16Z</time>
      </trkpt>
      <trkpt lat="44.2878" lon="5.881">
        <ele>667</ele>
        <time>2010-07-18T11:43:23Z</time>
      </trkpt>
      <trkpt lat="44.28803" lon="5.8815">
        <ele>667</ele>
        <time>2010-07-18T11:43:31Z</time>
      </trkpt>
      <trkpt lat="44.28825" lon="5.88192">
        <ele>667</ele>
        <time>2010-07-18T11:43:38Z</time>
      </trkpt>
      <trkpt lat="44.28844" lon="5.88245">
        <ele>667</ele>
        <time>2010-07-18T11:43:46Z</time>
      </trkpt>
      <trkpt lat="44.28862" lon="5.88297">
        <ele>667</ele>
        <time>2010-07-18T11:43:53Z</time>
      </trkpt>
      <trkpt lat="44.28884" lon="5.88354">
        <ele>667</ele>
        <time>2010-07-18T11:44:01Z</time>
      </trkpt>
      <trkpt lat="44.28901" lon="5.88405">
        <ele>667</ele>
        <time>2010-07-18T11:44:08Z</time>
      </trkpt>
      <trkpt lat="44.28911" lon="5.88465">
        <ele>667</ele>
        <time>2010-07-18T11:44:16Z</time>
      </trkpt>
      <trkpt lat="44.28917" lon="5.88512">
        <ele>667</ele>
        <time>2010-07-18T11:44:23Z</time>
      </trkpt>
      <trkpt lat="44.28907" lon="5.88583">
        <ele>664</ele>
        <time>2010-07-18T11:44:31Z</time>
      </trkpt>
      <trkpt lat="44.28894" lon="5.8867">
        <ele>657</ele>
        <time>2010-07-18T11:44:38Z</time>
      </trkpt>
      <trkpt lat="44.2887" lon="5.88716">
        <ele>651</ele>
        <time>2010-07-18T11:44:46Z</time>
      </trkpt>
      <trkpt lat="44.2885" lon="5.88698">
        <ele>646</ele>
        <time>2010-07-18T11:44:53Z</time>
      </trkpt>
      <trkpt lat="44.28847" lon="5.88673">
        <ele>645</ele>
        <time>2010-07-18T11:45:01Z</time>
      </trkpt>
      <trkpt lat="44.28841" lon="5.88655">
        <ele>645</ele>
        <time>2010-07-18T11:45:09Z</time>
      </trkpt>
      <trkpt lat="44.2884" lon="5.88653">
        <ele>645</ele>
        <time>2010-07-18T11:45:18Z</time>
      </trkpt>
      <trkpt lat="44.28836" lon="5.88652">
        <ele>645</ele>
        <time>2010-07-18T11:45:32Z</time>
      </trkpt>
      <trkpt lat="44.28834" lon="5.88653">
        <ele>645</ele>
        <time>2010-07-18T11:45:41Z</time>
      </trkpt>
      <trkpt lat="44.28835" lon="5.88653">
        <ele>646</ele>
        <time>2010-07-18T11:45:51Z</time>
      </trkpt>
      <trkpt lat="44.28835" lon="5.88654">
        <ele>646</ele>
        <time>2010-07-18T11:46:01Z</time>
      </trkpt>
      <trkpt lat="44.28838" lon="5.88658">
        <ele>646</ele>
        <time>2010-07-18T11:46:08Z</time>
      </trkpt>
      <trkpt lat="44.28847" lon="5.88692">
        <ele>646</ele>
        <time>2010-07-18T11:46:16Z</time>
      </trkpt>
      <trkpt lat="44.2885" lon="5.88715">
        <ele>646</ele>
        <time>2010-07-18T11:46:23Z</time>
      </trkpt>
      <trkpt lat="44.2886" lon="5.88746">
        <ele>646</ele>
        <time>2010-07-18T11:46:31Z</time>
      </trkpt>
      <trkpt lat="44.28878" lon="5.88797">
        <ele>646</ele>
        <time>2010-07-18T11:46:39Z</time>
      </trkpt>
      <trkpt lat="44.28913" lon="5.8887">
        <ele>641</ele>
        <time>2010-07-18T11:46:46Z</time>
      </trkpt>
      <trkpt lat="44.28955" lon="5.88999">
        <ele>632</ele>
        <time>2010-07-18T11:46:53Z</time>
      </trkpt>
      <trkpt lat="44.28967" lon="5.89099">
        <ele>618</ele>
        <time>2010-07-18T11:47:00Z</time>
      </trkpt>
      <trkpt lat="44.29006" lon="5.89163">
        <ele>609</ele>
        <time>2010-07-18T11:47:07Z</time>
      </trkpt>
      <trkpt lat="44.29052" lon="5.89229">
        <ele>602</ele>
        <time>2010-07-18T11:47:14Z</time>
      </trkpt>
      <trkpt lat="44.29111" lon="5.89284">
        <ele>595</ele>
        <time>2010-07-18T11:47:21Z</time>
      </trkpt>
      <trkpt lat="44.2917" lon="5.89347">
        <ele>590</ele>
        <time>2010-07-18T11:47:28Z</time>
      </trkpt>
      <trkpt lat="44.29208" lon="5.89429">
        <ele>587</ele>
        <time>2010-07-18T11:47:35Z</time>
      </trkpt>
      <trkpt lat="44.29239" lon="5.89505">
        <ele>587</ele>
        <time>2010-07-18T11:47:42Z</time>
      </trkpt>
      <trkpt lat="44.29253" lon="5.89575">
        <ele>586</ele>
        <time>2010-07-18T11:47:49Z</time>
      </trkpt>
      <trkpt lat="44.2924" lon="5.89614">
        <ele>586</ele>
        <time>2010-07-18T11:47:56Z</time>
      </trkpt>
      <trkpt lat="44.29228" lon="5.89641">
        <ele>586</ele>
        <time>2010-07-18T11:48:03Z</time>
      </trkpt>
      <trkpt lat="44.2922" lon="5.89663">
        <ele>586</ele>
        <time>2010-07-18T11:48:11Z</time>
      </trkpt>
      <trkpt lat="44.29222" lon="5.89677">
        <ele>589</ele>
        <time>2010-07-18T11:48:19Z</time>
      </trkpt>
      <trkpt lat="44.29216" lon="5.89692">
        <ele>591</ele>
        <time>2010-07-18T11:48:26Z</time>
      </trkpt>
      <trkpt lat="44.29205" lon="5.89712">
        <ele>591</ele>
        <time>2010-07-18T11:48:33Z</time>
      </trkpt>
      <trkpt lat="44.29196" lon="5.89739">
        <ele>591</ele>
        <time>2010-07-18T11:48:40Z</time>
      </trkpt>
      <trkpt lat="44.29178" lon="5.89751">
        <ele>591</ele>
        <time>2010-07-18T11:48:47Z</time>
      </trkpt>
      <trkpt lat="44.2917" lon="5.8975">
        <ele>591</ele>
        <time>2010-07-18T11:48:55Z</time>
      </trkpt>
      <trkpt lat="44.29167" lon="5.89752">
        <ele>591</ele>
        <time>2010-07-18T11:49:02Z</time>
      </trkpt>
      <trkpt lat="44.29176" lon="5.89755">
        <ele>591</ele>
        <time>2010-07-18T11:49:09Z</time>
      </trkpt>
      <trkpt lat="44.29185" lon="5.89762">
        <ele>591</ele>
        <time>2010-07-18T11:49:16Z</time>
      </trkpt>
      <trkpt lat="44.29189" lon="5.89766">
        <ele>591</ele>
        <time>2010-07-18T11:49:23Z</time>
      </trkpt>
      <trkpt lat="44.29195" lon="5.89772">
        <ele>585</ele>
        <time>2010-07-18T11:49:31Z</time>
      </trkpt>
      <trkpt lat="44.29199" lon="5.89775">
        <ele>581</ele>
        <time>2010-07-18T11:49:44Z</time>
      </trkpt>
      <trkpt lat="44.29204" lon="5.89777">
        <ele>586</ele>
        <time>2010-07-18T11:49:52Z</time>
      </trkpt>
      <trkpt lat="44.29211" lon="5.89777">
        <ele>589</ele>
        <time>2010-07-18T11:50:00Z</time>
      </trkpt>
      <trkpt lat="44.29214" lon="5.89775">
        <ele>592</ele>
        <time>2010-07-18T11:50:07Z</time>
      </trkpt>
      <trkpt lat="44.29222" lon="5.89774">
        <ele>593</ele>
        <time>2010-07-18T11:50:14Z</time>
      </trkpt>
      <trkpt lat="44.29231" lon="5.89775">
        <ele>593</ele>
        <time>2010-07-18T11:50:21Z</time>
      </trkpt>
      <trkpt lat="44.29235" lon="5.89778">
        <ele>593</ele>
        <time>2010-07-18T11:50:29Z</time>
      </trkpt>
      <trkpt lat="44.29236" lon="5.89776">
        <ele>597</ele>
        <time>2010-07-18T11:50:39Z</time>
      </trkpt>
      <trkpt lat="44.29239" lon="5.89781">
        <ele>597</ele>
        <time>2010-07-18T11:50:47Z</time>
      </trkpt>
      <trkpt lat="44.29248" lon="5.8978">
        <ele>599</ele>
        <time>2010-07-18T11:50:58Z</time>
      </trkpt>
      <trkpt lat="44.29227" lon="5.89781">
        <ele>599</ele>
        <time>2010-07-18T11:51:05Z</time>
      </trkpt>
      <trkpt lat="44.29187" lon="5.89768">
        <ele>599</ele>
        <time>2010-07-18T11:51:12Z</time>
      </trkpt>
      <trkpt lat="44.29179" lon="5.89765">
        <ele>598</ele>
        <time>2010-07-18T11:51:21Z</time>
      </trkpt>
      <trkpt lat="44.29174" lon="5.89757">
        <ele>595</ele>
        <time>2010-07-18T11:51:29Z</time>
      </trkpt>
      <trkpt lat="44.29151" lon="5.89761">
        <ele>592</ele>
        <time>2010-07-18T11:51:38Z</time>
      </trkpt>
      <trkpt lat="44.29083" lon="5.89756">
        <ele>589</ele>
        <time>2010-07-18T11:51:46Z</time>
      </trkpt>
      <trkpt lat="44.28994" lon="5.89751">
        <ele>585</ele>
        <time>2010-07-18T11:51:58Z</time>
      </trkpt>
      <trkpt lat="44.28919" lon="5.89735">
        <ele>581</ele>
        <time>2010-07-18T11:52:05Z</time>
      </trkpt>
      <trkpt lat="44.28862" lon="5.89712">
        <ele>579</ele>
        <time>2010-07-18T11:52:12Z</time>
      </trkpt>
      <trkpt lat="44.28834" lon="5.89634">
        <ele>572</ele>
        <time>2010-07-18T11:52:20Z</time>
      </trkpt>
      <trkpt lat="44.2883" lon="5.89576">
        <ele>571</ele>
        <time>2010-07-18T11:52:27Z</time>
      </trkpt>
      <trkpt lat="44.28824" lon="5.89544">
        <ele>571</ele>
        <time>2010-07-18T11:52:34Z</time>
      </trkpt>
      <trkpt lat="44.28799" lon="5.89529">
        <ele>571</ele>
        <time>2010-07-18T11:52:41Z</time>
      </trkpt>
      <trkpt lat="44.28786" lon="5.89496">
        <ele>571</ele>
        <time>2010-07-18T11:52:49Z</time>
      </trkpt>
      <trkpt lat="44.28787" lon="5.89475">
        <ele>571</ele>
        <time>2010-07-18T11:52:56Z</time>
      </trkpt>
      <trkpt lat="44.28784" lon="5.89452">
        <ele>571</ele>
        <time>2010-07-18T11:53:04Z</time>
      </trkpt>
      <trkpt lat="44.28782" lon="5.8942">
        <ele>571</ele>
        <time>2010-07-18T11:53:11Z</time>
      </trkpt>
      <trkpt lat="44.28785" lon="5.89375">
        <ele>571</ele>
        <time>2010-07-18T11:53:19Z</time>
      </trkpt>
      <trkpt lat="44.28786" lon="5.89332">
        <ele>571</ele>
        <time>2010-07-18T11:53:26Z</time>
      </trkpt>
      <trkpt lat="44.28788" lon="5.89278">
        <ele>571</ele>
        <time>2010-07-18T11:53:34Z</time>
      </trkpt>
      <trkpt lat="44.28788" lon="5.89229">
        <ele>571</ele>
        <time>2010-07-18T11:53:41Z</time>
      </trkpt>
      <trkpt lat="44.28784" lon="5.89172">
        <ele>571</ele>
        <time>2010-07-18T11:53:49Z</time>
      </trkpt>
      <trkpt lat="44.28778" lon="5.89124">
        <ele>571</ele>
        <time>2010-07-18T11:53:56Z</time>
      </trkpt>
      <trkpt lat="44.28767" lon="5.89078">
        <ele>571</ele>
        <time>2010-07-18T11:54:04Z</time>
      </trkpt>
      <trkpt lat="44.28756" lon="5.89041">
        <ele>571</ele>
        <time>2010-07-18T11:54:11Z</time>
      </trkpt>
      <trkpt lat="44.28735" lon="5.88999">
        <ele>571</ele>
        <time>2010-07-18T11:54:19Z</time>
      </trkpt>
      <trkpt lat="44.28717" lon="5.88965">
        <ele>571</ele>
        <time>2010-07-18T11:54:26Z</time>
      </trkpt>
      <trkpt lat="44.28698" lon="5.8893">
        <ele>574</ele>
        <time>2010-07-18T11:54:34Z</time>
      </trkpt>
      <trkpt lat="44.28667" lon="5.88906">
        <ele>574</ele>
        <time>2010-07-18T11:54:41Z</time>
      </trkpt>
      <trkpt lat="44.28632" lon="5.88875">
        <ele>574</ele>
        <time>2010-07-18T11:54:49Z</time>
      </trkpt>
      <trkpt lat="44.286" lon="5.88852">
        <ele>574</ele>
        <time>2010-07-18T11:54:56Z</time>
      </trkpt>
      <trkpt lat="44.28564" lon="5.88834">
        <ele>574</ele>
        <time>2010-07-18T11:55:04Z</time>
      </trkpt>
      <trkpt lat="44.28546" lon="5.88873">
        <ele>574</ele>
        <time>2010-07-18T11:55:11Z</time>
      </trkpt>
      <trkpt lat="44.28526" lon="5.88907">
        <ele>574</ele>
        <time>2010-07-18T11:55:19Z</time>
      </trkpt>
      <trkpt lat="44.2849" lon="5.88884">
        <ele>574</ele>
        <time>2010-07-18T11:55:26Z</time>
      </trkpt>
      <trkpt lat="44.28449" lon="5.88854">
        <ele>574</ele>
        <time>2010-07-18T11:55:34Z</time>
      </trkpt>
      <trkpt lat="44.2841" lon="5.88828">
        <ele>574</ele>
        <time>2010-07-18T11:55:41Z</time>
      </trkpt>
      <trkpt lat="44.28365" lon="5.88801">
        <ele>574</ele>
        <time>2010-07-18T11:55:49Z</time>
      </trkpt>
      <trkpt lat="44.28326" lon="5.88776">
        <ele>574</ele>
        <time>2010-07-18T11:55:56Z</time>
      </trkpt>
      <trkpt lat="44.2828" lon="5.88748">
        <ele>573</ele>
        <time>2010-07-18T11:56:04Z</time>
      </trkpt>
      <trkpt lat="44.28238" lon="5.88724">
        <ele>572</ele>
        <time>2010-07-18T11:56:11Z</time>
      </trkpt>
      <trkpt lat="44.28193" lon="5.88697">
        <ele>571</ele>
        <time>2010-07-18T11:56:19Z</time>
      </trkpt>
      <trkpt lat="44.28154" lon="5.88671">
        <ele>570</ele>
        <time>2010-07-18T11:56:26Z</time>
      </trkpt>
      <trkpt lat="44.28113" lon="5.88644">
        <ele>568</ele>
        <time>2010-07-18T11:56:34Z</time>
      </trkpt>
      <trkpt lat="44.28072" lon="5.88619">
        <ele>566</ele>
        <time>2010-07-18T11:56:41Z</time>
      </trkpt>
      <trkpt lat="44.28051" lon="5.88602">
        <ele>566</ele>
        <time>2010-07-18T11:56:49Z</time>
      </trkpt>
      <trkpt lat="44.28045" lon="5.88597">
        <ele>566</ele>
        <time>2010-07-18T11:56:57Z</time>
      </trkpt>
      <trkpt lat="44.2802" lon="5.88582">
        <ele>566</ele>
        <time>2010-07-18T11:57:04Z</time>
      </trkpt>
      <trkpt lat="44.28006" lon="5.88572">
        <ele>566</ele>
        <time>2010-07-18T11:57:11Z</time>
      </trkpt>
      <trkpt lat="44.27988" lon="5.88564">
        <ele>568</ele>
        <time>2010-07-18T11:57:19Z</time>
      </trkpt>
      <trkpt lat="44.27972" lon="5.8856">
        <ele>570</ele>
        <time>2010-07-18T11:57:26Z</time>
      </trkpt>
      <trkpt lat="44.27962" lon="5.88555">
        <ele>571</ele>
        <time>2010-07-18T11:57:33Z</time>
      </trkpt>
      <trkpt lat="44.27957" lon="5.88553">
        <ele>572</ele>
        <time>2010-07-18T11:57:41Z</time>
      </trkpt>
      <trkpt lat="44.27952" lon="5.88553">
        <ele>572</ele>
        <time>2010-07-18T11:57:50Z</time>
      </trkpt>
      <trkpt lat="44.27932" lon="5.88554">
        <ele>572</ele>
        <time>2010-07-18T11:57:58Z</time>
      </trkpt>
      <trkpt lat="44.27879" lon="5.88561">
        <ele>572</ele>
        <time>2010-07-18T11:58:06Z</time>
      </trkpt>
      <trkpt lat="44.27818" lon="5.88573">
        <ele>569</ele>
        <time>2010-07-18T11:58:14Z</time>
      </trkpt>
      <trkpt lat="44.27773" lon="5.88577">
        <ele>569</ele>
        <time>2010-07-18T11:58:21Z</time>
      </trkpt>
      <trkpt lat="44.27726" lon="5.88582">
        <ele>569</ele>
        <time>2010-07-18T11:58:29Z</time>
      </trkpt>
      <trkpt lat="44.27686" lon="5.88583">
        <ele>569</ele>
        <time>2010-07-18T11:58:36Z</time>
      </trkpt>
      <trkpt lat="44.27644" lon="5.8858">
        <ele>568</ele>
        <time>2010-07-18T11:58:44Z</time>
      </trkpt>
      <trkpt lat="44.27608" lon="5.88571">
        <ele>568</ele>
        <time>2010-07-18T11:58:51Z</time>
      </trkpt>
      <trkpt lat="44.27568" lon="5.88555">
        <ele>568</ele>
        <time>2010-07-18T11:58:59Z</time>
      </trkpt>
      <trkpt lat="44.27533" lon="5.88538">
        <ele>568</ele>
        <time>2010-07-18T11:59:06Z</time>
      </trkpt>
      <trkpt lat="44.27492" lon="5.88517">
        <ele>568</ele>
        <time>2010-07-18T11:59:14Z</time>
      </trkpt>
      <trkpt lat="44.27456" lon="5.88498">
        <ele>568</ele>
        <time>2010-07-18T11:59:21Z</time>
      </trkpt>
      <trkpt lat="44.27414" lon="5.88475">
        <ele>568</ele>
        <time>2010-07-18T11:59:29Z</time>
      </trkpt>
      <trkpt lat="44.27379" lon="5.88456">
        <ele>568</ele>
        <time>2010-07-18T11:59:36Z</time>
      </trkpt>
      <trkpt lat="44.27344" lon="5.88436">
        <ele>568</ele>
        <time>2010-07-18T11:59:43Z</time>
      </trkpt>
      <trkpt lat="44.27308" lon="5.88418">
        <ele>568</ele>
        <time>2010-07-18T11:59:50Z</time>
      </trkpt>
      <trkpt lat="44.27273" lon="5.88398">
        <ele>568</ele>
        <time>2010-07-18T11:59:57Z</time>
      </trkpt>
      <trkpt lat="44.27237" lon="5.88379">
        <ele>568</ele>
        <time>2010-07-18T12:00:04Z</time>
      </trkpt>
      <trkpt lat="44.27201" lon="5.88359">
        <ele>568</ele>
        <time>2010-07-18T12:00:11Z</time>
      </trkpt>
      <trkpt lat="44.27167" lon="5.88341">
        <ele>568</ele>
        <time>2010-07-18T12:00:18Z</time>
      </trkpt>
      <trkpt lat="44.27132" lon="5.88321">
        <ele>568</ele>
        <time>2010-07-18T12:00:25Z</time>
      </trkpt>
      <trkpt lat="44.27098" lon="5.8831">
        <ele>568</ele>
        <time>2010-07-18T12:00:32Z</time>
      </trkpt>
      <trkpt lat="44.27079" lon="5.88296">
        <ele>568</ele>
        <time>2010-07-18T12:00:39Z</time>
      </trkpt>
      <trkpt lat="44.27065" lon="5.88285">
        <ele>569</ele>
        <time>2010-07-18T12:00:46Z</time>
      </trkpt>
      <trkpt lat="44.27053" lon="5.88277">
        <ele>570</ele>
        <time>2010-07-18T12:00:53Z</time>
      </trkpt>
      <trkpt lat="44.27039" lon="5.88267">
        <ele>571</ele>
        <time>2010-07-18T12:01:00Z</time>
      </trkpt>
      <trkpt lat="44.27022" lon="5.88253">
        <ele>571</ele>
        <time>2010-07-18T12:01:07Z</time>
      </trkpt>
      <trkpt lat="44.27001" lon="5.8824">
        <ele>571</ele>
        <time>2010-07-18T12:01:14Z</time>
      </trkpt>
      <trkpt lat="44.26972" lon="5.88225">
        <ele>571</ele>
        <time>2010-07-18T12:01:21Z</time>
      </trkpt>
      <trkpt lat="44.26936" lon="5.88208">
        <ele>571</ele>
        <time>2010-07-18T12:01:28Z</time>
      </trkpt>
      <trkpt lat="44.26894" lon="5.88188">
        <ele>571</ele>
        <time>2010-07-18T12:01:39Z</time>
      </trkpt>
      <trkpt lat="44.26864" lon="5.88172">
        <ele>571</ele>
        <time>2010-07-18T12:01:46Z</time>
      </trkpt>
      <trkpt lat="44.2683" lon="5.88152">
        <ele>571</ele>
        <time>2010-07-18T12:01:53Z</time>
      </trkpt>
      <trkpt lat="44.26783" lon="5.88127">
        <ele>571</ele>
        <time>2010-07-18T12:02:00Z</time>
      </trkpt>
      <trkpt lat="44.2675" lon="5.88111">
        <ele>571</ele>
        <time>2010-07-18T12:02:10Z</time>
      </trkpt>
      <trkpt lat="44.26688" lon="5.88079">
        <ele>568</ele>
        <time>2010-07-18T12:02:17Z</time>
      </trkpt>
      <trkpt lat="44.26649" lon="5.88058">
        <ele>568</ele>
        <time>2010-07-18T12:02:24Z</time>
      </trkpt>
      <trkpt lat="44.26614" lon="5.88037">
        <ele>568</ele>
        <time>2010-07-18T12:02:31Z</time>
      </trkpt>
      <trkpt lat="44.2658" lon="5.88019">
        <ele>568</ele>
        <time>2010-07-18T12:02:38Z</time>
      </trkpt>
      <trkpt lat="44.26551" lon="5.87996">
        <ele>568</ele>
        <time>2010-07-18T12:02:45Z</time>
      </trkpt>
      <trkpt lat="44.26524" lon="5.87974">
        <ele>568</ele>
        <time>2010-07-18T12:02:52Z</time>
      </trkpt>
      <trkpt lat="44.26501" lon="5.87952">
        <ele>568</ele>
        <time>2010-07-18T12:02:59Z</time>
      </trkpt>
      <trkpt lat="44.26484" lon="5.87936">
        <ele>568</ele>
        <time>2010-07-18T12:03:06Z</time>
      </trkpt>
      <trkpt lat="44.26471" lon="5.87923">
        <ele>568</ele>
        <time>2010-07-18T12:03:13Z</time>
      </trkpt>
      <trkpt lat="44.26454" lon="5.87909">
        <ele>569</ele>
        <time>2010-07-18T12:03:20Z</time>
      </trkpt>
      <trkpt lat="44.26432" lon="5.8789">
        <ele>570</ele>
        <time>2010-07-18T12:03:27Z</time>
      </trkpt>
      <trkpt lat="44.26407" lon="5.8787">
        <ele>570</ele>
        <time>2010-07-18T12:03:34Z</time>
      </trkpt>
      <trkpt lat="44.26384" lon="5.87851">
        <ele>570</ele>
        <time>2010-07-18T12:03:41Z</time>
      </trkpt>
      <trkpt lat="44.26362" lon="5.87827">
        <ele>570</ele>
        <time>2010-07-18T12:03:48Z</time>
      </trkpt>
      <trkpt lat="44.26353" lon="5.87815">
        <ele>570</ele>
        <time>2010-07-18T12:03:56Z</time>
      </trkpt>
      <trkpt lat="44.26327" lon="5.87791">
        <ele>570</ele>
        <time>2010-07-18T12:04:03Z</time>
      </trkpt>
      <trkpt lat="44.26305" lon="5.87773">
        <ele>570</ele>
        <time>2010-07-18T12:04:10Z</time>
      </trkpt>
      <trkpt lat="44.26263" lon="5.87739">
        <ele>570</ele>
        <time>2010-07-18T12:04:17Z</time>
      </trkpt>
      <trkpt lat="44.26236" lon="5.87716">
        <ele>570</ele>
        <time>2010-07-18T12:04:24Z</time>
      </trkpt>
      <trkpt lat="44.26209" lon="5.87693">
        <ele>570</ele>
        <time>2010-07-18T12:04:31Z</time>
      </trkpt>
      <trkpt lat="44.26181" lon="5.87671">
        <ele>570</ele>
        <time>2010-07-18T12:04:38Z</time>
      </trkpt>
      <trkpt lat="44.26155" lon="5.87661">
        <ele>570</ele>
        <time>2010-07-18T12:04:45Z</time>
      </trkpt>
      <trkpt lat="44.26137" lon="5.87655">
        <ele>570</ele>
        <time>2010-07-18T12:04:53Z</time>
      </trkpt>
      <trkpt lat="44.26118" lon="5.87656">
        <ele>571</ele>
        <time>2010-07-18T12:05:01Z</time>
      </trkpt>
      <trkpt lat="44.26091" lon="5.87686">
        <ele>571</ele>
        <time>2010-07-18T12:05:09Z</time>
      </trkpt>
      <trkpt lat="44.26051" lon="5.8769">
        <ele>571</ele>
        <time>2010-07-18T12:05:17Z</time>
      </trkpt>
      <trkpt lat="44.25986" lon="5.87699">
        <ele>571</ele>
        <time>2010-07-18T12:05:24Z</time>
      </trkpt>
      <trkpt lat="44.25934" lon="5.87715">
        <ele>570</ele>
        <time>2010-07-18T12:05:31Z</time>
      </trkpt>
      <trkpt lat="44.25885" lon="5.87742">
        <ele>568</ele>
        <time>2010-07-18T12:05:38Z</time>
      </trkpt>
      <trkpt lat="44.25837" lon="5.87773">
        <ele>567</ele>
        <time>2010-07-18T12:05:45Z</time>
      </trkpt>
      <trkpt lat="44.25803" lon="5.87829">
        <ele>566</ele>
        <time>2010-07-18T12:05:52Z</time>
      </trkpt>
      <trkpt lat="44.25769" lon="5.87875">
        <ele>564</ele>
        <time>2010-07-18T12:05:59Z</time>
      </trkpt>
      <trkpt lat="44.25734" lon="5.87919">
        <ele>563</ele>
        <time>2010-07-18T12:06:06Z</time>
      </trkpt>
      <trkpt lat="44.25696" lon="5.87968">
        <ele>563</ele>
        <time>2010-07-18T12:06:14Z</time>
      </trkpt>
      <trkpt lat="44.25661" lon="5.88006">
        <ele>562</ele>
        <time>2010-07-18T12:06:21Z</time>
      </trkpt>
      <trkpt lat="44.25628" lon="5.88045">
        <ele>562</ele>
        <time>2010-07-18T12:06:28Z</time>
      </trkpt>
      <trkpt lat="44.25598" lon="5.88083">
        <ele>560</ele>
        <time>2010-07-18T12:06:35Z</time>
      </trkpt>
      <trkpt lat="44.25576" lon="5.8812">
        <ele>560</ele>
        <time>2010-07-18T12:06:42Z</time>
      </trkpt>
      <trkpt lat="44.25562" lon="5.88157">
        <ele>560</ele>
        <time>2010-07-18T12:06:49Z</time>
      </trkpt>
      <trkpt lat="44.25532" lon="5.88133">
        <ele>560</ele>
        <time>2010-07-18T12:06:56Z</time>
      </trkpt>
      <trkpt lat="44.25509" lon="5.88064">
        <ele>559</ele>
        <time>2010-07-18T12:07:03Z</time>
      </trkpt>
      <trkpt lat="44.2549" lon="5.87998">
        <ele>559</ele>
        <time>2010-07-18T12:07:10Z</time>
      </trkpt>
      <trkpt lat="44.25476" lon="5.8795">
        <ele>559</ele>
        <time>2010-07-18T12:07:17Z</time>
      </trkpt>
      <trkpt lat="44.25467" lon="5.87913">
        <ele>559</ele>
        <time>2010-07-18T12:07:24Z</time>
      </trkpt>
      <trkpt lat="44.2546" lon="5.87878">
        <ele>560</ele>
        <time>2010-07-18T12:07:31Z</time>
      </trkpt>
      <trkpt lat="44.25454" lon="5.87844">
        <ele>562</ele>
        <time>2010-07-18T12:07:38Z</time>
      </trkpt>
      <trkpt lat="44.25447" lon="5.87812">
        <ele>564</ele>
        <time>2010-07-18T12:07:45Z</time>
      </trkpt>
      <trkpt lat="44.25437" lon="5.87779">
        <ele>565</ele>
        <time>2010-07-18T12:07:52Z</time>
      </trkpt>
      <trkpt lat="44.25424" lon="5.87745">
        <ele>565</ele>
        <time>2010-07-18T12:07:59Z</time>
      </trkpt>
      <trkpt lat="44.2541" lon="5.8771">
        <ele>565</ele>
        <time>2010-07-18T12:08:06Z</time>
      </trkpt>
      <trkpt lat="44.25391" lon="5.87674">
        <ele>566</ele>
        <time>2010-07-18T12:08:14Z</time>
      </trkpt>
      <trkpt lat="44.25376" lon="5.87642">
        <ele>567</ele>
        <time>2010-07-18T12:08:21Z</time>
      </trkpt>
      <trkpt lat="44.25362" lon="5.87613">
        <ele>567</ele>
        <time>2010-07-18T12:08:28Z</time>
      </trkpt>
      <trkpt lat="44.25359" lon="5.876">
        <ele>567</ele>
        <time>2010-07-18T12:08:35Z</time>
      </trkpt>
      <trkpt lat="44.25344" lon="5.87584">
        <ele>567</ele>
        <time>2010-07-18T12:08:42Z</time>
      </trkpt>
      <trkpt lat="44.2532" lon="5.87558">
        <ele>567</ele>
        <time>2010-07-18T12:08:49Z</time>
      </trkpt>
      <trkpt lat="44.25294" lon="5.87529">
        <ele>567</ele>
        <time>2010-07-18T12:08:56Z</time>
      </trkpt>
      <trkpt lat="44.25267" lon="5.87498">
        <ele>567</ele>
        <time>2010-07-18T12:09:03Z</time>
      </trkpt>
      <trkpt lat="44.2524" lon="5.87467">
        <ele>567</ele>
        <time>2010-07-18T12:09:10Z</time>
      </trkpt>
      <trkpt lat="44.25214" lon="5.87437">
        <ele>567</ele>
        <time>2010-07-18T12:09:17Z</time>
      </trkpt>
      <trkpt lat="44.2519" lon="5.8741">
        <ele>567</ele>
        <time>2010-07-18T12:09:24Z</time>
      </trkpt>
      <trkpt lat="44.25168" lon="5.87383">
        <ele>569</ele>
        <time>2010-07-18T12:09:31Z</time>
      </trkpt>
      <trkpt lat="44.25147" lon="5.87358">
        <ele>571</ele>
        <time>2010-07-18T12:09:38Z</time>
      </trkpt>
      <trkpt lat="44.25126" lon="5.87334">
        <ele>572</ele>
        <time>2010-07-18T12:09:45Z</time>
      </trkpt>
      <trkpt lat="44.25108" lon="5.87305">
        <ele>573</ele>
        <time>2010-07-18T12:09:52Z</time>
      </trkpt>
      <trkpt lat="44.2509" lon="5.87271">
        <ele>574</ele>
        <time>2010-07-18T12:09:59Z</time>
      </trkpt>
      <trkpt lat="44.25071" lon="5.87238">
        <ele>574</ele>
        <time>2010-07-18T12:10:06Z</time>
      </trkpt>
      <trkpt lat="44.25053" lon="5.87203">
        <ele>574</ele>
        <time>2010-07-18T12:10:13Z</time>
      </trkpt>
      <trkpt lat="44.25031" lon="5.87163">
        <ele>574</ele>
        <time>2010-07-18T12:10:20Z</time>
      </trkpt>
      <trkpt lat="44.24997" lon="5.87107">
        <ele>574</ele>
        <time>2010-07-18T12:10:28Z</time>
      </trkpt>
      <trkpt lat="44.24946" lon="5.87084">
        <ele>573</ele>
        <time>2010-07-18T12:10:35Z</time>
      </trkpt>
      <trkpt lat="44.24901" lon="5.87071">
        <ele>573</ele>
        <time>2010-07-18T12:10:42Z</time>
      </trkpt>
      <trkpt lat="44.2486" lon="5.8705">
        <ele>573</ele>
        <time>2010-07-18T12:10:49Z</time>
      </trkpt>
      <trkpt lat="44.24819" lon="5.87029">
        <ele>573</ele>
        <time>2010-07-18T12:10:56Z</time>
      </trkpt>
      <trkpt lat="44.24781" lon="5.87009">
        <ele>573</ele>
        <time>2010-07-18T12:11:03Z</time>
      </trkpt>
      <trkpt lat="44.24745" lon="5.87005">
        <ele>573</ele>
        <time>2010-07-18T12:11:10Z</time>
      </trkpt>
      <trkpt lat="44.24704" lon="5.87016">
        <ele>573</ele>
        <time>2010-07-18T12:11:18Z</time>
      </trkpt>
      <trkpt lat="44.24662" lon="5.87001">
        <ele>571</ele>
        <time>2010-07-18T12:11:25Z</time>
      </trkpt>
      <trkpt lat="44.2463" lon="5.86959">
        <ele>571</ele>
        <time>2010-07-18T12:11:32Z</time>
      </trkpt>
      <trkpt lat="44.24593" lon="5.86936">
        <ele>569</ele>
        <time>2010-07-18T12:11:39Z</time>
      </trkpt>
      <trkpt lat="44.24541" lon="5.86951">
        <ele>567</ele>
        <time>2010-07-18T12:11:46Z</time>
      </trkpt>
      <trkpt lat="44.24483" lon="5.8697">
        <ele>563</ele>
        <time>2010-07-18T12:11:53Z</time>
      </trkpt>
      <trkpt lat="44.24414" lon="5.86958">
        <ele>558</ele>
        <time>2010-07-18T12:12:00Z</time>
      </trkpt>
      <trkpt lat="44.24334" lon="5.86934">
        <ele>553</ele>
        <time>2010-07-18T12:12:08Z</time>
      </trkpt>
      <trkpt lat="44.2426" lon="5.86899">
        <ele>550</ele>
        <time>2010-07-18T12:12:15Z</time>
      </trkpt>
      <trkpt lat="44.24197" lon="5.86845">
        <ele>546</ele>
        <time>2010-07-18T12:12:22Z</time>
      </trkpt>
      <trkpt lat="44.24163" lon="5.86776">
        <ele>541</ele>
        <time>2010-07-18T12:12:29Z</time>
      </trkpt>
      <trkpt lat="44.24176" lon="5.86686">
        <ele>537</ele>
        <time>2010-07-18T12:12:36Z</time>
      </trkpt>
      <trkpt lat="44.24143" lon="5.86637">
        <ele>532</ele>
        <time>2010-07-18T12:12:43Z</time>
      </trkpt>
      <trkpt lat="44.24084" lon="5.8667">
        <ele>529</ele>
        <time>2010-07-18T12:12:50Z</time>
      </trkpt>
      <trkpt lat="44.24011" lon="5.86698">
        <ele>525</ele>
        <time>2010-07-18T12:12:58Z</time>
      </trkpt>
      <trkpt lat="44.23951" lon="5.86636">
        <ele>520</ele>
        <time>2010-07-18T12:13:05Z</time>
      </trkpt>
      <trkpt lat="44.23892" lon="5.86569">
        <ele>516</ele>
        <time>2010-07-18T12:13:12Z</time>
      </trkpt>
      <trkpt lat="44.23832" lon="5.865">
        <ele>511</ele>
        <time>2010-07-18T12:13:19Z</time>
      </trkpt>
      <trkpt lat="44.23787" lon="5.86448">
        <ele>508</ele>
        <time>2010-07-18T12:13:27Z</time>
      </trkpt>
      <trkpt lat="44.23731" lon="5.86385">
        <ele>505</ele>
        <time>2010-07-18T12:13:34Z</time>
      </trkpt>
      <trkpt lat="44.23675" lon="5.86327">
        <ele>502</ele>
        <time>2010-07-18T12:13:41Z</time>
      </trkpt>
      <trkpt lat="44.2364" lon="5.86325">
        <ele>501</ele>
        <time>2010-07-18T12:13:51Z</time>
      </trkpt>
      <trkpt lat="44.23586" lon="5.86337">
        <ele>501</ele>
        <time>2010-07-18T12:14:01Z</time>
      </trkpt>
      <trkpt lat="44.23547" lon="5.86344">
        <ele>501</ele>
        <time>2010-07-18T12:14:08Z</time>
      </trkpt>
      <trkpt lat="44.23524" lon="5.86345">
        <ele>501</ele>
        <time>2010-07-18T12:14:15Z</time>
      </trkpt>
      <trkpt lat="44.23497" lon="5.86327">
        <ele>500</ele>
        <time>2010-07-18T12:14:24Z</time>
      </trkpt>
      <trkpt lat="44.23484" lon="5.86314">
        <ele>500</ele>
        <time>2010-07-18T12:14:31Z</time>
      </trkpt>
      <trkpt lat="44.23472" lon="5.86296">
        <ele>500</ele>
        <time>2010-07-18T12:14:38Z</time>
      </trkpt>
      <trkpt lat="44.23471" lon="5.86295">
        <ele>500</ele>
        <time>2010-07-18T12:14:48Z</time>
      </trkpt>
      <trkpt lat="44.23472" lon="5.86294">
        <ele>500</ele>
        <time>2010-07-18T12:14:57Z</time>
      </trkpt>
      <trkpt lat="44.2347" lon="5.8629">
        <ele>497</ele>
        <time>2010-07-18T12:15:06Z</time>
      </trkpt>
      <trkpt lat="44.23455" lon="5.86271">
        <ele>497</ele>
        <time>2010-07-18T12:15:14Z</time>
      </trkpt>
      <trkpt lat="44.2344" lon="5.86252">
        <ele>497</ele>
        <time>2010-07-18T12:15:21Z</time>
      </trkpt>
      <trkpt lat="44.2343" lon="5.8624">
        <ele>497</ele>
        <time>2010-07-18T12:15:28Z</time>
      </trkpt>
      <trkpt lat="44.23418" lon="5.86224">
        <ele>497</ele>
        <time>2010-07-18T12:15:36Z</time>
      </trkpt>
      <trkpt lat="44.23402" lon="5.86191">
        <ele>497</ele>
        <time>2010-07-18T12:15:44Z</time>
      </trkpt>
      <trkpt lat="44.23404" lon="5.86152">
        <ele>497</ele>
        <time>2010-07-18T12:15:53Z</time>
      </trkpt>
      <trkpt lat="44.2341" lon="5.86129">
        <ele>497</ele>
        <time>2010-07-18T12:16:00Z</time>
      </trkpt>
      <trkpt lat="44.23415" lon="5.86094">
        <ele>497</ele>
        <time>2010-07-18T12:16:07Z</time>
      </trkpt>
      <trkpt lat="44.23408" lon="5.86041">
        <ele>497</ele>
        <time>2010-07-18T12:16:14Z</time>
      </trkpt>
      <trkpt lat="44.234" lon="5.86016">
        <ele>497</ele>
        <time>2010-07-18T12:16:22Z</time>
      </trkpt>
      <trkpt lat="44.23382" lon="5.85954">
        <ele>497</ele>
        <time>2010-07-18T12:16:29Z</time>
      </trkpt>
      <trkpt lat="44.2337" lon="5.85911">
        <ele>497</ele>
        <time>2010-07-18T12:16:36Z</time>
      </trkpt>
      <trkpt lat="44.23356" lon="5.85863">
        <ele>497</ele>
        <time>2010-07-18T12:16:44Z</time>
      </trkpt>
      <trkpt lat="44.23341" lon="5.85823">
        <ele>497</ele>
        <time>2010-07-18T12:16:51Z</time>
      </trkpt>
      <trkpt lat="44.23325" lon="5.8578">
        <ele>497</ele>
        <time>2010-07-18T12:16:59Z</time>
      </trkpt>
      <trkpt lat="44.23311" lon="5.85745">
        <ele>497</ele>
        <time>2010-07-18T12:17:06Z</time>
      </trkpt>
      <trkpt lat="44.23294" lon="5.85709">
        <ele>499</ele>
        <time>2010-07-18T12:17:14Z</time>
      </trkpt>
      <trkpt lat="44.23275" lon="5.85686">
        <ele>501</ele>
        <time>2010-07-18T12:17:21Z</time>
      </trkpt>
      <trkpt lat="44.23246" lon="5.85682">
        <ele>501</ele>
        <time>2010-07-18T12:17:29Z</time>
      </trkpt>
      <trkpt lat="44.23221" lon="5.8568">
        <ele>502</ele>
        <time>2010-07-18T12:17:36Z</time>
      </trkpt>
      <trkpt lat="44.23195" lon="5.85685">
        <ele>505</ele>
        <time>2010-07-18T12:17:44Z</time>
      </trkpt>
      <trkpt lat="44.23181" lon="5.85702">
        <ele>506</ele>
        <time>2010-07-18T12:17:51Z</time>
      </trkpt>
      <trkpt lat="44.23166" lon="5.85724">
        <ele>506</ele>
        <time>2010-07-18T12:17:59Z</time>
      </trkpt>
      <trkpt lat="44.23157" lon="5.8575">
        <ele>506</ele>
        <time>2010-07-18T12:18:06Z</time>
      </trkpt>
      <trkpt lat="44.23149" lon="5.85782">
        <ele>506</ele>
        <time>2010-07-18T12:18:14Z</time>
      </trkpt>
      <trkpt lat="44.23135" lon="5.85797">
        <ele>507</ele>
        <time>2010-07-18T12:18:21Z</time>
      </trkpt>
      <trkpt lat="44.23123" lon="5.85782">
        <ele>515</ele>
        <time>2010-07-18T12:18:29Z</time>
      </trkpt>
      <trkpt lat="44.23121" lon="5.85767">
        <ele>519</ele>
        <time>2010-07-18T12:18:36Z</time>
      </trkpt>
      <trkpt lat="44.23127" lon="5.85747">
        <ele>519</ele>
        <time>2010-07-18T12:18:44Z</time>
      </trkpt>
      <trkpt lat="44.23131" lon="5.85725">
        <ele>517</ele>
        <time>2010-07-18T12:18:51Z</time>
      </trkpt>
      <trkpt lat="44.23133" lon="5.85697">
        <ele>517</ele>
        <time>2010-07-18T12:18:59Z</time>
      </trkpt>
      <trkpt lat="44.23139" lon="5.85671">
        <ele>513</ele>
        <time>2010-07-18T12:19:06Z</time>
      </trkpt>
      <trkpt lat="44.23129" lon="5.85652">
        <ele>508</ele>
        <time>2010-07-18T12:19:14Z</time>
      </trkpt>
      <trkpt lat="44.23115" lon="5.85653">
        <ele>510</ele>
        <time>2010-07-18T12:19:21Z</time>
      </trkpt>
      <trkpt lat="44.23117" lon="5.85652">
        <ele>512</ele>
        <time>2010-07-18T12:19:32Z</time>
      </trkpt>
      <trkpt lat="44.23119" lon="5.85652">
        <ele>512</ele>
        <time>2010-07-18T12:19:39Z</time>
      </trkpt>
      <trkpt lat="44.23123" lon="5.8565">
        <ele>512</ele>
        <time>2010-07-18T12:19:49Z</time>
      </trkpt>
      <trkpt lat="44.23126" lon="5.85649">
        <ele>512</ele>
        <time>2010-07-18T12:19:58Z</time>
      </trkpt>
      <trkpt lat="44.23127" lon="5.85649">
        <ele>513</ele>
        <time>2010-07-18T12:20:09Z</time>
      </trkpt>
      <trkpt lat="44.23129" lon="5.85648">
        <ele>513</ele>
        <time>2010-07-18T12:20:19Z</time>
      </trkpt>
      <trkpt lat="44.23129" lon="5.85648">
        <ele>513</ele>
        <time>2010-07-18T12:20:35Z</time>
      </trkpt>
      <trkpt lat="44.23125" lon="5.85648">
        <ele>511</ele>
        <time>2010-07-18T12:20:44Z</time>
      </trkpt>
      <trkpt lat="44.23122" lon="5.85646">
        <ele>503</ele>
        <time>2010-07-18T12:20:54Z</time>
      </trkpt>
      <trkpt lat="44.23119" lon="5.85644">
        <ele>497</ele>
        <time>2010-07-18T12:21:02Z</time>
      </trkpt>
      <trkpt lat="44.23117" lon="5.85642">
        <ele>489</ele>
        <time>2010-07-18T12:21:13Z</time>
      </trkpt>
      <trkpt lat="44.23123" lon="5.85646">
        <ele>488</ele>
        <time>2010-07-18T12:21:20Z</time>
      </trkpt>
      <trkpt lat="44.23124" lon="5.85651">
        <ele>498</ele>
        <time>2010-07-18T12:21:30Z</time>
      </trkpt>
      <trkpt lat="44.23124" lon="5.85652">
        <ele>508</ele>
        <time>2010-07-18T12:21:40Z</time>
      </trkpt>
      <trkpt lat="44.23122" lon="5.85651">
        <ele>510</ele>
        <time>2010-07-18T12:21:50Z</time>
      </trkpt>
      <trkpt lat="44.23115" lon="5.85652">
        <ele>510</ele>
        <time>2010-07-18T12:21:58Z</time>
      </trkpt>
      <trkpt lat="44.23112" lon="5.85652">
        <ele>510</ele>
        <time>2010-07-18T12:22:06Z</time>
      </trkpt>
      <trkpt lat="44.23109" lon="5.85652">
        <ele>511</ele>
        <time>2010-07-18T12:22:15Z</time>
      </trkpt>
      <trkpt lat="44.23106" lon="5.85653">
        <ele>513</ele>
        <time>2010-07-18T12:22:26Z</time>
      </trkpt>
      <trkpt lat="44.23106" lon="5.85652">
        <ele>516</ele>
        <time>2010-07-18T12:22:43Z</time>
      </trkpt>
      <trkpt lat="44.23107" lon="5.8565">
        <ele>517</ele>
        <time>2010-07-18T12:22:55Z</time>
      </trkpt>
      <trkpt lat="44.23107" lon="5.85649">
        <ele>514</ele>
        <time>2010-07-18T12:23:02Z</time>
      </trkpt>
      <trkpt lat="44.23106" lon="5.85647">
        <ele>509</ele>
        <time>2010-07-18T12:23:09Z</time>
      </trkpt>
      <trkpt lat="44.23106" lon="5.85646">
        <ele>505</ele>
        <time>2010-07-18T12:23:16Z</time>
      </trkpt>
      <trkpt lat="44.23107" lon="5.85646">
        <ele>502</ele>
        <time>2010-07-18T12:23:24Z</time>
      </trkpt>
      <trkpt lat="44.23111" lon="5.8565">
        <ele>505</ele>
        <time>2010-07-18T12:23:38Z</time>
      </trkpt>
      <trkpt lat="44.23112" lon="5.85651">
        <ele>509</ele>
        <time>2010-07-18T12:23:45Z</time>
      </trkpt>
      <trkpt lat="44.23113" lon="5.85651">
        <ele>512</ele>
        <time>2010-07-18T12:24:30Z</time>
      </trkpt>
      <trkpt lat="44.23113" lon="5.8565">
        <ele>511</ele>
        <time>2010-07-18T12:24:37Z</time>
      </trkpt>
      <trkpt lat="44.23112" lon="5.85647">
        <ele>503</ele>
        <time>2010-07-18T12:24:48Z</time>
      </trkpt>
      <trkpt lat="44.23111" lon="5.85644">
        <ele>494</ele>
        <time>2010-07-18T12:25:00Z</time>
      </trkpt>
      <trkpt lat="44.2311" lon="5.85641">
        <ele>486</ele>
        <time>2010-07-18T12:25:11Z</time>
      </trkpt>
      <trkpt lat="44.23109" lon="5.85638">
        <ele>478</ele>
        <time>2010-07-18T12:25:23Z</time>
      </trkpt>
      <trkpt lat="44.23108" lon="5.85636">
        <ele>474</ele>
        <time>2010-07-18T12:25:30Z</time>
      </trkpt>
      <trkpt lat="44.23108" lon="5.85638">
        <ele>473</ele>
        <time>2010-07-18T12:25:39Z</time>
      </trkpt>
      <trkpt lat="44.23109" lon="5.8564">
        <ele>477</ele>
        <time>2010-07-18T12:25:53Z</time>
      </trkpt>
      <trkpt lat="44.2311" lon="5.85642">
        <ele>482</ele>
        <time>2010-07-18T12:26:00Z</time>
      </trkpt>
      <trkpt lat="44.23112" lon="5.85642">
        <ele>482</ele>
        <time>2010-07-18T12:26:10Z</time>
      </trkpt>
      <trkpt lat="44.23115" lon="5.85648">
        <ele>488</ele>
        <time>2010-07-18T12:26:18Z</time>
      </trkpt>
      <trkpt lat="44.23116" lon="5.85659">
        <ele>495</ele>
        <time>2010-07-18T12:26:25Z</time>
      </trkpt>
      <trkpt lat="44.23112" lon="5.85665">
        <ele>504</ele>
        <time>2010-07-18T12:26:34Z</time>
      </trkpt>
      <trkpt lat="44.23108" lon="5.85665">
        <ele>504</ele>
        <time>2010-07-18T12:26:42Z</time>
      </trkpt>
      <trkpt lat="44.23106" lon="5.85665">
        <ele>505</ele>
        <time>2010-07-18T12:26:49Z</time>
      </trkpt>
      <trkpt lat="44.23103" lon="5.85665">
        <ele>509</ele>
        <time>2010-07-18T12:26:58Z</time>
      </trkpt>
      <trkpt lat="44.23102" lon="5.85666">
        <ele>511</ele>
        <time>2010-07-18T12:27:06Z</time>
      </trkpt>
      <trkpt lat="44.23103" lon="5.85668">
        <ele>515</ele>
        <time>2010-07-18T12:27:18Z</time>
      </trkpt>
      <trkpt lat="44.23105" lon="5.8567">
        <ele>515</ele>
        <time>2010-07-18T12:27:34Z</time>
      </trkpt>
      <trkpt lat="44.23108" lon="5.8567">
        <ele>515</ele>
        <time>2010-07-18T12:27:41Z</time>
      </trkpt>
      <trkpt lat="44.23111" lon="5.85671">
        <ele>515</ele>
        <time>2010-07-18T12:27:53Z</time>
      </trkpt>
      <trkpt lat="44.2311" lon="5.85671">
        <ele>515</ele>
        <time>2010-07-18T12:28:02Z</time>
      </trkpt>
      <trkpt lat="44.23106" lon="5.8567">
        <ele>520</ele>
        <time>2010-07-18T12:28:14Z</time>
      </trkpt>
      <trkpt lat="44.23107" lon="5.85671">
        <ele>523</ele>
        <time>2010-07-18T12:28:28Z</time>
      </trkpt>
      <trkpt lat="44.23097" lon="5.85674">
        <ele>523</ele>
        <time>2010-07-18T12:28:35Z</time>
      </trkpt>
      <trkpt lat="44.23077" lon="5.85684">
        <ele>527</ele>
        <time>2010-07-18T12:28:45Z</time>
      </trkpt>
      <trkpt lat="44.23039" lon="5.8571">
        <ele>527</ele>
        <time>2010-07-18T12:28:53Z</time>
      </trkpt>
      <trkpt lat="44.23013" lon="5.85729">
        <ele>527</ele>
        <time>2010-07-18T12:29:00Z</time>
      </trkpt>
      <trkpt lat="44.22989" lon="5.85748">
        <ele>527</ele>
        <time>2010-07-18T12:29:07Z</time>
      </trkpt>
      <trkpt lat="44.22967" lon="5.85746">
        <ele>523</ele>
        <time>2010-07-18T12:29:14Z</time>
      </trkpt>
      <trkpt lat="44.22952" lon="5.85712">
        <ele>522</ele>
        <time>2010-07-18T12:29:21Z</time>
      </trkpt>
      <trkpt lat="44.22921" lon="5.8571">
        <ele>522</ele>
        <time>2010-07-18T12:29:29Z</time>
      </trkpt>
      <trkpt lat="44.22892" lon="5.85717">
        <ele>522</ele>
        <time>2010-07-18T12:29:36Z</time>
      </trkpt>
      <trkpt lat="44.2286" lon="5.85723">
        <ele>521</ele>
        <time>2010-07-18T12:29:44Z</time>
      </trkpt>
      <trkpt lat="44.22829" lon="5.85735">
        <ele>520</ele>
        <time>2010-07-18T12:29:51Z</time>
      </trkpt>
      <trkpt lat="44.22794" lon="5.85753">
        <ele>519</ele>
        <time>2010-07-18T12:29:59Z</time>
      </trkpt>
      <trkpt lat="44.22759" lon="5.85769">
        <ele>518</ele>
        <time>2010-07-18T12:30:06Z</time>
      </trkpt>
      <trkpt lat="44.22718" lon="5.8578">
        <ele>516</ele>
        <time>2010-07-18T12:30:14Z</time>
      </trkpt>
      <trkpt lat="44.22679" lon="5.85785">
        <ele>516</ele>
        <time>2010-07-18T12:30:21Z</time>
      </trkpt>
      <trkpt lat="44.22635" lon="5.85791">
        <ele>516</ele>
        <time>2010-07-18T12:30:29Z</time>
      </trkpt>
      <trkpt lat="44.22599" lon="5.85799">
        <ele>516</ele>
        <time>2010-07-18T12:30:36Z</time>
      </trkpt>
      <trkpt lat="44.22556" lon="5.85805">
        <ele>516</ele>
        <time>2010-07-18T12:30:44Z</time>
      </trkpt>
      <trkpt lat="44.2252" lon="5.85811">
        <ele>516</ele>
        <time>2010-07-18T12:30:51Z</time>
      </trkpt>
      <trkpt lat="44.22481" lon="5.85818">
        <ele>516</ele>
        <time>2010-07-18T12:30:59Z</time>
      </trkpt>
      <trkpt lat="44.2245" lon="5.85822">
        <ele>516</ele>
        <time>2010-07-18T12:31:06Z</time>
      </trkpt>
      <trkpt lat="44.22419" lon="5.85833">
        <ele>517</ele>
        <time>2010-07-18T12:31:14Z</time>
      </trkpt>
      <trkpt lat="44.22379" lon="5.85841">
        <ele>517</ele>
        <time>2010-07-18T12:31:21Z</time>
      </trkpt>
      <trkpt lat="44.22315" lon="5.8585">
        <ele>515</ele>
        <time>2010-07-18T12:31:29Z</time>
      </trkpt>
      <trkpt lat="44.22292" lon="5.85899">
        <ele>515</ele>
        <time>2010-07-18T12:31:36Z</time>
      </trkpt>
      <trkpt lat="44.22274" lon="5.85918">
        <ele>515</ele>
        <time>2010-07-18T12:31:44Z</time>
      </trkpt>
      <trkpt lat="44.22249" lon="5.85926">
        <ele>515</ele>
        <time>2010-07-18T12:31:51Z</time>
      </trkpt>
      <trkpt lat="44.22209" lon="5.85938">
        <ele>515</ele>
        <time>2010-07-18T12:31:59Z</time>
      </trkpt>
      <trkpt lat="44.22171" lon="5.85947">
        <ele>515</ele>
        <time>2010-07-18T12:32:06Z</time>
      </trkpt>
      <trkpt lat="44.2213" lon="5.85964">
        <ele>515</ele>
        <time>2010-07-18T12:32:14Z</time>
      </trkpt>
      <trkpt lat="44.22101" lon="5.85992">
        <ele>515</ele>
        <time>2010-07-18T12:32:21Z</time>
      </trkpt>
      <trkpt lat="44.22065" lon="5.86026">
        <ele>515</ele>
        <time>2010-07-18T12:32:29Z</time>
      </trkpt>
      <trkpt lat="44.22034" lon="5.86057">
        <ele>514</ele>
        <time>2010-07-18T12:32:36Z</time>
      </trkpt>
      <trkpt lat="44.21996" lon="5.86093">
        <ele>513</ele>
        <time>2010-07-18T12:32:44Z</time>
      </trkpt>
      <trkpt lat="44.21958" lon="5.86122">
        <ele>513</ele>
        <time>2010-07-18T12:32:51Z</time>
      </trkpt>
      <trkpt lat="44.21916" lon="5.86153">
        <ele>513</ele>
        <time>2010-07-18T12:32:59Z</time>
      </trkpt>
      <trkpt lat="44.2188" lon="5.8618">
        <ele>513</ele>
        <time>2010-07-18T12:33:06Z</time>
      </trkpt>
      <trkpt lat="44.21844" lon="5.86206">
        <ele>513</ele>
        <time>2010-07-18T12:33:14Z</time>
      </trkpt>
      <trkpt lat="44.21814" lon="5.862">
        <ele>513</ele>
        <time>2010-07-18T12:33:21Z</time>
      </trkpt>
      <trkpt lat="44.21772" lon="5.86206">
        <ele>509</ele>
        <time>2010-07-18T12:33:29Z</time>
      </trkpt>
      <trkpt lat="44.2176" lon="5.86212">
        <ele>507</ele>
        <time>2010-07-18T12:33:36Z</time>
      </trkpt>
      <trkpt lat="44.2176" lon="5.86212">
        <ele>507</ele>
        <time>2010-07-18T12:33:45Z</time>
      </trkpt>
      <trkpt lat="44.21758" lon="5.86213">
        <ele>507</ele>
        <time>2010-07-18T12:33:55Z</time>
      </trkpt>
      <trkpt lat="44.21754" lon="5.86214">
        <ele>507</ele>
        <time>2010-07-18T12:34:02Z</time>
      </trkpt>
      <trkpt lat="44.21754" lon="5.86216">
        <ele>507</ele>
        <time>2010-07-18T12:34:10Z</time>
      </trkpt>
      <trkpt lat="44.21749" lon="5.86218">
        <ele>507</ele>
        <time>2010-07-18T12:34:17Z</time>
      </trkpt>
      <trkpt lat="44.21741" lon="5.86223">
        <ele>507</ele>
        <time>2010-07-18T12:34:25Z</time>
      </trkpt>
      <trkpt lat="44.21734" lon="5.86227">
        <ele>507</ele>
        <time>2010-07-18T12:34:32Z</time>
      </trkpt>
      <trkpt lat="44.2173" lon="5.86227">
        <ele>507</ele>
        <time>2010-07-18T12:34:44Z</time>
      </trkpt>
      <trkpt lat="44.2173" lon="5.86227">
        <ele>507</ele>
        <time>2010-07-18T12:35:00Z</time>
      </trkpt>
      <trkpt lat="44.21728" lon="5.86227">
        <ele>507</ele>
        <time>2010-07-18T12:35:18Z</time>
      </trkpt>
      <trkpt lat="44.21718" lon="5.8623">
        <ele>507</ele>
        <time>2010-07-18T12:35:25Z</time>
      </trkpt>
      <trkpt lat="44.21707" lon="5.86235">
        <ele>508</ele>
        <time>2010-07-18T12:35:34Z</time>
      </trkpt>
      <trkpt lat="44.21704" lon="5.86236">
        <ele>508</ele>
        <time>2010-07-18T12:35:43Z</time>
      </trkpt>
      <trkpt lat="44.217" lon="5.86237">
        <ele>509</ele>
        <time>2010-07-18T12:35:50Z</time>
      </trkpt>
      <trkpt lat="44.21686" lon="5.86242">
        <ele>510</ele>
        <time>2010-07-18T12:35:57Z</time>
      </trkpt>
      <trkpt lat="44.21669" lon="5.86258">
        <ele>511</ele>
        <time>2010-07-18T12:36:04Z</time>
      </trkpt>
      <trkpt lat="44.21652" lon="5.86271">
        <ele>511</ele>
        <time>2010-07-18T12:36:11Z</time>
      </trkpt>
      <trkpt lat="44.21624" lon="5.86293">
        <ele>511</ele>
        <time>2010-07-18T12:36:19Z</time>
      </trkpt>
      <trkpt lat="44.21596" lon="5.86312">
        <ele>511</ele>
        <time>2010-07-18T12:36:26Z</time>
      </trkpt>
      <trkpt lat="44.21557" lon="5.86328">
        <ele>511</ele>
        <time>2010-07-18T12:36:34Z</time>
      </trkpt>
      <trkpt lat="44.21524" lon="5.8634">
        <ele>511</ele>
        <time>2010-07-18T12:36:41Z</time>
      </trkpt>
      <trkpt lat="44.21486" lon="5.86352">
        <ele>511</ele>
        <time>2010-07-18T12:36:49Z</time>
      </trkpt>
      <trkpt lat="44.21449" lon="5.86361">
        <ele>511</ele>
        <time>2010-07-18T12:36:56Z</time>
      </trkpt>
      <trkpt lat="44.21411" lon="5.86378">
        <ele>511</ele>
        <time>2010-07-18T12:37:04Z</time>
      </trkpt>
      <trkpt lat="44.2138" lon="5.86389">
        <ele>511</ele>
        <time>2010-07-18T12:37:11Z</time>
      </trkpt>
      <trkpt lat="44.21347" lon="5.864">
        <ele>511</ele>
        <time>2010-07-18T12:37:19Z</time>
      </trkpt>
      <trkpt lat="44.21319" lon="5.86409">
        <ele>512</ele>
        <time>2010-07-18T12:37:26Z</time>
      </trkpt>
      <trkpt lat="44.21284" lon="5.86421">
        <ele>513</ele>
        <time>2010-07-18T12:37:34Z</time>
      </trkpt>
      <trkpt lat="44.21256" lon="5.86433">
        <ele>514</ele>
        <time>2010-07-18T12:37:41Z</time>
      </trkpt>
      <trkpt lat="44.21218" lon="5.86441">
        <ele>516</ele>
        <time>2010-07-18T12:37:49Z</time>
      </trkpt>
      <trkpt lat="44.21186" lon="5.86457">
        <ele>516</ele>
        <time>2010-07-18T12:37:56Z</time>
      </trkpt>
      <trkpt lat="44.21144" lon="5.86478">
        <ele>516</ele>
        <time>2010-07-18T12:38:04Z</time>
      </trkpt>
      <trkpt lat="44.21106" lon="5.86496">
        <ele>516</ele>
        <time>2010-07-18T12:38:11Z</time>
      </trkpt>
      <trkpt lat="44.21073" lon="5.86517">
        <ele>516</ele>
        <time>2010-07-18T12:38:18Z</time>
      </trkpt>
      <trkpt lat="44.21041" lon="5.86534">
        <ele>516</ele>
        <time>2010-07-18T12:38:25Z</time>
      </trkpt>
      <trkpt lat="44.21007" lon="5.8655">
        <ele>516</ele>
        <time>2010-07-18T12:38:32Z</time>
      </trkpt>
      <trkpt lat="44.20975" lon="5.86563">
        <ele>516</ele>
        <time>2010-07-18T12:38:39Z</time>
      </trkpt>
      <trkpt lat="44.20951" lon="5.86578">
        <ele>516</ele>
        <time>2010-07-18T12:38:46Z</time>
      </trkpt>
      <trkpt lat="44.20926" lon="5.8659">
        <ele>514</ele>
        <time>2010-07-18T12:38:54Z</time>
      </trkpt>
      <trkpt lat="44.20905" lon="5.86598">
        <ele>514</ele>
        <time>2010-07-18T12:39:01Z</time>
      </trkpt>
      <trkpt lat="44.20876" lon="5.86617">
        <ele>514</ele>
        <time>2010-07-18T12:39:09Z</time>
      </trkpt>
      <trkpt lat="44.20854" lon="5.86639">
        <ele>514</ele>
        <time>2010-07-18T12:39:16Z</time>
      </trkpt>
      <trkpt lat="44.20835" lon="5.86672">
        <ele>514</ele>
        <time>2010-07-18T12:39:24Z</time>
      </trkpt>
      <trkpt lat="44.20818" lon="5.86701">
        <ele>514</ele>
        <time>2010-07-18T12:39:31Z</time>
      </trkpt>
      <trkpt lat="44.20792" lon="5.86735">
        <ele>514</ele>
        <time>2010-07-18T12:39:39Z</time>
      </trkpt>
      <trkpt lat="44.20764" lon="5.86754">
        <ele>514</ele>
        <time>2010-07-18T12:39:46Z</time>
      </trkpt>
      <trkpt lat="44.2074" lon="5.86764">
        <ele>515</ele>
        <time>2010-07-18T12:39:54Z</time>
      </trkpt>
      <trkpt lat="44.20718" lon="5.86773">
        <ele>515</ele>
        <time>2010-07-18T12:40:01Z</time>
      </trkpt>
      <trkpt lat="44.20689" lon="5.86783">
        <ele>515</ele>
        <time>2010-07-18T12:40:09Z</time>
      </trkpt>
      <trkpt lat="44.20666" lon="5.86793">
        <ele>515</ele>
        <time>2010-07-18T12:40:16Z</time>
      </trkpt>
      <trkpt lat="44.20642" lon="5.86802">
        <ele>515</ele>
        <time>2010-07-18T12:40:23Z</time>
      </trkpt>
      <trkpt lat="44.20615" lon="5.86811">
        <ele>516</ele>
        <time>2010-07-18T12:40:30Z</time>
      </trkpt>
      <trkpt lat="44.20586" lon="5.86823">
        <ele>516</ele>
        <time>2010-07-18T12:40:37Z</time>
      </trkpt>
      <trkpt lat="44.2056" lon="5.8683">
        <ele>517</ele>
        <time>2010-07-18T12:40:44Z</time>
      </trkpt>
      <trkpt lat="44.20538" lon="5.86838">
        <ele>520</ele>
        <time>2010-07-18T12:40:51Z</time>
      </trkpt>
      <trkpt lat="44.2052" lon="5.86858">
        <ele>521</ele>
        <time>2010-07-18T12:40:59Z</time>
      </trkpt>
      <trkpt lat="44.20499" lon="5.86866">
        <ele>522</ele>
        <time>2010-07-18T12:41:06Z</time>
      </trkpt>
      <trkpt lat="44.20472" lon="5.86879">
        <ele>523</ele>
        <time>2010-07-18T12:41:14Z</time>
      </trkpt>
      <trkpt lat="44.2045" lon="5.86889">
        <ele>524</ele>
        <time>2010-07-18T12:41:21Z</time>
      </trkpt>
      <trkpt lat="44.20428" lon="5.869">
        <ele>526</ele>
        <time>2010-07-18T12:41:28Z</time>
      </trkpt>
      <trkpt lat="44.20406" lon="5.8691">
        <ele>526</ele>
        <time>2010-07-18T12:41:35Z</time>
      </trkpt>
      <trkpt lat="44.2039" lon="5.86918">
        <ele>527</ele>
        <time>2010-07-18T12:41:42Z</time>
      </trkpt>
      <trkpt lat="44.20375" lon="5.86924">
        <ele>527</ele>
        <time>2010-07-18T12:41:49Z</time>
      </trkpt>
      <trkpt lat="44.20361" lon="5.8693">
        <ele>528</ele>
        <time>2010-07-18T12:41:58Z</time>
      </trkpt>
      <trkpt lat="44.20335" lon="5.86944">
        <ele>528</ele>
        <time>2010-07-18T12:42:05Z</time>
      </trkpt>
      <trkpt lat="44.20324" lon="5.86949">
        <ele>528</ele>
        <time>2010-07-18T12:42:12Z</time>
      </trkpt>
      <trkpt lat="44.20299" lon="5.86962">
        <ele>528</ele>
        <time>2010-07-18T12:42:20Z</time>
      </trkpt>
      <trkpt lat="44.2028" lon="5.86948">
        <ele>528</ele>
        <time>2010-07-18T12:42:28Z</time>
      </trkpt>
      <trkpt lat="44.20277" lon="5.86942">
        <ele>528</ele>
        <time>2010-07-18T12:42:36Z</time>
      </trkpt>
      <trkpt lat="44.20262" lon="5.86923">
        <ele>530</ele>
        <time>2010-07-18T12:42:46Z</time>
      </trkpt>
      <trkpt lat="44.20248" lon="5.8692">
        <ele>531</ele>
        <time>2010-07-18T12:42:55Z</time>
      </trkpt>
      <trkpt lat="44.20233" lon="5.86916">
        <ele>534</ele>
        <time>2010-07-18T12:43:03Z</time>
      </trkpt>
      <trkpt lat="44.20219" lon="5.86913">
        <ele>536</ele>
        <time>2010-07-18T12:43:10Z</time>
      </trkpt>
      <trkpt lat="44.20206" lon="5.86912">
        <ele>537</ele>
        <time>2010-07-18T12:43:17Z</time>
      </trkpt>
      <trkpt lat="44.20195" lon="5.86915">
        <ele>539</ele>
        <time>2010-07-18T12:43:24Z</time>
      </trkpt>
      <trkpt lat="44.20186" lon="5.86917">
        <ele>539</ele>
        <time>2010-07-18T12:43:32Z</time>
      </trkpt>
      <trkpt lat="44.20178" lon="5.86918">
        <ele>541</ele>
        <time>2010-07-18T12:43:40Z</time>
      </trkpt>
      <trkpt lat="44.20167" lon="5.86915">
        <ele>541</ele>
        <time>2010-07-18T12:43:47Z</time>
      </trkpt>
      <trkpt lat="44.20158" lon="5.86912">
        <ele>543</ele>
        <time>2010-07-18T12:43:54Z</time>
      </trkpt>
      <trkpt lat="44.20147" lon="5.86916">
        <ele>543</ele>
        <time>2010-07-18T12:44:01Z</time>
      </trkpt>
      <trkpt lat="44.20134" lon="5.86921">
        <ele>543</ele>
        <time>2010-07-18T12:44:08Z</time>
      </trkpt>
      <trkpt lat="44.20121" lon="5.86926">
        <ele>543</ele>
        <time>2010-07-18T12:44:15Z</time>
      </trkpt>
      <trkpt lat="44.20108" lon="5.86931">
        <ele>543</ele>
        <time>2010-07-18T12:44:22Z</time>
      </trkpt>
      <trkpt lat="44.20093" lon="5.86936">
        <ele>544</ele>
        <time>2010-07-18T12:44:29Z</time>
      </trkpt>
      <trkpt lat="44.20078" lon="5.86942">
        <ele>545</ele>
        <time>2010-07-18T12:44:36Z</time>
      </trkpt>
      <trkpt lat="44.20063" lon="5.86946">
        <ele>547</ele>
        <time>2010-07-18T12:44:43Z</time>
      </trkpt>
      <trkpt lat="44.20045" lon="5.86953">
        <ele>549</ele>
        <time>2010-07-18T12:44:50Z</time>
      </trkpt>
      <trkpt lat="44.20022" lon="5.86963">
        <ele>550</ele>
        <time>2010-07-18T12:44:57Z</time>
      </trkpt>
      <trkpt lat="44.19999" lon="5.86965">
        <ele>550</ele>
        <time>2010-07-18T12:45:04Z</time>
      </trkpt>
      <trkpt lat="44.19977" lon="5.86967">
        <ele>550</ele>
        <time>2010-07-18T12:45:11Z</time>
      </trkpt>
      <trkpt lat="44.19966" lon="5.86966">
        <ele>550</ele>
        <time>2010-07-18T12:45:30Z</time>
      </trkpt>
      <trkpt lat="44.19965" lon="5.86967">
        <ele>550</ele>
        <time>2010-07-18T12:45:38Z</time>
      </trkpt>
      <trkpt lat="44.19957" lon="5.86969">
        <ele>550</ele>
        <time>2010-07-18T12:45:46Z</time>
      </trkpt>
      <trkpt lat="44.19935" lon="5.86979">
        <ele>548</ele>
        <time>2010-07-18T12:45:54Z</time>
      </trkpt>
      <trkpt lat="44.19947" lon="5.87008">
        <ele>546</ele>
        <time>2010-07-18T12:46:01Z</time>
      </trkpt>
      <trkpt lat="44.19982" lon="5.87025">
        <ele>546</ele>
        <time>2010-07-18T12:46:09Z</time>
      </trkpt>
      <trkpt lat="44.19971" lon="5.8709">
        <ele>544</ele>
        <time>2010-07-18T12:46:16Z</time>
      </trkpt>
      <trkpt lat="44.19969" lon="5.87159">
        <ele>541</ele>
        <time>2010-07-18T12:46:23Z</time>
      </trkpt>
      <trkpt lat="44.20014" lon="5.872">
        <ele>538</ele>
        <time>2010-07-18T12:46:30Z</time>
      </trkpt>
      <trkpt lat="44.20053" lon="5.87248">
        <ele>535</ele>
        <time>2010-07-18T12:46:37Z</time>
      </trkpt>
      <trkpt lat="44.2008" lon="5.87322">
        <ele>531</ele>
        <time>2010-07-18T12:46:44Z</time>
      </trkpt>
      <trkpt lat="44.20121" lon="5.87376">
        <ele>529</ele>
        <time>2010-07-18T12:46:51Z</time>
      </trkpt>
      <trkpt lat="44.20171" lon="5.8741">
        <ele>526</ele>
        <time>2010-07-18T12:46:58Z</time>
      </trkpt>
      <trkpt lat="44.20216" lon="5.87455">
        <ele>521</ele>
        <time>2010-07-18T12:47:05Z</time>
      </trkpt>
      <trkpt lat="44.20264" lon="5.87488">
        <ele>519</ele>
        <time>2010-07-18T12:47:12Z</time>
      </trkpt>
      <trkpt lat="44.20315" lon="5.87516">
        <ele>515</ele>
        <time>2010-07-18T12:47:19Z</time>
      </trkpt>
      <trkpt lat="44.20369" lon="5.87544">
        <ele>512</ele>
        <time>2010-07-18T12:47:26Z</time>
      </trkpt>
      <trkpt lat="44.20425" lon="5.87575">
        <ele>511</ele>
        <time>2010-07-18T12:47:33Z</time>
      </trkpt>
      <trkpt lat="44.20481" lon="5.87601">
        <ele>511</ele>
        <time>2010-07-18T12:47:40Z</time>
      </trkpt>
      <trkpt lat="44.20489" lon="5.87626">
        <ele>511</ele>
        <time>2010-07-18T12:47:47Z</time>
      </trkpt>
      <trkpt lat="44.20472" lon="5.87657">
        <ele>511</ele>
        <time>2010-07-18T12:47:54Z</time>
      </trkpt>
      <trkpt lat="44.20456" lon="5.877">
        <ele>511</ele>
        <time>2010-07-18T12:48:01Z</time>
      </trkpt>
      <trkpt lat="44.20438" lon="5.87746">
        <ele>510</ele>
        <time>2010-07-18T12:48:08Z</time>
      </trkpt>
      <trkpt lat="44.20418" lon="5.87791">
        <ele>510</ele>
        <time>2010-07-18T12:48:15Z</time>
      </trkpt>
      <trkpt lat="44.20401" lon="5.87841">
        <ele>509</ele>
        <time>2010-07-18T12:48:22Z</time>
      </trkpt>
      <trkpt lat="44.20381" lon="5.87891">
        <ele>508</ele>
        <time>2010-07-18T12:48:29Z</time>
      </trkpt>
      <trkpt lat="44.20358" lon="5.87943">
        <ele>508</ele>
        <time>2010-07-18T12:48:36Z</time>
      </trkpt>
      <trkpt lat="44.20338" lon="5.88001">
        <ele>504</ele>
        <time>2010-07-18T12:48:43Z</time>
      </trkpt>
      <trkpt lat="44.2032" lon="5.88065">
        <ele>501</ele>
        <time>2010-07-18T12:48:50Z</time>
      </trkpt>
      <trkpt lat="44.20291" lon="5.88105">
        <ele>501</ele>
        <time>2010-07-18T12:48:57Z</time>
      </trkpt>
      <trkpt lat="44.20262" lon="5.88103">
        <ele>500</ele>
        <time>2010-07-18T12:49:04Z</time>
      </trkpt>
      <trkpt lat="44.20274" lon="5.88129">
        <ele>500</ele>
        <time>2010-07-18T12:49:11Z</time>
      </trkpt>
      <trkpt lat="44.20278" lon="5.8816">
        <ele>500</ele>
        <time>2010-07-18T12:49:18Z</time>
      </trkpt>
      <trkpt lat="44.20265" lon="5.8819">
        <ele>500</ele>
        <time>2010-07-18T12:49:25Z</time>
      </trkpt>
      <trkpt lat="44.20255" lon="5.88223">
        <ele>500</ele>
        <time>2010-07-18T12:49:32Z</time>
      </trkpt>
      <trkpt lat="44.20245" lon="5.88264">
        <ele>500</ele>
        <time>2010-07-18T12:49:39Z</time>
      </trkpt>
      <trkpt lat="44.20236" lon="5.88308">
        <ele>500</ele>
        <time>2010-07-18T12:49:46Z</time>
      </trkpt>
      <trkpt lat="44.2024" lon="5.88339">
        <ele>500</ele>
        <time>2010-07-18T12:49:53Z</time>
      </trkpt>
      <trkpt lat="44.20252" lon="5.88386">
        <ele>500</ele>
        <time>2010-07-18T12:50:06Z</time>
      </trkpt>
      <trkpt lat="44.20254" lon="5.88422">
        <ele>500</ele>
        <time>2010-07-18T12:50:14Z</time>
      </trkpt>
      <trkpt lat="44.20248" lon="5.88439">
        <ele>500</ele>
        <time>2010-07-18T12:50:21Z</time>
      </trkpt>
      <trkpt lat="44.20245" lon="5.88476">
        <ele>500</ele>
        <time>2010-07-18T12:50:30Z</time>
      </trkpt>
      <trkpt lat="44.20243" lon="5.88521">
        <ele>500</ele>
        <time>2010-07-18T12:50:38Z</time>
      </trkpt>
      <trkpt lat="44.20248" lon="5.88575">
        <ele>502</ele>
        <time>2010-07-18T12:50:45Z</time>
      </trkpt>
      <trkpt lat="44.20253" lon="5.88606">
        <ele>502</ele>
        <time>2010-07-18T12:50:53Z</time>
      </trkpt>
      <trkpt lat="44.20256" lon="5.88656">
        <ele>502</ele>
        <time>2010-07-18T12:51:00Z</time>
      </trkpt>
      <trkpt lat="44.20258" lon="5.88681">
        <ele>502</ele>
        <time>2010-07-18T12:51:07Z</time>
      </trkpt>
      <trkpt lat="44.20255" lon="5.88715">
        <ele>502</ele>
        <time>2010-07-18T12:51:15Z</time>
      </trkpt>
      <trkpt lat="44.20251" lon="5.88762">
        <ele>502</ele>
        <time>2010-07-18T12:51:23Z</time>
      </trkpt>
      <trkpt lat="44.20244" lon="5.88794">
        <ele>502</ele>
        <time>2010-07-18T12:51:30Z</time>
      </trkpt>
      <trkpt lat="44.20234" lon="5.88825">
        <ele>502</ele>
        <time>2010-07-18T12:51:37Z</time>
      </trkpt>
      <trkpt lat="44.20219" lon="5.88858">
        <ele>502</ele>
        <time>2010-07-18T12:51:44Z</time>
      </trkpt>
      <trkpt lat="44.2021" lon="5.88887">
        <ele>502</ele>
        <time>2010-07-18T12:51:51Z</time>
      </trkpt>
      <trkpt lat="44.20204" lon="5.88909">
        <ele>502</ele>
        <time>2010-07-18T12:51:58Z</time>
      </trkpt>
      <trkpt lat="44.202" lon="5.88938">
        <ele>502</ele>
        <time>2010-07-18T12:52:05Z</time>
      </trkpt>
      <trkpt lat="44.20199" lon="5.88966">
        <ele>502</ele>
        <time>2010-07-18T12:52:12Z</time>
      </trkpt>
      <trkpt lat="44.20195" lon="5.88994">
        <ele>503</ele>
        <time>2010-07-18T12:52:19Z</time>
      </trkpt>
      <trkpt lat="44.20194" lon="5.89026">
        <ele>503</ele>
        <time>2010-07-18T12:52:26Z</time>
      </trkpt>
      <trkpt lat="44.20192" lon="5.89057">
        <ele>504</ele>
        <time>2010-07-18T12:52:33Z</time>
      </trkpt>
      <trkpt lat="44.20184" lon="5.89087">
        <ele>505</ele>
        <time>2010-07-18T12:52:40Z</time>
      </trkpt>
      <trkpt lat="44.20177" lon="5.89119">
        <ele>505</ele>
        <time>2010-07-18T12:52:47Z</time>
      </trkpt>
      <trkpt lat="44.20169" lon="5.8915">
        <ele>505</ele>
        <time>2010-07-18T12:52:54Z</time>
      </trkpt>
      <trkpt lat="44.20157" lon="5.89178">
        <ele>505</ele>
        <time>2010-07-18T12:53:01Z</time>
      </trkpt>
      <trkpt lat="44.20145" lon="5.8921">
        <ele>506</ele>
        <time>2010-07-18T12:53:08Z</time>
      </trkpt>
      <trkpt lat="44.20135" lon="5.89243">
        <ele>506</ele>
        <time>2010-07-18T12:53:15Z</time>
      </trkpt>
      <trkpt lat="44.20125" lon="5.89275">
        <ele>506</ele>
        <time>2010-07-18T12:53:22Z</time>
      </trkpt>
      <trkpt lat="44.20112" lon="5.89303">
        <ele>509</ele>
        <time>2010-07-18T12:53:29Z</time>
      </trkpt>
      <trkpt lat="44.20104" lon="5.89337">
        <ele>511</ele>
        <time>2010-07-18T12:53:36Z</time>
      </trkpt>
      <trkpt lat="44.20101" lon="5.89376">
        <ele>511</ele>
        <time>2010-07-18T12:53:43Z</time>
      </trkpt>
      <trkpt lat="44.20101" lon="5.89415">
        <ele>511</ele>
        <time>2010-07-18T12:53:50Z</time>
      </trkpt>
      <trkpt lat="44.20102" lon="5.89453">
        <ele>511</ele>
        <time>2010-07-18T12:53:57Z</time>
      </trkpt>
      <trkpt lat="44.20105" lon="5.89481">
        <ele>511</ele>
        <time>2010-07-18T12:54:04Z</time>
      </trkpt>
      <trkpt lat="44.20104" lon="5.89485">
        <ele>511</ele>
        <time>2010-07-18T12:54:14Z</time>
      </trkpt>
      <trkpt lat="44.20107" lon="5.89507">
        <ele>511</ele>
        <time>2010-07-18T12:54:21Z</time>
      </trkpt>
      <trkpt lat="44.20105" lon="5.8954">
        <ele>511</ele>
        <time>2010-07-18T12:54:28Z</time>
      </trkpt>
      <trkpt lat="44.20097" lon="5.89578">
        <ele>511</ele>
        <time>2010-07-18T12:54:35Z</time>
      </trkpt>
      <trkpt lat="44.20092" lon="5.89625">
        <ele>510</ele>
        <time>2010-07-18T12:54:42Z</time>
      </trkpt>
      <trkpt lat="44.20094" lon="5.89676">
        <ele>508</ele>
        <time>2010-07-18T12:54:49Z</time>
      </trkpt>
      <trkpt lat="44.20098" lon="5.89728">
        <ele>505</ele>
        <time>2010-07-18T12:54:56Z</time>
      </trkpt>
      <trkpt lat="44.20102" lon="5.89777">
        <ele>503</ele>
        <time>2010-07-18T12:55:03Z</time>
      </trkpt>
      <trkpt lat="44.20108" lon="5.89825">
        <ele>503</ele>
        <time>2010-07-18T12:55:10Z</time>
      </trkpt>
      <trkpt lat="44.20118" lon="5.89867">
        <ele>503</ele>
        <time>2010-07-18T12:55:17Z</time>
      </trkpt>
      <trkpt lat="44.20115" lon="5.89895">
        <ele>503</ele>
        <time>2010-07-18T12:55:24Z</time>
      </trkpt>
      <trkpt lat="44.20115" lon="5.89945">
        <ele>503</ele>
        <time>2010-07-18T12:55:31Z</time>
      </trkpt>
      <trkpt lat="44.2011" lon="5.90004">
        <ele>503</ele>
        <time>2010-07-18T12:55:38Z</time>
      </trkpt>
      <trkpt lat="44.20106" lon="5.90055">
        <ele>503</ele>
        <time>2010-07-18T12:55:45Z</time>
      </trkpt>
      <trkpt lat="44.20105" lon="5.90097">
        <ele>503</ele>
        <time>2010-07-18T12:55:52Z</time>
      </trkpt>
      <trkpt lat="44.20098" lon="5.90148">
        <ele>503</ele>
        <time>2010-07-18T12:55:59Z</time>
      </trkpt>
      <trkpt lat="44.20095" lon="5.90198">
        <ele>503</ele>
        <time>2010-07-18T12:56:06Z</time>
      </trkpt>
      <trkpt lat="44.20094" lon="5.90248">
        <ele>503</ele>
        <time>2010-07-18T12:56:14Z</time>
      </trkpt>
      <trkpt lat="44.20086" lon="5.90278">
        <ele>503</ele>
        <time>2010-07-18T12:56:21Z</time>
      </trkpt>
      <trkpt lat="44.20079" lon="5.903">
        <ele>503</ele>
        <time>2010-07-18T12:56:28Z</time>
      </trkpt>
      <trkpt lat="44.20067" lon="5.90318">
        <ele>503</ele>
        <time>2010-07-18T12:56:35Z</time>
      </trkpt>
      <trkpt lat="44.20055" lon="5.90338">
        <ele>506</ele>
        <time>2010-07-18T12:56:42Z</time>
      </trkpt>
      <trkpt lat="44.20043" lon="5.90359">
        <ele>508</ele>
        <time>2010-07-18T12:56:49Z</time>
      </trkpt>
      <trkpt lat="44.20035" lon="5.90378">
        <ele>510</ele>
        <time>2010-07-18T12:56:56Z</time>
      </trkpt>
      <trkpt lat="44.20033" lon="5.90399">
        <ele>511</ele>
        <time>2010-07-18T12:57:03Z</time>
      </trkpt>
      <trkpt lat="44.20029" lon="5.9042">
        <ele>511</ele>
        <time>2010-07-18T12:57:10Z</time>
      </trkpt>
      <trkpt lat="44.20026" lon="5.90439">
        <ele>511</ele>
        <time>2010-07-18T12:57:17Z</time>
      </trkpt>
      <trkpt lat="44.20021" lon="5.90457">
        <ele>513</ele>
        <time>2010-07-18T12:57:24Z</time>
      </trkpt>
      <trkpt lat="44.20014" lon="5.90475">
        <ele>514</ele>
        <time>2010-07-18T12:57:31Z</time>
      </trkpt>
      <trkpt lat="44.2001" lon="5.90493">
        <ele>517</ele>
        <time>2010-07-18T12:57:38Z</time>
      </trkpt>
      <trkpt lat="44.20007" lon="5.90512">
        <ele>521</ele>
        <time>2010-07-18T12:57:45Z</time>
      </trkpt>
      <trkpt lat="44.20005" lon="5.90529">
        <ele>523</ele>
        <time>2010-07-18T12:57:52Z</time>
      </trkpt>
      <trkpt lat="44.20001" lon="5.90547">
        <ele>525</ele>
        <time>2010-07-18T12:57:59Z</time>
      </trkpt>
      <trkpt lat="44.19996" lon="5.90568">
        <ele>528</ele>
        <time>2010-07-18T12:58:06Z</time>
      </trkpt>
      <trkpt lat="44.19991" lon="5.90589">
        <ele>530</ele>
        <time>2010-07-18T12:58:14Z</time>
      </trkpt>
      <trkpt lat="44.19984" lon="5.90607">
        <ele>532</ele>
        <time>2010-07-18T12:58:21Z</time>
      </trkpt>
      <trkpt lat="44.19977" lon="5.90624">
        <ele>533</ele>
        <time>2010-07-18T12:58:28Z</time>
      </trkpt>
      <trkpt lat="44.1997" lon="5.90641">
        <ele>533</ele>
        <time>2010-07-18T12:58:35Z</time>
      </trkpt>
      <trkpt lat="44.19966" lon="5.90658">
        <ele>533</ele>
        <time>2010-07-18T12:58:42Z</time>
      </trkpt>
      <trkpt lat="44.19962" lon="5.90676">
        <ele>534</ele>
        <time>2010-07-18T12:58:49Z</time>
      </trkpt>
      <trkpt lat="44.19958" lon="5.90692">
        <ele>535</ele>
        <time>2010-07-18T12:58:56Z</time>
      </trkpt>
      <trkpt lat="44.1995" lon="5.90707">
        <ele>535</ele>
        <time>2010-07-18T12:59:03Z</time>
      </trkpt>
      <trkpt lat="44.19941" lon="5.9072">
        <ele>535</ele>
        <time>2010-07-18T12:59:10Z</time>
      </trkpt>
      <trkpt lat="44.19933" lon="5.90733">
        <ele>535</ele>
        <time>2010-07-18T12:59:17Z</time>
      </trkpt>
      <trkpt lat="44.19923" lon="5.90743">
        <ele>535</ele>
        <time>2010-07-18T12:59:24Z</time>
      </trkpt>
      <trkpt lat="44.1991" lon="5.90748">
        <ele>535</ele>
        <time>2010-07-18T12:59:31Z</time>
      </trkpt>
      <trkpt lat="44.19898" lon="5.90751">
        <ele>536</ele>
        <time>2010-07-18T12:59:38Z</time>
      </trkpt>
      <trkpt lat="44.19887" lon="5.90753">
        <ele>536</ele>
        <time>2010-07-18T12:59:45Z</time>
      </trkpt>
      <trkpt lat="44.19876" lon="5.90755">
        <ele>536</ele>
        <time>2010-07-18T12:59:52Z</time>
      </trkpt>
      <trkpt lat="44.19864" lon="5.9076">
        <ele>536</ele>
        <time>2010-07-18T12:59:59Z</time>
      </trkpt>
      <trkpt lat="44.19852" lon="5.90767">
        <ele>536</ele>
        <time>2010-07-18T13:00:06Z</time>
      </trkpt>
      <trkpt lat="44.19839" lon="5.90779">
        <ele>539</ele>
        <time>2010-07-18T13:00:14Z</time>
      </trkpt>
      <trkpt lat="44.19831" lon="5.90793">
        <ele>540</ele>
        <time>2010-07-18T13:00:21Z</time>
      </trkpt>
      <trkpt lat="44.1983" lon="5.90818">
        <ele>541</ele>
        <time>2010-07-18T13:00:28Z</time>
      </trkpt>
      <trkpt lat="44.19835" lon="5.90836">
        <ele>543</ele>
        <time>2010-07-18T13:00:35Z</time>
      </trkpt>
      <trkpt lat="44.19841" lon="5.90858">
        <ele>548</ele>
        <time>2010-07-18T13:00:42Z</time>
      </trkpt>
      <trkpt lat="44.19843" lon="5.90882">
        <ele>551</ele>
        <time>2010-07-18T13:00:49Z</time>
      </trkpt>
      <trkpt lat="44.19841" lon="5.90908">
        <ele>554</ele>
        <time>2010-07-18T13:00:56Z</time>
      </trkpt>
      <trkpt lat="44.19838" lon="5.90933">
        <ele>557</ele>
        <time>2010-07-18T13:01:03Z</time>
      </trkpt>
      <trkpt lat="44.19835" lon="5.90961">
        <ele>557</ele>
        <time>2010-07-18T13:01:10Z</time>
      </trkpt>
      <trkpt lat="44.1983" lon="5.90987">
        <ele>559</ele>
        <time>2010-07-18T13:01:17Z</time>
      </trkpt>
      <trkpt lat="44.19826" lon="5.91011">
        <ele>561</ele>
        <time>2010-07-18T13:01:24Z</time>
      </trkpt>
      <trkpt lat="44.19822" lon="5.91036">
        <ele>563</ele>
        <time>2010-07-18T13:01:31Z</time>
      </trkpt>
      <trkpt lat="44.19819" lon="5.91055">
        <ele>565</ele>
        <time>2010-07-18T13:01:39Z</time>
      </trkpt>
      <trkpt lat="44.19809" lon="5.91079">
        <ele>568</ele>
        <time>2010-07-18T13:01:46Z</time>
      </trkpt>
      <trkpt lat="44.19803" lon="5.91106">
        <ele>568</ele>
        <time>2010-07-18T13:01:53Z</time>
      </trkpt>
      <trkpt lat="44.19798" lon="5.91133">
        <ele>570</ele>
        <time>2010-07-18T13:02:00Z</time>
      </trkpt>
      <trkpt lat="44.19792" lon="5.91159">
        <ele>571</ele>
        <time>2010-07-18T13:02:07Z</time>
      </trkpt>
      <trkpt lat="44.19784" lon="5.91183">
        <ele>571</ele>
        <time>2010-07-18T13:02:14Z</time>
      </trkpt>
      <trkpt lat="44.19776" lon="5.91208">
        <ele>571</ele>
        <time>2010-07-18T13:02:21Z</time>
      </trkpt>
      <trkpt lat="44.19765" lon="5.91234">
        <ele>571</ele>
        <time>2010-07-18T13:02:28Z</time>
      </trkpt>
      <trkpt lat="44.19756" lon="5.91259">
        <ele>571</ele>
        <time>2010-07-18T13:02:35Z</time>
      </trkpt>
      <trkpt lat="44.19747" lon="5.91282">
        <ele>571</ele>
        <time>2010-07-18T13:02:42Z</time>
      </trkpt>
      <trkpt lat="44.19738" lon="5.91305">
        <ele>571</ele>
        <time>2010-07-18T13:02:49Z</time>
      </trkpt>
      <trkpt lat="44.19729" lon="5.91328">
        <ele>572</ele>
        <time>2010-07-18T13:02:56Z</time>
      </trkpt>
      <trkpt lat="44.1973" lon="5.91347">
        <ele>573</ele>
        <time>2010-07-18T13:03:03Z</time>
      </trkpt>
      <trkpt lat="44.19737" lon="5.91349">
        <ele>573</ele>
        <time>2010-07-18T13:03:10Z</time>
      </trkpt>
      <trkpt lat="44.19738" lon="5.91349">
        <ele>573</ele>
        <time>2010-07-18T13:03:17Z</time>
      </trkpt>
      <trkpt lat="44.19739" lon="5.91351">
        <ele>573</ele>
        <time>2010-07-18T13:03:32Z</time>
      </trkpt>
      <trkpt lat="44.19738" lon="5.9135">
        <ele>573</ele>
        <time>2010-07-18T13:03:42Z</time>
      </trkpt>
      <trkpt lat="44.19738" lon="5.91351">
        <ele>573</ele>
        <time>2010-07-18T13:04:09Z</time>
      </trkpt>
      <trkpt lat="44.19739" lon="5.91352">
        <ele>573</ele>
        <time>2010-07-18T13:04:16Z</time>
      </trkpt>
      <trkpt lat="44.19746" lon="5.91359">
        <ele>573</ele>
        <time>2010-07-18T13:04:23Z</time>
      </trkpt>
      <trkpt lat="44.19756" lon="5.91365">
        <ele>573</ele>
        <time>2010-07-18T13:04:30Z</time>
      </trkpt>
      <trkpt lat="44.19772" lon="5.91371">
        <ele>573</ele>
        <time>2010-07-18T13:04:37Z</time>
      </trkpt>
      <trkpt lat="44.19785" lon="5.91384">
        <ele>573</ele>
        <time>2010-07-18T13:04:45Z</time>
      </trkpt>
      <trkpt lat="44.19789" lon="5.91398">
        <ele>574</ele>
        <time>2010-07-18T13:04:52Z</time>
      </trkpt>
      <trkpt lat="44.19795" lon="5.91411">
        <ele>575</ele>
        <time>2010-07-18T13:05:00Z</time>
      </trkpt>
      <trkpt lat="44.198" lon="5.91421">
        <ele>576</ele>
        <time>2010-07-18T13:05:07Z</time>
      </trkpt>
      <trkpt lat="44.19805" lon="5.9143">
        <ele>578</ele>
        <time>2010-07-18T13:05:15Z</time>
      </trkpt>
      <trkpt lat="44.19808" lon="5.9144">
        <ele>578</ele>
        <time>2010-07-18T13:05:22Z</time>
      </trkpt>
      <trkpt lat="44.19808" lon="5.91453">
        <ele>580</ele>
        <time>2010-07-18T13:05:29Z</time>
      </trkpt>
      <trkpt lat="44.1981" lon="5.91465">
        <ele>581</ele>
        <time>2010-07-18T13:05:36Z</time>
      </trkpt>
      <trkpt lat="44.19814" lon="5.91484">
        <ele>582</ele>
        <time>2010-07-18T13:05:43Z</time>
      </trkpt>
      <trkpt lat="44.19818" lon="5.91505">
        <ele>583</ele>
        <time>2010-07-18T13:05:50Z</time>
      </trkpt>
      <trkpt lat="44.19823" lon="5.91532">
        <ele>584</ele>
        <time>2010-07-18T13:05:57Z</time>
      </trkpt>
      <trkpt lat="44.1983" lon="5.91585">
        <ele>584</ele>
        <time>2010-07-18T13:06:04Z</time>
      </trkpt>
      <trkpt lat="44.1984" lon="5.91636">
        <ele>584</ele>
        <time>2010-07-18T13:06:11Z</time>
      </trkpt>
      <trkpt lat="44.19852" lon="5.91676">
        <ele>585</ele>
        <time>2010-07-18T13:06:19Z</time>
      </trkpt>
      <trkpt lat="44.19864" lon="5.91717">
        <ele>586</ele>
        <time>2010-07-18T13:06:26Z</time>
      </trkpt>
      <trkpt lat="44.19869" lon="5.91757">
        <ele>586</ele>
        <time>2010-07-18T13:06:33Z</time>
      </trkpt>
      <trkpt lat="44.19866" lon="5.91792">
        <ele>587</ele>
        <time>2010-07-18T13:06:40Z</time>
      </trkpt>
      <trkpt lat="44.19864" lon="5.91801">
        <ele>588</ele>
        <time>2010-07-18T13:06:47Z</time>
      </trkpt>
      <trkpt lat="44.19867" lon="5.91805">
        <ele>586</ele>
        <time>2010-07-18T13:06:55Z</time>
      </trkpt>
      <trkpt lat="44.19873" lon="5.91813">
        <ele>584</ele>
        <time>2010-07-18T13:07:05Z</time>
      </trkpt>
      <trkpt lat="44.1987" lon="5.91814">
        <ele>582</ele>
        <time>2010-07-18T13:07:12Z</time>
      </trkpt>
      <trkpt lat="44.19867" lon="5.91828">
        <ele>582</ele>
        <time>2010-07-18T13:07:19Z</time>
      </trkpt>
      <trkpt lat="44.19862" lon="5.91843">
        <ele>582</ele>
        <time>2010-07-18T13:07:26Z</time>
      </trkpt>
      <trkpt lat="44.19856" lon="5.9186">
        <ele>585</ele>
        <time>2010-07-18T13:07:33Z</time>
      </trkpt>
      <trkpt lat="44.19849" lon="5.9188">
        <ele>586</ele>
        <time>2010-07-18T13:07:40Z</time>
      </trkpt>
      <trkpt lat="44.1984" lon="5.91895">
        <ele>588</ele>
        <time>2010-07-18T13:07:48Z</time>
      </trkpt>
      <trkpt lat="44.19838" lon="5.91908">
        <ele>591</ele>
        <time>2010-07-18T13:07:55Z</time>
      </trkpt>
      <trkpt lat="44.19841" lon="5.91926">
        <ele>592</ele>
        <time>2010-07-18T13:08:03Z</time>
      </trkpt>
      <trkpt lat="44.19847" lon="5.91946">
        <ele>592</ele>
        <time>2010-07-18T13:08:10Z</time>
      </trkpt>
      <trkpt lat="44.19855" lon="5.9198">
        <ele>593</ele>
        <time>2010-07-18T13:08:18Z</time>
      </trkpt>
      <trkpt lat="44.19857" lon="5.9201">
        <ele>594</ele>
        <time>2010-07-18T13:08:25Z</time>
      </trkpt>
      <trkpt lat="44.19857" lon="5.92016">
        <ele>595</ele>
        <time>2010-07-18T13:08:33Z</time>
      </trkpt>
      <trkpt lat="44.19862" lon="5.92035">
        <ele>595</ele>
        <time>2010-07-18T13:08:40Z</time>
      </trkpt>
      <trkpt lat="44.1987" lon="5.92072">
        <ele>595</ele>
        <time>2010-07-18T13:08:48Z</time>
      </trkpt>
      <trkpt lat="44.19868" lon="5.92114">
        <ele>595</ele>
        <time>2010-07-18T13:08:55Z</time>
      </trkpt>
      <trkpt lat="44.19868" lon="5.92163">
        <ele>595</ele>
        <time>2010-07-18T13:09:03Z</time>
      </trkpt>
      <trkpt lat="44.19869" lon="5.92203">
        <ele>595</ele>
        <time>2010-07-18T13:09:10Z</time>
      </trkpt>
      <trkpt lat="44.19865" lon="5.92247">
        <ele>595</ele>
        <time>2010-07-18T13:09:18Z</time>
      </trkpt>
      <trkpt lat="44.19873" lon="5.92274">
        <ele>595</ele>
        <time>2010-07-18T13:09:25Z</time>
      </trkpt>
      <trkpt lat="44.19881" lon="5.92325">
        <ele>595</ele>
        <time>2010-07-18T13:09:33Z</time>
      </trkpt>
      <trkpt lat="44.19883" lon="5.92366">
        <ele>594</ele>
        <time>2010-07-18T13:09:40Z</time>
      </trkpt>
      <trkpt lat="44.19872" lon="5.92423">
        <ele>589</ele>
        <time>2010-07-18T13:09:48Z</time>
      </trkpt>
      <trkpt lat="44.19862" lon="5.92465">
        <ele>589</ele>
        <time>2010-07-18T13:09:55Z</time>
      </trkpt>
      <trkpt lat="44.19854" lon="5.92517">
        <ele>589</ele>
        <time>2010-07-18T13:10:03Z</time>
      </trkpt>
      <trkpt lat="44.19849" lon="5.92555">
        <ele>590</ele>
        <time>2010-07-18T13:10:10Z</time>
      </trkpt>
      <trkpt lat="44.19844" lon="5.92598">
        <ele>595</ele>
        <time>2010-07-18T13:10:18Z</time>
      </trkpt>
      <trkpt lat="44.19838" lon="5.92634">
        <ele>597</ele>
        <time>2010-07-18T13:10:25Z</time>
      </trkpt>
      <trkpt lat="44.19841" lon="5.92689">
        <ele>597</ele>
        <time>2010-07-18T13:10:33Z</time>
      </trkpt>
      <trkpt lat="44.19844" lon="5.92727">
        <ele>594</ele>
        <time>2010-07-18T13:10:40Z</time>
      </trkpt>
      <trkpt lat="44.19848" lon="5.92774">
        <ele>591</ele>
        <time>2010-07-18T13:10:48Z</time>
      </trkpt>
      <trkpt lat="44.19851" lon="5.92802">
        <ele>590</ele>
        <time>2010-07-18T13:10:55Z</time>
      </trkpt>
      <trkpt lat="44.1985" lon="5.92833">
        <ele>589</ele>
        <time>2010-07-18T13:11:03Z</time>
      </trkpt>
      <trkpt lat="44.19852" lon="5.92858">
        <ele>588</ele>
        <time>2010-07-18T13:11:10Z</time>
      </trkpt>
      <trkpt lat="44.19854" lon="5.92886">
        <ele>587</ele>
        <time>2010-07-18T13:11:18Z</time>
      </trkpt>
      <trkpt lat="44.19855" lon="5.92912">
        <ele>586</ele>
        <time>2010-07-18T13:11:25Z</time>
      </trkpt>
      <trkpt lat="44.19857" lon="5.92939">
        <ele>584</ele>
        <time>2010-07-18T13:11:33Z</time>
      </trkpt>
      <trkpt lat="44.1986" lon="5.92966">
        <ele>584</ele>
        <time>2010-07-18T13:11:40Z</time>
      </trkpt>
      <trkpt lat="44.19868" lon="5.92992">
        <ele>584</ele>
        <time>2010-07-18T13:11:48Z</time>
      </trkpt>
      <trkpt lat="44.19881" lon="5.93018">
        <ele>584</ele>
        <time>2010-07-18T13:11:55Z</time>
      </trkpt>
      <trkpt lat="44.19889" lon="5.93066">
        <ele>581</ele>
        <time>2010-07-18T13:12:03Z</time>
      </trkpt>
      <trkpt lat="44.19891" lon="5.93105">
        <ele>581</ele>
        <time>2010-07-18T13:12:10Z</time>
      </trkpt>
      <trkpt lat="44.19894" lon="5.93148">
        <ele>580</ele>
        <time>2010-07-18T13:12:18Z</time>
      </trkpt>
      <trkpt lat="44.19897" lon="5.93189">
        <ele>578</ele>
        <time>2010-07-18T13:12:25Z</time>
      </trkpt>
      <trkpt lat="44.19896" lon="5.93228">
        <ele>575</ele>
        <time>2010-07-18T13:12:33Z</time>
      </trkpt>
      <trkpt lat="44.19889" lon="5.93255">
        <ele>573</ele>
        <time>2010-07-18T13:12:40Z</time>
      </trkpt>
      <trkpt lat="44.19902" lon="5.93336">
        <ele>567</ele>
        <time>2010-07-18T13:12:48Z</time>
      </trkpt>
      <trkpt lat="44.19907" lon="5.93398">
        <ele>566</ele>
        <time>2010-07-18T13:12:55Z</time>
      </trkpt>
      <trkpt lat="44.19907" lon="5.93436">
        <ele>566</ele>
        <time>2010-07-18T13:13:03Z</time>
      </trkpt>
      <trkpt lat="44.19896" lon="5.9349">
        <ele>566</ele>
        <time>2010-07-18T13:13:10Z</time>
      </trkpt>
      <trkpt lat="44.19901" lon="5.93574">
        <ele>563</ele>
        <time>2010-07-18T13:13:18Z</time>
      </trkpt>
      <trkpt lat="44.19917" lon="5.93633">
        <ele>561</ele>
        <time>2010-07-18T13:13:25Z</time>
      </trkpt>
      <trkpt lat="44.19936" lon="5.93682">
        <ele>555</ele>
        <time>2010-07-18T13:13:32Z</time>
      </trkpt>
      <trkpt lat="44.1992" lon="5.93715">
        <ele>555</ele>
        <time>2010-07-18T13:13:39Z</time>
      </trkpt>
      <trkpt lat="44.1991" lon="5.93745">
        <ele>555</ele>
        <time>2010-07-18T13:13:46Z</time>
      </trkpt>
      <trkpt lat="44.19907" lon="5.93776">
        <ele>555</ele>
        <time>2010-07-18T13:13:54Z</time>
      </trkpt>
      <trkpt lat="44.19905" lon="5.93823">
        <ele>555</ele>
        <time>2010-07-18T13:14:01Z</time>
      </trkpt>
      <trkpt lat="44.19914" lon="5.93892">
        <ele>555</ele>
        <time>2010-07-18T13:14:09Z</time>
      </trkpt>
      <trkpt lat="44.19921" lon="5.93952">
        <ele>554</ele>
        <time>2010-07-18T13:14:16Z</time>
      </trkpt>
      <trkpt lat="44.19933" lon="5.94019">
        <ele>549</ele>
        <time>2010-07-18T13:14:24Z</time>
      </trkpt>
      <trkpt lat="44.19911" lon="5.94059">
        <ele>544</ele>
        <time>2010-07-18T13:14:31Z</time>
      </trkpt>
      <trkpt lat="44.19866" lon="5.94077">
        <ele>539</ele>
        <time>2010-07-18T13:14:39Z</time>
      </trkpt>
      <trkpt lat="44.19851" lon="5.94119">
        <ele>535</ele>
        <time>2010-07-18T13:14:46Z</time>
      </trkpt>
      <trkpt lat="44.19808" lon="5.94152">
        <ele>530</ele>
        <time>2010-07-18T13:14:54Z</time>
      </trkpt>
      <trkpt lat="44.19761" lon="5.94163">
        <ele>523</ele>
        <time>2010-07-18T13:15:01Z</time>
      </trkpt>
      <trkpt lat="44.19707" lon="5.94173">
        <ele>515</ele>
        <time>2010-07-18T13:15:09Z</time>
      </trkpt>
      <trkpt lat="44.19649" lon="5.94172">
        <ele>510</ele>
        <time>2010-07-18T13:15:16Z</time>
      </trkpt>
      <trkpt lat="44.19639" lon="5.94189">
        <ele>505</ele>
        <time>2010-07-18T13:15:24Z</time>
      </trkpt>
      <trkpt lat="44.19637" lon="5.94199">
        <ele>504</ele>
        <time>2010-07-18T13:15:31Z</time>
      </trkpt>
      <trkpt lat="44.19606" lon="5.94199">
        <ele>504</ele>
        <time>2010-07-18T13:15:39Z</time>
      </trkpt>
      <trkpt lat="44.19579" lon="5.94195">
        <ele>504</ele>
        <time>2010-07-18T13:15:46Z</time>
      </trkpt>
      <trkpt lat="44.19547" lon="5.942">
        <ele>504</ele>
        <time>2010-07-18T13:15:54Z</time>
      </trkpt>
      <trkpt lat="44.19536" lon="5.94224">
        <ele>503</ele>
        <time>2010-07-18T13:16:02Z</time>
      </trkpt>
      <trkpt lat="44.19533" lon="5.94245">
        <ele>502</ele>
        <time>2010-07-18T13:16:09Z</time>
      </trkpt>
      <trkpt lat="44.1953" lon="5.94271">
        <ele>502</ele>
        <time>2010-07-18T13:16:16Z</time>
      </trkpt>
      <trkpt lat="44.19521" lon="5.94295">
        <ele>502</ele>
        <time>2010-07-18T13:16:24Z</time>
      </trkpt>
      <trkpt lat="44.19519" lon="5.94315">
        <ele>500</ele>
        <time>2010-07-18T13:16:31Z</time>
      </trkpt>
      <trkpt lat="44.19522" lon="5.94324">
        <ele>498</ele>
        <time>2010-07-18T13:16:39Z</time>
      </trkpt>
      <trkpt lat="44.19521" lon="5.94322">
        <ele>497</ele>
        <time>2010-07-18T13:16:53Z</time>
      </trkpt>
      <trkpt lat="44.19519" lon="5.94322">
        <ele>497</ele>
        <time>2010-07-18T13:17:11Z</time>
      </trkpt>
      <trkpt lat="44.19517" lon="5.94308">
        <ele>497</ele>
        <time>2010-07-18T13:17:18Z</time>
      </trkpt>
      <trkpt lat="44.19506" lon="5.94294">
        <ele>497</ele>
        <time>2010-07-18T13:17:27Z</time>
      </trkpt>
      <trkpt lat="44.19493" lon="5.94295">
        <ele>497</ele>
        <time>2010-07-18T13:17:34Z</time>
      </trkpt>
      <trkpt lat="44.19488" lon="5.943">
        <ele>494</ele>
        <time>2010-07-18T13:17:50Z</time>
      </trkpt>
      <trkpt lat="44.19481" lon="5.94303">
        <ele>494</ele>
        <time>2010-07-18T13:17:57Z</time>
      </trkpt>
      <trkpt lat="44.19482" lon="5.94304">
        <ele>494</ele>
        <time>2010-07-18T13:18:04Z</time>
      </trkpt>
      <trkpt lat="44.19484" lon="5.94306">
        <ele>494</ele>
        <time>2010-07-18T13:18:12Z</time>
      </trkpt>
      <trkpt lat="44.19482" lon="5.94307">
        <ele>494</ele>
        <time>2010-07-18T13:18:19Z</time>
      </trkpt>
      <trkpt lat="44.19474" lon="5.94316">
        <ele>494</ele>
        <time>2010-07-18T13:18:26Z</time>
      </trkpt>
      <trkpt lat="44.19461" lon="5.94325">
        <ele>494</ele>
        <time>2010-07-18T13:18:34Z</time>
      </trkpt>
      <trkpt lat="44.19507" lon="5.94181">
        <ele>516</ele>
        <time>2010-07-18T13:18:42Z</time>
      </trkpt>
      <trkpt lat="44.19493" lon="5.94177">
        <ele>519</ele>
        <time>2010-07-18T13:18:49Z</time>
      </trkpt>
      <trkpt lat="44.19476" lon="5.9417">
        <ele>519</ele>
        <time>2010-07-18T13:18:56Z</time>
      </trkpt>
      <trkpt lat="44.19461" lon="5.94168">
        <ele>516</ele>
        <time>2010-07-18T13:19:04Z</time>
      </trkpt>
      <trkpt lat="44.19444" lon="5.94176">
        <ele>516</ele>
        <time>2010-07-18T13:19:11Z</time>
      </trkpt>
      <trkpt lat="44.19431" lon="5.94184">
        <ele>517</ele>
        <time>2010-07-18T13:19:19Z</time>
      </trkpt>
      <trkpt lat="44.19413" lon="5.9419">
        <ele>523</ele>
        <time>2010-07-18T13:19:26Z</time>
      </trkpt>
      <trkpt lat="44.19396" lon="5.94186">
        <ele>524</ele>
        <time>2010-07-18T13:19:34Z</time>
      </trkpt>
      <trkpt lat="44.19381" lon="5.94189">
        <ele>528</ele>
        <time>2010-07-18T13:19:41Z</time>
      </trkpt>
      <trkpt lat="44.1936" lon="5.94203">
        <ele>528</ele>
        <time>2010-07-18T13:19:49Z</time>
      </trkpt>
      <trkpt lat="44.19348" lon="5.94214">
        <ele>528</ele>
        <time>2010-07-18T13:19:56Z</time>
      </trkpt>
      <trkpt lat="44.19328" lon="5.94233">
        <ele>533</ele>
        <time>2010-07-18T13:20:04Z</time>
      </trkpt>
      <trkpt lat="44.19316" lon="5.94238">
        <ele>535</ele>
        <time>2010-07-18T13:20:11Z</time>
      </trkpt>
      <trkpt lat="44.19302" lon="5.94242">
        <ele>535</ele>
        <time>2010-07-18T13:20:19Z</time>
      </trkpt>
      <trkpt lat="44.19283" lon="5.94253">
        <ele>535</ele>
        <time>2010-07-18T13:20:26Z</time>
      </trkpt>
      <trkpt lat="44.19262" lon="5.94258">
        <ele>534</ele>
        <time>2010-07-18T13:20:34Z</time>
      </trkpt>
      <trkpt lat="44.19246" lon="5.94266">
        <ele>532</ele>
        <time>2010-07-18T13:20:41Z</time>
      </trkpt>
      <trkpt lat="44.19227" lon="5.94276">
        <ele>532</ele>
        <time>2010-07-18T13:20:49Z</time>
      </trkpt>
      <trkpt lat="44.19211" lon="5.94286">
        <ele>532</ele>
        <time>2010-07-18T13:20:56Z</time>
      </trkpt>
      <trkpt lat="44.19194" lon="5.94301">
        <ele>532</ele>
        <time>2010-07-18T13:21:04Z</time>
      </trkpt>
      <trkpt lat="44.19181" lon="5.94322">
        <ele>532</ele>
        <time>2010-07-18T13:21:11Z</time>
      </trkpt>
      <trkpt lat="44.19163" lon="5.94344">
        <ele>532</ele>
        <time>2010-07-18T13:21:19Z</time>
      </trkpt>
      <trkpt lat="44.19144" lon="5.94353">
        <ele>532</ele>
        <time>2010-07-18T13:21:26Z</time>
      </trkpt>
      <trkpt lat="44.19124" lon="5.9435">
        <ele>532</ele>
        <time>2010-07-18T13:21:34Z</time>
      </trkpt>
      <trkpt lat="44.19108" lon="5.94347">
        <ele>532</ele>
        <time>2010-07-18T13:21:41Z</time>
      </trkpt>
      <trkpt lat="44.19092" lon="5.94345">
        <ele>534</ele>
        <time>2010-07-18T13:21:49Z</time>
      </trkpt>
      <trkpt lat="44.19079" lon="5.94345">
        <ele>535</ele>
        <time>2010-07-18T13:21:56Z</time>
      </trkpt>
      <trkpt lat="44.19063" lon="5.94348">
        <ele>538</ele>
        <time>2010-07-18T13:22:04Z</time>
      </trkpt>
      <trkpt lat="44.19049" lon="5.94347">
        <ele>538</ele>
        <time>2010-07-18T13:22:11Z</time>
      </trkpt>
      <trkpt lat="44.19032" lon="5.94351">
        <ele>542</ele>
        <time>2010-07-18T13:22:19Z</time>
      </trkpt>
      <trkpt lat="44.19022" lon="5.94347">
        <ele>545</ele>
        <time>2010-07-18T13:22:26Z</time>
      </trkpt>
      <trkpt lat="44.19011" lon="5.94333">
        <ele>545</ele>
        <time>2010-07-18T13:22:34Z</time>
      </trkpt>
      <trkpt lat="44.19003" lon="5.94316">
        <ele>545</ele>
        <time>2010-07-18T13:22:41Z</time>
      </trkpt>
      <trkpt lat="44.18995" lon="5.94294">
        <ele>545</ele>
        <time>2010-07-18T13:22:49Z</time>
      </trkpt>
      <trkpt lat="44.18987" lon="5.94278">
        <ele>545</ele>
        <time>2010-07-18T13:22:56Z</time>
      </trkpt>
      <trkpt lat="44.18977" lon="5.94266">
        <ele>545</ele>
        <time>2010-07-18T13:23:04Z</time>
      </trkpt>
      <trkpt lat="44.18964" lon="5.94255">
        <ele>545</ele>
        <time>2010-07-18T13:23:11Z</time>
      </trkpt>
      <trkpt lat="44.18951" lon="5.94242">
        <ele>545</ele>
        <time>2010-07-18T13:23:19Z</time>
      </trkpt>
      <trkpt lat="44.18944" lon="5.94227">
        <ele>547</ele>
        <time>2010-07-18T13:23:26Z</time>
      </trkpt>
      <trkpt lat="44.18934" lon="5.94207">
        <ele>549</ele>
        <time>2010-07-18T13:23:34Z</time>
      </trkpt>
      <trkpt lat="44.18923" lon="5.94193">
        <ele>551</ele>
        <time>2010-07-18T13:23:41Z</time>
      </trkpt>
      <trkpt lat="44.18904" lon="5.94186">
        <ele>552</ele>
        <time>2010-07-18T13:23:52Z</time>
      </trkpt>
      <trkpt lat="44.18878" lon="5.94188">
        <ele>552</ele>
        <time>2010-07-18T13:24:00Z</time>
      </trkpt>
      <trkpt lat="44.18857" lon="5.94182">
        <ele>553</ele>
        <time>2010-07-18T13:24:07Z</time>
      </trkpt>
      <trkpt lat="44.18834" lon="5.94171">
        <ele>554</ele>
        <time>2010-07-18T13:24:14Z</time>
      </trkpt>
      <trkpt lat="44.1881" lon="5.94158">
        <ele>554</ele>
        <time>2010-07-18T13:24:21Z</time>
      </trkpt>
      <trkpt lat="44.18779" lon="5.94132">
        <ele>554</ele>
        <time>2010-07-18T13:24:29Z</time>
      </trkpt>
      <trkpt lat="44.1875" lon="5.94104">
        <ele>554</ele>
        <time>2010-07-18T13:24:36Z</time>
      </trkpt>
      <trkpt lat="44.18716" lon="5.9407">
        <ele>554</ele>
        <time>2010-07-18T13:24:44Z</time>
      </trkpt>
      <trkpt lat="44.18687" lon="5.94039">
        <ele>554</ele>
        <time>2010-07-18T13:24:51Z</time>
      </trkpt>
      <trkpt lat="44.18657" lon="5.94004">
        <ele>556</ele>
        <time>2010-07-18T13:24:59Z</time>
      </trkpt>
      <trkpt lat="44.18629" lon="5.93981">
        <ele>556</ele>
        <time>2010-07-18T13:25:06Z</time>
      </trkpt>
      <trkpt lat="44.18609" lon="5.93959">
        <ele>556</ele>
        <time>2010-07-18T13:25:14Z</time>
      </trkpt>
      <trkpt lat="44.18599" lon="5.93947">
        <ele>556</ele>
        <time>2010-07-18T13:25:21Z</time>
      </trkpt>
      <trkpt lat="44.1858" lon="5.93925">
        <ele>556</ele>
        <time>2010-07-18T13:25:29Z</time>
      </trkpt>
      <trkpt lat="44.18562" lon="5.93899">
        <ele>556</ele>
        <time>2010-07-18T13:25:36Z</time>
      </trkpt>
      <trkpt lat="44.18539" lon="5.93867">
        <ele>553</ele>
        <time>2010-07-18T13:25:44Z</time>
      </trkpt>
      <trkpt lat="44.18518" lon="5.93836">
        <ele>553</ele>
        <time>2010-07-18T13:25:51Z</time>
      </trkpt>
      <trkpt lat="44.18497" lon="5.93799">
        <ele>553</ele>
        <time>2010-07-18T13:25:59Z</time>
      </trkpt>
      <trkpt lat="44.18477" lon="5.93767">
        <ele>553</ele>
        <time>2010-07-18T13:26:06Z</time>
      </trkpt>
      <trkpt lat="44.18457" lon="5.93731">
        <ele>553</ele>
        <time>2010-07-18T13:26:14Z</time>
      </trkpt>
      <trkpt lat="44.18439" lon="5.93701">
        <ele>553</ele>
        <time>2010-07-18T13:26:21Z</time>
      </trkpt>
      <trkpt lat="44.18416" lon="5.93663">
        <ele>553</ele>
        <time>2010-07-18T13:26:29Z</time>
      </trkpt>
      <trkpt lat="44.18394" lon="5.93633">
        <ele>553</ele>
        <time>2010-07-18T13:26:36Z</time>
      </trkpt>
      <trkpt lat="44.18371" lon="5.93594">
        <ele>553</ele>
        <time>2010-07-18T13:26:44Z</time>
      </trkpt>
      <trkpt lat="44.1835" lon="5.93561">
        <ele>553</ele>
        <time>2010-07-18T13:26:51Z</time>
      </trkpt>
      <trkpt lat="44.18329" lon="5.93523">
        <ele>553</ele>
        <time>2010-07-18T13:26:59Z</time>
      </trkpt>
      <trkpt lat="44.18314" lon="5.93485">
        <ele>552</ele>
        <time>2010-07-18T13:27:06Z</time>
      </trkpt>
      <trkpt lat="44.18297" lon="5.93441">
        <ele>552</ele>
        <time>2010-07-18T13:27:14Z</time>
      </trkpt>
      <trkpt lat="44.18284" lon="5.93406">
        <ele>552</ele>
        <time>2010-07-18T13:27:21Z</time>
      </trkpt>
      <trkpt lat="44.18274" lon="5.93363">
        <ele>552</ele>
        <time>2010-07-18T13:27:29Z</time>
      </trkpt>
      <trkpt lat="44.18264" lon="5.93322">
        <ele>554</ele>
        <time>2010-07-18T13:27:36Z</time>
      </trkpt>
      <trkpt lat="44.18246" lon="5.93263">
        <ele>556</ele>
        <time>2010-07-18T13:27:44Z</time>
      </trkpt>
      <trkpt lat="44.18221" lon="5.93229">
        <ele>558</ele>
        <time>2010-07-18T13:27:51Z</time>
      </trkpt>
      <trkpt lat="44.18188" lon="5.93214">
        <ele>558</ele>
        <time>2010-07-18T13:27:59Z</time>
      </trkpt>
      <trkpt lat="44.1815" lon="5.93208">
        <ele>558</ele>
        <time>2010-07-18T13:28:06Z</time>
      </trkpt>
      <trkpt lat="44.18092" lon="5.93195">
        <ele>555</ele>
        <time>2010-07-18T13:28:14Z</time>
      </trkpt>
      <trkpt lat="44.18027" lon="5.93184">
        <ele>549</ele>
        <time>2010-07-18T13:28:21Z</time>
      </trkpt>
      <trkpt lat="44.17959" lon="5.93166">
        <ele>544</ele>
        <time>2010-07-18T13:28:28Z</time>
      </trkpt>
      <trkpt lat="44.1791" lon="5.93129">
        <ele>540</ele>
        <time>2010-07-18T13:28:36Z</time>
      </trkpt>
      <trkpt lat="44.17882" lon="5.93113">
        <ele>538</ele>
        <time>2010-07-18T13:28:43Z</time>
      </trkpt>
      <trkpt lat="44.17871" lon="5.93109">
        <ele>538</ele>
        <time>2010-07-18T13:28:50Z</time>
      </trkpt>
      <trkpt lat="44.17863" lon="5.93069">
        <ele>538</ele>
        <time>2010-07-18T13:28:58Z</time>
      </trkpt>
      <trkpt lat="44.1786" lon="5.9304">
        <ele>535</ele>
        <time>2010-07-18T13:29:07Z</time>
      </trkpt>
      <trkpt lat="44.17855" lon="5.93035">
        <ele>530</ele>
        <time>2010-07-18T13:29:15Z</time>
      </trkpt>
      <trkpt lat="44.1781" lon="5.93012">
        <ele>526</ele>
        <time>2010-07-18T13:29:23Z</time>
      </trkpt>
      <trkpt lat="44.17736" lon="5.92983">
        <ele>520</ele>
        <time>2010-07-18T13:29:30Z</time>
      </trkpt>
      <trkpt lat="44.17641" lon="5.92937">
        <ele>512</ele>
        <time>2010-07-18T13:29:38Z</time>
      </trkpt>
      <trkpt lat="44.17559" lon="5.92931">
        <ele>506</ele>
        <time>2010-07-18T13:29:45Z</time>
      </trkpt>
      <trkpt lat="44.1748" lon="5.92911">
        <ele>501</ele>
        <time>2010-07-18T13:29:52Z</time>
      </trkpt>
      <trkpt lat="44.17415" lon="5.92881">
        <ele>496</ele>
        <time>2010-07-18T13:29:59Z</time>
      </trkpt>
      <trkpt lat="44.17373" lon="5.92852">
        <ele>491</ele>
        <time>2010-07-18T13:30:06Z</time>
      </trkpt>
      <trkpt lat="44.1733" lon="5.92806">
        <ele>490</ele>
        <time>2010-07-18T13:30:14Z</time>
      </trkpt>
      <trkpt lat="44.17302" lon="5.92779">
        <ele>490</ele>
        <time>2010-07-18T13:30:21Z</time>
      </trkpt>
      <trkpt lat="44.17277" lon="5.92768">
        <ele>490</ele>
        <time>2010-07-18T13:30:29Z</time>
      </trkpt>
      <trkpt lat="44.17259" lon="5.92759">
        <ele>490</ele>
        <time>2010-07-18T13:30:36Z</time>
      </trkpt>
      <trkpt lat="44.17236" lon="5.92749">
        <ele>490</ele>
        <time>2010-07-18T13:30:44Z</time>
      </trkpt>
      <trkpt lat="44.17212" lon="5.9274">
        <ele>490</ele>
        <time>2010-07-18T13:30:51Z</time>
      </trkpt>
      <trkpt lat="44.1718" lon="5.9273">
        <ele>490</ele>
        <time>2010-07-18T13:30:59Z</time>
      </trkpt>
      <trkpt lat="44.1715" lon="5.92724">
        <ele>490</ele>
        <time>2010-07-18T13:31:06Z</time>
      </trkpt>
      <trkpt lat="44.17103" lon="5.92715">
        <ele>487</ele>
        <time>2010-07-18T13:31:14Z</time>
      </trkpt>
      <trkpt lat="44.17061" lon="5.92703">
        <ele>486</ele>
        <time>2010-07-18T13:31:21Z</time>
      </trkpt>
      <trkpt lat="44.17023" lon="5.92695">
        <ele>485</ele>
        <time>2010-07-18T13:31:29Z</time>
      </trkpt>
      <trkpt lat="44.17002" lon="5.92682">
        <ele>485</ele>
        <time>2010-07-18T13:31:36Z</time>
      </trkpt>
      <trkpt lat="44.16968" lon="5.92663">
        <ele>485</ele>
        <time>2010-07-18T13:31:44Z</time>
      </trkpt>
      <trkpt lat="44.16926" lon="5.92648">
        <ele>485</ele>
        <time>2010-07-18T13:31:51Z</time>
      </trkpt>
      <trkpt lat="44.16883" lon="5.92634">
        <ele>483</ele>
        <time>2010-07-18T13:31:59Z</time>
      </trkpt>
      <trkpt lat="44.16848" lon="5.92633">
        <ele>482</ele>
        <time>2010-07-18T13:32:06Z</time>
      </trkpt>
      <trkpt lat="44.16808" lon="5.9264">
        <ele>481</ele>
        <time>2010-07-18T13:32:14Z</time>
      </trkpt>
      <trkpt lat="44.16787" lon="5.92629">
        <ele>481</ele>
        <time>2010-07-18T13:32:21Z</time>
      </trkpt>
      <trkpt lat="44.16776" lon="5.92605">
        <ele>481</ele>
        <time>2010-07-18T13:32:29Z</time>
      </trkpt>
      <trkpt lat="44.16756" lon="5.92566">
        <ele>477</ele>
        <time>2010-07-18T13:32:36Z</time>
      </trkpt>
      <trkpt lat="44.16742" lon="5.92536">
        <ele>471</ele>
        <time>2010-07-18T13:32:45Z</time>
      </trkpt>
      <trkpt lat="44.16726" lon="5.92531">
        <ele>471</ele>
        <time>2010-07-18T13:32:52Z</time>
      </trkpt>
      <trkpt lat="44.16703" lon="5.92544">
        <ele>470</ele>
        <time>2010-07-18T13:32:59Z</time>
      </trkpt>
      <trkpt lat="44.16682" lon="5.92569">
        <ele>469</ele>
        <time>2010-07-18T13:33:06Z</time>
      </trkpt>
      <trkpt lat="44.16663" lon="5.92607">
        <ele>469</ele>
        <time>2010-07-18T13:33:14Z</time>
      </trkpt>
      <trkpt lat="44.16652" lon="5.92647">
        <ele>469</ele>
        <time>2010-07-18T13:33:21Z</time>
      </trkpt>
      <trkpt lat="44.16637" lon="5.92698">
        <ele>469</ele>
        <time>2010-07-18T13:33:29Z</time>
      </trkpt>
      <trkpt lat="44.16624" lon="5.92743">
        <ele>469</ele>
        <time>2010-07-18T13:33:36Z</time>
      </trkpt>
      <trkpt lat="44.16601" lon="5.92795">
        <ele>467</ele>
        <time>2010-07-18T13:33:44Z</time>
      </trkpt>
      <trkpt lat="44.16579" lon="5.92842">
        <ele>467</ele>
        <time>2010-07-18T13:33:51Z</time>
      </trkpt>
      <trkpt lat="44.16563" lon="5.92894">
        <ele>467</ele>
        <time>2010-07-18T13:33:59Z</time>
      </trkpt>
      <trkpt lat="44.16551" lon="5.92942">
        <ele>467</ele>
        <time>2010-07-18T13:34:06Z</time>
      </trkpt>
      <trkpt lat="44.16539" lon="5.92986">
        <ele>467</ele>
        <time>2010-07-18T13:34:14Z</time>
      </trkpt>
      <trkpt lat="44.16524" lon="5.93023">
        <ele>469</ele>
        <time>2010-07-18T13:34:21Z</time>
      </trkpt>
      <trkpt lat="44.16504" lon="5.9306">
        <ele>474</ele>
        <time>2010-07-18T13:34:29Z</time>
      </trkpt>
      <trkpt lat="44.16479" lon="5.93094">
        <ele>475</ele>
        <time>2010-07-18T13:34:36Z</time>
      </trkpt>
      <trkpt lat="44.16441" lon="5.9313">
        <ele>475</ele>
        <time>2010-07-18T13:34:44Z</time>
      </trkpt>
      <trkpt lat="44.16405" lon="5.93172">
        <ele>471</ele>
        <time>2010-07-18T13:34:51Z</time>
      </trkpt>
      <trkpt lat="44.16358" lon="5.93221">
        <ele>465</ele>
        <time>2010-07-18T13:34:59Z</time>
      </trkpt>
      <trkpt lat="44.16312" lon="5.93269">
        <ele>463</ele>
        <time>2010-07-18T13:35:06Z</time>
      </trkpt>
      <trkpt lat="44.16292" lon="5.93354">
        <ele>460</ele>
        <time>2010-07-18T13:35:14Z</time>
      </trkpt>
      <trkpt lat="44.16302" lon="5.93431">
        <ele>459</ele>
        <time>2010-07-18T13:35:21Z</time>
      </trkpt>
      <trkpt lat="44.16309" lon="5.93509">
        <ele>458</ele>
        <time>2010-07-18T13:35:29Z</time>
      </trkpt>
      <trkpt lat="44.16311" lon="5.93562">
        <ele>458</ele>
        <time>2010-07-18T13:35:36Z</time>
      </trkpt>
      <trkpt lat="44.16306" lon="5.93614">
        <ele>458</ele>
        <time>2010-07-18T13:35:44Z</time>
      </trkpt>
      <trkpt lat="44.16291" lon="5.93659">
        <ele>458</ele>
        <time>2010-07-18T13:35:51Z</time>
      </trkpt>
      <trkpt lat="44.16267" lon="5.93704">
        <ele>458</ele>
        <time>2010-07-18T13:35:59Z</time>
      </trkpt>
      <trkpt lat="44.16248" lon="5.93743">
        <ele>458</ele>
        <time>2010-07-18T13:36:06Z</time>
      </trkpt>
      <trkpt lat="44.1623" lon="5.93795">
        <ele>458</ele>
        <time>2010-07-18T13:36:14Z</time>
      </trkpt>
      <trkpt lat="44.16215" lon="5.93835">
        <ele>458</ele>
        <time>2010-07-18T13:36:21Z</time>
      </trkpt>
      <trkpt lat="44.16192" lon="5.93886">
        <ele>458</ele>
        <time>2010-07-18T13:36:29Z</time>
      </trkpt>
      <trkpt lat="44.16185" lon="5.93933">
        <ele>458</ele>
        <time>2010-07-18T13:36:36Z</time>
      </trkpt>
      <trkpt lat="44.16182" lon="5.93968">
        <ele>458</ele>
        <time>2010-07-18T13:36:44Z</time>
      </trkpt>
      <trkpt lat="44.16181" lon="5.94053">
        <ele>458</ele>
        <time>2010-07-18T13:36:52Z</time>
      </trkpt>
      <trkpt lat="44.16184" lon="5.94112">
        <ele>458</ele>
        <time>2010-07-18T13:36:59Z</time>
      </trkpt>
      <trkpt lat="44.16179" lon="5.94172">
        <ele>458</ele>
        <time>2010-07-18T13:37:06Z</time>
      </trkpt>
      <trkpt lat="44.16178" lon="5.94243">
        <ele>458</ele>
        <time>2010-07-18T13:37:14Z</time>
      </trkpt>
      <trkpt lat="44.16181" lon="5.94315">
        <ele>458</ele>
        <time>2010-07-18T13:37:21Z</time>
      </trkpt>
      <trkpt lat="44.1618" lon="5.94402">
        <ele>457</ele>
        <time>2010-07-18T13:37:29Z</time>
      </trkpt>
      <trkpt lat="44.16181" lon="5.94453">
        <ele>455</ele>
        <time>2010-07-18T13:37:36Z</time>
      </trkpt>
      <trkpt lat="44.16181" lon="5.9449">
        <ele>451</ele>
        <time>2010-07-18T13:37:45Z</time>
      </trkpt>
      <trkpt lat="44.16182" lon="5.94473">
        <ele>451</ele>
        <time>2010-07-18T13:37:52Z</time>
      </trkpt>
      <trkpt lat="44.16182" lon="5.94454">
        <ele>451</ele>
        <time>2010-07-18T13:37:59Z</time>
      </trkpt>
      <trkpt lat="44.16185" lon="5.9444">
        <ele>451</ele>
        <time>2010-07-18T13:38:06Z</time>
      </trkpt>
      <trkpt lat="44.16189" lon="5.94457">
        <ele>451</ele>
        <time>2010-07-18T13:38:14Z</time>
      </trkpt>
      <trkpt lat="44.16199" lon="5.94488">
        <ele>452</ele>
        <time>2010-07-18T13:38:21Z</time>
      </trkpt>
      <trkpt lat="44.16186" lon="5.94509">
        <ele>452</ele>
        <time>2010-07-18T13:38:29Z</time>
      </trkpt>
      <trkpt lat="44.16169" lon="5.94523">
        <ele>452</ele>
        <time>2010-07-18T13:38:36Z</time>
      </trkpt>
      <trkpt lat="44.16155" lon="5.94534">
        <ele>452</ele>
        <time>2010-07-18T13:38:44Z</time>
      </trkpt>
      <trkpt lat="44.16153" lon="5.94551">
        <ele>452</ele>
        <time>2010-07-18T13:38:51Z</time>
      </trkpt>
      <trkpt lat="44.16158" lon="5.94579">
        <ele>452</ele>
        <time>2010-07-18T13:38:59Z</time>
      </trkpt>
      <trkpt lat="44.16162" lon="5.94605">
        <ele>452</ele>
        <time>2010-07-18T13:39:06Z</time>
      </trkpt>
      <trkpt lat="44.16169" lon="5.94636">
        <ele>452</ele>
        <time>2010-07-18T13:39:14Z</time>
      </trkpt>
      <trkpt lat="44.16175" lon="5.94666">
        <ele>453</ele>
        <time>2010-07-18T13:39:21Z</time>
      </trkpt>
      <trkpt lat="44.16183" lon="5.94701">
        <ele>453</ele>
        <time>2010-07-18T13:39:28Z</time>
      </trkpt>
      <trkpt lat="44.16191" lon="5.94739">
        <ele>453</ele>
        <time>2010-07-18T13:39:35Z</time>
      </trkpt>
      <trkpt lat="44.16198" lon="5.94787">
        <ele>453</ele>
        <time>2010-07-18T13:39:42Z</time>
      </trkpt>
      <trkpt lat="44.162" lon="5.94832">
        <ele>453</ele>
        <time>2010-07-18T13:39:49Z</time>
      </trkpt>
      <trkpt lat="44.16198" lon="5.94879">
        <ele>453</ele>
        <time>2010-07-18T13:39:56Z</time>
      </trkpt>
      <trkpt lat="44.16191" lon="5.94905">
        <ele>453</ele>
        <time>2010-07-18T13:40:03Z</time>
      </trkpt>
      <trkpt lat="44.16182" lon="5.94917">
        <ele>454</ele>
        <time>2010-07-18T13:40:10Z</time>
      </trkpt>
      <trkpt lat="44.16167" lon="5.94934">
        <ele>455</ele>
        <time>2010-07-18T13:40:17Z</time>
      </trkpt>
      <trkpt lat="44.16159" lon="5.94951">
        <ele>459</ele>
        <time>2010-07-18T13:40:24Z</time>
      </trkpt>
      <trkpt lat="44.16148" lon="5.94964">
        <ele>463</ele>
        <time>2010-07-18T13:40:31Z</time>
      </trkpt>
      <trkpt lat="44.16134" lon="5.94978">
        <ele>464</ele>
        <time>2010-07-18T13:40:38Z</time>
      </trkpt>
      <trkpt lat="44.16118" lon="5.94991">
        <ele>464</ele>
        <time>2010-07-18T13:40:45Z</time>
      </trkpt>
      <trkpt lat="44.16098" lon="5.95003">
        <ele>464</ele>
        <time>2010-07-18T13:40:52Z</time>
      </trkpt>
      <trkpt lat="44.16077" lon="5.95015">
        <ele>464</ele>
        <time>2010-07-18T13:40:59Z</time>
      </trkpt>
      <trkpt lat="44.16055" lon="5.95027">
        <ele>464</ele>
        <time>2010-07-18T13:41:06Z</time>
      </trkpt>
      <trkpt lat="44.16031" lon="5.95034">
        <ele>464</ele>
        <time>2010-07-18T13:41:13Z</time>
      </trkpt>
      <trkpt lat="44.16004" lon="5.95038">
        <ele>464</ele>
        <time>2010-07-18T13:41:20Z</time>
      </trkpt>
      <trkpt lat="44.1598" lon="5.95027">
        <ele>464</ele>
        <time>2010-07-18T13:41:27Z</time>
      </trkpt>
      <trkpt lat="44.15961" lon="5.95007">
        <ele>464</ele>
        <time>2010-07-18T13:41:34Z</time>
      </trkpt>
      <trkpt lat="44.15949" lon="5.94985">
        <ele>464</ele>
        <time>2010-07-18T13:41:41Z</time>
      </trkpt>
      <trkpt lat="44.15929" lon="5.94975">
        <ele>465</ele>
        <time>2010-07-18T13:41:48Z</time>
      </trkpt>
      <trkpt lat="44.15919" lon="5.9496">
        <ele>466</ele>
        <time>2010-07-18T13:41:55Z</time>
      </trkpt>
      <trkpt lat="44.15911" lon="5.94943">
        <ele>467</ele>
        <time>2010-07-18T13:42:02Z</time>
      </trkpt>
      <trkpt lat="44.15908" lon="5.94924">
        <ele>469</ele>
        <time>2010-07-18T13:42:09Z</time>
      </trkpt>
      <trkpt lat="44.15905" lon="5.94904">
        <ele>472</ele>
        <time>2010-07-18T13:42:16Z</time>
      </trkpt>
      <trkpt lat="44.15897" lon="5.94884">
        <ele>472</ele>
        <time>2010-07-18T13:42:23Z</time>
      </trkpt>
      <trkpt lat="44.15891" lon="5.94865">
        <ele>472</ele>
        <time>2010-07-18T13:42:30Z</time>
      </trkpt>
      <trkpt lat="44.1589" lon="5.94846">
        <ele>474</ele>
        <time>2010-07-18T13:42:37Z</time>
      </trkpt>
      <trkpt lat="44.15885" lon="5.94829">
        <ele>475</ele>
        <time>2010-07-18T13:42:44Z</time>
      </trkpt>
      <trkpt lat="44.15882" lon="5.94813">
        <ele>475</ele>
        <time>2010-07-18T13:42:51Z</time>
      </trkpt>
      <trkpt lat="44.15881" lon="5.94796">
        <ele>477</ele>
        <time>2010-07-18T13:42:58Z</time>
      </trkpt>
      <trkpt lat="44.15878" lon="5.9478">
        <ele>478</ele>
        <time>2010-07-18T13:43:05Z</time>
      </trkpt>
      <trkpt lat="44.15878" lon="5.94769">
        <ele>478</ele>
        <time>2010-07-18T13:43:12Z</time>
      </trkpt>
      <trkpt lat="44.15877" lon="5.94761">
        <ele>480</ele>
        <time>2010-07-18T13:43:19Z</time>
      </trkpt>
      <trkpt lat="44.15872" lon="5.94752">
        <ele>480</ele>
        <time>2010-07-18T13:43:26Z</time>
      </trkpt>
      <trkpt lat="44.15867" lon="5.94741">
        <ele>482</ele>
        <time>2010-07-18T13:43:34Z</time>
      </trkpt>
      <trkpt lat="44.15862" lon="5.94731">
        <ele>486</ele>
        <time>2010-07-18T13:43:42Z</time>
      </trkpt>
      <trkpt lat="44.15856" lon="5.94721">
        <ele>487</ele>
        <time>2010-07-18T13:43:50Z</time>
      </trkpt>
      <trkpt lat="44.15851" lon="5.94711">
        <ele>489</ele>
        <time>2010-07-18T13:43:57Z</time>
      </trkpt>
      <trkpt lat="44.15844" lon="5.947">
        <ele>489</ele>
        <time>2010-07-18T13:44:04Z</time>
      </trkpt>
      <trkpt lat="44.15837" lon="5.94689">
        <ele>490</ele>
        <time>2010-07-18T13:44:11Z</time>
      </trkpt>
      <trkpt lat="44.15831" lon="5.94675">
        <ele>492</ele>
        <time>2010-07-18T13:44:18Z</time>
      </trkpt>
      <trkpt lat="44.15825" lon="5.94663">
        <ele>494</ele>
        <time>2010-07-18T13:44:25Z</time>
      </trkpt>
      <trkpt lat="44.1582" lon="5.94649">
        <ele>495</ele>
        <time>2010-07-18T13:44:32Z</time>
      </trkpt>
      <trkpt lat="44.15816" lon="5.94635">
        <ele>497</ele>
        <time>2010-07-18T13:44:39Z</time>
      </trkpt>
      <trkpt lat="44.15812" lon="5.94623">
        <ele>499</ele>
        <time>2010-07-18T13:44:46Z</time>
      </trkpt>
      <trkpt lat="44.15809" lon="5.94612">
        <ele>500</ele>
        <time>2010-07-18T13:44:53Z</time>
      </trkpt>
      <trkpt lat="44.15808" lon="5.94608">
        <ele>500</ele>
        <time>2010-07-18T13:45:09Z</time>
      </trkpt>
      <trkpt lat="44.15805" lon="5.94608">
        <ele>500</ele>
        <time>2010-07-18T13:45:31Z</time>
      </trkpt>
      <trkpt lat="44.15804" lon="5.94609">
        <ele>498</ele>
        <time>2010-07-18T13:45:50Z</time>
      </trkpt>
      <trkpt lat="44.15806" lon="5.94611">
        <ele>498</ele>
        <time>2010-07-18T13:46:04Z</time>
      </trkpt>
      <trkpt lat="44.15807" lon="5.94611">
        <ele>498</ele>
        <time>2010-07-18T13:46:14Z</time>
      </trkpt>
      <trkpt lat="44.15809" lon="5.94609">
        <ele>499</ele>
        <time>2010-07-18T13:46:25Z</time>
      </trkpt>
      <trkpt lat="44.15807" lon="5.94606">
        <ele>499</ele>
        <time>2010-07-18T13:46:34Z</time>
      </trkpt>
      <trkpt lat="44.15807" lon="5.94603">
        <ele>499</ele>
        <time>2010-07-18T13:46:49Z</time>
      </trkpt>
      <trkpt lat="44.15807" lon="5.94602">
        <ele>499</ele>
        <time>2010-07-18T13:47:01Z</time>
      </trkpt>
      <trkpt lat="44.15808" lon="5.946">
        <ele>499</ele>
        <time>2010-07-18T13:47:13Z</time>
      </trkpt>
      <trkpt lat="44.15808" lon="5.94598">
        <ele>499</ele>
        <time>2010-07-18T13:47:27Z</time>
      </trkpt>
      <trkpt lat="44.15804" lon="5.94588">
        <ele>500</ele>
        <time>2010-07-18T13:47:34Z</time>
      </trkpt>
      <trkpt lat="44.15802" lon="5.94576">
        <ele>501</ele>
        <time>2010-07-18T13:47:41Z</time>
      </trkpt>
      <trkpt lat="44.158" lon="5.94565">
        <ele>503</ele>
        <time>2010-07-18T13:47:48Z</time>
      </trkpt>
      <trkpt lat="44.15797" lon="5.94554">
        <ele>503</ele>
        <time>2010-07-18T13:47:55Z</time>
      </trkpt>
      <trkpt lat="44.15797" lon="5.94549">
        <ele>504</ele>
        <time>2010-07-18T13:48:02Z</time>
      </trkpt>
      <trkpt lat="44.15797" lon="5.94542">
        <ele>507</ele>
        <time>2010-07-18T13:48:10Z</time>
      </trkpt>
      <trkpt lat="44.15794" lon="5.94536">
        <ele>508</ele>
        <time>2010-07-18T13:48:17Z</time>
      </trkpt>
      <trkpt lat="44.15791" lon="5.94528">
        <ele>508</ele>
        <time>2010-07-18T13:48:24Z</time>
      </trkpt>
      <trkpt lat="44.15792" lon="5.94521">
        <ele>509</ele>
        <time>2010-07-18T13:48:33Z</time>
      </trkpt>
      <trkpt lat="44.15792" lon="5.94511">
        <ele>510</ele>
        <time>2010-07-18T13:48:41Z</time>
      </trkpt>
      <trkpt lat="44.15792" lon="5.94502">
        <ele>512</ele>
        <time>2010-07-18T13:48:48Z</time>
      </trkpt>
      <trkpt lat="44.15792" lon="5.94493">
        <ele>515</ele>
        <time>2010-07-18T13:48:57Z</time>
      </trkpt>
      <trkpt lat="44.15793" lon="5.94485">
        <ele>517</ele>
        <time>2010-07-18T13:49:05Z</time>
      </trkpt>
      <trkpt lat="44.15792" lon="5.94475">
        <ele>518</ele>
        <time>2010-07-18T13:49:13Z</time>
      </trkpt>
      <trkpt lat="44.15795" lon="5.94466">
        <ele>518</ele>
        <time>2010-07-18T13:49:21Z</time>
      </trkpt>
      <trkpt lat="44.15796" lon="5.94457">
        <ele>518</ele>
        <time>2010-07-18T13:49:29Z</time>
      </trkpt>
      <trkpt lat="44.15794" lon="5.94448">
        <ele>521</ele>
        <time>2010-07-18T13:49:37Z</time>
      </trkpt>
      <trkpt lat="44.15792" lon="5.94438">
        <ele>523</ele>
        <time>2010-07-18T13:49:45Z</time>
      </trkpt>
      <trkpt lat="44.1579" lon="5.94434">
        <ele>524</ele>
        <time>2010-07-18T13:49:57Z</time>
      </trkpt>
      <trkpt lat="44.15786" lon="5.94424">
        <ele>524</ele>
        <time>2010-07-18T13:50:04Z</time>
      </trkpt>
      <trkpt lat="44.15781" lon="5.94413">
        <ele>525</ele>
        <time>2010-07-18T13:50:11Z</time>
      </trkpt>
      <trkpt lat="44.15779" lon="5.94402">
        <ele>527</ele>
        <time>2010-07-18T13:50:18Z</time>
      </trkpt>
      <trkpt lat="44.15778" lon="5.9439">
        <ele>529</ele>
        <time>2010-07-18T13:50:26Z</time>
      </trkpt>
      <trkpt lat="44.15776" lon="5.94378">
        <ele>531</ele>
        <time>2010-07-18T13:50:34Z</time>
      </trkpt>
      <trkpt lat="44.15773" lon="5.94367">
        <ele>533</ele>
        <time>2010-07-18T13:50:42Z</time>
      </trkpt>
      <trkpt lat="44.15768" lon="5.94358">
        <ele>534</ele>
        <time>2010-07-18T13:50:49Z</time>
      </trkpt>
      <trkpt lat="44.15763" lon="5.94348">
        <ele>535</ele>
        <time>2010-07-18T13:50:56Z</time>
      </trkpt>
      <trkpt lat="44.15758" lon="5.94338">
        <ele>537</ele>
        <time>2010-07-18T13:51:04Z</time>
      </trkpt>
      <trkpt lat="44.15755" lon="5.94328">
        <ele>539</ele>
        <time>2010-07-18T13:51:11Z</time>
      </trkpt>
      <trkpt lat="44.15752" lon="5.94315">
        <ele>541</ele>
        <time>2010-07-18T13:51:19Z</time>
      </trkpt>
      <trkpt lat="44.15749" lon="5.94304">
        <ele>542</ele>
        <time>2010-07-18T13:51:26Z</time>
      </trkpt>
      <trkpt lat="44.15746" lon="5.94291">
        <ele>545</ele>
        <time>2010-07-18T13:51:34Z</time>
      </trkpt>
      <trkpt lat="44.15742" lon="5.94279">
        <ele>545</ele>
        <time>2010-07-18T13:51:41Z</time>
      </trkpt>
      <trkpt lat="44.1574" lon="5.94268">
        <ele>546</ele>
        <time>2010-07-18T13:51:48Z</time>
      </trkpt>
      <trkpt lat="44.15736" lon="5.94254">
        <ele>548</ele>
        <time>2010-07-18T13:51:56Z</time>
      </trkpt>
      <trkpt lat="44.15733" lon="5.94241">
        <ele>549</ele>
        <time>2010-07-18T13:52:04Z</time>
      </trkpt>
      <trkpt lat="44.15731" lon="5.94229">
        <ele>550</ele>
        <time>2010-07-18T13:52:11Z</time>
      </trkpt>
      <trkpt lat="44.15727" lon="5.94216">
        <ele>552</ele>
        <time>2010-07-18T13:52:19Z</time>
      </trkpt>
      <trkpt lat="44.15724" lon="5.94203">
        <ele>553</ele>
        <time>2010-07-18T13:52:26Z</time>
      </trkpt>
      <trkpt lat="44.15721" lon="5.94191">
        <ele>553</ele>
        <time>2010-07-18T13:52:33Z</time>
      </trkpt>
      <trkpt lat="44.15714" lon="5.94178">
        <ele>553</ele>
        <time>2010-07-18T13:52:41Z</time>
      </trkpt>
      <trkpt lat="44.15707" lon="5.94166">
        <ele>555</ele>
        <time>2010-07-18T13:52:49Z</time>
      </trkpt>
      <trkpt lat="44.15701" lon="5.94156">
        <ele>556</ele>
        <time>2010-07-18T13:52:56Z</time>
      </trkpt>
      <trkpt lat="44.15693" lon="5.94146">
        <ele>558</ele>
        <time>2010-07-18T13:53:03Z</time>
      </trkpt>
      <trkpt lat="44.15683" lon="5.94141">
        <ele>560</ele>
        <time>2010-07-18T13:53:11Z</time>
      </trkpt>
      <trkpt lat="44.15672" lon="5.94141">
        <ele>560</ele>
        <time>2010-07-18T13:53:18Z</time>
      </trkpt>
      <trkpt lat="44.15659" lon="5.94145">
        <ele>560</ele>
        <time>2010-07-18T13:53:26Z</time>
      </trkpt>
      <trkpt lat="44.15648" lon="5.94148">
        <ele>559</ele>
        <time>2010-07-18T13:53:33Z</time>
      </trkpt>
      <trkpt lat="44.15637" lon="5.94152">
        <ele>558</ele>
        <time>2010-07-18T13:53:42Z</time>
      </trkpt>
      <trkpt lat="44.15624" lon="5.94154">
        <ele>553</ele>
        <time>2010-07-18T13:53:49Z</time>
      </trkpt>
      <trkpt lat="44.15618" lon="5.9416">
        <ele>552</ele>
        <time>2010-07-18T13:53:56Z</time>
      </trkpt>
      <trkpt lat="44.15606" lon="5.94167">
        <ele>552</ele>
        <time>2010-07-18T13:54:05Z</time>
      </trkpt>
      <trkpt lat="44.15598" lon="5.9417">
        <ele>553</ele>
        <time>2010-07-18T13:54:12Z</time>
      </trkpt>
      <trkpt lat="44.15591" lon="5.94172">
        <ele>560</ele>
        <time>2010-07-18T13:54:28Z</time>
      </trkpt>
      <trkpt lat="44.1558" lon="5.94175">
        <ele>561</ele>
        <time>2010-07-18T13:54:36Z</time>
      </trkpt>
      <trkpt lat="44.15569" lon="5.94177">
        <ele>563</ele>
        <time>2010-07-18T13:54:45Z</time>
      </trkpt>
      <trkpt lat="44.15563" lon="5.94182">
        <ele>565</ele>
        <time>2010-07-18T13:54:52Z</time>
      </trkpt>
      <trkpt lat="44.15559" lon="5.94189">
        <ele>569</ele>
        <time>2010-07-18T13:54:59Z</time>
      </trkpt>
      <trkpt lat="44.15553" lon="5.94198">
        <ele>571</ele>
        <time>2010-07-18T13:55:06Z</time>
      </trkpt>
      <trkpt lat="44.15547" lon="5.94209">
        <ele>571</ele>
        <time>2010-07-18T13:55:14Z</time>
      </trkpt>
      <trkpt lat="44.15542" lon="5.94217">
        <ele>571</ele>
        <time>2010-07-18T13:55:21Z</time>
      </trkpt>
      <trkpt lat="44.15539" lon="5.94228">
        <ele>572</ele>
        <time>2010-07-18T13:55:29Z</time>
      </trkpt>
      <trkpt lat="44.15538" lon="5.94233">
        <ele>577</ele>
        <time>2010-07-18T13:55:38Z</time>
      </trkpt>
      <trkpt lat="44.15535" lon="5.94233">
        <ele>578</ele>
        <time>2010-07-18T13:55:47Z</time>
      </trkpt>
      <trkpt lat="44.15534" lon="5.94238">
        <ele>578</ele>
        <time>2010-07-18T13:55:54Z</time>
      </trkpt>
      <trkpt lat="44.15526" lon="5.94248">
        <ele>579</ele>
        <time>2010-07-18T13:56:01Z</time>
      </trkpt>
      <trkpt lat="44.1552" lon="5.94257">
        <ele>579</ele>
        <time>2010-07-18T13:56:08Z</time>
      </trkpt>
      <trkpt lat="44.15511" lon="5.94265">
        <ele>579</ele>
        <time>2010-07-18T13:56:16Z</time>
      </trkpt>
      <trkpt lat="44.15508" lon="5.94276">
        <ele>581</ele>
        <time>2010-07-18T13:56:24Z</time>
      </trkpt>
      <trkpt lat="44.155" lon="5.94284">
        <ele>583</ele>
        <time>2010-07-18T13:56:32Z</time>
      </trkpt>
      <trkpt lat="44.15495" lon="5.94276">
        <ele>583</ele>
        <time>2010-07-18T13:56:39Z</time>
      </trkpt>
      <trkpt lat="44.155" lon="5.94267">
        <ele>586</ele>
        <time>2010-07-18T13:56:47Z</time>
      </trkpt>
      <trkpt lat="44.15508" lon="5.94259">
        <ele>589</ele>
        <time>2010-07-18T13:56:55Z</time>
      </trkpt>
      <trkpt lat="44.15515" lon="5.94248">
        <ele>594</ele>
        <time>2010-07-18T13:57:03Z</time>
      </trkpt>
      <trkpt lat="44.15516" lon="5.94236">
        <ele>594</ele>
        <time>2010-07-18T13:57:10Z</time>
      </trkpt>
      <trkpt lat="44.15517" lon="5.9422">
        <ele>596</ele>
        <time>2010-07-18T13:57:18Z</time>
      </trkpt>
      <trkpt lat="44.15519" lon="5.94208">
        <ele>599</ele>
        <time>2010-07-18T13:57:25Z</time>
      </trkpt>
      <trkpt lat="44.1552" lon="5.94194">
        <ele>602</ele>
        <time>2010-07-18T13:57:32Z</time>
      </trkpt>
      <trkpt lat="44.1552" lon="5.94178">
        <ele>604</ele>
        <time>2010-07-18T13:57:39Z</time>
      </trkpt>
      <trkpt lat="44.15518" lon="5.94164">
        <ele>604</ele>
        <time>2010-07-18T13:57:46Z</time>
      </trkpt>
      <trkpt lat="44.15518" lon="5.94149">
        <ele>606</ele>
        <time>2010-07-18T13:57:54Z</time>
      </trkpt>
      <trkpt lat="44.15519" lon="5.94136">
        <ele>608</ele>
        <time>2010-07-18T13:58:01Z</time>
      </trkpt>
      <trkpt lat="44.15515" lon="5.94121">
        <ele>610</ele>
        <time>2010-07-18T13:58:09Z</time>
      </trkpt>
      <trkpt lat="44.15515" lon="5.94109">
        <ele>612</ele>
        <time>2010-07-18T13:58:16Z</time>
      </trkpt>
      <trkpt lat="44.15515" lon="5.94095">
        <ele>614</ele>
        <time>2010-07-18T13:58:24Z</time>
      </trkpt>
      <trkpt lat="44.15516" lon="5.94082">
        <ele>615</ele>
        <time>2010-07-18T13:58:31Z</time>
      </trkpt>
      <trkpt lat="44.15516" lon="5.94068">
        <ele>615</ele>
        <time>2010-07-18T13:58:39Z</time>
      </trkpt>
      <trkpt lat="44.15518" lon="5.94055">
        <ele>615</ele>
        <time>2010-07-18T13:58:46Z</time>
      </trkpt>
      <trkpt lat="44.1552" lon="5.94042">
        <ele>617</ele>
        <time>2010-07-18T13:58:54Z</time>
      </trkpt>
      <trkpt lat="44.15519" lon="5.9403">
        <ele>617</ele>
        <time>2010-07-18T13:59:01Z</time>
      </trkpt>
      <trkpt lat="44.15517" lon="5.94025">
        <ele>618</ele>
        <time>2010-07-18T13:59:10Z</time>
      </trkpt>
      <trkpt lat="44.15516" lon="5.94022">
        <ele>622</ele>
        <time>2010-07-18T13:59:21Z</time>
      </trkpt>
      <trkpt lat="44.15506" lon="5.94019">
        <ele>622</ele>
        <time>2010-07-18T13:59:29Z</time>
      </trkpt>
      <trkpt lat="44.15497" lon="5.94015">
        <ele>622</ele>
        <time>2010-07-18T13:59:37Z</time>
      </trkpt>
      <trkpt lat="44.15497" lon="5.94022">
        <ele>622</ele>
        <time>2010-07-18T13:59:44Z</time>
      </trkpt>
      <trkpt lat="44.15503" lon="5.9404">
        <ele>622</ele>
        <time>2010-07-18T13:59:51Z</time>
      </trkpt>
      <trkpt lat="44.15508" lon="5.94065">
        <ele>627</ele>
        <time>2010-07-18T13:59:59Z</time>
      </trkpt>
      <trkpt lat="44.15497" lon="5.94086">
        <ele>629</ele>
        <time>2010-07-18T14:00:06Z</time>
      </trkpt>
      <trkpt lat="44.15496" lon="5.94114">
        <ele>625</ele>
        <time>2010-07-18T14:00:14Z</time>
      </trkpt>
      <trkpt lat="44.15493" lon="5.9414">
        <ele>623</ele>
        <time>2010-07-18T14:00:21Z</time>
      </trkpt>
      <trkpt lat="44.15492" lon="5.9417">
        <ele>622</ele>
        <time>2010-07-18T14:00:29Z</time>
      </trkpt>
      <trkpt lat="44.15486" lon="5.94198">
        <ele>616</ele>
        <time>2010-07-18T14:00:36Z</time>
      </trkpt>
      <trkpt lat="44.15471" lon="5.94222">
        <ele>616</ele>
        <time>2010-07-18T14:00:44Z</time>
      </trkpt>
      <trkpt lat="44.15458" lon="5.94234">
        <ele>616</ele>
        <time>2010-07-18T14:00:51Z</time>
      </trkpt>
      <trkpt lat="44.15451" lon="5.94268">
        <ele>616</ele>
        <time>2010-07-18T14:00:59Z</time>
      </trkpt>
      <trkpt lat="44.15447" lon="5.94306">
        <ele>616</ele>
        <time>2010-07-18T14:01:06Z</time>
      </trkpt>
      <trkpt lat="44.15447" lon="5.9435">
        <ele>611</ele>
        <time>2010-07-18T14:01:14Z</time>
      </trkpt>
      <trkpt lat="44.15445" lon="5.94387">
        <ele>609</ele>
        <time>2010-07-18T14:01:21Z</time>
      </trkpt>
      <trkpt lat="44.15434" lon="5.94426">
        <ele>610</ele>
        <time>2010-07-18T14:01:29Z</time>
      </trkpt>
      <trkpt lat="44.1543" lon="5.94472">
        <ele>610</ele>
        <time>2010-07-18T14:01:36Z</time>
      </trkpt>
      <trkpt lat="44.15405" lon="5.94485">
        <ele>610</ele>
        <time>2010-07-18T14:01:44Z</time>
      </trkpt>
      <trkpt lat="44.15392" lon="5.94494">
        <ele>611</ele>
        <time>2010-07-18T14:01:51Z</time>
      </trkpt>
      <trkpt lat="44.1538" lon="5.94506">
        <ele>611</ele>
        <time>2010-07-18T14:01:59Z</time>
      </trkpt>
      <trkpt lat="44.15375" lon="5.94519">
        <ele>614</ele>
        <time>2010-07-18T14:02:06Z</time>
      </trkpt>
      <trkpt lat="44.15363" lon="5.94533">
        <ele>616</ele>
        <time>2010-07-18T14:02:14Z</time>
      </trkpt>
      <trkpt lat="44.15345" lon="5.94527">
        <ele>619</ele>
        <time>2010-07-18T14:02:21Z</time>
      </trkpt>
      <trkpt lat="44.15322" lon="5.94515">
        <ele>621</ele>
        <time>2010-07-18T14:02:29Z</time>
      </trkpt>
      <trkpt lat="44.1531" lon="5.94532">
        <ele>621</ele>
        <time>2010-07-18T14:02:36Z</time>
      </trkpt>
      <trkpt lat="44.15309" lon="5.94545">
        <ele>621</ele>
        <time>2010-07-18T14:02:44Z</time>
      </trkpt>
      <trkpt lat="44.15306" lon="5.94555">
        <ele>621</ele>
        <time>2010-07-18T14:02:51Z</time>
      </trkpt>
      <trkpt lat="44.15308" lon="5.94568">
        <ele>621</ele>
        <time>2010-07-18T14:02:58Z</time>
      </trkpt>
      <trkpt lat="44.15317" lon="5.94593">
        <ele>624</ele>
        <time>2010-07-18T14:03:06Z</time>
      </trkpt>
      <trkpt lat="44.15319" lon="5.9462">
        <ele>625</ele>
        <time>2010-07-18T14:03:14Z</time>
      </trkpt>
      <trkpt lat="44.15319" lon="5.94646">
        <ele>626</ele>
        <time>2010-07-18T14:03:21Z</time>
      </trkpt>
      <trkpt lat="44.15309" lon="5.94678">
        <ele>626</ele>
        <time>2010-07-18T14:03:29Z</time>
      </trkpt>
      <trkpt lat="44.15291" lon="5.94707">
        <ele>626</ele>
        <time>2010-07-18T14:03:36Z</time>
      </trkpt>
      <trkpt lat="44.15272" lon="5.94735">
        <ele>626</ele>
        <time>2010-07-18T14:03:44Z</time>
      </trkpt>
      <trkpt lat="44.15248" lon="5.94757">
        <ele>626</ele>
        <time>2010-07-18T14:03:51Z</time>
      </trkpt>
      <trkpt lat="44.15203" lon="5.94758">
        <ele>624</ele>
        <time>2010-07-18T14:03:59Z</time>
      </trkpt>
      <trkpt lat="44.15173" lon="5.94761">
        <ele>618</ele>
        <time>2010-07-18T14:04:06Z</time>
      </trkpt>
      <trkpt lat="44.15179" lon="5.94763">
        <ele>616</ele>
        <time>2010-07-18T14:04:16Z</time>
      </trkpt>
      <trkpt lat="44.15179" lon="5.94763">
        <ele>616</ele>
        <time>2010-07-18T14:04:25Z</time>
      </trkpt>
      <trkpt lat="44.15184" lon="5.94761">
        <ele>621</ele>
        <time>2010-07-18T14:04:33Z</time>
      </trkpt>
      <trkpt lat="44.1518" lon="5.94756">
        <ele>626</ele>
        <time>2010-07-18T14:04:40Z</time>
      </trkpt>
      <trkpt lat="44.15182" lon="5.94756">
        <ele>629</ele>
        <time>2010-07-18T14:04:47Z</time>
      </trkpt>
      <trkpt lat="44.15181" lon="5.94757">
        <ele>631</ele>
        <time>2010-07-18T14:05:06Z</time>
      </trkpt>
      <trkpt lat="44.15178" lon="5.94764">
        <ele>629</ele>
        <time>2010-07-18T14:05:14Z</time>
      </trkpt>
      <trkpt lat="44.15172" lon="5.94776">
        <ele>622</ele>
        <time>2010-07-18T14:05:21Z</time>
      </trkpt>
      <trkpt lat="44.15175" lon="5.94791">
        <ele>620</ele>
        <time>2010-07-18T14:05:29Z</time>
      </trkpt>
      <trkpt lat="44.15174" lon="5.94803">
        <ele>622</ele>
        <time>2010-07-18T14:05:36Z</time>
      </trkpt>
      <trkpt lat="44.15167" lon="5.94813">
        <ele>623</ele>
        <time>2010-07-18T14:05:44Z</time>
      </trkpt>
      <trkpt lat="44.1516" lon="5.94826">
        <ele>623</ele>
        <time>2010-07-18T14:05:51Z</time>
      </trkpt>
      <trkpt lat="44.1515" lon="5.94837">
        <ele>623</ele>
        <time>2010-07-18T14:05:59Z</time>
      </trkpt>
      <trkpt lat="44.15142" lon="5.94844">
        <ele>623</ele>
        <time>2010-07-18T14:06:07Z</time>
      </trkpt>
      <trkpt lat="44.15133" lon="5.94846">
        <ele>623</ele>
        <time>2010-07-18T14:06:15Z</time>
      </trkpt>
      <trkpt lat="44.15126" lon="5.94844">
        <ele>623</ele>
        <time>2010-07-18T14:06:22Z</time>
      </trkpt>
      <trkpt lat="44.15118" lon="5.94844">
        <ele>626</ele>
        <time>2010-07-18T14:06:30Z</time>
      </trkpt>
      <trkpt lat="44.15111" lon="5.94844">
        <ele>629</ele>
        <time>2010-07-18T14:06:37Z</time>
      </trkpt>
      <trkpt lat="44.15102" lon="5.94844">
        <ele>629</ele>
        <time>2010-07-18T14:06:44Z</time>
      </trkpt>
      <trkpt lat="44.15094" lon="5.94845">
        <ele>630</ele>
        <time>2010-07-18T14:06:51Z</time>
      </trkpt>
      <trkpt lat="44.15083" lon="5.94846">
        <ele>630</ele>
        <time>2010-07-18T14:06:59Z</time>
      </trkpt>
      <trkpt lat="44.15075" lon="5.94847">
        <ele>631</ele>
        <time>2010-07-18T14:07:06Z</time>
      </trkpt>
      <trkpt lat="44.15063" lon="5.94851">
        <ele>631</ele>
        <time>2010-07-18T14:07:14Z</time>
      </trkpt>
      <trkpt lat="44.15047" lon="5.94857">
        <ele>631</ele>
        <time>2010-07-18T14:07:21Z</time>
      </trkpt>
      <trkpt lat="44.15022" lon="5.94859">
        <ele>631</ele>
        <time>2010-07-18T14:07:29Z</time>
      </trkpt>
      <trkpt lat="44.1501" lon="5.94882">
        <ele>631</ele>
        <time>2010-07-18T14:07:36Z</time>
      </trkpt>
      <trkpt lat="44.15006" lon="5.94943">
        <ele>630</ele>
        <time>2010-07-18T14:07:44Z</time>
      </trkpt>
      <trkpt lat="44.15015" lon="5.95">
        <ele>625</ele>
        <time>2010-07-18T14:07:51Z</time>
      </trkpt>
      <trkpt lat="44.1502" lon="5.95068">
        <ele>619</ele>
        <time>2010-07-18T14:07:59Z</time>
      </trkpt>
      <trkpt lat="44.15025" lon="5.95122">
        <ele>614</ele>
        <time>2010-07-18T14:08:06Z</time>
      </trkpt>
      <trkpt lat="44.1502" lon="5.95176">
        <ele>608</ele>
        <time>2010-07-18T14:08:14Z</time>
      </trkpt>
      <trkpt lat="44.14999" lon="5.95198">
        <ele>607</ele>
        <time>2010-07-18T14:08:21Z</time>
      </trkpt>
      <trkpt lat="44.14975" lon="5.9524">
        <ele>606</ele>
        <time>2010-07-18T14:08:29Z</time>
      </trkpt>
      <trkpt lat="44.14957" lon="5.95238">
        <ele>605</ele>
        <time>2010-07-18T14:08:36Z</time>
      </trkpt>
      <trkpt lat="44.14938" lon="5.95232">
        <ele>605</ele>
        <time>2010-07-18T14:08:44Z</time>
      </trkpt>
      <trkpt lat="44.1492" lon="5.95236">
        <ele>605</ele>
        <time>2010-07-18T14:08:51Z</time>
      </trkpt>
      <trkpt lat="44.14905" lon="5.95224">
        <ele>606</ele>
        <time>2010-07-18T14:08:59Z</time>
      </trkpt>
      <trkpt lat="44.14891" lon="5.95211">
        <ele>606</ele>
        <time>2010-07-18T14:09:06Z</time>
      </trkpt>
      <trkpt lat="44.14871" lon="5.95209">
        <ele>606</ele>
        <time>2010-07-18T14:09:14Z</time>
      </trkpt>
      <trkpt lat="44.14855" lon="5.95222">
        <ele>606</ele>
        <time>2010-07-18T14:09:21Z</time>
      </trkpt>
      <trkpt lat="44.14849" lon="5.95226">
        <ele>606</ele>
        <time>2010-07-18T14:09:31Z</time>
      </trkpt>
      <trkpt lat="44.14846" lon="5.95223">
        <ele>606</ele>
        <time>2010-07-18T14:09:41Z</time>
      </trkpt>
      <trkpt lat="44.1484" lon="5.95217">
        <ele>606</ele>
        <time>2010-07-18T14:09:50Z</time>
      </trkpt>
      <trkpt lat="44.14834" lon="5.95209">
        <ele>606</ele>
        <time>2010-07-18T14:09:58Z</time>
      </trkpt>
      <trkpt lat="44.14829" lon="5.95201">
        <ele>606</ele>
        <time>2010-07-18T14:10:07Z</time>
      </trkpt>
      <trkpt lat="44.14828" lon="5.95197">
        <ele>607</ele>
        <time>2010-07-18T14:10:15Z</time>
      </trkpt>
      <trkpt lat="44.14826" lon="5.95192">
        <ele>607</ele>
        <time>2010-07-18T14:10:22Z</time>
      </trkpt>
      <trkpt lat="44.14824" lon="5.95187">
        <ele>610</ele>
        <time>2010-07-18T14:10:29Z</time>
      </trkpt>
      <trkpt lat="44.14822" lon="5.95183">
        <ele>614</ele>
        <time>2010-07-18T14:10:36Z</time>
      </trkpt>
      <trkpt lat="44.14818" lon="5.95177">
        <ele>617</ele>
        <time>2010-07-18T14:10:46Z</time>
      </trkpt>
      <trkpt lat="44.14814" lon="5.95173">
        <ele>618</ele>
        <time>2010-07-18T14:10:54Z</time>
      </trkpt>
      <trkpt lat="44.14808" lon="5.95168">
        <ele>619</ele>
        <time>2010-07-18T14:11:01Z</time>
      </trkpt>
      <trkpt lat="44.14803" lon="5.95162">
        <ele>619</ele>
        <time>2010-07-18T14:11:11Z</time>
      </trkpt>
      <trkpt lat="44.14797" lon="5.95157">
        <ele>621</ele>
        <time>2010-07-18T14:11:19Z</time>
      </trkpt>
      <trkpt lat="44.14792" lon="5.95151">
        <ele>623</ele>
        <time>2010-07-18T14:11:27Z</time>
      </trkpt>
      <trkpt lat="44.14787" lon="5.95147">
        <ele>625</ele>
        <time>2010-07-18T14:11:34Z</time>
      </trkpt>
      <trkpt lat="44.14782" lon="5.95142">
        <ele>627</ele>
        <time>2010-07-18T14:11:41Z</time>
      </trkpt>
      <trkpt lat="44.14779" lon="5.95136">
        <ele>628</ele>
        <time>2010-07-18T14:11:48Z</time>
      </trkpt>
      <trkpt lat="44.14776" lon="5.95127">
        <ele>629</ele>
        <time>2010-07-18T14:11:57Z</time>
      </trkpt>
      <trkpt lat="44.14775" lon="5.95118">
        <ele>629</ele>
        <time>2010-07-18T14:12:05Z</time>
      </trkpt>
      <trkpt lat="44.14775" lon="5.95104">
        <ele>629</ele>
        <time>2010-07-18T14:12:17Z</time>
      </trkpt>
      <trkpt lat="44.14774" lon="5.95091">
        <ele>630</ele>
        <time>2010-07-18T14:12:25Z</time>
      </trkpt>
      <trkpt lat="44.14772" lon="5.95089">
        <ele>630</ele>
        <time>2010-07-18T14:12:33Z</time>
      </trkpt>
      <trkpt lat="44.14771" lon="5.95088">
        <ele>630</ele>
        <time>2010-07-18T14:12:54Z</time>
      </trkpt>
      <trkpt lat="44.14767" lon="5.95082">
        <ele>630</ele>
        <time>2010-07-18T14:13:02Z</time>
      </trkpt>
      <trkpt lat="44.14759" lon="5.9507">
        <ele>630</ele>
        <time>2010-07-18T14:13:09Z</time>
      </trkpt>
      <trkpt lat="44.14751" lon="5.95058">
        <ele>631</ele>
        <time>2010-07-18T14:13:16Z</time>
      </trkpt>
      <trkpt lat="44.14739" lon="5.95045">
        <ele>632</ele>
        <time>2010-07-18T14:13:24Z</time>
      </trkpt>
      <trkpt lat="44.14731" lon="5.95033">
        <ele>632</ele>
        <time>2010-07-18T14:13:31Z</time>
      </trkpt>
      <trkpt lat="44.1473" lon="5.95021">
        <ele>633</ele>
        <time>2010-07-18T14:13:40Z</time>
      </trkpt>
      <trkpt lat="44.1473" lon="5.95018">
        <ele>634</ele>
        <time>2010-07-18T14:13:49Z</time>
      </trkpt>
      <trkpt lat="44.14726" lon="5.95009">
        <ele>634</ele>
        <time>2010-07-18T14:13:56Z</time>
      </trkpt>
      <trkpt lat="44.14721" lon="5.94997">
        <ele>636</ele>
        <time>2010-07-18T14:14:05Z</time>
      </trkpt>
      <trkpt lat="44.14715" lon="5.94987">
        <ele>637</ele>
        <time>2010-07-18T14:14:12Z</time>
      </trkpt>
      <trkpt lat="44.14709" lon="5.94978">
        <ele>637</ele>
        <time>2010-07-18T14:14:19Z</time>
      </trkpt>
      <trkpt lat="44.14704" lon="5.94975">
        <ele>643</ele>
        <time>2010-07-18T14:14:35Z</time>
      </trkpt>
      <trkpt lat="44.14693" lon="5.9497">
        <ele>643</ele>
        <time>2010-07-18T14:14:42Z</time>
      </trkpt>
      <trkpt lat="44.14678" lon="5.94971">
        <ele>643</ele>
        <time>2010-07-18T14:14:49Z</time>
      </trkpt>
      <trkpt lat="44.1466" lon="5.94975">
        <ele>641</ele>
        <time>2010-07-18T14:14:56Z</time>
      </trkpt>
      <trkpt lat="44.14636" lon="5.94974">
        <ele>636</ele>
        <time>2010-07-18T14:15:04Z</time>
      </trkpt>
      <trkpt lat="44.14615" lon="5.94976">
        <ele>633</ele>
        <time>2010-07-18T14:15:11Z</time>
      </trkpt>
      <trkpt lat="44.14593" lon="5.94977">
        <ele>630</ele>
        <time>2010-07-18T14:15:19Z</time>
      </trkpt>
      <trkpt lat="44.14582" lon="5.94989">
        <ele>628</ele>
        <time>2010-07-18T14:15:26Z</time>
      </trkpt>
      <trkpt lat="44.14569" lon="5.95007">
        <ele>622</ele>
        <time>2010-07-18T14:15:34Z</time>
      </trkpt>
      <trkpt lat="44.14559" lon="5.95015">
        <ele>618</ele>
        <time>2010-07-18T14:15:42Z</time>
      </trkpt>
      <trkpt lat="44.1455" lon="5.95028">
        <ele>615</ele>
        <time>2010-07-18T14:15:49Z</time>
      </trkpt>
      <trkpt lat="44.14541" lon="5.95041">
        <ele>611</ele>
        <time>2010-07-18T14:15:56Z</time>
      </trkpt>
      <trkpt lat="44.14541" lon="5.95042">
        <ele>608</ele>
        <time>2010-07-18T14:16:06Z</time>
      </trkpt>
      <trkpt lat="44.14539" lon="5.95045">
        <ele>608</ele>
        <time>2010-07-18T14:16:14Z</time>
      </trkpt>
      <trkpt lat="44.14539" lon="5.95053">
        <ele>608</ele>
        <time>2010-07-18T14:16:26Z</time>
      </trkpt>
      <trkpt lat="44.14539" lon="5.95057">
        <ele>608</ele>
        <time>2010-07-18T14:16:42Z</time>
      </trkpt>
      <trkpt lat="44.14538" lon="5.95054">
        <ele>608</ele>
        <time>2010-07-18T14:16:49Z</time>
      </trkpt>
      <trkpt lat="44.14537" lon="5.95046">
        <ele>608</ele>
        <time>2010-07-18T14:16:56Z</time>
      </trkpt>
      <trkpt lat="44.14539" lon="5.95038">
        <ele>608</ele>
        <time>2010-07-18T14:17:04Z</time>
      </trkpt>
      <trkpt lat="44.1454" lon="5.95035">
        <ele>608</ele>
        <time>2010-07-18T14:17:11Z</time>
      </trkpt>
      <trkpt lat="44.1454" lon="5.95034">
        <ele>608</ele>
        <time>2010-07-18T14:17:34Z</time>
      </trkpt>
      <trkpt lat="44.14544" lon="5.95033">
        <ele>608</ele>
        <time>2010-07-18T14:17:43Z</time>
      </trkpt>
      <trkpt lat="44.1455" lon="5.95027">
        <ele>608</ele>
        <time>2010-07-18T14:17:52Z</time>
      </trkpt>
      <trkpt lat="44.14553" lon="5.95022">
        <ele>608</ele>
        <time>2010-07-18T14:17:59Z</time>
      </trkpt>
      <trkpt lat="44.14556" lon="5.95016">
        <ele>609</ele>
        <time>2010-07-18T14:18:06Z</time>
      </trkpt>
      <trkpt lat="44.14561" lon="5.95011">
        <ele>612</ele>
        <time>2010-07-18T14:18:14Z</time>
      </trkpt>
      <trkpt lat="44.14564" lon="5.95006">
        <ele>616</ele>
        <time>2010-07-18T14:18:22Z</time>
      </trkpt>
      <trkpt lat="44.14562" lon="5.95001">
        <ele>616</ele>
        <time>2010-07-18T14:18:29Z</time>
      </trkpt>
      <trkpt lat="44.14558" lon="5.94978">
        <ele>616</ele>
        <time>2010-07-18T14:18:36Z</time>
      </trkpt>
      <trkpt lat="44.14558" lon="5.94959">
        <ele>615</ele>
        <time>2010-07-18T14:18:44Z</time>
      </trkpt>
      <trkpt lat="44.14557" lon="5.94957">
        <ele>613</ele>
        <time>2010-07-18T14:18:52Z</time>
      </trkpt>
      <trkpt lat="44.1455" lon="5.94966">
        <ele>613</ele>
        <time>2010-07-18T14:18:59Z</time>
      </trkpt>
      <trkpt lat="44.14544" lon="5.94981">
        <ele>613</ele>
        <time>2010-07-18T14:19:06Z</time>
      </trkpt>
      <trkpt lat="44.14541" lon="5.94988">
        <ele>613</ele>
        <time>2010-07-18T14:19:16Z</time>
      </trkpt>
      <trkpt lat="44.14537" lon="5.94985">
        <ele>610</ele>
        <time>2010-07-18T14:19:24Z</time>
      </trkpt>
      <trkpt lat="44.14535" lon="5.94989">
        <ele>608</ele>
        <time>2010-07-18T14:19:33Z</time>
      </trkpt>
      <trkpt lat="44.14531" lon="5.94993">
        <ele>607</ele>
        <time>2010-07-18T14:19:40Z</time>
      </trkpt>
      <trkpt lat="44.14525" lon="5.95005">
        <ele>606</ele>
        <time>2010-07-18T14:19:47Z</time>
      </trkpt>
      <trkpt lat="44.1452" lon="5.95015">
        <ele>605</ele>
        <time>2010-07-18T14:19:56Z</time>
      </trkpt>
      <trkpt lat="44.14514" lon="5.95022">
        <ele>605</ele>
        <time>2010-07-18T14:20:04Z</time>
      </trkpt>
      <trkpt lat="44.14512" lon="5.95023">
        <ele>605</ele>
        <time>2010-07-18T14:20:15Z</time>
      </trkpt>
      <trkpt lat="44.14505" lon="5.95042">
        <ele>605</ele>
        <time>2010-07-18T14:20:22Z</time>
      </trkpt>
      <trkpt lat="44.14497" lon="5.95057">
        <ele>605</ele>
        <time>2010-07-18T14:20:29Z</time>
      </trkpt>
      <trkpt lat="44.14487" lon="5.95064">
        <ele>605</ele>
        <time>2010-07-18T14:20:36Z</time>
      </trkpt>
      <trkpt lat="44.14476" lon="5.95078">
        <ele>605</ele>
        <time>2010-07-18T14:20:44Z</time>
      </trkpt>
      <trkpt lat="44.1447" lon="5.95086">
        <ele>604</ele>
        <time>2010-07-18T14:21:08Z</time>
      </trkpt>
      <trkpt lat="44.14469" lon="5.95089">
        <ele>604</ele>
        <time>2010-07-18T14:21:15Z</time>
      </trkpt>
      <trkpt lat="44.14463" lon="5.95098">
        <ele>603</ele>
        <time>2010-07-18T14:21:22Z</time>
      </trkpt>
      <trkpt lat="44.14451" lon="5.95094">
        <ele>603</ele>
        <time>2010-07-18T14:21:29Z</time>
      </trkpt>
      <trkpt lat="44.14443" lon="5.95088">
        <ele>602</ele>
        <time>2010-07-18T14:21:36Z</time>
      </trkpt>
      <trkpt lat="44.14424" lon="5.95072">
        <ele>602</ele>
        <time>2010-07-18T14:21:44Z</time>
      </trkpt>
      <trkpt lat="44.14414" lon="5.95063">
        <ele>602</ele>
        <time>2010-07-18T14:21:51Z</time>
      </trkpt>
      <trkpt lat="44.14397" lon="5.95048">
        <ele>602</ele>
        <time>2010-07-18T14:21:59Z</time>
      </trkpt>
      <trkpt lat="44.14381" lon="5.95033">
        <ele>602</ele>
        <time>2010-07-18T14:22:06Z</time>
      </trkpt>
      <trkpt lat="44.14365" lon="5.95023">
        <ele>602</ele>
        <time>2010-07-18T14:22:14Z</time>
      </trkpt>
      <trkpt lat="44.14355" lon="5.95014">
        <ele>602</ele>
        <time>2010-07-18T14:22:21Z</time>
      </trkpt>
      <trkpt lat="44.14342" lon="5.9501">
        <ele>602</ele>
        <time>2010-07-18T14:22:29Z</time>
      </trkpt>
      <trkpt lat="44.14331" lon="5.95001">
        <ele>602</ele>
        <time>2010-07-18T14:22:36Z</time>
      </trkpt>
      <trkpt lat="44.14317" lon="5.94997">
        <ele>602</ele>
        <time>2010-07-18T14:22:44Z</time>
      </trkpt>
      <trkpt lat="44.14314" lon="5.94996">
        <ele>602</ele>
        <time>2010-07-18T14:22:51Z</time>
      </trkpt>
      <trkpt lat="44.14315" lon="5.94996">
        <ele>602</ele>
        <time>2010-07-18T14:23:00Z</time>
      </trkpt>
      <trkpt lat="44.14315" lon="5.94996">
        <ele>601</ele>
        <time>2010-07-18T14:23:08Z</time>
      </trkpt>
      <trkpt lat="44.14303" lon="5.95008">
        <ele>601</ele>
        <time>2010-07-18T14:23:15Z</time>
      </trkpt>
      <trkpt lat="44.14277" lon="5.95028">
        <ele>601</ele>
        <time>2010-07-18T14:23:22Z</time>
      </trkpt>
      <trkpt lat="44.14254" lon="5.95032">
        <ele>598</ele>
        <time>2010-07-18T14:23:29Z</time>
      </trkpt>
      <trkpt lat="44.14242" lon="5.95042">
        <ele>595</ele>
        <time>2010-07-18T14:23:36Z</time>
      </trkpt>
      <trkpt lat="44.14237" lon="5.95067">
        <ele>595</ele>
        <time>2010-07-18T14:23:44Z</time>
      </trkpt>
      <trkpt lat="44.14237" lon="5.95087">
        <ele>595</ele>
        <time>2010-07-18T14:23:51Z</time>
      </trkpt>
      <trkpt lat="44.14237" lon="5.95108">
        <ele>597</ele>
        <time>2010-07-18T14:23:59Z</time>
      </trkpt>
      <trkpt lat="44.14238" lon="5.95125">
        <ele>597</ele>
        <time>2010-07-18T14:24:06Z</time>
      </trkpt>
      <trkpt lat="44.14237" lon="5.9514">
        <ele>597</ele>
        <time>2010-07-18T14:24:14Z</time>
      </trkpt>
      <trkpt lat="44.14239" lon="5.95165">
        <ele>597</ele>
        <time>2010-07-18T14:24:21Z</time>
      </trkpt>
      <trkpt lat="44.1422" lon="5.95175">
        <ele>594</ele>
        <time>2010-07-18T14:24:29Z</time>
      </trkpt>
      <trkpt lat="44.14194" lon="5.95178">
        <ele>590</ele>
        <time>2010-07-18T14:24:36Z</time>
      </trkpt>
      <trkpt lat="44.14175" lon="5.95193">
        <ele>587</ele>
        <time>2010-07-18T14:24:44Z</time>
      </trkpt>
      <trkpt lat="44.14159" lon="5.95206">
        <ele>582</ele>
        <time>2010-07-18T14:24:51Z</time>
      </trkpt>
      <trkpt lat="44.14146" lon="5.95216">
        <ele>578</ele>
        <time>2010-07-18T14:24:59Z</time>
      </trkpt>
      <trkpt lat="44.14133" lon="5.95221">
        <ele>576</ele>
        <time>2010-07-18T14:25:06Z</time>
      </trkpt>
      <trkpt lat="44.14136" lon="5.95218">
        <ele>568</ele>
        <time>2010-07-18T14:25:15Z</time>
      </trkpt>
      <trkpt lat="44.14138" lon="5.95212">
        <ele>554</ele>
        <time>2010-07-18T14:25:24Z</time>
      </trkpt>
      <trkpt lat="44.14138" lon="5.95214">
        <ele>546</ele>
        <time>2010-07-18T14:25:36Z</time>
      </trkpt>
      <trkpt lat="44.14138" lon="5.95217">
        <ele>546</ele>
        <time>2010-07-18T14:25:45Z</time>
      </trkpt>
      <trkpt lat="44.14136" lon="5.95222">
        <ele>554</ele>
        <time>2010-07-18T14:25:55Z</time>
      </trkpt>
      <trkpt lat="44.14134" lon="5.95224">
        <ele>560</ele>
        <time>2010-07-18T14:26:04Z</time>
      </trkpt>
      <trkpt lat="44.14123" lon="5.95231">
        <ele>562</ele>
        <time>2010-07-18T14:26:11Z</time>
      </trkpt>
      <trkpt lat="44.14106" lon="5.95245">
        <ele>562</ele>
        <time>2010-07-18T14:26:19Z</time>
      </trkpt>
      <trkpt lat="44.14095" lon="5.95256">
        <ele>562</ele>
        <time>2010-07-18T14:26:26Z</time>
      </trkpt>
      <trkpt lat="44.14075" lon="5.9526">
        <ele>558</ele>
        <time>2010-07-18T14:26:33Z</time>
      </trkpt>
      <trkpt lat="44.14053" lon="5.95263">
        <ele>554</ele>
        <time>2010-07-18T14:26:40Z</time>
      </trkpt>
      <trkpt lat="44.14032" lon="5.95263">
        <ele>549</ele>
        <time>2010-07-18T14:26:47Z</time>
      </trkpt>
      <trkpt lat="44.1401" lon="5.95266">
        <ele>546</ele>
        <time>2010-07-18T14:26:54Z</time>
      </trkpt>
      <trkpt lat="44.13985" lon="5.95283">
        <ele>542</ele>
        <time>2010-07-18T14:27:01Z</time>
      </trkpt>
      <trkpt lat="44.13945" lon="5.95321">
        <ele>535</ele>
        <time>2010-07-18T14:27:09Z</time>
      </trkpt>
      <trkpt lat="44.13887" lon="5.95346">
        <ele>528</ele>
        <time>2010-07-18T14:27:16Z</time>
      </trkpt>
      <trkpt lat="44.13831" lon="5.95369">
        <ele>520</ele>
        <time>2010-07-18T14:27:24Z</time>
      </trkpt>
      <trkpt lat="44.13815" lon="5.95357">
        <ele>513</ele>
        <time>2010-07-18T14:27:31Z</time>
      </trkpt>
      <trkpt lat="44.13812" lon="5.9536">
        <ele>511</ele>
        <time>2010-07-18T14:27:39Z</time>
      </trkpt>
      <trkpt lat="44.13813" lon="5.95354">
        <ele>511</ele>
        <time>2010-07-18T14:27:46Z</time>
      </trkpt>
      <trkpt lat="44.13811" lon="5.9535">
        <ele>505</ele>
        <time>2010-07-18T14:28:00Z</time>
      </trkpt>
      <trkpt lat="44.1381" lon="5.95352">
        <ele>505</ele>
        <time>2010-07-18T14:28:14Z</time>
      </trkpt>
      <trkpt lat="44.1381" lon="5.95353">
        <ele>506</ele>
        <time>2010-07-18T14:28:23Z</time>
      </trkpt>
      <trkpt lat="44.1381" lon="5.95355">
        <ele>506</ele>
        <time>2010-07-18T14:28:42Z</time>
      </trkpt>
      <trkpt lat="44.13801" lon="5.95388">
        <ele>506</ele>
        <time>2010-07-18T14:28:49Z</time>
      </trkpt>
      <trkpt lat="44.13784" lon="5.95428">
        <ele>506</ele>
        <time>2010-07-18T14:28:56Z</time>
      </trkpt>
      <trkpt lat="44.1376" lon="5.95479">
        <ele>505</ele>
        <time>2010-07-18T14:29:03Z</time>
      </trkpt>
      <trkpt lat="44.13744" lon="5.95522">
        <ele>501</ele>
        <time>2010-07-18T14:29:10Z</time>
      </trkpt>
      <trkpt lat="44.13738" lon="5.95551">
        <ele>500</ele>
        <time>2010-07-18T14:29:17Z</time>
      </trkpt>
      <trkpt lat="44.13731" lon="5.9559">
        <ele>497</ele>
        <time>2010-07-18T14:29:24Z</time>
      </trkpt>
      <trkpt lat="44.13732" lon="5.9563">
        <ele>497</ele>
        <time>2010-07-18T14:29:31Z</time>
      </trkpt>
      <trkpt lat="44.13736" lon="5.95666">
        <ele>497</ele>
        <time>2010-07-18T14:29:38Z</time>
      </trkpt>
      <trkpt lat="44.13738" lon="5.95692">
        <ele>499</ele>
        <time>2010-07-18T14:29:45Z</time>
      </trkpt>
      <trkpt lat="44.13739" lon="5.95701">
        <ele>504</ele>
        <time>2010-07-18T14:29:54Z</time>
      </trkpt>
      <trkpt lat="44.13741" lon="5.9571">
        <ele>504</ele>
        <time>2010-07-18T14:30:01Z</time>
      </trkpt>
      <trkpt lat="44.13749" lon="5.95728">
        <ele>504</ele>
        <time>2010-07-18T14:30:08Z</time>
      </trkpt>
      <trkpt lat="44.13771" lon="5.95762">
        <ele>504</ele>
        <time>2010-07-18T14:30:16Z</time>
      </trkpt>
      <trkpt lat="44.13781" lon="5.95757">
        <ele>504</ele>
        <time>2010-07-18T14:30:24Z</time>
      </trkpt>
      <trkpt lat="44.13782" lon="5.95748">
        <ele>504</ele>
        <time>2010-07-18T14:30:33Z</time>
      </trkpt>
      <trkpt lat="44.13783" lon="5.95748">
        <ele>508</ele>
        <time>2010-07-18T14:30:43Z</time>
      </trkpt>
      <trkpt lat="44.13819" lon="5.95737">
        <ele>295</ele>
        <time>2010-07-18T14:30:50Z</time>
      </trkpt>
      <trkpt lat="44.13801" lon="5.95742">
        <ele>372</ele>
        <time>2010-07-18T14:31:02Z</time>
      </trkpt>
      <trkpt lat="44.13786" lon="5.95742">
        <ele>404</ele>
        <time>2010-07-18T14:31:11Z</time>
      </trkpt>
      <trkpt lat="44.13785" lon="5.95745">
        <ele>443</ele>
        <time>2010-07-18T14:31:24Z</time>
      </trkpt>
      <trkpt lat="44.13787" lon="5.95751">
        <ele>475</ele>
        <time>2010-07-18T14:31:43Z</time>
      </trkpt>
      <trkpt lat="44.13791" lon="5.95748">
        <ele>479</ele>
        <time>2010-07-18T14:31:52Z</time>
      </trkpt>
      <trkpt lat="44.13789" lon="5.95739">
        <ele>479</ele>
        <time>2010-07-18T14:32:13Z</time>
      </trkpt>
      <trkpt lat="44.13787" lon="5.95743">
        <ele>479</ele>
        <time>2010-07-18T14:32:21Z</time>
      </trkpt>
      <trkpt lat="44.13783" lon="5.95756">
        <ele>479</ele>
        <time>2010-07-18T14:32:29Z</time>
      </trkpt>
      <trkpt lat="44.1378" lon="5.95762">
        <ele>480</ele>
        <time>2010-07-18T14:32:36Z</time>
      </trkpt>
      <trkpt lat="44.13779" lon="5.95763">
        <ele>486</ele>
        <time>2010-07-18T14:32:48Z</time>
      </trkpt>
      <trkpt lat="44.13784" lon="5.95764">
        <ele>488</ele>
        <time>2010-07-18T14:32:56Z</time>
      </trkpt>
      <trkpt lat="44.13783" lon="5.95761">
        <ele>489</ele>
        <time>2010-07-18T14:33:04Z</time>
      </trkpt>
      <trkpt lat="44.13781" lon="5.95757">
        <ele>489</ele>
        <time>2010-07-18T14:33:12Z</time>
      </trkpt>
      <trkpt lat="44.13771" lon="5.95747">
        <ele>490</ele>
        <time>2010-07-18T14:33:20Z</time>
      </trkpt>
      <trkpt lat="44.13757" lon="5.95728">
        <ele>490</ele>
        <time>2010-07-18T14:33:27Z</time>
      </trkpt>
      <trkpt lat="44.13746" lon="5.9571">
        <ele>490</ele>
        <time>2010-07-18T14:33:35Z</time>
      </trkpt>
      <trkpt lat="44.13743" lon="5.95699">
        <ele>490</ele>
        <time>2010-07-18T14:33:42Z</time>
      </trkpt>
      <trkpt lat="44.13739" lon="5.95682">
        <ele>490</ele>
        <time>2010-07-18T14:33:52Z</time>
      </trkpt>
      <trkpt lat="44.13736" lon="5.95648">
        <ele>490</ele>
        <time>2010-07-18T14:34:00Z</time>
      </trkpt>
      <trkpt lat="44.13735" lon="5.95615">
        <ele>490</ele>
        <time>2010-07-18T14:34:07Z</time>
      </trkpt>
      <trkpt lat="44.1374" lon="5.95584">
        <ele>492</ele>
        <time>2010-07-18T14:34:15Z</time>
      </trkpt>
      <trkpt lat="44.13737" lon="5.9558">
        <ele>494</ele>
        <time>2010-07-18T14:34:23Z</time>
      </trkpt>
      <trkpt lat="44.13733" lon="5.95595">
        <ele>494</ele>
        <time>2010-07-18T14:34:30Z</time>
      </trkpt>
      <trkpt lat="44.13729" lon="5.95657">
        <ele>497</ele>
        <time>2010-07-18T14:34:37Z</time>
      </trkpt>
      <trkpt lat="44.13726" lon="5.95698">
        <ele>505</ele>
        <time>2010-07-18T14:34:46Z</time>
      </trkpt>
      <trkpt lat="44.13734" lon="5.95738">
        <ele>516</ele>
        <time>2010-07-18T14:34:54Z</time>
      </trkpt>
      <trkpt lat="44.13768" lon="5.95786">
        <ele>531</ele>
        <time>2010-07-18T14:35:02Z</time>
      </trkpt>
      <trkpt lat="44.13811" lon="5.95833">
        <ele>533</ele>
        <time>2010-07-18T14:35:09Z</time>
      </trkpt>
      <trkpt lat="44.13842" lon="5.95879">
        <ele>525</ele>
        <time>2010-07-18T14:35:16Z</time>
      </trkpt>
      <trkpt lat="44.13849" lon="5.95924">
        <ele>513</ele>
        <time>2010-07-18T14:35:23Z</time>
      </trkpt>
      <trkpt lat="44.13843" lon="5.95981">
        <ele>502</ele>
        <time>2010-07-18T14:35:30Z</time>
      </trkpt>
      <trkpt lat="44.13831" lon="5.96015">
        <ele>495</ele>
        <time>2010-07-18T14:35:38Z</time>
      </trkpt>
      <trkpt lat="44.13801" lon="5.96057">
        <ele>487</ele>
        <time>2010-07-18T14:35:45Z</time>
      </trkpt>
      <trkpt lat="44.13765" lon="5.961">
        <ele>481</ele>
        <time>2010-07-18T14:35:52Z</time>
      </trkpt>
      <trkpt lat="44.13733" lon="5.96131">
        <ele>475</ele>
        <time>2010-07-18T14:36:00Z</time>
      </trkpt>
      <trkpt lat="44.13701" lon="5.96158">
        <ele>472</ele>
        <time>2010-07-18T14:36:07Z</time>
      </trkpt>
      <trkpt lat="44.13689" lon="5.96178">
        <ele>469</ele>
        <time>2010-07-18T14:36:15Z</time>
      </trkpt>
      <trkpt lat="44.13664" lon="5.96196">
        <ele>466</ele>
        <time>2010-07-18T14:36:22Z</time>
      </trkpt>
      <trkpt lat="44.13627" lon="5.96218">
        <ele>466</ele>
        <time>2010-07-18T14:36:30Z</time>
      </trkpt>
      <trkpt lat="44.13597" lon="5.96238">
        <ele>469</ele>
        <time>2010-07-18T14:36:37Z</time>
      </trkpt>
      <trkpt lat="44.13565" lon="5.96257">
        <ele>472</ele>
        <time>2010-07-18T14:36:44Z</time>
      </trkpt>
      <trkpt lat="44.13533" lon="5.96277">
        <ele>475</ele>
        <time>2010-07-18T14:36:51Z</time>
      </trkpt>
      <trkpt lat="44.135" lon="5.96297">
        <ele>475</ele>
        <time>2010-07-18T14:36:58Z</time>
      </trkpt>
      <trkpt lat="44.13467" lon="5.96314">
        <ele>475</ele>
        <time>2010-07-18T14:37:05Z</time>
      </trkpt>
      <trkpt lat="44.13432" lon="5.96334">
        <ele>475</ele>
        <time>2010-07-18T14:37:12Z</time>
      </trkpt>
      <trkpt lat="44.13399" lon="5.96361">
        <ele>475</ele>
        <time>2010-07-18T14:37:19Z</time>
      </trkpt>
      <trkpt lat="44.13372" lon="5.96388">
        <ele>475</ele>
        <time>2010-07-18T14:37:26Z</time>
      </trkpt>
      <trkpt lat="44.1334" lon="5.96413">
        <ele>475</ele>
        <time>2010-07-18T14:37:33Z</time>
      </trkpt>
      <trkpt lat="44.13302" lon="5.96438">
        <ele>472</ele>
        <time>2010-07-18T14:37:40Z</time>
      </trkpt>
      <trkpt lat="44.13279" lon="5.96457">
        <ele>471</ele>
        <time>2010-07-18T14:37:47Z</time>
      </trkpt>
      <trkpt lat="44.13258" lon="5.96479">
        <ele>471</ele>
        <time>2010-07-18T14:37:59Z</time>
      </trkpt>
      <trkpt lat="44.13223" lon="5.96503">
        <ele>471</ele>
        <time>2010-07-18T14:38:06Z</time>
      </trkpt>
      <trkpt lat="44.13198" lon="5.96514">
        <ele>471</ele>
        <time>2010-07-18T14:38:13Z</time>
      </trkpt>
      <trkpt lat="44.13171" lon="5.96524">
        <ele>470</ele>
        <time>2010-07-18T14:38:20Z</time>
      </trkpt>
      <trkpt lat="44.13144" lon="5.96526">
        <ele>470</ele>
        <time>2010-07-18T14:38:27Z</time>
      </trkpt>
      <trkpt lat="44.13124" lon="5.96532">
        <ele>470</ele>
        <time>2010-07-18T14:38:34Z</time>
      </trkpt>
      <trkpt lat="44.13108" lon="5.96542">
        <ele>471</ele>
        <time>2010-07-18T14:38:41Z</time>
      </trkpt>
      <trkpt lat="44.13093" lon="5.96557">
        <ele>473</ele>
        <time>2010-07-18T14:38:48Z</time>
      </trkpt>
      <trkpt lat="44.13087" lon="5.9657">
        <ele>476</ele>
        <time>2010-07-18T14:38:55Z</time>
      </trkpt>
      <trkpt lat="44.13083" lon="5.96614">
        <ele>478</ele>
        <time>2010-07-18T14:39:05Z</time>
      </trkpt>
      <trkpt lat="44.13072" lon="5.96671">
        <ele>478</ele>
        <time>2010-07-18T14:39:13Z</time>
      </trkpt>
      <trkpt lat="44.13062" lon="5.96712">
        <ele>478</ele>
        <time>2010-07-18T14:39:20Z</time>
      </trkpt>
      <trkpt lat="44.1305" lon="5.96755">
        <ele>478</ele>
        <time>2010-07-18T14:39:27Z</time>
      </trkpt>
      <trkpt lat="44.13044" lon="5.96781">
        <ele>478</ele>
        <time>2010-07-18T14:39:34Z</time>
      </trkpt>
      <trkpt lat="44.13034" lon="5.96836">
        <ele>478</ele>
        <time>2010-07-18T14:39:41Z</time>
      </trkpt>
      <trkpt lat="44.13025" lon="5.96873">
        <ele>478</ele>
        <time>2010-07-18T14:39:48Z</time>
      </trkpt>
      <trkpt lat="44.13003" lon="5.96919">
        <ele>478</ele>
        <time>2010-07-18T14:39:56Z</time>
      </trkpt>
      <trkpt lat="44.12971" lon="5.96941">
        <ele>478</ele>
        <time>2010-07-18T14:40:04Z</time>
      </trkpt>
      <trkpt lat="44.12957" lon="5.96929">
        <ele>478</ele>
        <time>2010-07-18T14:40:11Z</time>
      </trkpt>
      <trkpt lat="44.12928" lon="5.96917">
        <ele>480</ele>
        <time>2010-07-18T14:40:18Z</time>
      </trkpt>
      <trkpt lat="44.1291" lon="5.96911">
        <ele>482</ele>
        <time>2010-07-18T14:40:26Z</time>
      </trkpt>
      <trkpt lat="44.12896" lon="5.969">
        <ele>484</ele>
        <time>2010-07-18T14:40:33Z</time>
      </trkpt>
      <trkpt lat="44.12888" lon="5.96886">
        <ele>485</ele>
        <time>2010-07-18T14:40:40Z</time>
      </trkpt>
      <trkpt lat="44.12879" lon="5.9687">
        <ele>485</ele>
        <time>2010-07-18T14:40:48Z</time>
      </trkpt>
      <trkpt lat="44.1287" lon="5.96858">
        <ele>487</ele>
        <time>2010-07-18T14:40:55Z</time>
      </trkpt>
      <trkpt lat="44.12862" lon="5.96846">
        <ele>488</ele>
        <time>2010-07-18T14:41:02Z</time>
      </trkpt>
      <trkpt lat="44.12856" lon="5.96831">
        <ele>489</ele>
        <time>2010-07-18T14:41:09Z</time>
      </trkpt>
      <trkpt lat="44.12851" lon="5.96814">
        <ele>490</ele>
        <time>2010-07-18T14:41:16Z</time>
      </trkpt>
      <trkpt lat="44.1285" lon="5.96797">
        <ele>490</ele>
        <time>2010-07-18T14:41:23Z</time>
      </trkpt>
      <trkpt lat="44.12851" lon="5.96783">
        <ele>490</ele>
        <time>2010-07-18T14:41:30Z</time>
      </trkpt>
      <trkpt lat="44.12853" lon="5.96769">
        <ele>490</ele>
        <time>2010-07-18T14:41:37Z</time>
      </trkpt>
      <trkpt lat="44.12853" lon="5.96754">
        <ele>492</ele>
        <time>2010-07-18T14:41:45Z</time>
      </trkpt>
      <trkpt lat="44.12854" lon="5.96738">
        <ele>492</ele>
        <time>2010-07-18T14:41:52Z</time>
      </trkpt>
      <trkpt lat="44.12851" lon="5.96724">
        <ele>493</ele>
        <time>2010-07-18T14:41:59Z</time>
      </trkpt>
      <trkpt lat="44.12849" lon="5.9671">
        <ele>493</ele>
        <time>2010-07-18T14:42:06Z</time>
      </trkpt>
      <trkpt lat="44.12848" lon="5.96698">
        <ele>497</ele>
        <time>2010-07-18T14:42:13Z</time>
      </trkpt>
      <trkpt lat="44.12847" lon="5.96682">
        <ele>497</ele>
        <time>2010-07-18T14:42:20Z</time>
      </trkpt>
      <trkpt lat="44.12848" lon="5.96667">
        <ele>498</ele>
        <time>2010-07-18T14:42:27Z</time>
      </trkpt>
      <trkpt lat="44.12857" lon="5.96658">
        <ele>500</ele>
        <time>2010-07-18T14:42:34Z</time>
      </trkpt>
      <trkpt lat="44.12867" lon="5.96657">
        <ele>503</ele>
        <time>2010-07-18T14:42:41Z</time>
      </trkpt>
      <trkpt lat="44.1288" lon="5.96661">
        <ele>506</ele>
        <time>2010-07-18T14:42:48Z</time>
      </trkpt>
      <trkpt lat="44.12892" lon="5.96671">
        <ele>506</ele>
        <time>2010-07-18T14:42:55Z</time>
      </trkpt>
      <trkpt lat="44.12902" lon="5.96684">
        <ele>506</ele>
        <time>2010-07-18T14:43:02Z</time>
      </trkpt>
      <trkpt lat="44.12911" lon="5.96694">
        <ele>506</ele>
        <time>2010-07-18T14:43:09Z</time>
      </trkpt>
      <trkpt lat="44.1292" lon="5.96701">
        <ele>506</ele>
        <time>2010-07-18T14:43:16Z</time>
      </trkpt>
      <trkpt lat="44.1293" lon="5.96701">
        <ele>510</ele>
        <time>2010-07-18T14:43:24Z</time>
      </trkpt>
      <trkpt lat="44.12938" lon="5.96706">
        <ele>517</ele>
        <time>2010-07-18T14:43:31Z</time>
      </trkpt>
      <trkpt lat="44.12949" lon="5.96719">
        <ele>523</ele>
        <time>2010-07-18T14:43:38Z</time>
      </trkpt>
      <trkpt lat="44.12959" lon="5.96725">
        <ele>524</ele>
        <time>2010-07-18T14:43:45Z</time>
      </trkpt>
      <trkpt lat="44.12968" lon="5.96752">
        <ele>522</ele>
        <time>2010-07-18T14:43:52Z</time>
      </trkpt>
      <trkpt lat="44.12982" lon="5.96755">
        <ele>515</ele>
        <time>2010-07-18T14:43:59Z</time>
      </trkpt>
      <trkpt lat="44.13002" lon="5.96713">
        <ele>508</ele>
        <time>2010-07-18T14:44:06Z</time>
      </trkpt>
      <trkpt lat="44.13021" lon="5.96664">
        <ele>502</ele>
        <time>2010-07-18T14:44:13Z</time>
      </trkpt>
      <trkpt lat="44.13036" lon="5.96612">
        <ele>497</ele>
        <time>2010-07-18T14:44:20Z</time>
      </trkpt>
      <trkpt lat="44.13042" lon="5.96587">
        <ele>492</ele>
        <time>2010-07-18T14:44:30Z</time>
      </trkpt>
      <trkpt lat="44.1304" lon="5.96586">
        <ele>492</ele>
        <time>2010-07-18T14:44:38Z</time>
      </trkpt>
      <trkpt lat="44.13038" lon="5.96581">
        <ele>492</ele>
        <time>2010-07-18T14:44:45Z</time>
      </trkpt>
      <trkpt lat="44.13038" lon="5.96572">
        <ele>492</ele>
        <time>2010-07-18T14:44:56Z</time>
      </trkpt>
      <trkpt lat="44.1303" lon="5.96559">
        <ele>492</ele>
        <time>2010-07-18T14:45:04Z</time>
      </trkpt>
      <trkpt lat="44.13022" lon="5.96543">
        <ele>492</ele>
        <time>2010-07-18T14:45:11Z</time>
      </trkpt>
      <trkpt lat="44.13013" lon="5.96538">
        <ele>492</ele>
        <time>2010-07-18T14:45:23Z</time>
      </trkpt>
      <trkpt lat="44.13011" lon="5.96541">
        <ele>492</ele>
        <time>2010-07-18T14:45:35Z</time>
      </trkpt>
      <trkpt lat="44.13006" lon="5.96539">
        <ele>492</ele>
        <time>2010-07-18T14:45:42Z</time>
      </trkpt>
      <trkpt lat="44.12996" lon="5.96538">
        <ele>492</ele>
        <time>2010-07-18T14:45:49Z</time>
      </trkpt>
      <trkpt lat="44.12986" lon="5.9654">
        <ele>492</ele>
        <time>2010-07-18T14:45:57Z</time>
      </trkpt>
      <trkpt lat="44.12976" lon="5.9654">
        <ele>493</ele>
        <time>2010-07-18T14:46:05Z</time>
      </trkpt>
      <trkpt lat="44.12964" lon="5.96539">
        <ele>497</ele>
        <time>2010-07-18T14:46:12Z</time>
      </trkpt>
      <trkpt lat="44.12951" lon="5.96536">
        <ele>501</ele>
        <time>2010-07-18T14:46:19Z</time>
      </trkpt>
      <trkpt lat="44.12935" lon="5.96532">
        <ele>503</ele>
        <time>2010-07-18T14:46:27Z</time>
      </trkpt>
      <trkpt lat="44.12921" lon="5.9653">
        <ele>504</ele>
        <time>2010-07-18T14:46:35Z</time>
      </trkpt>
      <trkpt lat="44.1291" lon="5.9652">
        <ele>504</ele>
        <time>2010-07-18T14:46:44Z</time>
      </trkpt>
      <trkpt lat="44.12905" lon="5.96497">
        <ele>502</ele>
        <time>2010-07-18T14:46:51Z</time>
      </trkpt>
      <trkpt lat="44.12895" lon="5.96461">
        <ele>496</ele>
        <time>2010-07-18T14:46:58Z</time>
      </trkpt>
      <trkpt lat="44.12889" lon="5.96439">
        <ele>490</ele>
        <time>2010-07-18T14:47:05Z</time>
      </trkpt>
      <trkpt lat="44.12891" lon="5.96422">
        <ele>491</ele>
        <time>2010-07-18T14:47:12Z</time>
      </trkpt>
      <trkpt lat="44.12885" lon="5.96413">
        <ele>491</ele>
        <time>2010-07-18T14:47:20Z</time>
      </trkpt>
      <trkpt lat="44.12878" lon="5.96408">
        <ele>491</ele>
        <time>2010-07-18T14:47:27Z</time>
      </trkpt>
      <trkpt lat="44.1287" lon="5.96396">
        <ele>493</ele>
        <time>2010-07-18T14:47:34Z</time>
      </trkpt>
      <trkpt lat="44.12868" lon="5.96388">
        <ele>495</ele>
        <time>2010-07-18T14:47:41Z</time>
      </trkpt>
      <trkpt lat="44.1286" lon="5.96377">
        <ele>496</ele>
        <time>2010-07-18T14:47:48Z</time>
      </trkpt>
      <trkpt lat="44.12856" lon="5.96363">
        <ele>496</ele>
        <time>2010-07-18T14:47:55Z</time>
      </trkpt>
      <trkpt lat="44.12851" lon="5.96353">
        <ele>497</ele>
        <time>2010-07-18T14:48:02Z</time>
      </trkpt>
      <trkpt lat="44.12847" lon="5.96342">
        <ele>499</ele>
        <time>2010-07-18T14:48:10Z</time>
      </trkpt>
      <trkpt lat="44.12845" lon="5.9633">
        <ele>501</ele>
        <time>2010-07-18T14:48:18Z</time>
      </trkpt>
      <trkpt lat="44.12841" lon="5.9632">
        <ele>503</ele>
        <time>2010-07-18T14:48:25Z</time>
      </trkpt>
      <trkpt lat="44.12833" lon="5.96315">
        <ele>506</ele>
        <time>2010-07-18T14:48:33Z</time>
      </trkpt>
      <trkpt lat="44.12829" lon="5.96313">
        <ele>506</ele>
        <time>2010-07-18T14:48:44Z</time>
      </trkpt>
      <trkpt lat="44.12828" lon="5.96315">
        <ele>503</ele>
        <time>2010-07-18T14:48:59Z</time>
      </trkpt>
      <trkpt lat="44.12828" lon="5.96317">
        <ele>499</ele>
        <time>2010-07-18T14:49:12Z</time>
      </trkpt>
      <trkpt lat="44.12827" lon="5.96319">
        <ele>501</ele>
        <time>2010-07-18T14:49:24Z</time>
      </trkpt>
      <trkpt lat="44.12829" lon="5.96316">
        <ele>505</ele>
        <time>2010-07-18T14:49:33Z</time>
      </trkpt>
      <trkpt lat="44.12831" lon="5.96313">
        <ele>509</ele>
        <time>2010-07-18T14:49:41Z</time>
      </trkpt>
      <trkpt lat="44.12833" lon="5.96311">
        <ele>509</ele>
        <time>2010-07-18T14:49:49Z</time>
      </trkpt>
      <trkpt lat="44.12833" lon="5.96313">
        <ele>508</ele>
        <time>2010-07-18T14:49:58Z</time>
      </trkpt>
      <trkpt lat="44.1283" lon="5.96315">
        <ele>505</ele>
        <time>2010-07-18T14:50:10Z</time>
      </trkpt>
      <trkpt lat="44.12831" lon="5.96314">
        <ele>504</ele>
        <time>2010-07-18T14:50:29Z</time>
      </trkpt>
      <trkpt lat="44.12815" lon="5.96306">
        <ele>504</ele>
        <time>2010-07-18T14:50:38Z</time>
      </trkpt>
      <trkpt lat="44.12799" lon="5.96283">
        <ele>504</ele>
        <time>2010-07-18T14:50:45Z</time>
      </trkpt>
      <trkpt lat="44.12783" lon="5.96252">
        <ele>504</ele>
        <time>2010-07-18T14:50:56Z</time>
      </trkpt>
      <trkpt lat="44.12779" lon="5.96244">
        <ele>504</ele>
        <time>2010-07-18T14:51:03Z</time>
      </trkpt>
      <trkpt lat="44.12758" lon="5.9625">
        <ele>504</ele>
        <time>2010-07-18T14:51:11Z</time>
      </trkpt>
      <trkpt lat="44.1273" lon="5.96252">
        <ele>504</ele>
        <time>2010-07-18T14:51:20Z</time>
      </trkpt>
      <trkpt lat="44.12719" lon="5.96247">
        <ele>503</ele>
        <time>2010-07-18T14:51:29Z</time>
      </trkpt>
      <trkpt lat="44.12716" lon="5.96248">
        <ele>497</ele>
        <time>2010-07-18T14:51:38Z</time>
      </trkpt>
      <trkpt lat="44.12718" lon="5.96252">
        <ele>492</ele>
        <time>2010-07-18T14:51:46Z</time>
      </trkpt>
      <trkpt lat="44.12719" lon="5.9625">
        <ele>489</ele>
        <time>2010-07-18T14:51:55Z</time>
      </trkpt>
      <trkpt lat="44.1272" lon="5.96241">
        <ele>490</ele>
        <time>2010-07-18T14:52:03Z</time>
      </trkpt>
      <trkpt lat="44.12722" lon="5.96234">
        <ele>497</ele>
        <time>2010-07-18T14:52:12Z</time>
      </trkpt>
      <trkpt lat="44.12724" lon="5.96231">
        <ele>502</ele>
        <time>2010-07-18T14:52:21Z</time>
      </trkpt>
      <trkpt lat="44.12725" lon="5.96223">
        <ele>504</ele>
        <time>2010-07-18T14:52:29Z</time>
      </trkpt>
      <trkpt lat="44.12721" lon="5.96223">
        <ele>504</ele>
        <time>2010-07-18T14:52:38Z</time>
      </trkpt>
      <trkpt lat="44.12718" lon="5.96221">
        <ele>504</ele>
        <time>2010-07-18T14:52:47Z</time>
      </trkpt>
      <trkpt lat="44.12716" lon="5.96214">
        <ele>506</ele>
        <time>2010-07-18T14:52:57Z</time>
      </trkpt>
      <trkpt lat="44.12715" lon="5.96214">
        <ele>509</ele>
        <time>2010-07-18T14:53:06Z</time>
      </trkpt>
      <trkpt lat="44.12712" lon="5.9621">
        <ele>513</ele>
        <time>2010-07-18T14:53:14Z</time>
      </trkpt>
      <trkpt lat="44.12705" lon="5.96209">
        <ele>514</ele>
        <time>2010-07-18T14:53:24Z</time>
      </trkpt>
      <trkpt lat="44.12698" lon="5.96207">
        <ele>514</ele>
        <time>2010-07-18T14:53:32Z</time>
      </trkpt>
      <trkpt lat="44.12696" lon="5.96207">
        <ele>515</ele>
        <time>2010-07-18T14:53:40Z</time>
      </trkpt>
      <trkpt lat="44.12692" lon="5.96208">
        <ele>519</ele>
        <time>2010-07-18T14:53:48Z</time>
      </trkpt>
      <trkpt lat="44.12679" lon="5.96216">
        <ele>521</ele>
        <time>2010-07-18T14:53:57Z</time>
      </trkpt>
      <trkpt lat="44.12649" lon="5.96233">
        <ele>521</ele>
        <time>2010-07-18T14:54:06Z</time>
      </trkpt>
      <trkpt lat="44.1264" lon="5.96238">
        <ele>521</ele>
        <time>2010-07-18T14:54:16Z</time>
      </trkpt>
      <trkpt lat="44.1264" lon="5.96233">
        <ele>521</ele>
        <time>2010-07-18T14:54:32Z</time>
      </trkpt>
      <trkpt lat="44.1264" lon="5.96231">
        <ele>521</ele>
        <time>2010-07-18T14:54:40Z</time>
      </trkpt>
      <trkpt lat="44.12645" lon="5.96221">
        <ele>524</ele>
        <time>2010-07-18T14:54:49Z</time>
      </trkpt>
      <trkpt lat="44.12646" lon="5.96215">
        <ele>524</ele>
        <time>2010-07-18T14:54:59Z</time>
      </trkpt>
      <trkpt lat="44.12647" lon="5.96199">
        <ele>523</ele>
        <time>2010-07-18T14:55:07Z</time>
      </trkpt>
      <trkpt lat="44.12648" lon="5.96189">
        <ele>519</ele>
        <time>2010-07-18T14:55:17Z</time>
      </trkpt>
      <trkpt lat="44.12649" lon="5.96186">
        <ele>516</ele>
        <time>2010-07-18T14:55:25Z</time>
      </trkpt>
      <trkpt lat="44.12659" lon="5.96159">
        <ele>513</ele>
        <time>2010-07-18T14:55:33Z</time>
      </trkpt>
      <trkpt lat="44.12637" lon="5.96161">
        <ele>511</ele>
        <time>2010-07-18T14:55:41Z</time>
      </trkpt>
      <trkpt lat="44.12622" lon="5.96152">
        <ele>509</ele>
        <time>2010-07-18T14:55:51Z</time>
      </trkpt>
      <trkpt lat="44.12624" lon="5.96143">
        <ele>509</ele>
        <time>2010-07-18T14:56:01Z</time>
      </trkpt>
      <trkpt lat="44.12625" lon="5.96144">
        <ele>509</ele>
        <time>2010-07-18T14:56:12Z</time>
      </trkpt>
      <trkpt lat="44.12625" lon="5.96145">
        <ele>508</ele>
        <time>2010-07-18T14:56:20Z</time>
      </trkpt>
      <trkpt lat="44.12622" lon="5.9615">
        <ele>509</ele>
        <time>2010-07-18T14:56:28Z</time>
      </trkpt>
      <trkpt lat="44.12621" lon="5.96155">
        <ele>513</ele>
        <time>2010-07-18T14:56:37Z</time>
      </trkpt>
      <trkpt lat="44.12621" lon="5.96162">
        <ele>515</ele>
        <time>2010-07-18T14:56:44Z</time>
      </trkpt>
      <trkpt lat="44.1262" lon="5.96171">
        <ele>509</ele>
        <time>2010-07-18T14:57:01Z</time>
      </trkpt>
      <trkpt lat="44.12621" lon="5.96178">
        <ele>505</ele>
        <time>2010-07-18T14:57:09Z</time>
      </trkpt>
      <trkpt lat="44.12617" lon="5.96185">
        <ele>506</ele>
        <time>2010-07-18T14:57:18Z</time>
      </trkpt>
      <trkpt lat="44.12613" lon="5.96187">
        <ele>509</ele>
        <time>2010-07-18T14:57:27Z</time>
      </trkpt>
      <trkpt lat="44.12606" lon="5.96188">
        <ele>512</ele>
        <time>2010-07-18T14:57:35Z</time>
      </trkpt>
      <trkpt lat="44.12599" lon="5.96194">
        <ele>517</ele>
        <time>2010-07-18T14:57:48Z</time>
      </trkpt>
      <trkpt lat="44.12595" lon="5.96197">
        <ele>520</ele>
        <time>2010-07-18T14:57:56Z</time>
      </trkpt>
      <trkpt lat="44.12594" lon="5.96197">
        <ele>523</ele>
        <time>2010-07-18T14:58:06Z</time>
      </trkpt>
      <trkpt lat="44.12588" lon="5.96198">
        <ele>527</ele>
        <time>2010-07-18T14:58:15Z</time>
      </trkpt>
      <trkpt lat="44.12584" lon="5.96199">
        <ele>528</ele>
        <time>2010-07-18T14:58:23Z</time>
      </trkpt>
      <trkpt lat="44.12579" lon="5.96198">
        <ele>526</ele>
        <time>2010-07-18T14:58:30Z</time>
      </trkpt>
      <trkpt lat="44.1257" lon="5.96194">
        <ele>522</ele>
        <time>2010-07-18T14:58:37Z</time>
      </trkpt>
      <trkpt lat="44.12566" lon="5.96196">
        <ele>520</ele>
        <time>2010-07-18T14:58:44Z</time>
      </trkpt>
      <trkpt lat="44.12559" lon="5.96198">
        <ele>519</ele>
        <time>2010-07-18T14:58:52Z</time>
      </trkpt>
      <trkpt lat="44.12553" lon="5.96195">
        <ele>519</ele>
        <time>2010-07-18T14:59:00Z</time>
      </trkpt>
      <trkpt lat="44.12551" lon="5.96193">
        <ele>526</ele>
        <time>2010-07-18T14:59:18Z</time>
      </trkpt>
      <trkpt lat="44.12549" lon="5.96194">
        <ele>530</ele>
        <time>2010-07-18T14:59:28Z</time>
      </trkpt>
      <trkpt lat="44.12547" lon="5.96194">
        <ele>533</ele>
        <time>2010-07-18T14:59:36Z</time>
      </trkpt>
      <trkpt lat="44.12551" lon="5.96185">
        <ele>535</ele>
        <time>2010-07-18T14:59:46Z</time>
      </trkpt>
      <trkpt lat="44.12552" lon="5.96183">
        <ele>535</ele>
        <time>2010-07-18T14:59:55Z</time>
      </trkpt>
      <trkpt lat="44.12547" lon="5.96185">
        <ele>533</ele>
        <time>2010-07-18T15:00:04Z</time>
      </trkpt>
      <trkpt lat="44.12545" lon="5.96182">
        <ele>529</ele>
        <time>2010-07-18T15:00:13Z</time>
      </trkpt>
      <trkpt lat="44.12545" lon="5.9618">
        <ele>529</ele>
        <time>2010-07-18T15:00:21Z</time>
      </trkpt>
      <trkpt lat="44.12543" lon="5.96181">
        <ele>529</ele>
        <time>2010-07-18T15:00:30Z</time>
      </trkpt>
      <trkpt lat="44.12543" lon="5.96183">
        <ele>530</ele>
        <time>2010-07-18T15:00:39Z</time>
      </trkpt>
      <trkpt lat="44.12543" lon="5.96179">
        <ele>530</ele>
        <time>2010-07-18T15:00:48Z</time>
      </trkpt>
      <trkpt lat="44.12543" lon="5.96175">
        <ele>530</ele>
        <time>2010-07-18T15:00:56Z</time>
      </trkpt>
      <trkpt lat="44.12538" lon="5.96178">
        <ele>531</ele>
        <time>2010-07-18T15:01:10Z</time>
      </trkpt>
      <trkpt lat="44.12538" lon="5.96178">
        <ele>536</ele>
        <time>2010-07-18T15:01:26Z</time>
      </trkpt>
      <trkpt lat="44.1254" lon="5.96177">
        <ele>538</ele>
        <time>2010-07-18T15:01:34Z</time>
      </trkpt>
      <trkpt lat="44.12539" lon="5.96171">
        <ele>537</ele>
        <time>2010-07-18T15:01:44Z</time>
      </trkpt>
      <trkpt lat="44.12532" lon="5.96172">
        <ele>534</ele>
        <time>2010-07-18T15:01:54Z</time>
      </trkpt>
      <trkpt lat="44.12526" lon="5.96167">
        <ele>534</ele>
        <time>2010-07-18T15:02:02Z</time>
      </trkpt>
      <trkpt lat="44.12513" lon="5.96158">
        <ele>531</ele>
        <time>2010-07-18T15:02:09Z</time>
      </trkpt>
      <trkpt lat="44.12508" lon="5.96156">
        <ele>525</ele>
        <time>2010-07-18T15:02:17Z</time>
      </trkpt>
      <trkpt lat="44.12505" lon="5.96155">
        <ele>519</ele>
        <time>2010-07-18T15:02:28Z</time>
      </trkpt>
      <trkpt lat="44.12503" lon="5.96155">
        <ele>519</ele>
        <time>2010-07-18T15:02:36Z</time>
      </trkpt>
      <trkpt lat="44.12503" lon="5.96155">
        <ele>517</ele>
        <time>2010-07-18T15:02:45Z</time>
      </trkpt>
      <trkpt lat="44.12499" lon="5.96152">
        <ele>517</ele>
        <time>2010-07-18T15:02:53Z</time>
      </trkpt>
      <trkpt lat="44.12486" lon="5.96147">
        <ele>517</ele>
        <time>2010-07-18T15:03:02Z</time>
      </trkpt>
      <trkpt lat="44.12483" lon="5.96144">
        <ele>517</ele>
        <time>2010-07-18T15:03:09Z</time>
      </trkpt>
      <trkpt lat="44.12483" lon="5.96134">
        <ele>517</ele>
        <time>2010-07-18T15:03:17Z</time>
      </trkpt>
      <trkpt lat="44.12481" lon="5.96127">
        <ele>519</ele>
        <time>2010-07-18T15:03:26Z</time>
      </trkpt>
      <trkpt lat="44.12477" lon="5.96119">
        <ele>523</ele>
        <time>2010-07-18T15:03:35Z</time>
      </trkpt>
      <trkpt lat="44.12474" lon="5.96113">
        <ele>524</ele>
        <time>2010-07-18T15:03:45Z</time>
      </trkpt>
      <trkpt lat="44.12473" lon="5.96112">
        <ele>524</ele>
        <time>2010-07-18T15:03:54Z</time>
      </trkpt>
      <trkpt lat="44.12467" lon="5.96113">
        <ele>523</ele>
        <time>2010-07-18T15:04:05Z</time>
      </trkpt>
      <trkpt lat="44.12461" lon="5.9612">
        <ele>521</ele>
        <time>2010-07-18T15:04:12Z</time>
      </trkpt>
      <trkpt lat="44.12457" lon="5.96122">
        <ele>520</ele>
        <time>2010-07-18T15:04:20Z</time>
      </trkpt>
      <trkpt lat="44.12456" lon="5.96128">
        <ele>522</ele>
        <time>2010-07-18T15:04:30Z</time>
      </trkpt>
      <trkpt lat="44.12458" lon="5.96126">
        <ele>524</ele>
        <time>2010-07-18T15:04:38Z</time>
      </trkpt>
      <trkpt lat="44.12452" lon="5.96135">
        <ele>524</ele>
        <time>2010-07-18T15:04:46Z</time>
      </trkpt>
      <trkpt lat="44.12453" lon="5.96136">
        <ele>524</ele>
        <time>2010-07-18T15:04:55Z</time>
      </trkpt>
      <trkpt lat="44.12455" lon="5.96137">
        <ele>524</ele>
        <time>2010-07-18T15:05:03Z</time>
      </trkpt>
      <trkpt lat="44.12455" lon="5.96138">
        <ele>531</ele>
        <time>2010-07-18T15:05:21Z</time>
      </trkpt>
      <trkpt lat="44.12453" lon="5.96142">
        <ele>536</ele>
        <time>2010-07-18T15:05:30Z</time>
      </trkpt>
      <trkpt lat="44.12452" lon="5.96143">
        <ele>539</ele>
        <time>2010-07-18T15:05:39Z</time>
      </trkpt>
      <trkpt lat="44.12453" lon="5.96143">
        <ele>539</ele>
        <time>2010-07-18T15:05:47Z</time>
      </trkpt>
      <trkpt lat="44.12456" lon="5.96144">
        <ele>539</ele>
        <time>2010-07-18T15:05:55Z</time>
      </trkpt>
      <trkpt lat="44.1245" lon="5.96144">
        <ele>539</ele>
        <time>2010-07-18T15:06:04Z</time>
      </trkpt>
      <trkpt lat="44.12448" lon="5.96141">
        <ele>532</ele>
        <time>2010-07-18T15:06:14Z</time>
      </trkpt>
      <trkpt lat="44.12449" lon="5.96145">
        <ele>526</ele>
        <time>2010-07-18T15:06:22Z</time>
      </trkpt>
      <trkpt lat="44.12452" lon="5.96145">
        <ele>505</ele>
        <time>2010-07-18T15:06:41Z</time>
      </trkpt>
      <trkpt lat="44.12452" lon="5.96144">
        <ele>504</ele>
        <time>2010-07-18T15:06:49Z</time>
      </trkpt>
      <trkpt lat="44.12451" lon="5.96145">
        <ele>504</ele>
        <time>2010-07-18T15:06:58Z</time>
      </trkpt>
      <trkpt lat="44.12445" lon="5.96152">
        <ele>511</ele>
        <time>2010-07-18T15:07:08Z</time>
      </trkpt>
      <trkpt lat="44.12445" lon="5.9615">
        <ele>534</ele>
        <time>2010-07-18T15:07:26Z</time>
      </trkpt>
      <trkpt lat="44.12447" lon="5.96148">
        <ele>538</ele>
        <time>2010-07-18T15:07:35Z</time>
      </trkpt>
      <trkpt lat="44.12448" lon="5.96147">
        <ele>539</ele>
        <time>2010-07-18T15:07:43Z</time>
      </trkpt>
      <trkpt lat="44.12449" lon="5.96143">
        <ele>533</ele>
        <time>2010-07-18T15:07:53Z</time>
      </trkpt>
      <trkpt lat="44.12448" lon="5.96141">
        <ele>531</ele>
        <time>2010-07-18T15:08:00Z</time>
      </trkpt>
      <trkpt lat="44.12448" lon="5.96139">
        <ele>531</ele>
        <time>2010-07-18T15:08:08Z</time>
      </trkpt>
      <trkpt lat="44.12449" lon="5.96137">
        <ele>533</ele>
        <time>2010-07-18T15:08:17Z</time>
      </trkpt>
      <trkpt lat="44.12446" lon="5.96128">
        <ele>534</ele>
        <time>2010-07-18T15:08:26Z</time>
      </trkpt>
      <trkpt lat="44.12444" lon="5.96123">
        <ele>534</ele>
        <time>2010-07-18T15:08:34Z</time>
      </trkpt>
      <trkpt lat="44.12447" lon="5.96114">
        <ele>530</ele>
        <time>2010-07-18T15:08:43Z</time>
      </trkpt>
      <trkpt lat="44.12452" lon="5.96105">
        <ele>526</ele>
        <time>2010-07-18T15:08:53Z</time>
      </trkpt>
      <trkpt lat="44.12453" lon="5.9609">
        <ele>524</ele>
        <time>2010-07-18T15:09:01Z</time>
      </trkpt>
      <trkpt lat="44.12452" lon="5.96071">
        <ele>522</ele>
        <time>2010-07-18T15:09:08Z</time>
      </trkpt>
      <trkpt lat="44.12451" lon="5.9606">
        <ele>522</ele>
        <time>2010-07-18T15:09:17Z</time>
      </trkpt>
      <trkpt lat="44.12455" lon="5.96043">
        <ele>522</ele>
        <time>2010-07-18T15:09:27Z</time>
      </trkpt>
      <trkpt lat="44.12457" lon="5.96034">
        <ele>522</ele>
        <time>2010-07-18T15:09:34Z</time>
      </trkpt>
      <trkpt lat="44.1246" lon="5.96032">
        <ele>520</ele>
        <time>2010-07-18T15:09:42Z</time>
      </trkpt>
      <trkpt lat="44.1246" lon="5.96026">
        <ele>518</ele>
        <time>2010-07-18T15:09:50Z</time>
      </trkpt>
      <trkpt lat="44.12457" lon="5.9601">
        <ele>515</ele>
        <time>2010-07-18T15:09:59Z</time>
      </trkpt>
      <trkpt lat="44.12453" lon="5.96005">
        <ele>514</ele>
        <time>2010-07-18T15:10:08Z</time>
      </trkpt>
      <trkpt lat="44.12445" lon="5.96006">
        <ele>514</ele>
        <time>2010-07-18T15:10:15Z</time>
      </trkpt>
      <trkpt lat="44.12436" lon="5.96003">
        <ele>514</ele>
        <time>2010-07-18T15:10:24Z</time>
      </trkpt>
      <trkpt lat="44.1243" lon="5.96">
        <ele>514</ele>
        <time>2010-07-18T15:10:31Z</time>
      </trkpt>
      <trkpt lat="44.1242" lon="5.96001">
        <ele>514</ele>
        <time>2010-07-18T15:10:39Z</time>
      </trkpt>
      <trkpt lat="44.12407" lon="5.9601">
        <ele>514</ele>
        <time>2010-07-18T15:10:48Z</time>
      </trkpt>
      <trkpt lat="44.12389" lon="5.96024">
        <ele>514</ele>
        <time>2010-07-18T15:10:55Z</time>
      </trkpt>
      <trkpt lat="44.12385" lon="5.9604">
        <ele>514</ele>
        <time>2010-07-18T15:11:04Z</time>
      </trkpt>
      <trkpt lat="44.12378" lon="5.96067">
        <ele>514</ele>
        <time>2010-07-18T15:11:12Z</time>
      </trkpt>
      <trkpt lat="44.12381" lon="5.96068">
        <ele>516</ele>
        <time>2010-07-18T15:11:20Z</time>
      </trkpt>
      <trkpt lat="44.1238" lon="5.9607">
        <ele>529</ele>
        <time>2010-07-18T15:11:31Z</time>
      </trkpt>
      <trkpt lat="44.12385" lon="5.96044">
        <ele>534</ele>
        <time>2010-07-18T15:11:38Z</time>
      </trkpt>
      <trkpt lat="44.12386" lon="5.96026">
        <ele>532</ele>
        <time>2010-07-18T15:11:48Z</time>
      </trkpt>
      <trkpt lat="44.12392" lon="5.96021">
        <ele>530</ele>
        <time>2010-07-18T15:12:03Z</time>
      </trkpt>
      <trkpt lat="44.1239" lon="5.96023">
        <ele>526</ele>
        <time>2010-07-18T15:12:12Z</time>
      </trkpt>
      <trkpt lat="44.12389" lon="5.96024">
        <ele>520</ele>
        <time>2010-07-18T15:12:21Z</time>
      </trkpt>
      <trkpt lat="44.1239" lon="5.96026">
        <ele>516</ele>
        <time>2010-07-18T15:12:37Z</time>
      </trkpt>
      <trkpt lat="44.12391" lon="5.96025">
        <ele>516</ele>
        <time>2010-07-18T15:12:45Z</time>
      </trkpt>
      <trkpt lat="44.12392" lon="5.96027">
        <ele>516</ele>
        <time>2010-07-18T15:13:00Z</time>
      </trkpt>
      <trkpt lat="44.12392" lon="5.96029">
        <ele>516</ele>
        <time>2010-07-18T15:13:09Z</time>
      </trkpt>
      <trkpt lat="44.12389" lon="5.96031">
        <ele>505</ele>
        <time>2010-07-18T15:13:47Z</time>
      </trkpt>
      <trkpt lat="44.12386" lon="5.9603">
        <ele>505</ele>
        <time>2010-07-18T15:13:55Z</time>
      </trkpt>
      <trkpt lat="44.12386" lon="5.96028">
        <ele>509</ele>
        <time>2010-07-18T15:14:04Z</time>
      </trkpt>
      <trkpt lat="44.12394" lon="5.96019">
        <ele>516</ele>
        <time>2010-07-18T15:14:12Z</time>
      </trkpt>
      <trkpt lat="44.12396" lon="5.96015">
        <ele>518</ele>
        <time>2010-07-18T15:14:20Z</time>
      </trkpt>
      <trkpt lat="44.12403" lon="5.95989">
        <ele>520</ele>
        <time>2010-07-18T15:14:27Z</time>
      </trkpt>
      <trkpt lat="44.12426" lon="5.95983">
        <ele>520</ele>
        <time>2010-07-18T15:14:34Z</time>
      </trkpt>
      <trkpt lat="44.12427" lon="5.95978">
        <ele>518</ele>
        <time>2010-07-18T15:14:42Z</time>
      </trkpt>
      <trkpt lat="44.12427" lon="5.95968">
        <ele>515</ele>
        <time>2010-07-18T15:14:49Z</time>
      </trkpt>
      <trkpt lat="44.12422" lon="5.95958">
        <ele>513</ele>
        <time>2010-07-18T15:14:56Z</time>
      </trkpt>
      <trkpt lat="44.12408" lon="5.95951">
        <ele>511</ele>
        <time>2010-07-18T15:15:03Z</time>
      </trkpt>
      <trkpt lat="44.12397" lon="5.95926">
        <ele>509</ele>
        <time>2010-07-18T15:15:10Z</time>
      </trkpt>
      <trkpt lat="44.12374" lon="5.95904">
        <ele>507</ele>
        <time>2010-07-18T15:15:17Z</time>
      </trkpt>
      <trkpt lat="44.12392" lon="5.95873">
        <ele>503</ele>
        <time>2010-07-18T15:15:24Z</time>
      </trkpt>
      <trkpt lat="44.12411" lon="5.95832">
        <ele>500</ele>
        <time>2010-07-18T15:15:32Z</time>
      </trkpt>
      <trkpt lat="44.12422" lon="5.95783">
        <ele>496</ele>
        <time>2010-07-18T15:15:39Z</time>
      </trkpt>
      <trkpt lat="44.1243" lon="5.95736">
        <ele>495</ele>
        <time>2010-07-18T15:15:46Z</time>
      </trkpt>
      <trkpt lat="44.12437" lon="5.95693">
        <ele>495</ele>
        <time>2010-07-18T15:15:53Z</time>
      </trkpt>
      <trkpt lat="44.12431" lon="5.9568">
        <ele>495</ele>
        <time>2010-07-18T15:16:00Z</time>
      </trkpt>
      <trkpt lat="44.12417" lon="5.95672">
        <ele>494</ele>
        <time>2010-07-18T15:16:08Z</time>
      </trkpt>
      <trkpt lat="44.12405" lon="5.95663">
        <ele>493</ele>
        <time>2010-07-18T15:16:15Z</time>
      </trkpt>
      <trkpt lat="44.12393" lon="5.95653">
        <ele>492</ele>
        <time>2010-07-18T15:16:22Z</time>
      </trkpt>
      <trkpt lat="44.1238" lon="5.95643">
        <ele>492</ele>
        <time>2010-07-18T15:16:29Z</time>
      </trkpt>
      <trkpt lat="44.12363" lon="5.95632">
        <ele>492</ele>
        <time>2010-07-18T15:16:36Z</time>
      </trkpt>
      <trkpt lat="44.12341" lon="5.95616">
        <ele>492</ele>
        <time>2010-07-18T15:16:43Z</time>
      </trkpt>
      <trkpt lat="44.12316" lon="5.95598">
        <ele>492</ele>
        <time>2010-07-18T15:16:50Z</time>
      </trkpt>
      <trkpt lat="44.1229" lon="5.95581">
        <ele>492</ele>
        <time>2010-07-18T15:16:57Z</time>
      </trkpt>
      <trkpt lat="44.12265" lon="5.95564">
        <ele>492</ele>
        <time>2010-07-18T15:17:04Z</time>
      </trkpt>
      <trkpt lat="44.12239" lon="5.95544">
        <ele>492</ele>
        <time>2010-07-18T15:17:11Z</time>
      </trkpt>
      <trkpt lat="44.12215" lon="5.95522">
        <ele>492</ele>
        <time>2010-07-18T15:17:18Z</time>
      </trkpt>
      <trkpt lat="44.12193" lon="5.95498">
        <ele>492</ele>
        <time>2010-07-18T15:17:25Z</time>
      </trkpt>
      <trkpt lat="44.1217" lon="5.95474">
        <ele>493</ele>
        <time>2010-07-18T15:17:32Z</time>
      </trkpt>
      <trkpt lat="44.12146" lon="5.95449">
        <ele>494</ele>
        <time>2010-07-18T15:17:39Z</time>
      </trkpt>
      <trkpt lat="44.1212" lon="5.95426">
        <ele>495</ele>
        <time>2010-07-18T15:17:46Z</time>
      </trkpt>
      <trkpt lat="44.12096" lon="5.95403">
        <ele>496</ele>
        <time>2010-07-18T15:17:53Z</time>
      </trkpt>
      <trkpt lat="44.12072" lon="5.9538">
        <ele>496</ele>
        <time>2010-07-18T15:18:00Z</time>
      </trkpt>
      <trkpt lat="44.12048" lon="5.95361">
        <ele>496</ele>
        <time>2010-07-18T15:18:07Z</time>
      </trkpt>
      <trkpt lat="44.1202" lon="5.95347">
        <ele>496</ele>
        <time>2010-07-18T15:18:14Z</time>
      </trkpt>
      <trkpt lat="44.11992" lon="5.95332">
        <ele>496</ele>
        <time>2010-07-18T15:18:21Z</time>
      </trkpt>
      <trkpt lat="44.11964" lon="5.95318">
        <ele>496</ele>
        <time>2010-07-18T15:18:28Z</time>
      </trkpt>
      <trkpt lat="44.11937" lon="5.95298">
        <ele>496</ele>
        <time>2010-07-18T15:18:35Z</time>
      </trkpt>
      <trkpt lat="44.11921" lon="5.95267">
        <ele>498</ele>
        <time>2010-07-18T15:18:42Z</time>
      </trkpt>
      <trkpt lat="44.11911" lon="5.95234">
        <ele>499</ele>
        <time>2010-07-18T15:18:49Z</time>
      </trkpt>
      <trkpt lat="44.11901" lon="5.95205">
        <ele>499</ele>
        <time>2010-07-18T15:18:56Z</time>
      </trkpt>
      <trkpt lat="44.11893" lon="5.95178">
        <ele>501</ele>
        <time>2010-07-18T15:19:03Z</time>
      </trkpt>
      <trkpt lat="44.11884" lon="5.95152">
        <ele>503</ele>
        <time>2010-07-18T15:19:10Z</time>
      </trkpt>
      <trkpt lat="44.11874" lon="5.9513">
        <ele>505</ele>
        <time>2010-07-18T15:19:17Z</time>
      </trkpt>
      <trkpt lat="44.11866" lon="5.95109">
        <ele>506</ele>
        <time>2010-07-18T15:19:24Z</time>
      </trkpt>
      <trkpt lat="44.11858" lon="5.95091">
        <ele>506</ele>
        <time>2010-07-18T15:19:32Z</time>
      </trkpt>
      <trkpt lat="44.1185" lon="5.95079">
        <ele>507</ele>
        <time>2010-07-18T15:19:39Z</time>
      </trkpt>
      <trkpt lat="44.11831" lon="5.95078">
        <ele>508</ele>
        <time>2010-07-18T15:19:46Z</time>
      </trkpt>
      <trkpt lat="44.11805" lon="5.95079">
        <ele>508</ele>
        <time>2010-07-18T15:19:53Z</time>
      </trkpt>
      <trkpt lat="44.11775" lon="5.9508">
        <ele>508</ele>
        <time>2010-07-18T15:20:00Z</time>
      </trkpt>
      <trkpt lat="44.11742" lon="5.95084">
        <ele>508</ele>
        <time>2010-07-18T15:20:08Z</time>
      </trkpt>
      <trkpt lat="44.11717" lon="5.95091">
        <ele>509</ele>
        <time>2010-07-18T15:20:15Z</time>
      </trkpt>
      <trkpt lat="44.11693" lon="5.95098">
        <ele>512</ele>
        <time>2010-07-18T15:20:22Z</time>
      </trkpt>
      <trkpt lat="44.11665" lon="5.95105">
        <ele>513</ele>
        <time>2010-07-18T15:20:30Z</time>
      </trkpt>
      <trkpt lat="44.11642" lon="5.9511">
        <ele>514</ele>
        <time>2010-07-18T15:20:37Z</time>
      </trkpt>
      <trkpt lat="44.11617" lon="5.95114">
        <ele>515</ele>
        <time>2010-07-18T15:20:45Z</time>
      </trkpt>
      <trkpt lat="44.11591" lon="5.95111">
        <ele>517</ele>
        <time>2010-07-18T15:20:53Z</time>
      </trkpt>
      <trkpt lat="44.11569" lon="5.95106">
        <ele>518</ele>
        <time>2010-07-18T15:21:00Z</time>
      </trkpt>
      <trkpt lat="44.11545" lon="5.95099">
        <ele>519</ele>
        <time>2010-07-18T15:21:07Z</time>
      </trkpt>
      <trkpt lat="44.11519" lon="5.95092">
        <ele>519</ele>
        <time>2010-07-18T15:21:14Z</time>
      </trkpt>
      <trkpt lat="44.11489" lon="5.95083">
        <ele>519</ele>
        <time>2010-07-18T15:21:21Z</time>
      </trkpt>
      <trkpt lat="44.11455" lon="5.95071">
        <ele>519</ele>
        <time>2010-07-18T15:21:28Z</time>
      </trkpt>
      <trkpt lat="44.11417" lon="5.9506">
        <ele>519</ele>
        <time>2010-07-18T15:21:35Z</time>
      </trkpt>
      <trkpt lat="44.1138" lon="5.9505">
        <ele>519</ele>
        <time>2010-07-18T15:21:42Z</time>
      </trkpt>
      <trkpt lat="44.11346" lon="5.9504">
        <ele>519</ele>
        <time>2010-07-18T15:21:49Z</time>
      </trkpt>
      <trkpt lat="44.11315" lon="5.95032">
        <ele>521</ele>
        <time>2010-07-18T15:21:56Z</time>
      </trkpt>
      <trkpt lat="44.11288" lon="5.95022">
        <ele>522</ele>
        <time>2010-07-18T15:22:03Z</time>
      </trkpt>
      <trkpt lat="44.11259" lon="5.95014">
        <ele>525</ele>
        <time>2010-07-18T15:22:10Z</time>
      </trkpt>
      <trkpt lat="44.11231" lon="5.95006">
        <ele>526</ele>
        <time>2010-07-18T15:22:17Z</time>
      </trkpt>
      <trkpt lat="44.11203" lon="5.94998">
        <ele>527</ele>
        <time>2010-07-18T15:22:24Z</time>
      </trkpt>
      <trkpt lat="44.11174" lon="5.9499">
        <ele>528</ele>
        <time>2010-07-18T15:22:31Z</time>
      </trkpt>
      <trkpt lat="44.11145" lon="5.94982">
        <ele>528</ele>
        <time>2010-07-18T15:22:38Z</time>
      </trkpt>
      <trkpt lat="44.11116" lon="5.94975">
        <ele>529</ele>
        <time>2010-07-18T15:22:45Z</time>
      </trkpt>
      <trkpt lat="44.11088" lon="5.94967">
        <ele>530</ele>
        <time>2010-07-18T15:22:52Z</time>
      </trkpt>
      <trkpt lat="44.11059" lon="5.94958">
        <ele>530</ele>
        <time>2010-07-18T15:22:59Z</time>
      </trkpt>
      <trkpt lat="44.11031" lon="5.94945">
        <ele>530</ele>
        <time>2010-07-18T15:23:06Z</time>
      </trkpt>
      <trkpt lat="44.11005" lon="5.94931">
        <ele>530</ele>
        <time>2010-07-18T15:23:13Z</time>
      </trkpt>
      <trkpt lat="44.10981" lon="5.94914">
        <ele>530</ele>
        <time>2010-07-18T15:23:20Z</time>
      </trkpt>
      <trkpt lat="44.10957" lon="5.94902">
        <ele>532</ele>
        <time>2010-07-18T15:23:27Z</time>
      </trkpt>
      <trkpt lat="44.10932" lon="5.94893">
        <ele>534</ele>
        <time>2010-07-18T15:23:34Z</time>
      </trkpt>
      <trkpt lat="44.1091" lon="5.94879">
        <ele>534</ele>
        <time>2010-07-18T15:23:41Z</time>
      </trkpt>
      <trkpt lat="44.10888" lon="5.94862">
        <ele>534</ele>
        <time>2010-07-18T15:23:48Z</time>
      </trkpt>
      <trkpt lat="44.10867" lon="5.94845">
        <ele>534</ele>
        <time>2010-07-18T15:23:55Z</time>
      </trkpt>
      <trkpt lat="44.10847" lon="5.94828">
        <ele>538</ele>
        <time>2010-07-18T15:24:02Z</time>
      </trkpt>
      <trkpt lat="44.1082" lon="5.94812">
        <ele>541</ele>
        <time>2010-07-18T15:24:09Z</time>
      </trkpt>
      <trkpt lat="44.10786" lon="5.94801">
        <ele>542</ele>
        <time>2010-07-18T15:24:17Z</time>
      </trkpt>
      <trkpt lat="44.10757" lon="5.94797">
        <ele>545</ele>
        <time>2010-07-18T15:24:24Z</time>
      </trkpt>
      <trkpt lat="44.10731" lon="5.94796">
        <ele>546</ele>
        <time>2010-07-18T15:24:31Z</time>
      </trkpt>
      <trkpt lat="44.10704" lon="5.94791">
        <ele>546</ele>
        <time>2010-07-18T15:24:38Z</time>
      </trkpt>
      <trkpt lat="44.10679" lon="5.94783">
        <ele>546</ele>
        <time>2010-07-18T15:24:45Z</time>
      </trkpt>
      <trkpt lat="44.10651" lon="5.94773">
        <ele>548</ele>
        <time>2010-07-18T15:24:52Z</time>
      </trkpt>
      <trkpt lat="44.10619" lon="5.94761">
        <ele>550</ele>
        <time>2010-07-18T15:24:59Z</time>
      </trkpt>
      <trkpt lat="44.10579" lon="5.94749">
        <ele>552</ele>
        <time>2010-07-18T15:25:07Z</time>
      </trkpt>
      <trkpt lat="44.10543" lon="5.94743">
        <ele>552</ele>
        <time>2010-07-18T15:25:14Z</time>
      </trkpt>
      <trkpt lat="44.10513" lon="5.9474">
        <ele>552</ele>
        <time>2010-07-18T15:25:21Z</time>
      </trkpt>
      <trkpt lat="44.1049" lon="5.94734">
        <ele>552</ele>
        <time>2010-07-18T15:25:28Z</time>
      </trkpt>
      <trkpt lat="44.10466" lon="5.94732">
        <ele>552</ele>
        <time>2010-07-18T15:25:35Z</time>
      </trkpt>
      <trkpt lat="44.10442" lon="5.94731">
        <ele>552</ele>
        <time>2010-07-18T15:25:42Z</time>
      </trkpt>
      <trkpt lat="44.10417" lon="5.9473">
        <ele>552</ele>
        <time>2010-07-18T15:25:49Z</time>
      </trkpt>
      <trkpt lat="44.1039" lon="5.94723">
        <ele>552</ele>
        <time>2010-07-18T15:25:56Z</time>
      </trkpt>
      <trkpt lat="44.1036" lon="5.94717">
        <ele>552</ele>
        <time>2010-07-18T15:26:03Z</time>
      </trkpt>
      <trkpt lat="44.1033" lon="5.9471">
        <ele>552</ele>
        <time>2010-07-18T15:26:10Z</time>
      </trkpt>
      <trkpt lat="44.10302" lon="5.94701">
        <ele>552</ele>
        <time>2010-07-18T15:26:17Z</time>
      </trkpt>
      <trkpt lat="44.10278" lon="5.94701">
        <ele>552</ele>
        <time>2010-07-18T15:26:25Z</time>
      </trkpt>
      <trkpt lat="44.10255" lon="5.94709">
        <ele>552</ele>
        <time>2010-07-18T15:26:32Z</time>
      </trkpt>
      <trkpt lat="44.10226" lon="5.9472">
        <ele>552</ele>
        <time>2010-07-18T15:26:39Z</time>
      </trkpt>
      <trkpt lat="44.10195" lon="5.94735">
        <ele>552</ele>
        <time>2010-07-18T15:26:46Z</time>
      </trkpt>
      <trkpt lat="44.10164" lon="5.94748">
        <ele>552</ele>
        <time>2010-07-18T15:26:53Z</time>
      </trkpt>
      <trkpt lat="44.10132" lon="5.94761">
        <ele>552</ele>
        <time>2010-07-18T15:27:00Z</time>
      </trkpt>
      <trkpt lat="44.10102" lon="5.94774">
        <ele>552</ele>
        <time>2010-07-18T15:27:07Z</time>
      </trkpt>
      <trkpt lat="44.10074" lon="5.94787">
        <ele>552</ele>
        <time>2010-07-18T15:27:14Z</time>
      </trkpt>
      <trkpt lat="44.10047" lon="5.94799">
        <ele>552</ele>
        <time>2010-07-18T15:27:21Z</time>
      </trkpt>
      <trkpt lat="44.1002" lon="5.9481">
        <ele>552</ele>
        <time>2010-07-18T15:27:28Z</time>
      </trkpt>
      <trkpt lat="44.09991" lon="5.94821">
        <ele>552</ele>
        <time>2010-07-18T15:27:35Z</time>
      </trkpt>
      <trkpt lat="44.0996" lon="5.9483">
        <ele>552</ele>
        <time>2010-07-18T15:27:42Z</time>
      </trkpt>
      <trkpt lat="44.09921" lon="5.94841">
        <ele>552</ele>
        <time>2010-07-18T15:27:49Z</time>
      </trkpt>
      <trkpt lat="44.09881" lon="5.94851">
        <ele>552</ele>
        <time>2010-07-18T15:27:56Z</time>
      </trkpt>
      <trkpt lat="44.09841" lon="5.94861">
        <ele>552</ele>
        <time>2010-07-18T15:28:03Z</time>
      </trkpt>
      <trkpt lat="44.098" lon="5.9487">
        <ele>552</ele>
        <time>2010-07-18T15:28:10Z</time>
      </trkpt>
      <trkpt lat="44.09758" lon="5.9488">
        <ele>552</ele>
        <time>2010-07-18T15:28:17Z</time>
      </trkpt>
      <trkpt lat="44.09721" lon="5.94888">
        <ele>551</ele>
        <time>2010-07-18T15:28:24Z</time>
      </trkpt>
      <trkpt lat="44.09687" lon="5.94897">
        <ele>551</ele>
        <time>2010-07-18T15:28:31Z</time>
      </trkpt>
      <trkpt lat="44.09652" lon="5.94906">
        <ele>550</ele>
        <time>2010-07-18T15:28:41Z</time>
      </trkpt>
      <trkpt lat="44.09613" lon="5.94914">
        <ele>550</ele>
        <time>2010-07-18T15:28:49Z</time>
      </trkpt>
      <trkpt lat="44.09573" lon="5.94924">
        <ele>549</ele>
        <time>2010-07-18T15:28:56Z</time>
      </trkpt>
      <trkpt lat="44.09543" lon="5.94931">
        <ele>548</ele>
        <time>2010-07-18T15:29:03Z</time>
      </trkpt>
      <trkpt lat="44.09503" lon="5.94941">
        <ele>547</ele>
        <time>2010-07-18T15:29:10Z</time>
      </trkpt>
      <trkpt lat="44.09466" lon="5.94949">
        <ele>546</ele>
        <time>2010-07-18T15:29:17Z</time>
      </trkpt>
      <trkpt lat="44.09436" lon="5.94957">
        <ele>545</ele>
        <time>2010-07-18T15:29:25Z</time>
      </trkpt>
      <trkpt lat="44.09407" lon="5.94961">
        <ele>545</ele>
        <time>2010-07-18T15:29:32Z</time>
      </trkpt>
      <trkpt lat="44.09411" lon="5.94962">
        <ele>549</ele>
        <time>2010-07-18T15:29:42Z</time>
      </trkpt>
      <trkpt lat="44.09407" lon="5.94962">
        <ele>553</ele>
        <time>2010-07-18T15:29:51Z</time>
      </trkpt>
      <trkpt lat="44.09407" lon="5.94964">
        <ele>555</ele>
        <time>2010-07-18T15:29:58Z</time>
      </trkpt>
      <trkpt lat="44.09406" lon="5.94969">
        <ele>561</ele>
        <time>2010-07-18T15:30:07Z</time>
      </trkpt>
      <trkpt lat="44.09404" lon="5.94973">
        <ele>564</ele>
        <time>2010-07-18T15:30:15Z</time>
      </trkpt>
      <trkpt lat="44.09384" lon="5.94973">
        <ele>566</ele>
        <time>2010-07-18T15:30:23Z</time>
      </trkpt>
      <trkpt lat="44.09381" lon="5.95018">
        <ele>566</ele>
        <time>2010-07-18T15:30:31Z</time>
      </trkpt>
      <trkpt lat="44.09372" lon="5.95078">
        <ele>566</ele>
        <time>2010-07-18T15:30:39Z</time>
      </trkpt>
      <trkpt lat="44.09354" lon="5.95146">
        <ele>566</ele>
        <time>2010-07-18T15:30:46Z</time>
      </trkpt>
      <trkpt lat="44.09333" lon="5.95185">
        <ele>563</ele>
        <time>2010-07-18T15:30:53Z</time>
      </trkpt>
      <trkpt lat="44.09306" lon="5.95236">
        <ele>560</ele>
        <time>2010-07-18T15:31:00Z</time>
      </trkpt>
      <trkpt lat="44.09277" lon="5.95284">
        <ele>556</ele>
        <time>2010-07-18T15:31:07Z</time>
      </trkpt>
      <trkpt lat="44.09248" lon="5.95323">
        <ele>552</ele>
        <time>2010-07-18T15:31:15Z</time>
      </trkpt>
      <trkpt lat="44.09194" lon="5.95391">
        <ele>545</ele>
        <time>2010-07-18T15:31:22Z</time>
      </trkpt>
      <trkpt lat="44.0916" lon="5.95429">
        <ele>545</ele>
        <time>2010-07-18T15:31:29Z</time>
      </trkpt>
      <trkpt lat="44.09122" lon="5.95461">
        <ele>544</ele>
        <time>2010-07-18T15:31:36Z</time>
      </trkpt>
      <trkpt lat="44.09081" lon="5.95493">
        <ele>543</ele>
        <time>2010-07-18T15:31:43Z</time>
      </trkpt>
      <trkpt lat="44.09037" lon="5.95519">
        <ele>542</ele>
        <time>2010-07-18T15:31:50Z</time>
      </trkpt>
      <trkpt lat="44.08991" lon="5.95533">
        <ele>539</ele>
        <time>2010-07-18T15:31:57Z</time>
      </trkpt>
      <trkpt lat="44.08961" lon="5.95552">
        <ele>537</ele>
        <time>2010-07-18T15:32:05Z</time>
      </trkpt>
      <trkpt lat="44.08973" lon="5.95581">
        <ele>537</ele>
        <time>2010-07-18T15:32:13Z</time>
      </trkpt>
      <trkpt lat="44.08984" lon="5.95612">
        <ele>537</ele>
        <time>2010-07-18T15:32:20Z</time>
      </trkpt>
      <trkpt lat="44.08983" lon="5.95649">
        <ele>540</ele>
        <time>2010-07-18T15:32:27Z</time>
      </trkpt>
      <trkpt lat="44.08971" lon="5.95687">
        <ele>543</ele>
        <time>2010-07-18T15:32:35Z</time>
      </trkpt>
      <trkpt lat="44.0896" lon="5.95724">
        <ele>546</ele>
        <time>2010-07-18T15:32:43Z</time>
      </trkpt>
      <trkpt lat="44.08952" lon="5.95758">
        <ele>546</ele>
        <time>2010-07-18T15:32:50Z</time>
      </trkpt>
      <trkpt lat="44.08947" lon="5.95798">
        <ele>547</ele>
        <time>2010-07-18T15:32:58Z</time>
      </trkpt>
      <trkpt lat="44.08945" lon="5.95834">
        <ele>548</ele>
        <time>2010-07-18T15:33:05Z</time>
      </trkpt>
      <trkpt lat="44.08949" lon="5.95873">
        <ele>549</ele>
        <time>2010-07-18T15:33:13Z</time>
      </trkpt>
      <trkpt lat="44.08954" lon="5.95909">
        <ele>550</ele>
        <time>2010-07-18T15:33:20Z</time>
      </trkpt>
      <trkpt lat="44.08966" lon="5.95947">
        <ele>550</ele>
        <time>2010-07-18T15:33:28Z</time>
      </trkpt>
      <trkpt lat="44.08976" lon="5.95973">
        <ele>553</ele>
        <time>2010-07-18T15:33:35Z</time>
      </trkpt>
      <trkpt lat="44.08971" lon="5.96002">
        <ele>555</ele>
        <time>2010-07-18T15:33:43Z</time>
      </trkpt>
      <trkpt lat="44.08962" lon="5.96025">
        <ele>555</ele>
        <time>2010-07-18T15:33:50Z</time>
      </trkpt>
      <trkpt lat="44.08952" lon="5.96051">
        <ele>556</ele>
        <time>2010-07-18T15:33:58Z</time>
      </trkpt>
      <trkpt lat="44.08944" lon="5.96074">
        <ele>556</ele>
        <time>2010-07-18T15:34:05Z</time>
      </trkpt>
      <trkpt lat="44.08933" lon="5.961">
        <ele>556</ele>
        <time>2010-07-18T15:34:13Z</time>
      </trkpt>
      <trkpt lat="44.08923" lon="5.96123">
        <ele>557</ele>
        <time>2010-07-18T15:34:20Z</time>
      </trkpt>
      <trkpt lat="44.08912" lon="5.96149">
        <ele>559</ele>
        <time>2010-07-18T15:34:28Z</time>
      </trkpt>
      <trkpt lat="44.08902" lon="5.96172">
        <ele>561</ele>
        <time>2010-07-18T15:34:35Z</time>
      </trkpt>
      <trkpt lat="44.08889" lon="5.96196">
        <ele>562</ele>
        <time>2010-07-18T15:34:43Z</time>
      </trkpt>
      <trkpt lat="44.08881" lon="5.96218">
        <ele>564</ele>
        <time>2010-07-18T15:34:50Z</time>
      </trkpt>
      <trkpt lat="44.0887" lon="5.96245">
        <ele>565</ele>
        <time>2010-07-18T15:34:58Z</time>
      </trkpt>
      <trkpt lat="44.08862" lon="5.9627">
        <ele>567</ele>
        <time>2010-07-18T15:35:05Z</time>
      </trkpt>
      <trkpt lat="44.08853" lon="5.96298">
        <ele>567</ele>
        <time>2010-07-18T15:35:13Z</time>
      </trkpt>
      <trkpt lat="44.08843" lon="5.9632">
        <ele>568</ele>
        <time>2010-07-18T15:35:20Z</time>
      </trkpt>
      <trkpt lat="44.08839" lon="5.96349">
        <ele>569</ele>
        <time>2010-07-18T15:35:28Z</time>
      </trkpt>
      <trkpt lat="44.08838" lon="5.96375">
        <ele>572</ele>
        <time>2010-07-18T15:35:35Z</time>
      </trkpt>
      <trkpt lat="44.08844" lon="5.96404">
        <ele>572</ele>
        <time>2010-07-18T15:35:43Z</time>
      </trkpt>
      <trkpt lat="44.08858" lon="5.96424">
        <ele>573</ele>
        <time>2010-07-18T15:35:50Z</time>
      </trkpt>
      <trkpt lat="44.08874" lon="5.96446">
        <ele>575</ele>
        <time>2010-07-18T15:35:58Z</time>
      </trkpt>
      <trkpt lat="44.08889" lon="5.96463">
        <ele>577</ele>
        <time>2010-07-18T15:36:05Z</time>
      </trkpt>
      <trkpt lat="44.089" lon="5.96477">
        <ele>579</ele>
        <time>2010-07-18T15:36:23Z</time>
      </trkpt>
      <trkpt lat="44.08916" lon="5.96485">
        <ele>579</ele>
        <time>2010-07-18T15:36:30Z</time>
      </trkpt>
      <trkpt lat="44.08939" lon="5.96495">
        <ele>579</ele>
        <time>2010-07-18T15:36:38Z</time>
      </trkpt>
      <trkpt lat="44.0896" lon="5.96507">
        <ele>579</ele>
        <time>2010-07-18T15:36:45Z</time>
      </trkpt>
      <trkpt lat="44.08984" lon="5.96521">
        <ele>579</ele>
        <time>2010-07-18T15:36:53Z</time>
      </trkpt>
      <trkpt lat="44.09003" lon="5.96531">
        <ele>579</ele>
        <time>2010-07-18T15:37:00Z</time>
      </trkpt>
      <trkpt lat="44.0903" lon="5.96539">
        <ele>579</ele>
        <time>2010-07-18T15:37:08Z</time>
      </trkpt>
      <trkpt lat="44.09063" lon="5.9655">
        <ele>579</ele>
        <time>2010-07-18T15:37:15Z</time>
      </trkpt>
      <trkpt lat="44.09119" lon="5.9656">
        <ele>579</ele>
        <time>2010-07-18T15:37:27Z</time>
      </trkpt>
      <trkpt lat="44.09161" lon="5.96582">
        <ele>579</ele>
        <time>2010-07-18T15:37:35Z</time>
      </trkpt>
      <trkpt lat="44.09157" lon="5.9662">
        <ele>579</ele>
        <time>2010-07-18T15:37:43Z</time>
      </trkpt>
      <trkpt lat="44.09128" lon="5.96643">
        <ele>579</ele>
        <time>2010-07-18T15:37:52Z</time>
      </trkpt>
      <trkpt lat="44.09101" lon="5.96639">
        <ele>579</ele>
        <time>2010-07-18T15:38:00Z</time>
      </trkpt>
      <trkpt lat="44.09062" lon="5.96646">
        <ele>579</ele>
        <time>2010-07-18T15:38:08Z</time>
      </trkpt>
      <trkpt lat="44.09033" lon="5.96694">
        <ele>578</ele>
        <time>2010-07-18T15:38:15Z</time>
      </trkpt>
      <trkpt lat="44.0899" lon="5.96727">
        <ele>574</ele>
        <time>2010-07-18T15:38:24Z</time>
      </trkpt>
      <trkpt lat="44.08949" lon="5.96746">
        <ele>573</ele>
        <time>2010-07-18T15:38:33Z</time>
      </trkpt>
      <trkpt lat="44.08894" lon="5.96762">
        <ele>570</ele>
        <time>2010-07-18T15:38:40Z</time>
      </trkpt>
      <trkpt lat="44.08885" lon="5.96819">
        <ele>566</ele>
        <time>2010-07-18T15:38:49Z</time>
      </trkpt>
      <trkpt lat="44.08874" lon="5.96854">
        <ele>563</ele>
        <time>2010-07-18T15:38:57Z</time>
      </trkpt>
      <trkpt lat="44.08849" lon="5.96863">
        <ele>560</ele>
        <time>2010-07-18T15:39:06Z</time>
      </trkpt>
      <trkpt lat="44.08843" lon="5.96871">
        <ele>560</ele>
        <time>2010-07-18T15:39:13Z</time>
      </trkpt>
      <trkpt lat="44.08828" lon="5.96882">
        <ele>560</ele>
        <time>2010-07-18T15:39:21Z</time>
      </trkpt>
      <trkpt lat="44.08811" lon="5.96882">
        <ele>563</ele>
        <time>2010-07-18T15:39:28Z</time>
      </trkpt>
      <trkpt lat="44.08793" lon="5.9689">
        <ele>565</ele>
        <time>2010-07-18T15:39:36Z</time>
      </trkpt>
      <trkpt lat="44.08786" lon="5.96907">
        <ele>566</ele>
        <time>2010-07-18T15:39:44Z</time>
      </trkpt>
      <trkpt lat="44.08774" lon="5.96924">
        <ele>568</ele>
        <time>2010-07-18T15:39:54Z</time>
      </trkpt>
      <trkpt lat="44.0876" lon="5.96934">
        <ele>569</ele>
        <time>2010-07-18T15:40:01Z</time>
      </trkpt>
      <trkpt lat="44.08755" lon="5.96942">
        <ele>570</ele>
        <time>2010-07-18T15:40:09Z</time>
      </trkpt>
      <trkpt lat="44.08738" lon="5.96968">
        <ele>572</ele>
        <time>2010-07-18T15:40:18Z</time>
      </trkpt>
      <trkpt lat="44.08722" lon="5.96981">
        <ele>574</ele>
        <time>2010-07-18T15:40:25Z</time>
      </trkpt>
      <trkpt lat="44.08697" lon="5.97001">
        <ele>575</ele>
        <time>2010-07-18T15:40:34Z</time>
      </trkpt>
      <trkpt lat="44.08681" lon="5.97013">
        <ele>575</ele>
        <time>2010-07-18T15:40:43Z</time>
      </trkpt>
      <trkpt lat="44.08647" lon="5.97041">
        <ele>577</ele>
        <time>2010-07-18T15:40:55Z</time>
      </trkpt>
      <trkpt lat="44.0862" lon="5.9707">
        <ele>578</ele>
        <time>2010-07-18T15:41:03Z</time>
      </trkpt>
      <trkpt lat="44.08613" lon="5.9708">
        <ele>580</ele>
        <time>2010-07-18T15:41:10Z</time>
      </trkpt>
      <trkpt lat="44.08596" lon="5.97113">
        <ele>582</ele>
        <time>2010-07-18T15:41:17Z</time>
      </trkpt>
      <trkpt lat="44.08591" lon="5.97138">
        <ele>584</ele>
        <time>2010-07-18T15:41:24Z</time>
      </trkpt>
      <trkpt lat="44.08584" lon="5.97185">
        <ele>584</ele>
        <time>2010-07-18T15:41:32Z</time>
      </trkpt>
      <trkpt lat="44.08582" lon="5.97196">
        <ele>584</ele>
        <time>2010-07-18T15:41:39Z</time>
      </trkpt>
      <trkpt lat="44.08571" lon="5.97238">
        <ele>587</ele>
        <time>2010-07-18T15:41:47Z</time>
      </trkpt>
      <trkpt lat="44.08562" lon="5.97265">
        <ele>589</ele>
        <time>2010-07-18T15:41:55Z</time>
      </trkpt>
      <trkpt lat="44.08564" lon="5.97316">
        <ele>591</ele>
        <time>2010-07-18T15:42:03Z</time>
      </trkpt>
      <trkpt lat="44.08567" lon="5.97328">
        <ele>592</ele>
        <time>2010-07-18T15:42:10Z</time>
      </trkpt>
      <trkpt lat="44.08576" lon="5.97373">
        <ele>592</ele>
        <time>2010-07-18T15:42:17Z</time>
      </trkpt>
      <trkpt lat="44.08561" lon="5.97405">
        <ele>592</ele>
        <time>2010-07-18T15:42:26Z</time>
      </trkpt>
      <trkpt lat="44.08539" lon="5.9746">
        <ele>592</ele>
        <time>2010-07-18T15:42:34Z</time>
      </trkpt>
      <trkpt lat="44.08532" lon="5.97484">
        <ele>592</ele>
        <time>2010-07-18T15:42:41Z</time>
      </trkpt>
      <trkpt lat="44.08519" lon="5.9752">
        <ele>593</ele>
        <time>2010-07-18T15:42:48Z</time>
      </trkpt>
      <trkpt lat="44.08512" lon="5.97564">
        <ele>595</ele>
        <time>2010-07-18T15:42:56Z</time>
      </trkpt>
      <trkpt lat="44.08522" lon="5.97631">
        <ele>595</ele>
        <time>2010-07-18T15:43:05Z</time>
      </trkpt>
      <trkpt lat="44.08544" lon="5.97667">
        <ele>595</ele>
        <time>2010-07-18T15:43:12Z</time>
      </trkpt>
      <trkpt lat="44.08575" lon="5.97732">
        <ele>594</ele>
        <time>2010-07-18T15:43:19Z</time>
      </trkpt>
      <trkpt lat="44.08627" lon="5.97852">
        <ele>591</ele>
        <time>2010-07-18T15:43:27Z</time>
      </trkpt>
      <trkpt lat="44.08639" lon="5.97881">
        <ele>589</ele>
        <time>2010-07-18T15:43:34Z</time>
      </trkpt>
      <trkpt lat="44.08708" lon="5.9794">
        <ele>582</ele>
        <time>2010-07-18T15:43:43Z</time>
      </trkpt>
      <trkpt lat="44.0878" lon="5.97972">
        <ele>577</ele>
        <time>2010-07-18T15:43:50Z</time>
      </trkpt>
      <trkpt lat="44.08826" lon="5.97984">
        <ele>573</ele>
        <time>2010-07-18T15:43:57Z</time>
      </trkpt>
      <trkpt lat="44.08879" lon="5.97994">
        <ele>570</ele>
        <time>2010-07-18T15:44:05Z</time>
      </trkpt>
      <trkpt lat="44.08883" lon="5.98008">
        <ele>566</ele>
        <time>2010-07-18T15:44:13Z</time>
      </trkpt>
      <trkpt lat="44.08888" lon="5.98043">
        <ele>562</ele>
        <time>2010-07-18T15:44:21Z</time>
      </trkpt>
      <trkpt lat="44.08888" lon="5.98108">
        <ele>558</ele>
        <time>2010-07-18T15:44:29Z</time>
      </trkpt>
      <trkpt lat="44.08888" lon="5.982">
        <ele>553</ele>
        <time>2010-07-18T15:44:36Z</time>
      </trkpt>
      <trkpt lat="44.08887" lon="5.98308">
        <ele>547</ele>
        <time>2010-07-18T15:44:44Z</time>
      </trkpt>
      <trkpt lat="44.089" lon="5.98362">
        <ele>543</ele>
        <time>2010-07-18T15:44:54Z</time>
      </trkpt>
      <trkpt lat="44.08894" lon="5.9842">
        <ele>540</ele>
        <time>2010-07-18T15:45:02Z</time>
      </trkpt>
      <trkpt lat="44.08894" lon="5.98441">
        <ele>540</ele>
        <time>2010-07-18T15:45:09Z</time>
      </trkpt>
      <trkpt lat="44.08876" lon="5.98481">
        <ele>540</ele>
        <time>2010-07-18T15:45:19Z</time>
      </trkpt>
      <trkpt lat="44.08868" lon="5.98501">
        <ele>541</ele>
        <time>2010-07-18T15:45:27Z</time>
      </trkpt>
      <trkpt lat="44.08861" lon="5.98519">
        <ele>542</ele>
        <time>2010-07-18T15:45:34Z</time>
      </trkpt>
      <trkpt lat="44.08851" lon="5.98536">
        <ele>543</ele>
        <time>2010-07-18T15:45:42Z</time>
      </trkpt>
      <trkpt lat="44.08841" lon="5.98553">
        <ele>545</ele>
        <time>2010-07-18T15:45:50Z</time>
      </trkpt>
      <trkpt lat="44.08831" lon="5.98573">
        <ele>545</ele>
        <time>2010-07-18T15:45:59Z</time>
      </trkpt>
      <trkpt lat="44.08822" lon="5.98595">
        <ele>545</ele>
        <time>2010-07-18T15:46:10Z</time>
      </trkpt>
      <trkpt lat="44.08813" lon="5.98619">
        <ele>545</ele>
        <time>2010-07-18T15:46:17Z</time>
      </trkpt>
      <trkpt lat="44.08802" lon="5.98649">
        <ele>545</ele>
        <time>2010-07-18T15:46:25Z</time>
      </trkpt>
      <trkpt lat="44.08801" lon="5.9866">
        <ele>545</ele>
        <time>2010-07-18T15:46:32Z</time>
      </trkpt>
      <trkpt lat="44.08801" lon="5.98667">
        <ele>545</ele>
        <time>2010-07-18T15:46:52Z</time>
      </trkpt>
      <trkpt lat="44.08802" lon="5.98665">
        <ele>546</ele>
        <time>2010-07-18T15:47:10Z</time>
      </trkpt>
      <trkpt lat="44.08802" lon="5.98663">
        <ele>548</ele>
        <time>2010-07-18T15:47:18Z</time>
      </trkpt>
      <trkpt lat="44.08802" lon="5.98661">
        <ele>551</ele>
        <time>2010-07-18T15:47:27Z</time>
      </trkpt>
      <trkpt lat="44.08801" lon="5.98663">
        <ele>552</ele>
        <time>2010-07-18T15:47:45Z</time>
      </trkpt>
      <trkpt lat="44.088" lon="5.98663">
        <ele>552</ele>
        <time>2010-07-18T15:48:09Z</time>
      </trkpt>
      <trkpt lat="44.088" lon="5.98664">
        <ele>552</ele>
        <time>2010-07-18T15:48:28Z</time>
      </trkpt>
      <trkpt lat="44.08801" lon="5.98666">
        <ele>552</ele>
        <time>2010-07-18T15:48:53Z</time>
      </trkpt>
      <trkpt lat="44.08802" lon="5.98666">
        <ele>549</ele>
        <time>2010-07-18T15:49:20Z</time>
      </trkpt>
      <trkpt lat="44.08802" lon="5.98664">
        <ele>547</ele>
        <time>2010-07-18T15:49:54Z</time>
      </trkpt>
      <trkpt lat="44.08808" lon="5.98668">
        <ele>547</ele>
        <time>2010-07-18T15:50:15Z</time>
      </trkpt>
      <trkpt lat="44.08819" lon="5.98678">
        <ele>547</ele>
        <time>2010-07-18T15:50:22Z</time>
      </trkpt>
      <trkpt lat="44.08845" lon="5.98697">
        <ele>547</ele>
        <time>2010-07-18T15:50:30Z</time>
      </trkpt>
      <trkpt lat="44.08868" lon="5.98713">
        <ele>547</ele>
        <time>2010-07-18T15:50:38Z</time>
      </trkpt>
      <trkpt lat="44.08896" lon="5.98732">
        <ele>547</ele>
        <time>2010-07-18T15:50:46Z</time>
      </trkpt>
      <trkpt lat="44.08919" lon="5.9875">
        <ele>547</ele>
        <time>2010-07-18T15:50:53Z</time>
      </trkpt>
      <trkpt lat="44.08945" lon="5.98776">
        <ele>547</ele>
        <time>2010-07-18T15:51:00Z</time>
      </trkpt>
      <trkpt lat="44.08981" lon="5.98819">
        <ele>547</ele>
        <time>2010-07-18T15:51:07Z</time>
      </trkpt>
      <trkpt lat="44.09021" lon="5.9887">
        <ele>544</ele>
        <time>2010-07-18T15:51:14Z</time>
      </trkpt>
      <trkpt lat="44.09076" lon="5.98901">
        <ele>542</ele>
        <time>2010-07-18T15:51:21Z</time>
      </trkpt>
      <trkpt lat="44.09129" lon="5.98924">
        <ele>540</ele>
        <time>2010-07-18T15:51:28Z</time>
      </trkpt>
      <trkpt lat="44.09178" lon="5.98935">
        <ele>538</ele>
        <time>2010-07-18T15:51:35Z</time>
      </trkpt>
      <trkpt lat="44.09219" lon="5.98908">
        <ele>537</ele>
        <time>2010-07-18T15:51:42Z</time>
      </trkpt>
      <trkpt lat="44.09259" lon="5.98902">
        <ele>536</ele>
        <time>2010-07-18T15:51:49Z</time>
      </trkpt>
      <trkpt lat="44.09279" lon="5.9893">
        <ele>535</ele>
        <time>2010-07-18T15:51:56Z</time>
      </trkpt>
      <trkpt lat="44.09271" lon="5.98971">
        <ele>535</ele>
        <time>2010-07-18T15:52:03Z</time>
      </trkpt>
      <trkpt lat="44.09267" lon="5.99013">
        <ele>535</ele>
        <time>2010-07-18T15:52:10Z</time>
      </trkpt>
      <trkpt lat="44.09264" lon="5.99057">
        <ele>535</ele>
        <time>2010-07-18T15:52:17Z</time>
      </trkpt>
      <trkpt lat="44.09263" lon="5.99105">
        <ele>535</ele>
        <time>2010-07-18T15:52:24Z</time>
      </trkpt>
      <trkpt lat="44.09261" lon="5.99156">
        <ele>535</ele>
        <time>2010-07-18T15:52:31Z</time>
      </trkpt>
      <trkpt lat="44.09259" lon="5.99213">
        <ele>535</ele>
        <time>2010-07-18T15:52:38Z</time>
      </trkpt>
      <trkpt lat="44.09263" lon="5.99265">
        <ele>535</ele>
        <time>2010-07-18T15:52:45Z</time>
      </trkpt>
      <trkpt lat="44.09248" lon="5.99277">
        <ele>535</ele>
        <time>2010-07-18T15:52:52Z</time>
      </trkpt>
      <trkpt lat="44.09243" lon="5.9925">
        <ele>535</ele>
        <time>2010-07-18T15:52:59Z</time>
      </trkpt>
      <trkpt lat="44.09232" lon="5.99216">
        <ele>535</ele>
        <time>2010-07-18T15:53:06Z</time>
      </trkpt>
      <trkpt lat="44.09222" lon="5.992">
        <ele>535</ele>
        <time>2010-07-18T15:53:13Z</time>
      </trkpt>
      <trkpt lat="44.09222" lon="5.99198">
        <ele>535</ele>
        <time>2010-07-18T15:53:21Z</time>
      </trkpt>
      <trkpt lat="44.09222" lon="5.99197">
        <ele>535</ele>
        <time>2010-07-18T15:53:28Z</time>
      </trkpt>
      <trkpt lat="44.09222" lon="5.99195">
        <ele>535</ele>
        <time>2010-07-18T15:53:38Z</time>
      </trkpt>
      <trkpt lat="44.09222" lon="5.99197">
        <ele>536</ele>
        <time>2010-07-18T15:53:54Z</time>
      </trkpt>
      <trkpt lat="44.09233" lon="5.99216">
        <ele>537</ele>
        <time>2010-07-18T15:54:01Z</time>
      </trkpt>
      <trkpt lat="44.0924" lon="5.99239">
        <ele>537</ele>
        <time>2010-07-18T15:54:08Z</time>
      </trkpt>
      <trkpt lat="44.09245" lon="5.99265">
        <ele>537</ele>
        <time>2010-07-18T15:54:15Z</time>
      </trkpt>
      <trkpt lat="44.09234" lon="5.99286">
        <ele>537</ele>
        <time>2010-07-18T15:54:22Z</time>
      </trkpt>
      <trkpt lat="44.09218" lon="5.99274">
        <ele>537</ele>
        <time>2010-07-18T15:54:29Z</time>
      </trkpt>
      <trkpt lat="44.09198" lon="5.99258">
        <ele>538</ele>
        <time>2010-07-18T15:54:36Z</time>
      </trkpt>
      <trkpt lat="44.09173" lon="5.99243">
        <ele>538</ele>
        <time>2010-07-18T15:54:43Z</time>
      </trkpt>
      <trkpt lat="44.09145" lon="5.99235">
        <ele>538</ele>
        <time>2010-07-18T15:54:50Z</time>
      </trkpt>
      <trkpt lat="44.09117" lon="5.99231">
        <ele>538</ele>
        <time>2010-07-18T15:54:57Z</time>
      </trkpt>
      <trkpt lat="44.09081" lon="5.9923">
        <ele>538</ele>
        <time>2010-07-18T15:55:04Z</time>
      </trkpt>
      <trkpt lat="44.09046" lon="5.99233">
        <ele>536</ele>
        <time>2010-07-18T15:55:11Z</time>
      </trkpt>
      <trkpt lat="44.09003" lon="5.99239">
        <ele>533</ele>
        <time>2010-07-18T15:55:18Z</time>
      </trkpt>
      <trkpt lat="44.08962" lon="5.99246">
        <ele>531</ele>
        <time>2010-07-18T15:55:25Z</time>
      </trkpt>
      <trkpt lat="44.08923" lon="5.99246">
        <ele>531</ele>
        <time>2010-07-18T15:55:32Z</time>
      </trkpt>
      <trkpt lat="44.08879" lon="5.99254">
        <ele>529</ele>
        <time>2010-07-18T15:55:39Z</time>
      </trkpt>
      <trkpt lat="44.0884" lon="5.99268">
        <ele>529</ele>
        <time>2010-07-18T15:55:46Z</time>
      </trkpt>
      <trkpt lat="44.08805" lon="5.99281">
        <ele>528</ele>
        <time>2010-07-18T15:55:53Z</time>
      </trkpt>
      <trkpt lat="44.08773" lon="5.9929">
        <ele>527</ele>
        <time>2010-07-18T15:56:00Z</time>
      </trkpt>
      <trkpt lat="44.08744" lon="5.99289">
        <ele>527</ele>
        <time>2010-07-18T15:56:07Z</time>
      </trkpt>
      <trkpt lat="44.08714" lon="5.99279">
        <ele>527</ele>
        <time>2010-07-18T15:56:14Z</time>
      </trkpt>
      <trkpt lat="44.08677" lon="5.99265">
        <ele>525</ele>
        <time>2010-07-18T15:56:21Z</time>
      </trkpt>
      <trkpt lat="44.08643" lon="5.99297">
        <ele>521</ele>
        <time>2010-07-18T15:56:28Z</time>
      </trkpt>
      <trkpt lat="44.08601" lon="5.99321">
        <ele>519</ele>
        <time>2010-07-18T15:56:35Z</time>
      </trkpt>
      <trkpt lat="44.08562" lon="5.99339">
        <ele>517</ele>
        <time>2010-07-18T15:56:42Z</time>
      </trkpt>
      <trkpt lat="44.08523" lon="5.99333">
        <ele>517</ele>
        <time>2010-07-18T15:56:49Z</time>
      </trkpt>
      <trkpt lat="44.0847" lon="5.99309">
        <ele>517</ele>
        <time>2010-07-18T15:56:56Z</time>
      </trkpt>
      <trkpt lat="44.08417" lon="5.99288">
        <ele>517</ele>
        <time>2010-07-18T15:57:03Z</time>
      </trkpt>
      <trkpt lat="44.08364" lon="5.99265">
        <ele>513</ele>
        <time>2010-07-18T15:57:10Z</time>
      </trkpt>
      <trkpt lat="44.08319" lon="5.99245">
        <ele>506</ele>
        <time>2010-07-18T15:57:17Z</time>
      </trkpt>
      <trkpt lat="44.08277" lon="5.99235">
        <ele>500</ele>
        <time>2010-07-18T15:57:24Z</time>
      </trkpt>
      <trkpt lat="44.08224" lon="5.99238">
        <ele>496</ele>
        <time>2010-07-18T15:57:31Z</time>
      </trkpt>
      <trkpt lat="44.08172" lon="5.99244">
        <ele>491</ele>
        <time>2010-07-18T15:57:38Z</time>
      </trkpt>
      <trkpt lat="44.08117" lon="5.99257">
        <ele>484</ele>
        <time>2010-07-18T15:57:45Z</time>
      </trkpt>
      <trkpt lat="44.08066" lon="5.99268">
        <ele>477</ele>
        <time>2010-07-18T15:57:52Z</time>
      </trkpt>
      <trkpt lat="44.08044" lon="5.99286">
        <ele>474</ele>
        <time>2010-07-18T15:57:59Z</time>
      </trkpt>
      <trkpt lat="44.08044" lon="5.99285">
        <ele>474</ele>
        <time>2010-07-18T15:58:06Z</time>
      </trkpt>
      <trkpt lat="44.08045" lon="5.99282">
        <ele>474</ele>
        <time>2010-07-18T15:58:23Z</time>
      </trkpt>
      <trkpt lat="44.08044" lon="5.9928">
        <ele>474</ele>
        <time>2010-07-18T15:58:34Z</time>
      </trkpt>
      <trkpt lat="44.08046" lon="5.99282">
        <ele>472</ele>
        <time>2010-07-18T15:59:00Z</time>
      </trkpt>
      <trkpt lat="44.08046" lon="5.99283">
        <ele>471</ele>
        <time>2010-07-18T15:59:07Z</time>
      </trkpt>
      <trkpt lat="44.08049" lon="5.99273">
        <ele>471</ele>
        <time>2010-07-18T15:59:14Z</time>
      </trkpt>
      <trkpt lat="44.08062" lon="5.99264">
        <ele>471</ele>
        <time>2010-07-18T15:59:21Z</time>
      </trkpt>
      <trkpt lat="44.08065" lon="5.99258">
        <ele>472</ele>
        <time>2010-07-18T15:59:36Z</time>
      </trkpt>
      <trkpt lat="44.08068" lon="5.99258">
        <ele>474</ele>
        <time>2010-07-18T15:59:50Z</time>
      </trkpt>
      <trkpt lat="44.08069" lon="5.99259">
        <ele>474</ele>
        <time>2010-07-18T15:59:57Z</time>
      </trkpt>
      <trkpt lat="44.0807" lon="5.9926">
        <ele>474</ele>
        <time>2010-07-18T16:00:11Z</time>
      </trkpt>
      <trkpt lat="44.08052" lon="5.99276">
        <ele>474</ele>
        <time>2010-07-18T16:00:22Z</time>
      </trkpt>
      <trkpt lat="44.08044" lon="5.99302">
        <ele>474</ele>
        <time>2010-07-18T16:00:30Z</time>
      </trkpt>
      <trkpt lat="44.08036" lon="5.99329">
        <ele>474</ele>
        <time>2010-07-18T16:00:38Z</time>
      </trkpt>
      <trkpt lat="44.08028" lon="5.99343">
        <ele>475</ele>
        <time>2010-07-18T16:00:45Z</time>
      </trkpt>
      <trkpt lat="44.08021" lon="5.99359">
        <ele>477</ele>
        <time>2010-07-18T16:00:53Z</time>
      </trkpt>
      <trkpt lat="44.08018" lon="5.99371">
        <ele>477</ele>
        <time>2010-07-18T16:01:00Z</time>
      </trkpt>
      <trkpt lat="44.08013" lon="5.99389">
        <ele>478</ele>
        <time>2010-07-18T16:01:07Z</time>
      </trkpt>
      <trkpt lat="44.08012" lon="5.99398">
        <ele>481</ele>
        <time>2010-07-18T16:01:18Z</time>
      </trkpt>
      <trkpt lat="44.08021" lon="5.99367">
        <ele>481</ele>
        <time>2010-07-18T16:01:25Z</time>
      </trkpt>
      <trkpt lat="44.08043" lon="5.99325">
        <ele>481</ele>
        <time>2010-07-18T16:01:32Z</time>
      </trkpt>
      <trkpt lat="44.08048" lon="5.99287">
        <ele>481</ele>
        <time>2010-07-18T16:01:39Z</time>
      </trkpt>
      <trkpt lat="44.08062" lon="5.99267">
        <ele>481</ele>
        <time>2010-07-18T16:01:46Z</time>
      </trkpt>
      <trkpt lat="44.08051" lon="5.9926">
        <ele>480</ele>
        <time>2010-07-18T16:01:53Z</time>
      </trkpt>
      <trkpt lat="44.08036" lon="5.99264">
        <ele>475</ele>
        <time>2010-07-18T16:02:00Z</time>
      </trkpt>
      <trkpt lat="44.08033" lon="5.99282">
        <ele>475</ele>
        <time>2010-07-18T16:02:07Z</time>
      </trkpt>
      <trkpt lat="44.08031" lon="5.99303">
        <ele>472</ele>
        <time>2010-07-18T16:02:14Z</time>
      </trkpt>
      <trkpt lat="44.08028" lon="5.9931">
        <ele>472</ele>
        <time>2010-07-18T16:02:21Z</time>
      </trkpt>
      <trkpt lat="44.08024" lon="5.99316">
        <ele>473</ele>
        <time>2010-07-18T16:02:32Z</time>
      </trkpt>
      <trkpt lat="44.08023" lon="5.99318">
        <ele>473</ele>
        <time>2010-07-18T16:02:39Z</time>
      </trkpt>
      <trkpt lat="44.08025" lon="5.99323">
        <ele>477</ele>
        <time>2010-07-18T16:02:46Z</time>
      </trkpt>
      <trkpt lat="44.08027" lon="5.99328">
        <ele>480</ele>
        <time>2010-07-18T16:02:55Z</time>
      </trkpt>
      <trkpt lat="44.08027" lon="5.99327">
        <ele>483</ele>
        <time>2010-07-18T16:03:04Z</time>
      </trkpt>
      <trkpt lat="44.08027" lon="5.99323">
        <ele>488</ele>
        <time>2010-07-18T16:03:15Z</time>
      </trkpt>
      <trkpt lat="44.08026" lon="5.99322">
        <ele>490</ele>
        <time>2010-07-18T16:03:22Z</time>
      </trkpt>
      <trkpt lat="44.08027" lon="5.99323">
        <ele>493</ele>
        <time>2010-07-18T16:03:46Z</time>
      </trkpt>
      <trkpt lat="44.08024" lon="5.99338">
        <ele>489</ele>
        <time>2010-07-18T16:03:53Z</time>
      </trkpt>
      <trkpt lat="44.08017" lon="5.99355">
        <ele>489</ele>
        <time>2010-07-18T16:04:00Z</time>
      </trkpt>
      <trkpt lat="44.08014" lon="5.99368">
        <ele>488</ele>
        <time>2010-07-18T16:04:07Z</time>
      </trkpt>
      <trkpt lat="44.08011" lon="5.99387">
        <ele>487</ele>
        <time>2010-07-18T16:04:14Z</time>
      </trkpt>
      <trkpt lat="44.08009" lon="5.99408">
        <ele>487</ele>
        <time>2010-07-18T16:04:21Z</time>
      </trkpt>
      <trkpt lat="44.0801" lon="5.99427">
        <ele>487</ele>
        <time>2010-07-18T16:04:28Z</time>
      </trkpt>
      <trkpt lat="44.08012" lon="5.99448">
        <ele>487</ele>
        <time>2010-07-18T16:04:35Z</time>
      </trkpt>
      <trkpt lat="44.08004" lon="5.99467">
        <ele>487</ele>
        <time>2010-07-18T16:04:42Z</time>
      </trkpt>
      <trkpt lat="44.07987" lon="5.99492">
        <ele>486</ele>
        <time>2010-07-18T16:04:49Z</time>
      </trkpt>
      <trkpt lat="44.07969" lon="5.99509">
        <ele>486</ele>
        <time>2010-07-18T16:04:56Z</time>
      </trkpt>
      <trkpt lat="44.07951" lon="5.99536">
        <ele>485</ele>
        <time>2010-07-18T16:05:03Z</time>
      </trkpt>
      <trkpt lat="44.07932" lon="5.99552">
        <ele>484</ele>
        <time>2010-07-18T16:05:10Z</time>
      </trkpt>
      <trkpt lat="44.07916" lon="5.99579">
        <ele>483</ele>
        <time>2010-07-18T16:05:17Z</time>
      </trkpt>
      <trkpt lat="44.07898" lon="5.99607">
        <ele>482</ele>
        <time>2010-07-18T16:05:24Z</time>
      </trkpt>
      <trkpt lat="44.0788" lon="5.99625">
        <ele>482</ele>
        <time>2010-07-18T16:05:35Z</time>
      </trkpt>
      <trkpt lat="44.0787" lon="5.99647">
        <ele>482</ele>
        <time>2010-07-18T16:05:42Z</time>
      </trkpt>
      <trkpt lat="44.0785" lon="5.99681">
        <ele>482</ele>
        <time>2010-07-18T16:05:49Z</time>
      </trkpt>
      <trkpt lat="44.07858" lon="5.99698">
        <ele>482</ele>
        <time>2010-07-18T16:05:56Z</time>
      </trkpt>
      <trkpt lat="44.07847" lon="5.99694">
        <ele>482</ele>
        <time>2010-07-18T16:06:03Z</time>
      </trkpt>
      <trkpt lat="44.07834" lon="5.99713">
        <ele>482</ele>
        <time>2010-07-18T16:06:10Z</time>
      </trkpt>
      <trkpt lat="44.07833" lon="5.99684">
        <ele>482</ele>
        <time>2010-07-18T16:06:17Z</time>
      </trkpt>
      <trkpt lat="44.07848" lon="5.9965">
        <ele>482</ele>
        <time>2010-07-18T16:06:24Z</time>
      </trkpt>
      <trkpt lat="44.07867" lon="5.99616">
        <ele>480</ele>
        <time>2010-07-18T16:06:31Z</time>
      </trkpt>
      <trkpt lat="44.07892" lon="5.99581">
        <ele>475</ele>
        <time>2010-07-18T16:06:38Z</time>
      </trkpt>
      <trkpt lat="44.07921" lon="5.99542">
        <ele>470</ele>
        <time>2010-07-18T16:06:45Z</time>
      </trkpt>
      <trkpt lat="44.07952" lon="5.99498">
        <ele>467</ele>
        <time>2010-07-18T16:06:52Z</time>
      </trkpt>
      <trkpt lat="44.07967" lon="5.99439">
        <ele>467</ele>
        <time>2010-07-18T16:06:59Z</time>
      </trkpt>
      <trkpt lat="44.07945" lon="5.99397">
        <ele>467</ele>
        <time>2010-07-18T16:07:06Z</time>
      </trkpt>
      <trkpt lat="44.07918" lon="5.99387">
        <ele>467</ele>
        <time>2010-07-18T16:07:13Z</time>
      </trkpt>
      <trkpt lat="44.07893" lon="5.99402">
        <ele>467</ele>
        <time>2010-07-18T16:07:20Z</time>
      </trkpt>
      <trkpt lat="44.07872" lon="5.99418">
        <ele>467</ele>
        <time>2010-07-18T16:07:27Z</time>
      </trkpt>
      <trkpt lat="44.07848" lon="5.99417">
        <ele>467</ele>
        <time>2010-07-18T16:07:34Z</time>
      </trkpt>
      <trkpt lat="44.07824" lon="5.99411">
        <ele>467</ele>
        <time>2010-07-18T16:07:41Z</time>
      </trkpt>
      <trkpt lat="44.07801" lon="5.99404">
        <ele>467</ele>
        <time>2010-07-18T16:07:48Z</time>
      </trkpt>
      <trkpt lat="44.07779" lon="5.99406">
        <ele>468</ele>
        <time>2010-07-18T16:07:55Z</time>
      </trkpt>
      <trkpt lat="44.07755" lon="5.99415">
        <ele>469</ele>
        <time>2010-07-18T16:08:02Z</time>
      </trkpt>
      <trkpt lat="44.07735" lon="5.99432">
        <ele>469</ele>
        <time>2010-07-18T16:08:09Z</time>
      </trkpt>
      <trkpt lat="44.07715" lon="5.9945">
        <ele>469</ele>
        <time>2010-07-18T16:08:16Z</time>
      </trkpt>
      <trkpt lat="44.07694" lon="5.99464">
        <ele>470</ele>
        <time>2010-07-18T16:08:23Z</time>
      </trkpt>
      <trkpt lat="44.07668" lon="5.9947">
        <ele>471</ele>
        <time>2010-07-18T16:08:30Z</time>
      </trkpt>
      <trkpt lat="44.07639" lon="5.99458">
        <ele>471</ele>
        <time>2010-07-18T16:08:37Z</time>
      </trkpt>
      <trkpt lat="44.07614" lon="5.99432">
        <ele>472</ele>
        <time>2010-07-18T16:08:44Z</time>
      </trkpt>
      <trkpt lat="44.07589" lon="5.994">
        <ele>473</ele>
        <time>2010-07-18T16:08:51Z</time>
      </trkpt>
      <trkpt lat="44.07563" lon="5.99364">
        <ele>473</ele>
        <time>2010-07-18T16:08:58Z</time>
      </trkpt>
      <trkpt lat="44.07534" lon="5.99327">
        <ele>473</ele>
        <time>2010-07-18T16:09:05Z</time>
      </trkpt>
      <trkpt lat="44.07505" lon="5.9929">
        <ele>473</ele>
        <time>2010-07-18T16:09:12Z</time>
      </trkpt>
      <trkpt lat="44.07478" lon="5.99255">
        <ele>473</ele>
        <time>2010-07-18T16:09:19Z</time>
      </trkpt>
      <trkpt lat="44.07464" lon="5.99237">
        <ele>473</ele>
        <time>2010-07-18T16:09:26Z</time>
      </trkpt>
      <trkpt lat="44.07449" lon="5.99216">
        <ele>474</ele>
        <time>2010-07-18T16:09:33Z</time>
      </trkpt>
      <trkpt lat="44.07421" lon="5.99182">
        <ele>475</ele>
        <time>2010-07-18T16:09:40Z</time>
      </trkpt>
      <trkpt lat="44.07393" lon="5.99146">
        <ele>475</ele>
        <time>2010-07-18T16:09:47Z</time>
      </trkpt>
      <trkpt lat="44.07363" lon="5.99108">
        <ele>475</ele>
        <time>2010-07-18T16:09:54Z</time>
      </trkpt>
      <trkpt lat="44.07333" lon="5.99072">
        <ele>474</ele>
        <time>2010-07-18T16:10:01Z</time>
      </trkpt>
      <trkpt lat="44.07304" lon="5.99033">
        <ele>474</ele>
        <time>2010-07-18T16:10:09Z</time>
      </trkpt>
      <trkpt lat="44.0728" lon="5.99033">
        <ele>474</ele>
        <time>2010-07-18T16:10:16Z</time>
      </trkpt>
      <trkpt lat="44.07286" lon="5.99054">
        <ele>473</ele>
        <time>2010-07-18T16:10:23Z</time>
      </trkpt>
      <trkpt lat="44.07302" lon="5.9904">
        <ele>472</ele>
        <time>2010-07-18T16:10:30Z</time>
      </trkpt>
      <trkpt lat="44.07282" lon="5.99008">
        <ele>472</ele>
        <time>2010-07-18T16:10:37Z</time>
      </trkpt>
      <trkpt lat="44.07257" lon="5.98969">
        <ele>472</ele>
        <time>2010-07-18T16:10:44Z</time>
      </trkpt>
      <trkpt lat="44.0723" lon="5.98932">
        <ele>472</ele>
        <time>2010-07-18T16:10:51Z</time>
      </trkpt>
      <trkpt lat="44.07199" lon="5.98891">
        <ele>472</ele>
        <time>2010-07-18T16:10:58Z</time>
      </trkpt>
      <trkpt lat="44.07166" lon="5.9885">
        <ele>470</ele>
        <time>2010-07-18T16:11:05Z</time>
      </trkpt>
      <trkpt lat="44.07133" lon="5.98806">
        <ele>469</ele>
        <time>2010-07-18T16:11:13Z</time>
      </trkpt>
      <trkpt lat="44.07114" lon="5.9878">
        <ele>468</ele>
        <time>2010-07-18T16:11:20Z</time>
      </trkpt>
      <trkpt lat="44.07098" lon="5.9879">
        <ele>468</ele>
        <time>2010-07-18T16:11:28Z</time>
      </trkpt>
      <trkpt lat="44.07082" lon="5.98835">
        <ele>466</ele>
        <time>2010-07-18T16:11:35Z</time>
      </trkpt>
      <trkpt lat="44.07053" lon="5.98883">
        <ele>462</ele>
        <time>2010-07-18T16:11:42Z</time>
      </trkpt>
      <trkpt lat="44.07019" lon="5.98933">
        <ele>459</ele>
        <time>2010-07-18T16:11:49Z</time>
      </trkpt>
      <trkpt lat="44.06987" lon="5.98983">
        <ele>457</ele>
        <time>2010-07-18T16:11:57Z</time>
      </trkpt>
      <trkpt lat="44.06955" lon="5.99029">
        <ele>456</ele>
        <time>2010-07-18T16:12:05Z</time>
      </trkpt>
      <trkpt lat="44.06933" lon="5.99067">
        <ele>455</ele>
        <time>2010-07-18T16:12:12Z</time>
      </trkpt>
      <trkpt lat="44.0691" lon="5.99095">
        <ele>455</ele>
        <time>2010-07-18T16:12:20Z</time>
      </trkpt>
      <trkpt lat="44.06915" lon="5.99087">
        <ele>455</ele>
        <time>2010-07-18T16:12:27Z</time>
      </trkpt>
      <trkpt lat="44.06932" lon="5.99059">
        <ele>455</ele>
        <time>2010-07-18T16:12:34Z</time>
      </trkpt>
      <trkpt lat="44.06951" lon="5.99028">
        <ele>455</ele>
        <time>2010-07-18T16:12:41Z</time>
      </trkpt>
      <trkpt lat="44.06968" lon="5.98989">
        <ele>455</ele>
        <time>2010-07-18T16:12:49Z</time>
      </trkpt>
      <trkpt lat="44.06943" lon="5.98965">
        <ele>455</ele>
        <time>2010-07-18T16:12:57Z</time>
      </trkpt>
      <trkpt lat="44.06908" lon="5.98966">
        <ele>455</ele>
        <time>2010-07-18T16:13:04Z</time>
      </trkpt>
      <trkpt lat="44.06871" lon="5.98967">
        <ele>455</ele>
        <time>2010-07-18T16:13:11Z</time>
      </trkpt>
      <trkpt lat="44.06834" lon="5.98969">
        <ele>455</ele>
        <time>2010-07-18T16:13:18Z</time>
      </trkpt>
      <trkpt lat="44.06798" lon="5.98968">
        <ele>456</ele>
        <time>2010-07-18T16:13:25Z</time>
      </trkpt>
      <trkpt lat="44.06757" lon="5.98963">
        <ele>457</ele>
        <time>2010-07-18T16:13:33Z</time>
      </trkpt>
      <trkpt lat="44.06723" lon="5.98948">
        <ele>457</ele>
        <time>2010-07-18T16:13:40Z</time>
      </trkpt>
      <trkpt lat="44.06688" lon="5.98931">
        <ele>457</ele>
        <time>2010-07-18T16:13:48Z</time>
      </trkpt>
      <trkpt lat="44.06673" lon="5.98895">
        <ele>457</ele>
        <time>2010-07-18T16:13:55Z</time>
      </trkpt>
      <trkpt lat="44.0667" lon="5.98848">
        <ele>457</ele>
        <time>2010-07-18T16:14:02Z</time>
      </trkpt>
      <trkpt lat="44.06654" lon="5.98825">
        <ele>457</ele>
        <time>2010-07-18T16:14:09Z</time>
      </trkpt>
      <trkpt lat="44.06628" lon="5.98865">
        <ele>457</ele>
        <time>2010-07-18T16:14:17Z</time>
      </trkpt>
      <trkpt lat="44.06607" lon="5.989">
        <ele>457</ele>
        <time>2010-07-18T16:14:24Z</time>
      </trkpt>
      <trkpt lat="44.06581" lon="5.98939">
        <ele>457</ele>
        <time>2010-07-18T16:14:32Z</time>
      </trkpt>
      <trkpt lat="44.06559" lon="5.98972">
        <ele>457</ele>
        <time>2010-07-18T16:14:39Z</time>
      </trkpt>
      <trkpt lat="44.06526" lon="5.98956">
        <ele>457</ele>
        <time>2010-07-18T16:14:47Z</time>
      </trkpt>
      <trkpt lat="44.06493" lon="5.98963">
        <ele>457</ele>
        <time>2010-07-18T16:14:54Z</time>
      </trkpt>
      <trkpt lat="44.06454" lon="5.98969">
        <ele>457</ele>
        <time>2010-07-18T16:15:02Z</time>
      </trkpt>
      <trkpt lat="44.0643" lon="5.98968">
        <ele>457</ele>
        <time>2010-07-18T16:15:09Z</time>
      </trkpt>
      <trkpt lat="44.06407" lon="5.98984">
        <ele>457</ele>
        <time>2010-07-18T16:15:17Z</time>
      </trkpt>
      <trkpt lat="44.06387" lon="5.98978">
        <ele>457</ele>
        <time>2010-07-18T16:15:24Z</time>
      </trkpt>
      <trkpt lat="44.06369" lon="5.98978">
        <ele>457</ele>
        <time>2010-07-18T16:15:32Z</time>
      </trkpt>
      <trkpt lat="44.06365" lon="5.98979">
        <ele>457</ele>
        <time>2010-07-18T16:15:43Z</time>
      </trkpt>
      <trkpt lat="44.06366" lon="5.98978">
        <ele>457</ele>
        <time>2010-07-18T16:15:45Z</time>
      </trkpt>
    </trkseg>
  </trk>
</gpx>